<?xml version="1.0" encoding="UTF-8" standalone="no" ?>
<gpx xmlns="http://www.topografix.com/GPX/1/1" xmlns:xsi="http://www.w3.org/2001/XMLSchema-instance" xsi:schemaLocation="http://www.topografix.com/GPX/1/1 http://www.topografix.com/GPX/1/1/gpx.xsd" version="1.1" creator="VisuGPX - https://www.visugpx.com">
  <metadata>
    <name>Traversée De La Chartreuse</name>
    <desc><![CDATA[Traversée de la Chartreuse depuis le col du Granier jusqu\'au col de la Charmette. 
- Passage par le refuge de L\'Alpette
- Habert Saint Vincent
- Col de Bellefont
- Cheminée du Paradis
- Trou du Glaz
- Col du Coq
- Col des Emeindras
- Habert de Chamechaude
- Cabane des Bachassons 
- Col de Porte
- Mont Fromage
- Charmant Som 
- Col de la Charmette]]></desc>
  </metadata>
  <trk>
    <name><![CDATA[28-MAI-12 03:42:33 PM]]></name>
    <trkseg>
      <trkpt lat="45.4823" lon="5.92956">
        <ele>788.9</ele>
        <time>2012-05-26T08:13:29Z</time>
      </trkpt>
      <trkpt lat="45.48255" lon="5.92927">
        <ele>789.38</ele>
        <time>2012-05-26T08:13:59Z</time>
      </trkpt>
      <trkpt lat="45.48114" lon="5.93136">
        <ele>789.86</ele>
        <time>2012-05-26T08:14:29Z</time>
      </trkpt>
      <trkpt lat="45.48048" lon="5.9319">
        <ele>789.38</ele>
        <time>2012-05-26T08:14:59Z</time>
      </trkpt>
      <trkpt lat="45.48021" lon="5.93213">
        <ele>789.38</ele>
        <time>2012-05-26T08:15:29Z</time>
      </trkpt>
      <trkpt lat="45.4802" lon="5.93262">
        <ele>789.38</ele>
        <time>2012-05-26T08:15:59Z</time>
      </trkpt>
      <trkpt lat="45.48009" lon="5.93271">
        <ele>789.86</ele>
        <time>2012-05-26T08:16:29Z</time>
      </trkpt>
      <trkpt lat="45.48006" lon="5.93272">
        <ele>787.46</ele>
        <time>2012-05-26T08:16:59Z</time>
      </trkpt>
      <trkpt lat="45.48032" lon="5.93249">
        <ele>786.98</ele>
        <time>2012-05-26T08:17:28Z</time>
      </trkpt>
      <trkpt lat="45.48032" lon="5.93249">
        <ele>796.11</ele>
        <time>2012-05-26T08:17:58Z</time>
      </trkpt>
      <trkpt lat="45.48042" lon="5.93248">
        <ele>788.42</ele>
        <time>2012-05-26T08:18:28Z</time>
      </trkpt>
      <trkpt lat="45.48044" lon="5.93244">
        <ele>791.78</ele>
        <time>2012-05-26T08:18:57Z</time>
      </trkpt>
      <trkpt lat="45.4805" lon="5.93231">
        <ele>788.9</ele>
        <time>2012-05-26T08:19:27Z</time>
      </trkpt>
      <trkpt lat="45.48055" lon="5.93223">
        <ele>789.38</ele>
        <time>2012-05-26T08:19:57Z</time>
      </trkpt>
      <trkpt lat="45.48064" lon="5.93216">
        <ele>788.9</ele>
        <time>2012-05-26T08:20:27Z</time>
      </trkpt>
      <trkpt lat="45.48067" lon="5.93216">
        <ele>788.42</ele>
        <time>2012-05-26T08:20:57Z</time>
      </trkpt>
      <trkpt lat="45.48063" lon="5.93224">
        <ele>788.42</ele>
        <time>2012-05-26T08:21:26Z</time>
      </trkpt>
      <trkpt lat="45.48075" lon="5.93204">
        <ele>793.22</ele>
        <time>2012-05-26T08:21:56Z</time>
      </trkpt>
      <trkpt lat="45.48077" lon="5.93162">
        <ele>799.47</ele>
        <time>2012-05-26T08:22:26Z</time>
      </trkpt>
      <trkpt lat="45.48082" lon="5.93116">
        <ele>803.8</ele>
        <time>2012-05-26T08:22:56Z</time>
      </trkpt>
      <trkpt lat="45.4808" lon="5.93075">
        <ele>807.16</ele>
        <time>2012-05-26T08:23:26Z</time>
      </trkpt>
      <trkpt lat="45.48076" lon="5.93043">
        <ele>811.97</ele>
        <time>2012-05-26T08:23:55Z</time>
      </trkpt>
      <trkpt lat="45.48068" lon="5.9302">
        <ele>814.85</ele>
        <time>2012-05-26T08:24:25Z</time>
      </trkpt>
      <trkpt lat="45.48063" lon="5.92995">
        <ele>819.66</ele>
        <time>2012-05-26T08:24:54Z</time>
      </trkpt>
      <trkpt lat="45.48051" lon="5.92984">
        <ele>823.99</ele>
        <time>2012-05-26T08:25:24Z</time>
      </trkpt>
      <trkpt lat="45.48009" lon="5.9302">
        <ele>826.39</ele>
        <time>2012-05-26T08:25:54Z</time>
      </trkpt>
      <trkpt lat="45.48006" lon="5.93023">
        <ele>824.95</ele>
        <time>2012-05-26T08:25:56Z</time>
      </trkpt>
      <trkpt lat="45.47996" lon="5.93032">
        <ele>825.91</ele>
        <time>2012-05-26T08:26:26Z</time>
      </trkpt>
      <trkpt lat="45.47983" lon="5.93047">
        <ele>827.83</ele>
        <time>2012-05-26T08:26:56Z</time>
      </trkpt>
      <trkpt lat="45.47978" lon="5.93023">
        <ele>828.31</ele>
        <time>2012-05-26T08:27:26Z</time>
      </trkpt>
      <trkpt lat="45.4797" lon="5.93015">
        <ele>829.76</ele>
        <time>2012-05-26T08:27:56Z</time>
      </trkpt>
      <trkpt lat="45.47954" lon="5.93041">
        <ele>830.72</ele>
        <time>2012-05-26T08:28:25Z</time>
      </trkpt>
      <trkpt lat="45.47933" lon="5.93152">
        <ele>831.2</ele>
        <time>2012-05-26T08:28:55Z</time>
      </trkpt>
      <trkpt lat="45.47938" lon="5.93163">
        <ele>832.64</ele>
        <time>2012-05-26T08:29:25Z</time>
      </trkpt>
      <trkpt lat="45.47972" lon="5.93147">
        <ele>833.12</ele>
        <time>2012-05-26T08:29:54Z</time>
      </trkpt>
      <trkpt lat="45.47976" lon="5.93198">
        <ele>834.56</ele>
        <time>2012-05-26T08:30:24Z</time>
      </trkpt>
      <trkpt lat="45.47975" lon="5.93215">
        <ele>835.52</ele>
        <time>2012-05-26T08:30:54Z</time>
      </trkpt>
      <trkpt lat="45.47944" lon="5.93274">
        <ele>836</ele>
        <time>2012-05-26T08:31:24Z</time>
      </trkpt>
      <trkpt lat="45.47931" lon="5.93307">
        <ele>838.41</ele>
        <time>2012-05-26T08:31:54Z</time>
      </trkpt>
      <trkpt lat="45.47876" lon="5.93451">
        <ele>841.77</ele>
        <time>2012-05-26T08:32:23Z</time>
      </trkpt>
      <trkpt lat="45.47838" lon="5.93495">
        <ele>848.02</ele>
        <time>2012-05-26T08:32:53Z</time>
      </trkpt>
      <trkpt lat="45.47822" lon="5.93496">
        <ele>854.27</ele>
        <time>2012-05-26T08:33:23Z</time>
      </trkpt>
      <trkpt lat="45.47824" lon="5.93488">
        <ele>859.56</ele>
        <time>2012-05-26T08:33:52Z</time>
      </trkpt>
      <trkpt lat="45.4781" lon="5.93503">
        <ele>866.29</ele>
        <time>2012-05-26T08:34:22Z</time>
      </trkpt>
      <trkpt lat="45.47787" lon="5.93495">
        <ele>871.57</ele>
        <time>2012-05-26T08:34:52Z</time>
      </trkpt>
      <trkpt lat="45.47775" lon="5.935">
        <ele>876.38</ele>
        <time>2012-05-26T08:35:22Z</time>
      </trkpt>
      <trkpt lat="45.4777" lon="5.9352">
        <ele>881.67</ele>
        <time>2012-05-26T08:35:51Z</time>
      </trkpt>
      <trkpt lat="45.47746" lon="5.93562">
        <ele>882.63</ele>
        <time>2012-05-26T08:36:21Z</time>
      </trkpt>
      <trkpt lat="45.47743" lon="5.93574">
        <ele>889.36</ele>
        <time>2012-05-26T08:36:51Z</time>
      </trkpt>
      <trkpt lat="45.4771" lon="5.93609">
        <ele>893.2</ele>
        <time>2012-05-26T08:37:21Z</time>
      </trkpt>
      <trkpt lat="45.47671" lon="5.93714">
        <ele>895.61</ele>
        <time>2012-05-26T08:37:51Z</time>
      </trkpt>
      <trkpt lat="45.47656" lon="5.93753">
        <ele>902.33</ele>
        <time>2012-05-26T08:38:20Z</time>
      </trkpt>
      <trkpt lat="45.47616" lon="5.93857">
        <ele>907.14</ele>
        <time>2012-05-26T08:38:51Z</time>
      </trkpt>
      <trkpt lat="45.47564" lon="5.93983">
        <ele>911.47</ele>
        <time>2012-05-26T08:39:21Z</time>
      </trkpt>
      <trkpt lat="45.47524" lon="5.94027">
        <ele>916.75</ele>
        <time>2012-05-26T08:39:51Z</time>
      </trkpt>
      <trkpt lat="45.47453" lon="5.94085">
        <ele>923</ele>
        <time>2012-05-26T08:40:21Z</time>
      </trkpt>
      <trkpt lat="45.47387" lon="5.94201">
        <ele>926.85</ele>
        <time>2012-05-26T08:40:51Z</time>
      </trkpt>
      <trkpt lat="45.4731" lon="5.94349">
        <ele>932.14</ele>
        <time>2012-05-26T08:41:21Z</time>
      </trkpt>
      <trkpt lat="45.47245" lon="5.94472">
        <ele>936.94</ele>
        <time>2012-05-26T08:41:51Z</time>
      </trkpt>
      <trkpt lat="45.47211" lon="5.94497">
        <ele>943.19</ele>
        <time>2012-05-26T08:42:21Z</time>
      </trkpt>
      <trkpt lat="45.47195" lon="5.9449">
        <ele>947.52</ele>
        <time>2012-05-26T08:42:51Z</time>
      </trkpt>
      <trkpt lat="45.47177" lon="5.94477">
        <ele>954.73</ele>
        <time>2012-05-26T08:43:21Z</time>
      </trkpt>
      <trkpt lat="45.47157" lon="5.94461">
        <ele>960.49</ele>
        <time>2012-05-26T08:43:51Z</time>
      </trkpt>
      <trkpt lat="45.47131" lon="5.94469">
        <ele>964.82</ele>
        <time>2012-05-26T08:44:21Z</time>
      </trkpt>
      <trkpt lat="45.47112" lon="5.94473">
        <ele>969.63</ele>
        <time>2012-05-26T08:44:51Z</time>
      </trkpt>
      <trkpt lat="45.4709" lon="5.94479">
        <ele>972.99</ele>
        <time>2012-05-26T08:45:21Z</time>
      </trkpt>
      <trkpt lat="45.47065" lon="5.94467">
        <ele>974.43</ele>
        <time>2012-05-26T08:45:51Z</time>
      </trkpt>
      <trkpt lat="45.47039" lon="5.94458">
        <ele>981.64</ele>
        <time>2012-05-26T08:46:21Z</time>
      </trkpt>
      <trkpt lat="45.47042" lon="5.94453">
        <ele>985.97</ele>
        <time>2012-05-26T08:46:51Z</time>
      </trkpt>
      <trkpt lat="45.47033" lon="5.94434">
        <ele>993.18</ele>
        <time>2012-05-26T08:47:21Z</time>
      </trkpt>
      <trkpt lat="45.47018" lon="5.94441">
        <ele>999.43</ele>
        <time>2012-05-26T08:47:51Z</time>
      </trkpt>
      <trkpt lat="45.47022" lon="5.94435">
        <ele>1002.31</ele>
        <time>2012-05-26T08:48:21Z</time>
      </trkpt>
      <trkpt lat="45.47018" lon="5.94409">
        <ele>1005.2</ele>
        <time>2012-05-26T08:48:51Z</time>
      </trkpt>
      <trkpt lat="45.47017" lon="5.94405">
        <ele>1012.41</ele>
        <time>2012-05-26T08:49:21Z</time>
      </trkpt>
      <trkpt lat="45.47037" lon="5.94396">
        <ele>1017.69</ele>
        <time>2012-05-26T08:49:51Z</time>
      </trkpt>
      <trkpt lat="45.47064" lon="5.94378">
        <ele>1022.98</ele>
        <time>2012-05-26T08:50:21Z</time>
      </trkpt>
      <trkpt lat="45.47083" lon="5.94346">
        <ele>1027.31</ele>
        <time>2012-05-26T08:50:51Z</time>
      </trkpt>
      <trkpt lat="45.47096" lon="5.94329">
        <ele>1033.07</ele>
        <time>2012-05-26T08:51:21Z</time>
      </trkpt>
      <trkpt lat="45.47111" lon="5.94312">
        <ele>1037.4</ele>
        <time>2012-05-26T08:51:51Z</time>
      </trkpt>
      <trkpt lat="45.4713" lon="5.94293">
        <ele>1041.25</ele>
        <time>2012-05-26T08:52:21Z</time>
      </trkpt>
      <trkpt lat="45.47154" lon="5.94256">
        <ele>1046.53</ele>
        <time>2012-05-26T08:52:51Z</time>
      </trkpt>
      <trkpt lat="45.47157" lon="5.94231">
        <ele>1053.74</ele>
        <time>2012-05-26T08:53:21Z</time>
      </trkpt>
      <trkpt lat="45.47158" lon="5.94202">
        <ele>1059.03</ele>
        <time>2012-05-26T08:53:51Z</time>
      </trkpt>
      <trkpt lat="45.47153" lon="5.94197">
        <ele>1059.99</ele>
        <time>2012-05-26T08:54:21Z</time>
      </trkpt>
      <trkpt lat="45.47153" lon="5.94197">
        <ele>1062.87</ele>
        <time>2012-05-26T08:54:51Z</time>
      </trkpt>
      <trkpt lat="45.4715" lon="5.94191">
        <ele>1063.36</ele>
        <time>2012-05-26T08:55:21Z</time>
      </trkpt>
      <trkpt lat="45.47147" lon="5.94191">
        <ele>1064.32</ele>
        <time>2012-05-26T08:55:51Z</time>
      </trkpt>
      <trkpt lat="45.47147" lon="5.94189">
        <ele>1065.28</ele>
        <time>2012-05-26T08:56:21Z</time>
      </trkpt>
      <trkpt lat="45.47149" lon="5.94189">
        <ele>1065.76</ele>
        <time>2012-05-26T08:56:51Z</time>
      </trkpt>
      <trkpt lat="45.47149" lon="5.94189">
        <ele>1065.76</ele>
        <time>2012-05-26T08:57:21Z</time>
      </trkpt>
      <trkpt lat="45.47149" lon="5.94189">
        <ele>1066.24</ele>
        <time>2012-05-26T08:57:51Z</time>
      </trkpt>
      <trkpt lat="45.47149" lon="5.94189">
        <ele>1067.2</ele>
        <time>2012-05-26T08:58:21Z</time>
      </trkpt>
      <trkpt lat="45.47149" lon="5.94189">
        <ele>1067.68</ele>
        <time>2012-05-26T08:58:51Z</time>
      </trkpt>
      <trkpt lat="45.47149" lon="5.94189">
        <ele>1068.16</ele>
        <time>2012-05-26T08:59:21Z</time>
      </trkpt>
      <trkpt lat="45.47146" lon="5.9419">
        <ele>1068.64</ele>
        <time>2012-05-26T08:59:51Z</time>
      </trkpt>
      <trkpt lat="45.47148" lon="5.94188">
        <ele>1068.64</ele>
        <time>2012-05-26T09:00:21Z</time>
      </trkpt>
      <trkpt lat="45.47148" lon="5.94188">
        <ele>1069.6</ele>
        <time>2012-05-26T09:00:51Z</time>
      </trkpt>
      <trkpt lat="45.47148" lon="5.94189">
        <ele>1069.6</ele>
        <time>2012-05-26T09:01:21Z</time>
      </trkpt>
      <trkpt lat="45.47148" lon="5.94188">
        <ele>1070.08</ele>
        <time>2012-05-26T09:01:51Z</time>
      </trkpt>
      <trkpt lat="45.47148" lon="5.94188">
        <ele>1070.08</ele>
        <time>2012-05-26T09:02:21Z</time>
      </trkpt>
      <trkpt lat="45.47148" lon="5.94188">
        <ele>1070.57</ele>
        <time>2012-05-26T09:02:51Z</time>
      </trkpt>
      <trkpt lat="45.47149" lon="5.94189">
        <ele>1071.05</ele>
        <time>2012-05-26T09:03:21Z</time>
      </trkpt>
      <trkpt lat="45.47149" lon="5.94188">
        <ele>1071.53</ele>
        <time>2012-05-26T09:03:51Z</time>
      </trkpt>
      <trkpt lat="45.47147" lon="5.94187">
        <ele>1072.49</ele>
        <time>2012-05-26T09:04:21Z</time>
      </trkpt>
      <trkpt lat="45.47122" lon="5.94189">
        <ele>1077.29</ele>
        <time>2012-05-26T09:04:51Z</time>
      </trkpt>
      <trkpt lat="45.47106" lon="5.94192">
        <ele>1083.54</ele>
        <time>2012-05-26T09:05:21Z</time>
      </trkpt>
      <trkpt lat="45.47085" lon="5.94188">
        <ele>1089.31</ele>
        <time>2012-05-26T09:05:51Z</time>
      </trkpt>
      <trkpt lat="45.47061" lon="5.94183">
        <ele>1095.56</ele>
        <time>2012-05-26T09:06:21Z</time>
      </trkpt>
      <trkpt lat="45.4705" lon="5.94181">
        <ele>1101.33</ele>
        <time>2012-05-26T09:06:51Z</time>
      </trkpt>
      <trkpt lat="45.47024" lon="5.94177">
        <ele>1107.1</ele>
        <time>2012-05-26T09:07:21Z</time>
      </trkpt>
      <trkpt lat="45.4701" lon="5.94171">
        <ele>1112.86</ele>
        <time>2012-05-26T09:07:51Z</time>
      </trkpt>
      <trkpt lat="45.47005" lon="5.9417">
        <ele>1118.15</ele>
        <time>2012-05-26T09:08:21Z</time>
      </trkpt>
      <trkpt lat="45.47012" lon="5.94163">
        <ele>1124.4</ele>
        <time>2012-05-26T09:08:51Z</time>
      </trkpt>
      <trkpt lat="45.47018" lon="5.94144">
        <ele>1128.73</ele>
        <time>2012-05-26T09:09:21Z</time>
      </trkpt>
      <trkpt lat="45.47026" lon="5.94108">
        <ele>1134.01</ele>
        <time>2012-05-26T09:09:51Z</time>
      </trkpt>
      <trkpt lat="45.4701" lon="5.94101">
        <ele>1138.34</ele>
        <time>2012-05-26T09:10:21Z</time>
      </trkpt>
      <trkpt lat="45.47013" lon="5.94104">
        <ele>1143.63</ele>
        <time>2012-05-26T09:10:51Z</time>
      </trkpt>
      <trkpt lat="45.47004" lon="5.94079">
        <ele>1148.43</ele>
        <time>2012-05-26T09:11:21Z</time>
      </trkpt>
      <trkpt lat="45.4698" lon="5.94073">
        <ele>1151.8</ele>
        <time>2012-05-26T09:11:51Z</time>
      </trkpt>
      <trkpt lat="45.46982" lon="5.94077">
        <ele>1157.56</ele>
        <time>2012-05-26T09:12:21Z</time>
      </trkpt>
      <trkpt lat="45.46968" lon="5.94055">
        <ele>1162.37</ele>
        <time>2012-05-26T09:12:51Z</time>
      </trkpt>
      <trkpt lat="45.46945" lon="5.94048">
        <ele>1168.14</ele>
        <time>2012-05-26T09:13:21Z</time>
      </trkpt>
      <trkpt lat="45.46933" lon="5.9405">
        <ele>1172.95</ele>
        <time>2012-05-26T09:13:51Z</time>
      </trkpt>
      <trkpt lat="45.46933" lon="5.94047">
        <ele>1178.23</ele>
        <time>2012-05-26T09:14:21Z</time>
      </trkpt>
      <trkpt lat="45.46921" lon="5.94023">
        <ele>1181.6</ele>
        <time>2012-05-26T09:14:51Z</time>
      </trkpt>
      <trkpt lat="45.4691" lon="5.94027">
        <ele>1185.44</ele>
        <time>2012-05-26T09:15:21Z</time>
      </trkpt>
      <trkpt lat="45.46906" lon="5.94017">
        <ele>1190.73</ele>
        <time>2012-05-26T09:15:51Z</time>
      </trkpt>
      <trkpt lat="45.46888" lon="5.94014">
        <ele>1196.02</ele>
        <time>2012-05-26T09:16:21Z</time>
      </trkpt>
      <trkpt lat="45.46878" lon="5.94014">
        <ele>1200.34</ele>
        <time>2012-05-26T09:16:51Z</time>
      </trkpt>
      <trkpt lat="45.46878" lon="5.93999">
        <ele>1204.19</ele>
        <time>2012-05-26T09:17:21Z</time>
      </trkpt>
      <trkpt lat="45.46871" lon="5.93981">
        <ele>1207.55</ele>
        <time>2012-05-26T09:17:51Z</time>
      </trkpt>
      <trkpt lat="45.4687" lon="5.9398">
        <ele>1211.4</ele>
        <time>2012-05-26T09:18:21Z</time>
      </trkpt>
      <trkpt lat="45.46877" lon="5.93968">
        <ele>1215.24</ele>
        <time>2012-05-26T09:18:51Z</time>
      </trkpt>
      <trkpt lat="45.46879" lon="5.93953">
        <ele>1218.61</ele>
        <time>2012-05-26T09:19:21Z</time>
      </trkpt>
      <trkpt lat="45.46864" lon="5.93946">
        <ele>1221.01</ele>
        <time>2012-05-26T09:19:51Z</time>
      </trkpt>
      <trkpt lat="45.46844" lon="5.93952">
        <ele>1224.38</ele>
        <time>2012-05-26T09:20:21Z</time>
      </trkpt>
      <trkpt lat="45.46811" lon="5.93983">
        <ele>1226.3</ele>
        <time>2012-05-26T09:20:51Z</time>
      </trkpt>
      <trkpt lat="45.46791" lon="5.9399">
        <ele>1229.18</ele>
        <time>2012-05-26T09:21:21Z</time>
      </trkpt>
      <trkpt lat="45.46793" lon="5.93995">
        <ele>1233.51</ele>
        <time>2012-05-26T09:21:51Z</time>
      </trkpt>
      <trkpt lat="45.46787" lon="5.93973">
        <ele>1237.35</ele>
        <time>2012-05-26T09:22:21Z</time>
      </trkpt>
      <trkpt lat="45.4677" lon="5.93977">
        <ele>1241.2</ele>
        <time>2012-05-26T09:22:51Z</time>
      </trkpt>
      <trkpt lat="45.46754" lon="5.93987">
        <ele>1246.49</ele>
        <time>2012-05-26T09:23:21Z</time>
      </trkpt>
      <trkpt lat="45.46745" lon="5.93979">
        <ele>1250.81</ele>
        <time>2012-05-26T09:23:51Z</time>
      </trkpt>
      <trkpt lat="45.46731" lon="5.93973">
        <ele>1255.62</ele>
        <time>2012-05-26T09:24:21Z</time>
      </trkpt>
      <trkpt lat="45.46723" lon="5.93973">
        <ele>1261.39</ele>
        <time>2012-05-26T09:24:51Z</time>
      </trkpt>
      <trkpt lat="45.4671" lon="5.93971">
        <ele>1267.16</ele>
        <time>2012-05-26T09:25:21Z</time>
      </trkpt>
      <trkpt lat="45.46688" lon="5.93974">
        <ele>1271.48</ele>
        <time>2012-05-26T09:25:51Z</time>
      </trkpt>
      <trkpt lat="45.4668" lon="5.93958">
        <ele>1275.33</ele>
        <time>2012-05-26T09:26:21Z</time>
      </trkpt>
      <trkpt lat="45.46677" lon="5.9395">
        <ele>1280.61</ele>
        <time>2012-05-26T09:26:51Z</time>
      </trkpt>
      <trkpt lat="45.46664" lon="5.93939">
        <ele>1284.94</ele>
        <time>2012-05-26T09:27:21Z</time>
      </trkpt>
      <trkpt lat="45.46652" lon="5.93932">
        <ele>1291.19</ele>
        <time>2012-05-26T09:27:51Z</time>
      </trkpt>
      <trkpt lat="45.46651" lon="5.93937">
        <ele>1296.48</ele>
        <time>2012-05-26T09:28:21Z</time>
      </trkpt>
      <trkpt lat="45.46657" lon="5.93939">
        <ele>1301.28</ele>
        <time>2012-05-26T09:28:51Z</time>
      </trkpt>
      <trkpt lat="45.46666" lon="5.93918">
        <ele>1307.05</ele>
        <time>2012-05-26T09:29:21Z</time>
      </trkpt>
      <trkpt lat="45.46674" lon="5.93907">
        <ele>1308.97</ele>
        <time>2012-05-26T09:29:51Z</time>
      </trkpt>
      <trkpt lat="45.46673" lon="5.93874">
        <ele>1314.26</ele>
        <time>2012-05-26T09:30:21Z</time>
      </trkpt>
      <trkpt lat="45.46648" lon="5.93869">
        <ele>1319.55</ele>
        <time>2012-05-26T09:30:51Z</time>
      </trkpt>
      <trkpt lat="45.46641" lon="5.93853">
        <ele>1326.28</ele>
        <time>2012-05-26T09:31:21Z</time>
      </trkpt>
      <trkpt lat="45.46645" lon="5.93857">
        <ele>1332.04</ele>
        <time>2012-05-26T09:31:51Z</time>
      </trkpt>
      <trkpt lat="45.46645" lon="5.93854">
        <ele>1336.85</ele>
        <time>2012-05-26T09:32:21Z</time>
      </trkpt>
      <trkpt lat="45.46637" lon="5.93818">
        <ele>1342.14</ele>
        <time>2012-05-26T09:32:51Z</time>
      </trkpt>
      <trkpt lat="45.4663" lon="5.93814">
        <ele>1345.98</ele>
        <time>2012-05-26T09:33:21Z</time>
      </trkpt>
      <trkpt lat="45.46613" lon="5.93801">
        <ele>1350.79</ele>
        <time>2012-05-26T09:33:51Z</time>
      </trkpt>
      <trkpt lat="45.46605" lon="5.93806">
        <ele>1355.6</ele>
        <time>2012-05-26T09:34:21Z</time>
      </trkpt>
      <trkpt lat="45.46608" lon="5.93803">
        <ele>1360.88</ele>
        <time>2012-05-26T09:34:51Z</time>
      </trkpt>
      <trkpt lat="45.46608" lon="5.93803">
        <ele>1360.4</ele>
        <time>2012-05-26T09:35:21Z</time>
      </trkpt>
      <trkpt lat="45.46608" lon="5.93802">
        <ele>1361.36</ele>
        <time>2012-05-26T09:35:51Z</time>
      </trkpt>
      <trkpt lat="45.46609" lon="5.93799">
        <ele>1360.4</ele>
        <time>2012-05-26T09:36:21Z</time>
      </trkpt>
      <trkpt lat="45.46608" lon="5.93797">
        <ele>1361.36</ele>
        <time>2012-05-26T09:36:51Z</time>
      </trkpt>
      <trkpt lat="45.46608" lon="5.93797">
        <ele>1361.36</ele>
        <time>2012-05-26T09:37:21Z</time>
      </trkpt>
      <trkpt lat="45.46609" lon="5.93792">
        <ele>1359.92</ele>
        <time>2012-05-26T09:37:51Z</time>
      </trkpt>
      <trkpt lat="45.4661" lon="5.93784">
        <ele>1365.69</ele>
        <time>2012-05-26T09:38:21Z</time>
      </trkpt>
      <trkpt lat="45.46607" lon="5.93767">
        <ele>1372.9</ele>
        <time>2012-05-26T09:38:51Z</time>
      </trkpt>
      <trkpt lat="45.46606" lon="5.93753">
        <ele>1377.71</ele>
        <time>2012-05-26T09:39:21Z</time>
      </trkpt>
      <trkpt lat="45.46592" lon="5.93753">
        <ele>1382.51</ele>
        <time>2012-05-26T09:39:51Z</time>
      </trkpt>
      <trkpt lat="45.46591" lon="5.93752">
        <ele>1387.32</ele>
        <time>2012-05-26T09:40:21Z</time>
      </trkpt>
      <trkpt lat="45.46596" lon="5.93739">
        <ele>1392.13</ele>
        <time>2012-05-26T09:40:51Z</time>
      </trkpt>
      <trkpt lat="45.46591" lon="5.93729">
        <ele>1397.89</ele>
        <time>2012-05-26T09:41:21Z</time>
      </trkpt>
      <trkpt lat="45.46592" lon="5.93715">
        <ele>1402.7</ele>
        <time>2012-05-26T09:41:51Z</time>
      </trkpt>
      <trkpt lat="45.46594" lon="5.937">
        <ele>1407.99</ele>
        <time>2012-05-26T09:42:21Z</time>
      </trkpt>
      <trkpt lat="45.46596" lon="5.93687">
        <ele>1414.24</ele>
        <time>2012-05-26T09:42:51Z</time>
      </trkpt>
      <trkpt lat="45.46588" lon="5.93674">
        <ele>1418.08</ele>
        <time>2012-05-26T09:43:21Z</time>
      </trkpt>
      <trkpt lat="45.46588" lon="5.93662">
        <ele>1421.45</ele>
        <time>2012-05-26T09:43:51Z</time>
      </trkpt>
      <trkpt lat="45.46588" lon="5.93662">
        <ele>1422.41</ele>
        <time>2012-05-26T09:44:21Z</time>
      </trkpt>
      <trkpt lat="45.46588" lon="5.93662">
        <ele>1421.45</ele>
        <time>2012-05-26T09:44:51Z</time>
      </trkpt>
      <trkpt lat="45.46588" lon="5.93662">
        <ele>1421.45</ele>
        <time>2012-05-26T09:45:21Z</time>
      </trkpt>
      <trkpt lat="45.46588" lon="5.93662">
        <ele>1421.45</ele>
        <time>2012-05-26T09:45:51Z</time>
      </trkpt>
      <trkpt lat="45.46588" lon="5.93662">
        <ele>1421.45</ele>
        <time>2012-05-26T09:46:21Z</time>
      </trkpt>
      <trkpt lat="45.46588" lon="5.93662">
        <ele>1421.45</ele>
        <time>2012-05-26T09:46:51Z</time>
      </trkpt>
      <trkpt lat="45.46589" lon="5.93662">
        <ele>1422.41</ele>
        <time>2012-05-26T09:47:21Z</time>
      </trkpt>
      <trkpt lat="45.46589" lon="5.93662">
        <ele>1422.89</ele>
        <time>2012-05-26T09:47:51Z</time>
      </trkpt>
      <trkpt lat="45.46589" lon="5.93662">
        <ele>1422.41</ele>
        <time>2012-05-26T09:48:21Z</time>
      </trkpt>
      <trkpt lat="45.46589" lon="5.93663">
        <ele>1422.41</ele>
        <time>2012-05-26T09:48:51Z</time>
      </trkpt>
      <trkpt lat="45.46589" lon="5.93662">
        <ele>1422.41</ele>
        <time>2012-05-26T09:49:21Z</time>
      </trkpt>
      <trkpt lat="45.46589" lon="5.93662">
        <ele>1423.85</ele>
        <time>2012-05-26T09:49:51Z</time>
      </trkpt>
      <trkpt lat="45.46589" lon="5.93662">
        <ele>1423.37</ele>
        <time>2012-05-26T09:50:21Z</time>
      </trkpt>
      <trkpt lat="45.46589" lon="5.93663">
        <ele>1423.37</ele>
        <time>2012-05-26T09:50:51Z</time>
      </trkpt>
      <trkpt lat="45.46589" lon="5.93662">
        <ele>1423.37</ele>
        <time>2012-05-26T09:51:21Z</time>
      </trkpt>
      <trkpt lat="45.46589" lon="5.93662">
        <ele>1422.89</ele>
        <time>2012-05-26T09:51:51Z</time>
      </trkpt>
      <trkpt lat="45.46589" lon="5.93663">
        <ele>1422.89</ele>
        <time>2012-05-26T09:52:21Z</time>
      </trkpt>
      <trkpt lat="45.4659" lon="5.9366">
        <ele>1423.37</ele>
        <time>2012-05-26T09:52:51Z</time>
      </trkpt>
      <trkpt lat="45.46589" lon="5.93657">
        <ele>1426.73</ele>
        <time>2012-05-26T09:53:21Z</time>
      </trkpt>
      <trkpt lat="45.46585" lon="5.93646">
        <ele>1430.1</ele>
        <time>2012-05-26T09:53:51Z</time>
      </trkpt>
      <trkpt lat="45.46583" lon="5.93641">
        <ele>1434.91</ele>
        <time>2012-05-26T09:54:21Z</time>
      </trkpt>
      <trkpt lat="45.4658" lon="5.93631">
        <ele>1440.19</ele>
        <time>2012-05-26T09:54:51Z</time>
      </trkpt>
      <trkpt lat="45.46579" lon="5.93623">
        <ele>1445</ele>
        <time>2012-05-26T09:55:21Z</time>
      </trkpt>
      <trkpt lat="45.46572" lon="5.93613">
        <ele>1449.32</ele>
        <time>2012-05-26T09:55:51Z</time>
      </trkpt>
      <trkpt lat="45.46571" lon="5.93609">
        <ele>1455.09</ele>
        <time>2012-05-26T09:56:21Z</time>
      </trkpt>
      <trkpt lat="45.46565" lon="5.93603">
        <ele>1458.94</ele>
        <time>2012-05-26T09:56:51Z</time>
      </trkpt>
      <trkpt lat="45.46561" lon="5.93597">
        <ele>1461.82</ele>
        <time>2012-05-26T09:57:21Z</time>
      </trkpt>
      <trkpt lat="45.46556" lon="5.93596">
        <ele>1463.74</ele>
        <time>2012-05-26T09:57:51Z</time>
      </trkpt>
      <trkpt lat="45.46556" lon="5.93581">
        <ele>1468.55</ele>
        <time>2012-05-26T09:58:21Z</time>
      </trkpt>
      <trkpt lat="45.46547" lon="5.93574">
        <ele>1478.16</ele>
        <time>2012-05-26T09:58:51Z</time>
      </trkpt>
      <trkpt lat="45.46551" lon="5.9356">
        <ele>1482.01</ele>
        <time>2012-05-26T09:59:21Z</time>
      </trkpt>
      <trkpt lat="45.46557" lon="5.9354">
        <ele>1487.78</ele>
        <time>2012-05-26T09:59:51Z</time>
      </trkpt>
      <trkpt lat="45.46556" lon="5.9354">
        <ele>1487.78</ele>
        <time>2012-05-26T10:00:21Z</time>
      </trkpt>
      <trkpt lat="45.46556" lon="5.93539">
        <ele>1487.78</ele>
        <time>2012-05-26T10:00:51Z</time>
      </trkpt>
      <trkpt lat="45.46556" lon="5.93539">
        <ele>1488.26</ele>
        <time>2012-05-26T10:01:21Z</time>
      </trkpt>
      <trkpt lat="45.46556" lon="5.93538">
        <ele>1488.74</ele>
        <time>2012-05-26T10:01:51Z</time>
      </trkpt>
      <trkpt lat="45.46556" lon="5.93538">
        <ele>1488.26</ele>
        <time>2012-05-26T10:02:21Z</time>
      </trkpt>
      <trkpt lat="45.46555" lon="5.93538">
        <ele>1488.26</ele>
        <time>2012-05-26T10:02:51Z</time>
      </trkpt>
      <trkpt lat="45.46555" lon="5.93538">
        <ele>1488.74</ele>
        <time>2012-05-26T10:03:21Z</time>
      </trkpt>
      <trkpt lat="45.46555" lon="5.93538">
        <ele>1488.26</ele>
        <time>2012-05-26T10:03:51Z</time>
      </trkpt>
      <trkpt lat="45.46557" lon="5.93535">
        <ele>1490.66</ele>
        <time>2012-05-26T10:04:21Z</time>
      </trkpt>
      <trkpt lat="45.46561" lon="5.93527">
        <ele>1496.91</ele>
        <time>2012-05-26T10:04:51Z</time>
      </trkpt>
      <trkpt lat="45.46568" lon="5.93507">
        <ele>1501.72</ele>
        <time>2012-05-26T10:05:21Z</time>
      </trkpt>
      <trkpt lat="45.46568" lon="5.93486">
        <ele>1508.93</ele>
        <time>2012-05-26T10:05:51Z</time>
      </trkpt>
      <trkpt lat="45.4657" lon="5.9348">
        <ele>1514.21</ele>
        <time>2012-05-26T10:06:21Z</time>
      </trkpt>
      <trkpt lat="45.46572" lon="5.93473">
        <ele>1519.5</ele>
        <time>2012-05-26T10:06:51Z</time>
      </trkpt>
      <trkpt lat="45.46574" lon="5.93466">
        <ele>1525.27</ele>
        <time>2012-05-26T10:07:21Z</time>
      </trkpt>
      <trkpt lat="45.46568" lon="5.93462">
        <ele>1527.19</ele>
        <time>2012-05-26T10:07:51Z</time>
      </trkpt>
      <trkpt lat="45.46553" lon="5.93479">
        <ele>1528.63</ele>
        <time>2012-05-26T10:08:21Z</time>
      </trkpt>
      <trkpt lat="45.46543" lon="5.93499">
        <ele>1532.48</ele>
        <time>2012-05-26T10:08:51Z</time>
      </trkpt>
      <trkpt lat="45.46543" lon="5.93499">
        <ele>1534.88</ele>
        <time>2012-05-26T10:09:21Z</time>
      </trkpt>
      <trkpt lat="45.46541" lon="5.93499">
        <ele>1534.88</ele>
        <time>2012-05-26T10:09:51Z</time>
      </trkpt>
      <trkpt lat="45.46535" lon="5.935">
        <ele>1533.44</ele>
        <time>2012-05-26T10:10:21Z</time>
      </trkpt>
      <trkpt lat="45.4652" lon="5.93515">
        <ele>1536.32</ele>
        <time>2012-05-26T10:10:51Z</time>
      </trkpt>
      <trkpt lat="45.46509" lon="5.93522">
        <ele>1541.13</ele>
        <time>2012-05-26T10:11:21Z</time>
      </trkpt>
      <trkpt lat="45.465" lon="5.93524">
        <ele>1546.42</ele>
        <time>2012-05-26T10:11:51Z</time>
      </trkpt>
      <trkpt lat="45.46501" lon="5.93524">
        <ele>1551.71</ele>
        <time>2012-05-26T10:12:21Z</time>
      </trkpt>
      <trkpt lat="45.46495" lon="5.93519">
        <ele>1553.63</ele>
        <time>2012-05-26T10:12:51Z</time>
      </trkpt>
      <trkpt lat="45.46473" lon="5.93521">
        <ele>1558.43</ele>
        <time>2012-05-26T10:13:21Z</time>
      </trkpt>
      <trkpt lat="45.46459" lon="5.93523">
        <ele>1564.68</ele>
        <time>2012-05-26T10:13:51Z</time>
      </trkpt>
      <trkpt lat="45.46451" lon="5.93526">
        <ele>1569.01</ele>
        <time>2012-05-26T10:14:21Z</time>
      </trkpt>
      <trkpt lat="45.46436" lon="5.93533">
        <ele>1577.18</ele>
        <time>2012-05-26T10:14:51Z</time>
      </trkpt>
      <trkpt lat="45.46409" lon="5.93548">
        <ele>1577.66</ele>
        <time>2012-05-26T10:15:21Z</time>
      </trkpt>
      <trkpt lat="45.46393" lon="5.93554">
        <ele>1584.87</ele>
        <time>2012-05-26T10:15:51Z</time>
      </trkpt>
      <trkpt lat="45.46394" lon="5.93561">
        <ele>1589.2</ele>
        <time>2012-05-26T10:16:21Z</time>
      </trkpt>
      <trkpt lat="45.46396" lon="5.93583">
        <ele>1592.56</ele>
        <time>2012-05-26T10:16:51Z</time>
      </trkpt>
      <trkpt lat="45.46358" lon="5.93611">
        <ele>1600.25</ele>
        <time>2012-05-26T10:17:21Z</time>
      </trkpt>
      <trkpt lat="45.46346" lon="5.93619">
        <ele>1602.66</ele>
        <time>2012-05-26T10:17:51Z</time>
      </trkpt>
      <trkpt lat="45.46338" lon="5.93632">
        <ele>1606.5</ele>
        <time>2012-05-26T10:18:21Z</time>
      </trkpt>
      <trkpt lat="45.46325" lon="5.93633">
        <ele>1603.14</ele>
        <time>2012-05-26T10:18:51Z</time>
      </trkpt>
      <trkpt lat="45.46329" lon="5.93631">
        <ele>1605.06</ele>
        <time>2012-05-26T10:19:21Z</time>
      </trkpt>
      <trkpt lat="45.46336" lon="5.93631">
        <ele>1609.38</ele>
        <time>2012-05-26T10:19:51Z</time>
      </trkpt>
      <trkpt lat="45.46336" lon="5.93631">
        <ele>1611.31</ele>
        <time>2012-05-26T10:20:21Z</time>
      </trkpt>
      <trkpt lat="45.46336" lon="5.93638">
        <ele>1606.5</ele>
        <time>2012-05-26T10:20:51Z</time>
      </trkpt>
      <trkpt lat="45.46336" lon="5.93639">
        <ele>1606.5</ele>
        <time>2012-05-26T10:21:21Z</time>
      </trkpt>
      <trkpt lat="45.46338" lon="5.93641">
        <ele>1607.46</ele>
        <time>2012-05-26T10:21:51Z</time>
      </trkpt>
      <trkpt lat="45.46339" lon="5.93641">
        <ele>1606.98</ele>
        <time>2012-05-26T10:22:21Z</time>
      </trkpt>
      <trkpt lat="45.46338" lon="5.93641">
        <ele>1606.5</ele>
        <time>2012-05-26T10:22:51Z</time>
      </trkpt>
      <trkpt lat="45.46338" lon="5.9364">
        <ele>1608.9</ele>
        <time>2012-05-26T10:23:21Z</time>
      </trkpt>
      <trkpt lat="45.46338" lon="5.93641">
        <ele>1607.46</ele>
        <time>2012-05-26T10:23:51Z</time>
      </trkpt>
      <trkpt lat="45.46338" lon="5.93641">
        <ele>1608.42</ele>
        <time>2012-05-26T10:24:21Z</time>
      </trkpt>
      <trkpt lat="45.46339" lon="5.93642">
        <ele>1608.42</ele>
        <time>2012-05-26T10:24:51Z</time>
      </trkpt>
      <trkpt lat="45.46339" lon="5.93641">
        <ele>1609.86</ele>
        <time>2012-05-26T10:25:21Z</time>
      </trkpt>
      <trkpt lat="45.46339" lon="5.93641">
        <ele>1609.86</ele>
        <time>2012-05-26T10:25:51Z</time>
      </trkpt>
      <trkpt lat="45.46339" lon="5.93641">
        <ele>1609.38</ele>
        <time>2012-05-26T10:26:21Z</time>
      </trkpt>
      <trkpt lat="45.46339" lon="5.93641">
        <ele>1608.42</ele>
        <time>2012-05-26T10:26:51Z</time>
      </trkpt>
      <trkpt lat="45.46338" lon="5.93639">
        <ele>1607.94</ele>
        <time>2012-05-26T10:27:21Z</time>
      </trkpt>
      <trkpt lat="45.46338" lon="5.9364">
        <ele>1607.46</ele>
        <time>2012-05-26T10:27:51Z</time>
      </trkpt>
      <trkpt lat="45.46338" lon="5.93639">
        <ele>1607.46</ele>
        <time>2012-05-26T10:28:21Z</time>
      </trkpt>
      <trkpt lat="45.4633" lon="5.9364">
        <ele>1607.46</ele>
        <time>2012-05-26T10:28:51Z</time>
      </trkpt>
      <trkpt lat="45.46312" lon="5.9363">
        <ele>1602.17</ele>
        <time>2012-05-26T10:29:21Z</time>
      </trkpt>
      <trkpt lat="45.46292" lon="5.93616">
        <ele>1598.81</ele>
        <time>2012-05-26T10:29:51Z</time>
      </trkpt>
      <trkpt lat="45.46279" lon="5.93599">
        <ele>1604.58</ele>
        <time>2012-05-26T10:30:21Z</time>
      </trkpt>
      <trkpt lat="45.46277" lon="5.93586">
        <ele>1609.38</ele>
        <time>2012-05-26T10:30:51Z</time>
      </trkpt>
      <trkpt lat="45.46259" lon="5.93578">
        <ele>1616.11</ele>
        <time>2012-05-26T10:31:21Z</time>
      </trkpt>
      <trkpt lat="45.4625" lon="5.93572">
        <ele>1620.92</ele>
        <time>2012-05-26T10:31:51Z</time>
      </trkpt>
      <trkpt lat="45.46246" lon="5.93565">
        <ele>1626.21</ele>
        <time>2012-05-26T10:32:21Z</time>
      </trkpt>
      <trkpt lat="45.46247" lon="5.93542">
        <ele>1629.09</ele>
        <time>2012-05-26T10:32:51Z</time>
      </trkpt>
      <trkpt lat="45.46227" lon="5.93518">
        <ele>1634.38</ele>
        <time>2012-05-26T10:33:21Z</time>
      </trkpt>
      <trkpt lat="45.46225" lon="5.93503">
        <ele>1641.11</ele>
        <time>2012-05-26T10:33:51Z</time>
      </trkpt>
      <trkpt lat="45.46218" lon="5.93483">
        <ele>1645.43</ele>
        <time>2012-05-26T10:34:21Z</time>
      </trkpt>
      <trkpt lat="45.46218" lon="5.93471">
        <ele>1649.76</ele>
        <time>2012-05-26T10:34:51Z</time>
      </trkpt>
      <trkpt lat="45.4622" lon="5.9344">
        <ele>1655.53</ele>
        <time>2012-05-26T10:35:21Z</time>
      </trkpt>
      <trkpt lat="45.46204" lon="5.93417">
        <ele>1660.33</ele>
        <time>2012-05-26T10:35:51Z</time>
      </trkpt>
      <trkpt lat="45.46197" lon="5.93408">
        <ele>1665.14</ele>
        <time>2012-05-26T10:36:21Z</time>
      </trkpt>
      <trkpt lat="45.46192" lon="5.93386">
        <ele>1668.99</ele>
        <time>2012-05-26T10:36:51Z</time>
      </trkpt>
      <trkpt lat="45.46189" lon="5.9338">
        <ele>1674.75</ele>
        <time>2012-05-26T10:37:21Z</time>
      </trkpt>
      <trkpt lat="45.46193" lon="5.93372">
        <ele>1681</ele>
        <time>2012-05-26T10:37:51Z</time>
      </trkpt>
      <trkpt lat="45.46197" lon="5.93357">
        <ele>1686.29</ele>
        <time>2012-05-26T10:38:21Z</time>
      </trkpt>
      <trkpt lat="45.46197" lon="5.93334">
        <ele>1691.58</ele>
        <time>2012-05-26T10:38:51Z</time>
      </trkpt>
      <trkpt lat="45.46195" lon="5.93327">
        <ele>1696.86</ele>
        <time>2012-05-26T10:39:21Z</time>
      </trkpt>
      <trkpt lat="45.46195" lon="5.93313">
        <ele>1698.79</ele>
        <time>2012-05-26T10:39:51Z</time>
      </trkpt>
      <trkpt lat="45.46195" lon="5.93313">
        <ele>1697.34</ele>
        <time>2012-05-26T10:40:21Z</time>
      </trkpt>
      <trkpt lat="45.46197" lon="5.93309">
        <ele>1697.83</ele>
        <time>2012-05-26T10:40:51Z</time>
      </trkpt>
      <trkpt lat="45.46198" lon="5.93307">
        <ele>1702.15</ele>
        <time>2012-05-26T10:41:21Z</time>
      </trkpt>
      <trkpt lat="45.46201" lon="5.93307">
        <ele>1707.92</ele>
        <time>2012-05-26T10:41:51Z</time>
      </trkpt>
      <trkpt lat="45.46202" lon="5.93306">
        <ele>1709.84</ele>
        <time>2012-05-26T10:42:21Z</time>
      </trkpt>
      <trkpt lat="45.46209" lon="5.93314">
        <ele>1713.69</ele>
        <time>2012-05-26T10:42:51Z</time>
      </trkpt>
      <trkpt lat="45.46215" lon="5.93313">
        <ele>1717.53</ele>
        <time>2012-05-26T10:43:21Z</time>
      </trkpt>
      <trkpt lat="45.4622" lon="5.93314">
        <ele>1717.53</ele>
        <time>2012-05-26T10:43:51Z</time>
      </trkpt>
      <trkpt lat="45.46234" lon="5.93308">
        <ele>1725.7</ele>
        <time>2012-05-26T10:44:21Z</time>
      </trkpt>
      <trkpt lat="45.46235" lon="5.93292">
        <ele>1730.51</ele>
        <time>2012-05-26T10:44:51Z</time>
      </trkpt>
      <trkpt lat="45.46236" lon="5.93283">
        <ele>1737.72</ele>
        <time>2012-05-26T10:45:21Z</time>
      </trkpt>
      <trkpt lat="45.46242" lon="5.93259">
        <ele>1743.01</ele>
        <time>2012-05-26T10:45:51Z</time>
      </trkpt>
      <trkpt lat="45.46251" lon="5.93262">
        <ele>1744.93</ele>
        <time>2012-05-26T10:46:21Z</time>
      </trkpt>
      <trkpt lat="45.46266" lon="5.9324">
        <ele>1749.26</ele>
        <time>2012-05-26T10:46:51Z</time>
      </trkpt>
      <trkpt lat="45.46272" lon="5.93236">
        <ele>1753.58</ele>
        <time>2012-05-26T10:47:21Z</time>
      </trkpt>
      <trkpt lat="45.46272" lon="5.93236">
        <ele>1753.1</ele>
        <time>2012-05-26T10:47:51Z</time>
      </trkpt>
      <trkpt lat="45.46272" lon="5.93235">
        <ele>1754.06</ele>
        <time>2012-05-26T10:48:21Z</time>
      </trkpt>
      <trkpt lat="45.46272" lon="5.93235">
        <ele>1752.62</ele>
        <time>2012-05-26T10:48:51Z</time>
      </trkpt>
      <trkpt lat="45.46268" lon="5.93231">
        <ele>1752.14</ele>
        <time>2012-05-26T10:49:21Z</time>
      </trkpt>
      <trkpt lat="45.46268" lon="5.93231">
        <ele>1752.14</ele>
        <time>2012-05-26T10:49:51Z</time>
      </trkpt>
      <trkpt lat="45.46268" lon="5.93233">
        <ele>1752.62</ele>
        <time>2012-05-26T10:50:21Z</time>
      </trkpt>
      <trkpt lat="45.46288" lon="5.93254">
        <ele>1751.66</ele>
        <time>2012-05-26T10:50:51Z</time>
      </trkpt>
      <trkpt lat="45.46313" lon="5.93277">
        <ele>1749.26</ele>
        <time>2012-05-26T10:51:21Z</time>
      </trkpt>
      <trkpt lat="45.46327" lon="5.93288">
        <ele>1753.1</ele>
        <time>2012-05-26T10:51:51Z</time>
      </trkpt>
      <trkpt lat="45.46341" lon="5.93293">
        <ele>1759.35</ele>
        <time>2012-05-26T10:52:21Z</time>
      </trkpt>
      <trkpt lat="45.46354" lon="5.93306">
        <ele>1763.68</ele>
        <time>2012-05-26T10:52:51Z</time>
      </trkpt>
      <trkpt lat="45.46371" lon="5.93296">
        <ele>1766.08</ele>
        <time>2012-05-26T10:53:21Z</time>
      </trkpt>
      <trkpt lat="45.46382" lon="5.93272">
        <ele>1770.41</ele>
        <time>2012-05-26T10:53:51Z</time>
      </trkpt>
      <trkpt lat="45.4639" lon="5.93261">
        <ele>1771.85</ele>
        <time>2012-05-26T10:54:21Z</time>
      </trkpt>
      <trkpt lat="45.4639" lon="5.93261">
        <ele>1771.37</ele>
        <time>2012-05-26T10:54:51Z</time>
      </trkpt>
      <trkpt lat="45.4639" lon="5.93261">
        <ele>1771.85</ele>
        <time>2012-05-26T10:55:21Z</time>
      </trkpt>
      <trkpt lat="45.46389" lon="5.93261">
        <ele>1772.33</ele>
        <time>2012-05-26T10:55:51Z</time>
      </trkpt>
      <trkpt lat="45.4639" lon="5.93261">
        <ele>1772.33</ele>
        <time>2012-05-26T10:56:21Z</time>
      </trkpt>
      <trkpt lat="45.46406" lon="5.93235">
        <ele>1774.73</ele>
        <time>2012-05-26T10:56:51Z</time>
      </trkpt>
      <trkpt lat="45.4642" lon="5.93213">
        <ele>1778.1</ele>
        <time>2012-05-26T10:57:21Z</time>
      </trkpt>
      <trkpt lat="45.46447" lon="5.93178">
        <ele>1778.1</ele>
        <time>2012-05-26T10:57:51Z</time>
      </trkpt>
      <trkpt lat="45.4647" lon="5.93155">
        <ele>1780.02</ele>
        <time>2012-05-26T10:58:21Z</time>
      </trkpt>
      <trkpt lat="45.46494" lon="5.93145">
        <ele>1782.9</ele>
        <time>2012-05-26T10:58:51Z</time>
      </trkpt>
      <trkpt lat="45.46519" lon="5.93141">
        <ele>1787.23</ele>
        <time>2012-05-26T10:59:21Z</time>
      </trkpt>
      <trkpt lat="45.46542" lon="5.93119">
        <ele>1787.23</ele>
        <time>2012-05-26T10:59:51Z</time>
      </trkpt>
      <trkpt lat="45.46561" lon="5.93115">
        <ele>1789.15</ele>
        <time>2012-05-26T11:00:21Z</time>
      </trkpt>
      <trkpt lat="45.46579" lon="5.93114">
        <ele>1792.52</ele>
        <time>2012-05-26T11:00:51Z</time>
      </trkpt>
      <trkpt lat="45.46605" lon="5.93119">
        <ele>1797.32</ele>
        <time>2012-05-26T11:01:21Z</time>
      </trkpt>
      <trkpt lat="45.4663" lon="5.93101">
        <ele>1799.24</ele>
        <time>2012-05-26T11:01:51Z</time>
      </trkpt>
      <trkpt lat="45.46652" lon="5.93092">
        <ele>1800.69</ele>
        <time>2012-05-26T11:02:21Z</time>
      </trkpt>
      <trkpt lat="45.46679" lon="5.93086">
        <ele>1802.61</ele>
        <time>2012-05-26T11:02:51Z</time>
      </trkpt>
      <trkpt lat="45.46701" lon="5.9307">
        <ele>1805.49</ele>
        <time>2012-05-26T11:03:21Z</time>
      </trkpt>
      <trkpt lat="45.46721" lon="5.93069">
        <ele>1810.3</ele>
        <time>2012-05-26T11:03:51Z</time>
      </trkpt>
      <trkpt lat="45.46745" lon="5.93053">
        <ele>1813.18</ele>
        <time>2012-05-26T11:04:21Z</time>
      </trkpt>
      <trkpt lat="45.46757" lon="5.93023">
        <ele>1816.55</ele>
        <time>2012-05-26T11:04:51Z</time>
      </trkpt>
      <trkpt lat="45.46773" lon="5.92999">
        <ele>1820.87</ele>
        <time>2012-05-26T11:05:21Z</time>
      </trkpt>
      <trkpt lat="45.46785" lon="5.9297">
        <ele>1825.2</ele>
        <time>2012-05-26T11:05:51Z</time>
      </trkpt>
      <trkpt lat="45.46799" lon="5.92951">
        <ele>1827.6</ele>
        <time>2012-05-26T11:06:21Z</time>
      </trkpt>
      <trkpt lat="45.46805" lon="5.92918">
        <ele>1831.93</ele>
        <time>2012-05-26T11:06:51Z</time>
      </trkpt>
      <trkpt lat="45.46805" lon="5.92896">
        <ele>1835.29</ele>
        <time>2012-05-26T11:07:21Z</time>
      </trkpt>
      <trkpt lat="45.46805" lon="5.92895">
        <ele>1835.77</ele>
        <time>2012-05-26T11:07:51Z</time>
      </trkpt>
      <trkpt lat="45.46805" lon="5.92895">
        <ele>1835.29</ele>
        <time>2012-05-26T11:08:21Z</time>
      </trkpt>
      <trkpt lat="45.46805" lon="5.92892">
        <ele>1835.77</ele>
        <time>2012-05-26T11:08:51Z</time>
      </trkpt>
      <trkpt lat="45.46803" lon="5.92891">
        <ele>1835.29</ele>
        <time>2012-05-26T11:09:21Z</time>
      </trkpt>
      <trkpt lat="45.46803" lon="5.92891">
        <ele>1835.29</ele>
        <time>2012-05-26T11:09:51Z</time>
      </trkpt>
      <trkpt lat="45.46803" lon="5.92891">
        <ele>1835.29</ele>
        <time>2012-05-26T11:10:21Z</time>
      </trkpt>
      <trkpt lat="45.46803" lon="5.92891">
        <ele>1835.77</ele>
        <time>2012-05-26T11:10:51Z</time>
      </trkpt>
      <trkpt lat="45.46797" lon="5.92888">
        <ele>1835.29</ele>
        <time>2012-05-26T11:11:21Z</time>
      </trkpt>
      <trkpt lat="45.46795" lon="5.92865">
        <ele>1839.14</ele>
        <time>2012-05-26T11:11:51Z</time>
      </trkpt>
      <trkpt lat="45.46791" lon="5.92839">
        <ele>1844.43</ele>
        <time>2012-05-26T11:12:21Z</time>
      </trkpt>
      <trkpt lat="45.46774" lon="5.92819">
        <ele>1849.23</ele>
        <time>2012-05-26T11:12:51Z</time>
      </trkpt>
      <trkpt lat="45.46775" lon="5.92797">
        <ele>1855.48</ele>
        <time>2012-05-26T11:13:21Z</time>
      </trkpt>
      <trkpt lat="45.4676" lon="5.92768">
        <ele>1859.81</ele>
        <time>2012-05-26T11:13:51Z</time>
      </trkpt>
      <trkpt lat="45.46762" lon="5.92761">
        <ele>1862.69</ele>
        <time>2012-05-26T11:14:21Z</time>
      </trkpt>
      <trkpt lat="45.46763" lon="5.92735">
        <ele>1867.98</ele>
        <time>2012-05-26T11:14:51Z</time>
      </trkpt>
      <trkpt lat="45.46765" lon="5.92716">
        <ele>1875.19</ele>
        <time>2012-05-26T11:15:21Z</time>
      </trkpt>
      <trkpt lat="45.46765" lon="5.92682">
        <ele>1879.51</ele>
        <time>2012-05-26T11:15:51Z</time>
      </trkpt>
      <trkpt lat="45.46765" lon="5.92666">
        <ele>1883.84</ele>
        <time>2012-05-26T11:16:21Z</time>
      </trkpt>
      <trkpt lat="45.46765" lon="5.92634">
        <ele>1889.61</ele>
        <time>2012-05-26T11:16:51Z</time>
      </trkpt>
      <trkpt lat="45.4676" lon="5.92603">
        <ele>1894.42</ele>
        <time>2012-05-26T11:17:21Z</time>
      </trkpt>
      <trkpt lat="45.46742" lon="5.92562">
        <ele>1892.97</ele>
        <time>2012-05-26T11:17:51Z</time>
      </trkpt>
      <trkpt lat="45.46729" lon="5.92527">
        <ele>1893.45</ele>
        <time>2012-05-26T11:18:21Z</time>
      </trkpt>
      <trkpt lat="45.46722" lon="5.92491">
        <ele>1891.53</ele>
        <time>2012-05-26T11:18:51Z</time>
      </trkpt>
      <trkpt lat="45.46722" lon="5.92492">
        <ele>1891.53</ele>
        <time>2012-05-26T11:19:21Z</time>
      </trkpt>
      <trkpt lat="45.4672" lon="5.92493">
        <ele>1891.53</ele>
        <time>2012-05-26T11:19:51Z</time>
      </trkpt>
      <trkpt lat="45.4672" lon="5.92493">
        <ele>1892.01</ele>
        <time>2012-05-26T11:20:21Z</time>
      </trkpt>
      <trkpt lat="45.4672" lon="5.92494">
        <ele>1892.97</ele>
        <time>2012-05-26T11:20:51Z</time>
      </trkpt>
      <trkpt lat="45.46721" lon="5.92494">
        <ele>1892.97</ele>
        <time>2012-05-26T11:21:21Z</time>
      </trkpt>
      <trkpt lat="45.46721" lon="5.92494">
        <ele>1892.97</ele>
        <time>2012-05-26T11:21:51Z</time>
      </trkpt>
      <trkpt lat="45.46721" lon="5.92494">
        <ele>1892.97</ele>
        <time>2012-05-26T11:22:21Z</time>
      </trkpt>
      <trkpt lat="45.46721" lon="5.92494">
        <ele>1892.49</ele>
        <time>2012-05-26T11:22:51Z</time>
      </trkpt>
      <trkpt lat="45.4672" lon="5.92493">
        <ele>1892.97</ele>
        <time>2012-05-26T11:23:21Z</time>
      </trkpt>
      <trkpt lat="45.4672" lon="5.92493">
        <ele>1893.45</ele>
        <time>2012-05-26T11:23:51Z</time>
      </trkpt>
      <trkpt lat="45.4672" lon="5.92493">
        <ele>1892.49</ele>
        <time>2012-05-26T11:24:21Z</time>
      </trkpt>
      <trkpt lat="45.4672" lon="5.92494">
        <ele>1893.45</ele>
        <time>2012-05-26T11:24:51Z</time>
      </trkpt>
      <trkpt lat="45.4672" lon="5.92495">
        <ele>1894.42</ele>
        <time>2012-05-26T11:25:21Z</time>
      </trkpt>
      <trkpt lat="45.4672" lon="5.92496">
        <ele>1893.45</ele>
        <time>2012-05-26T11:25:51Z</time>
      </trkpt>
      <trkpt lat="45.4672" lon="5.92496">
        <ele>1893.45</ele>
        <time>2012-05-26T11:26:21Z</time>
      </trkpt>
      <trkpt lat="45.4672" lon="5.92494">
        <ele>1892.49</ele>
        <time>2012-05-26T11:26:51Z</time>
      </trkpt>
      <trkpt lat="45.4672" lon="5.92494">
        <ele>1892.97</ele>
        <time>2012-05-26T11:27:21Z</time>
      </trkpt>
      <trkpt lat="45.4672" lon="5.92494">
        <ele>1892.97</ele>
        <time>2012-05-26T11:27:51Z</time>
      </trkpt>
      <trkpt lat="45.4672" lon="5.92495">
        <ele>1892.97</ele>
        <time>2012-05-26T11:28:21Z</time>
      </trkpt>
      <trkpt lat="45.46719" lon="5.92496">
        <ele>1893.45</ele>
        <time>2012-05-26T11:28:51Z</time>
      </trkpt>
      <trkpt lat="45.46719" lon="5.92496">
        <ele>1892.97</ele>
        <time>2012-05-26T11:29:21Z</time>
      </trkpt>
      <trkpt lat="45.46719" lon="5.92496">
        <ele>1892.97</ele>
        <time>2012-05-26T11:29:51Z</time>
      </trkpt>
      <trkpt lat="45.46719" lon="5.92496">
        <ele>1893.93</ele>
        <time>2012-05-26T11:30:21Z</time>
      </trkpt>
      <trkpt lat="45.46718" lon="5.92494">
        <ele>1893.93</ele>
        <time>2012-05-26T11:30:51Z</time>
      </trkpt>
      <trkpt lat="45.46717" lon="5.92494">
        <ele>1893.93</ele>
        <time>2012-05-26T11:31:21Z</time>
      </trkpt>
      <trkpt lat="45.46717" lon="5.92494">
        <ele>1893.93</ele>
        <time>2012-05-26T11:31:51Z</time>
      </trkpt>
      <trkpt lat="45.46717" lon="5.92494">
        <ele>1893.93</ele>
        <time>2012-05-26T11:32:21Z</time>
      </trkpt>
      <trkpt lat="45.46717" lon="5.92493">
        <ele>1894.42</ele>
        <time>2012-05-26T11:32:51Z</time>
      </trkpt>
      <trkpt lat="45.46717" lon="5.92493">
        <ele>1893.93</ele>
        <time>2012-05-26T11:33:21Z</time>
      </trkpt>
      <trkpt lat="45.46717" lon="5.92493">
        <ele>1893.93</ele>
        <time>2012-05-26T11:33:51Z</time>
      </trkpt>
      <trkpt lat="45.46717" lon="5.92493">
        <ele>1894.42</ele>
        <time>2012-05-26T11:34:21Z</time>
      </trkpt>
      <trkpt lat="45.46711" lon="5.92492">
        <ele>1894.9</ele>
        <time>2012-05-26T11:34:51Z</time>
      </trkpt>
      <trkpt lat="45.46711" lon="5.92492">
        <ele>1893.93</ele>
        <time>2012-05-26T11:35:21Z</time>
      </trkpt>
      <trkpt lat="45.46711" lon="5.92493">
        <ele>1894.42</ele>
        <time>2012-05-26T11:35:51Z</time>
      </trkpt>
      <trkpt lat="45.46711" lon="5.92493">
        <ele>1894.9</ele>
        <time>2012-05-26T11:36:21Z</time>
      </trkpt>
      <trkpt lat="45.46711" lon="5.92493">
        <ele>1894.42</ele>
        <time>2012-05-26T11:36:51Z</time>
      </trkpt>
      <trkpt lat="45.46718" lon="5.92494">
        <ele>1894.42</ele>
        <time>2012-05-26T11:37:21Z</time>
      </trkpt>
      <trkpt lat="45.46717" lon="5.92495">
        <ele>1894.9</ele>
        <time>2012-05-26T11:37:51Z</time>
      </trkpt>
      <trkpt lat="45.46717" lon="5.92495">
        <ele>1895.38</ele>
        <time>2012-05-26T11:38:21Z</time>
      </trkpt>
      <trkpt lat="45.46717" lon="5.92495">
        <ele>1895.38</ele>
        <time>2012-05-26T11:38:51Z</time>
      </trkpt>
      <trkpt lat="45.46717" lon="5.92495">
        <ele>1895.38</ele>
        <time>2012-05-26T11:39:21Z</time>
      </trkpt>
      <trkpt lat="45.46717" lon="5.9249">
        <ele>1895.86</ele>
        <time>2012-05-26T11:39:51Z</time>
      </trkpt>
      <trkpt lat="45.46716" lon="5.92494">
        <ele>1895.38</ele>
        <time>2012-05-26T11:40:21Z</time>
      </trkpt>
      <trkpt lat="45.46716" lon="5.92494">
        <ele>1896.34</ele>
        <time>2012-05-26T11:40:51Z</time>
      </trkpt>
      <trkpt lat="45.46717" lon="5.92494">
        <ele>1895.38</ele>
        <time>2012-05-26T11:41:21Z</time>
      </trkpt>
      <trkpt lat="45.46718" lon="5.92494">
        <ele>1895.38</ele>
        <time>2012-05-26T11:41:51Z</time>
      </trkpt>
      <trkpt lat="45.46717" lon="5.92496">
        <ele>1895.38</ele>
        <time>2012-05-26T11:42:21Z</time>
      </trkpt>
      <trkpt lat="45.46717" lon="5.92496">
        <ele>1895.86</ele>
        <time>2012-05-26T11:42:51Z</time>
      </trkpt>
      <trkpt lat="45.46717" lon="5.92496">
        <ele>1896.34</ele>
        <time>2012-05-26T11:43:21Z</time>
      </trkpt>
      <trkpt lat="45.46717" lon="5.92496">
        <ele>1896.34</ele>
        <time>2012-05-26T11:43:51Z</time>
      </trkpt>
      <trkpt lat="45.46717" lon="5.92496">
        <ele>1896.34</ele>
        <time>2012-05-26T11:44:21Z</time>
      </trkpt>
      <trkpt lat="45.46717" lon="5.92496">
        <ele>1896.34</ele>
        <time>2012-05-26T11:44:51Z</time>
      </trkpt>
      <trkpt lat="45.46717" lon="5.92496">
        <ele>1896.82</ele>
        <time>2012-05-26T11:45:21Z</time>
      </trkpt>
      <trkpt lat="45.46717" lon="5.92496">
        <ele>1896.82</ele>
        <time>2012-05-26T11:45:51Z</time>
      </trkpt>
      <trkpt lat="45.46717" lon="5.92496">
        <ele>1896.34</ele>
        <time>2012-05-26T11:46:21Z</time>
      </trkpt>
      <trkpt lat="45.46717" lon="5.92496">
        <ele>1896.34</ele>
        <time>2012-05-26T11:46:51Z</time>
      </trkpt>
      <trkpt lat="45.46717" lon="5.92496">
        <ele>1896.34</ele>
        <time>2012-05-26T11:47:21Z</time>
      </trkpt>
      <trkpt lat="45.46717" lon="5.92495">
        <ele>1896.82</ele>
        <time>2012-05-26T11:47:51Z</time>
      </trkpt>
      <trkpt lat="45.46717" lon="5.92495">
        <ele>1896.34</ele>
        <time>2012-05-26T11:48:21Z</time>
      </trkpt>
      <trkpt lat="45.46717" lon="5.92495">
        <ele>1896.34</ele>
        <time>2012-05-26T11:48:51Z</time>
      </trkpt>
      <trkpt lat="45.46717" lon="5.92489">
        <ele>1896.34</ele>
        <time>2012-05-26T11:49:21Z</time>
      </trkpt>
      <trkpt lat="45.46717" lon="5.92493">
        <ele>1897.78</ele>
        <time>2012-05-26T11:49:51Z</time>
      </trkpt>
      <trkpt lat="45.46717" lon="5.92492">
        <ele>1896.82</ele>
        <time>2012-05-26T11:50:21Z</time>
      </trkpt>
      <trkpt lat="45.46717" lon="5.92492">
        <ele>1898.26</ele>
        <time>2012-05-26T11:50:51Z</time>
      </trkpt>
      <trkpt lat="45.46718" lon="5.92491">
        <ele>1897.3</ele>
        <time>2012-05-26T11:51:21Z</time>
      </trkpt>
      <trkpt lat="45.46718" lon="5.92492">
        <ele>1896.82</ele>
        <time>2012-05-26T11:51:51Z</time>
      </trkpt>
      <trkpt lat="45.46718" lon="5.92492">
        <ele>1896.82</ele>
        <time>2012-05-26T11:52:21Z</time>
      </trkpt>
      <trkpt lat="45.46718" lon="5.92493">
        <ele>1896.82</ele>
        <time>2012-05-26T11:52:51Z</time>
      </trkpt>
      <trkpt lat="45.46719" lon="5.92493">
        <ele>1897.78</ele>
        <time>2012-05-26T11:53:21Z</time>
      </trkpt>
      <trkpt lat="45.46719" lon="5.92493">
        <ele>1897.3</ele>
        <time>2012-05-26T11:53:51Z</time>
      </trkpt>
      <trkpt lat="45.46719" lon="5.92493">
        <ele>1897.78</ele>
        <time>2012-05-26T11:54:21Z</time>
      </trkpt>
      <trkpt lat="45.4672" lon="5.92493">
        <ele>1896.82</ele>
        <time>2012-05-26T11:54:51Z</time>
      </trkpt>
      <trkpt lat="45.46717" lon="5.92493">
        <ele>1898.26</ele>
        <time>2012-05-26T11:55:21Z</time>
      </trkpt>
      <trkpt lat="45.46718" lon="5.92494">
        <ele>1897.78</ele>
        <time>2012-05-26T11:55:51Z</time>
      </trkpt>
      <trkpt lat="45.46717" lon="5.92495">
        <ele>1898.26</ele>
        <time>2012-05-26T11:56:21Z</time>
      </trkpt>
      <trkpt lat="45.46719" lon="5.92494">
        <ele>1897.3</ele>
        <time>2012-05-26T11:56:51Z</time>
      </trkpt>
      <trkpt lat="45.46719" lon="5.92494">
        <ele>1897.3</ele>
        <time>2012-05-26T11:57:21Z</time>
      </trkpt>
      <trkpt lat="45.46719" lon="5.92494">
        <ele>1897.78</ele>
        <time>2012-05-26T11:57:51Z</time>
      </trkpt>
      <trkpt lat="45.46719" lon="5.92494">
        <ele>1897.78</ele>
        <time>2012-05-26T11:58:21Z</time>
      </trkpt>
      <trkpt lat="45.46719" lon="5.92496">
        <ele>1897.78</ele>
        <time>2012-05-26T11:58:51Z</time>
      </trkpt>
      <trkpt lat="45.46719" lon="5.92497">
        <ele>1897.78</ele>
        <time>2012-05-26T11:59:21Z</time>
      </trkpt>
      <trkpt lat="45.46719" lon="5.92496">
        <ele>1897.78</ele>
        <time>2012-05-26T11:59:51Z</time>
      </trkpt>
      <trkpt lat="45.46718" lon="5.92493">
        <ele>1898.26</ele>
        <time>2012-05-26T12:00:21Z</time>
      </trkpt>
      <trkpt lat="45.46718" lon="5.92493">
        <ele>1898.26</ele>
        <time>2012-05-26T12:00:51Z</time>
      </trkpt>
      <trkpt lat="45.46719" lon="5.92493">
        <ele>1897.78</ele>
        <time>2012-05-26T12:01:21Z</time>
      </trkpt>
      <trkpt lat="45.46719" lon="5.92493">
        <ele>1897.78</ele>
        <time>2012-05-26T12:01:51Z</time>
      </trkpt>
      <trkpt lat="45.46719" lon="5.92493">
        <ele>1898.74</ele>
        <time>2012-05-26T12:02:21Z</time>
      </trkpt>
      <trkpt lat="45.46719" lon="5.92493">
        <ele>1898.26</ele>
        <time>2012-05-26T12:02:51Z</time>
      </trkpt>
      <trkpt lat="45.46719" lon="5.92493">
        <ele>1898.74</ele>
        <time>2012-05-26T12:03:21Z</time>
      </trkpt>
      <trkpt lat="45.46719" lon="5.92493">
        <ele>1898.74</ele>
        <time>2012-05-26T12:03:51Z</time>
      </trkpt>
      <trkpt lat="45.46719" lon="5.92493">
        <ele>1898.26</ele>
        <time>2012-05-26T12:04:21Z</time>
      </trkpt>
      <trkpt lat="45.46719" lon="5.92492">
        <ele>1898.74</ele>
        <time>2012-05-26T12:04:51Z</time>
      </trkpt>
      <trkpt lat="45.46721" lon="5.92492">
        <ele>1898.26</ele>
        <time>2012-05-26T12:05:21Z</time>
      </trkpt>
      <trkpt lat="45.46721" lon="5.92491">
        <ele>1898.74</ele>
        <time>2012-05-26T12:05:51Z</time>
      </trkpt>
      <trkpt lat="45.46721" lon="5.92491">
        <ele>1898.74</ele>
        <time>2012-05-26T12:06:21Z</time>
      </trkpt>
      <trkpt lat="45.46721" lon="5.92491">
        <ele>1898.26</ele>
        <time>2012-05-26T12:06:51Z</time>
      </trkpt>
      <trkpt lat="45.46746" lon="5.92457">
        <ele>1894.42</ele>
        <time>2012-05-26T12:07:21Z</time>
      </trkpt>
      <trkpt lat="45.46751" lon="5.92453">
        <ele>1893.93</ele>
        <time>2012-05-26T12:07:51Z</time>
      </trkpt>
      <trkpt lat="45.46751" lon="5.92453">
        <ele>1893.93</ele>
        <time>2012-05-26T12:08:21Z</time>
      </trkpt>
      <trkpt lat="45.4675" lon="5.92451">
        <ele>1894.42</ele>
        <time>2012-05-26T12:08:51Z</time>
      </trkpt>
      <trkpt lat="45.46745" lon="5.92447">
        <ele>1893.45</ele>
        <time>2012-05-26T12:09:21Z</time>
      </trkpt>
      <trkpt lat="45.46747" lon="5.92446">
        <ele>1893.93</ele>
        <time>2012-05-26T12:09:51Z</time>
      </trkpt>
      <trkpt lat="45.46746" lon="5.92446">
        <ele>1894.42</ele>
        <time>2012-05-26T12:10:21Z</time>
      </trkpt>
      <trkpt lat="45.46735" lon="5.92443">
        <ele>1892.49</ele>
        <time>2012-05-26T12:10:51Z</time>
      </trkpt>
      <trkpt lat="45.46738" lon="5.92446">
        <ele>1892.49</ele>
        <time>2012-05-26T12:11:21Z</time>
      </trkpt>
      <trkpt lat="45.46745" lon="5.92451">
        <ele>1893.45</ele>
        <time>2012-05-26T12:11:51Z</time>
      </trkpt>
      <trkpt lat="45.46737" lon="5.92469">
        <ele>1894.9</ele>
        <time>2012-05-26T12:12:21Z</time>
      </trkpt>
      <trkpt lat="45.4672" lon="5.92491">
        <ele>1898.26</ele>
        <time>2012-05-26T12:12:51Z</time>
      </trkpt>
      <trkpt lat="45.4672" lon="5.92491">
        <ele>1898.26</ele>
        <time>2012-05-26T12:13:21Z</time>
      </trkpt>
      <trkpt lat="45.4672" lon="5.92493">
        <ele>1897.78</ele>
        <time>2012-05-26T12:13:51Z</time>
      </trkpt>
      <trkpt lat="45.46721" lon="5.92493">
        <ele>1898.74</ele>
        <time>2012-05-26T12:14:21Z</time>
      </trkpt>
      <trkpt lat="45.4672" lon="5.92494">
        <ele>1898.74</ele>
        <time>2012-05-26T12:14:51Z</time>
      </trkpt>
      <trkpt lat="45.46719" lon="5.92494">
        <ele>1898.74</ele>
        <time>2012-05-26T12:15:21Z</time>
      </trkpt>
      <trkpt lat="45.46705" lon="5.92494">
        <ele>1898.74</ele>
        <time>2012-05-26T12:15:51Z</time>
      </trkpt>
      <trkpt lat="45.46685" lon="5.92496">
        <ele>1898.74</ele>
        <time>2012-05-26T12:16:21Z</time>
      </trkpt>
      <trkpt lat="45.46666" lon="5.92499">
        <ele>1898.74</ele>
        <time>2012-05-26T12:16:51Z</time>
      </trkpt>
      <trkpt lat="45.46646" lon="5.925">
        <ele>1904.03</ele>
        <time>2012-05-26T12:17:21Z</time>
      </trkpt>
      <trkpt lat="45.46632" lon="5.92506">
        <ele>1909.32</ele>
        <time>2012-05-26T12:17:51Z</time>
      </trkpt>
      <trkpt lat="45.46604" lon="5.92509">
        <ele>1912.2</ele>
        <time>2012-05-26T12:18:21Z</time>
      </trkpt>
      <trkpt lat="45.46578" lon="5.92509">
        <ele>1915.56</ele>
        <time>2012-05-26T12:18:51Z</time>
      </trkpt>
      <trkpt lat="45.46547" lon="5.92505">
        <ele>1917.01</ele>
        <time>2012-05-26T12:19:21Z</time>
      </trkpt>
      <trkpt lat="45.46523" lon="5.92502">
        <ele>1923.25</ele>
        <time>2012-05-26T12:19:51Z</time>
      </trkpt>
      <trkpt lat="45.46501" lon="5.92499">
        <ele>1925.66</ele>
        <time>2012-05-26T12:20:21Z</time>
      </trkpt>
      <trkpt lat="45.46474" lon="5.92509">
        <ele>1928.06</ele>
        <time>2012-05-26T12:20:51Z</time>
      </trkpt>
      <trkpt lat="45.46467" lon="5.92509">
        <ele>1928.06</ele>
        <time>2012-05-26T12:21:21Z</time>
      </trkpt>
      <trkpt lat="45.46463" lon="5.92516">
        <ele>1925.66</ele>
        <time>2012-05-26T12:21:51Z</time>
      </trkpt>
      <trkpt lat="45.46444" lon="5.92531">
        <ele>1924.22</ele>
        <time>2012-05-26T12:22:21Z</time>
      </trkpt>
      <trkpt lat="45.46418" lon="5.92541">
        <ele>1918.93</ele>
        <time>2012-05-26T12:22:51Z</time>
      </trkpt>
      <trkpt lat="45.46407" lon="5.92564">
        <ele>1914.12</ele>
        <time>2012-05-26T12:23:21Z</time>
      </trkpt>
      <trkpt lat="45.46395" lon="5.92568">
        <ele>1907.39</ele>
        <time>2012-05-26T12:23:51Z</time>
      </trkpt>
      <trkpt lat="45.46378" lon="5.92571">
        <ele>1901.63</ele>
        <time>2012-05-26T12:24:21Z</time>
      </trkpt>
      <trkpt lat="45.46358" lon="5.92549">
        <ele>1897.78</ele>
        <time>2012-05-26T12:24:51Z</time>
      </trkpt>
      <trkpt lat="45.46333" lon="5.92522">
        <ele>1893.93</ele>
        <time>2012-05-26T12:25:21Z</time>
      </trkpt>
      <trkpt lat="45.46297" lon="5.92504">
        <ele>1891.53</ele>
        <time>2012-05-26T12:25:51Z</time>
      </trkpt>
      <trkpt lat="45.46266" lon="5.9249">
        <ele>1890.09</ele>
        <time>2012-05-26T12:26:21Z</time>
      </trkpt>
      <trkpt lat="45.46233" lon="5.9248">
        <ele>1889.13</ele>
        <time>2012-05-26T12:26:51Z</time>
      </trkpt>
      <trkpt lat="45.46203" lon="5.92475">
        <ele>1890.09</ele>
        <time>2012-05-26T12:27:21Z</time>
      </trkpt>
      <trkpt lat="45.46175" lon="5.92471">
        <ele>1893.93</ele>
        <time>2012-05-26T12:27:51Z</time>
      </trkpt>
      <trkpt lat="45.46145" lon="5.92462">
        <ele>1893.93</ele>
        <time>2012-05-26T12:28:21Z</time>
      </trkpt>
      <trkpt lat="45.46116" lon="5.92453">
        <ele>1891.53</ele>
        <time>2012-05-26T12:28:51Z</time>
      </trkpt>
      <trkpt lat="45.46085" lon="5.92475">
        <ele>1887.21</ele>
        <time>2012-05-26T12:29:21Z</time>
      </trkpt>
      <trkpt lat="45.46068" lon="5.92494">
        <ele>1888.65</ele>
        <time>2012-05-26T12:29:51Z</time>
      </trkpt>
      <trkpt lat="45.46046" lon="5.92495">
        <ele>1891.05</ele>
        <time>2012-05-26T12:30:21Z</time>
      </trkpt>
      <trkpt lat="45.46023" lon="5.92472">
        <ele>1889.13</ele>
        <time>2012-05-26T12:30:51Z</time>
      </trkpt>
      <trkpt lat="45.45992" lon="5.92468">
        <ele>1890.57</ele>
        <time>2012-05-26T12:31:21Z</time>
      </trkpt>
      <trkpt lat="45.45956" lon="5.92469">
        <ele>1891.05</ele>
        <time>2012-05-26T12:31:51Z</time>
      </trkpt>
      <trkpt lat="45.45931" lon="5.9246">
        <ele>1892.97</ele>
        <time>2012-05-26T12:32:21Z</time>
      </trkpt>
      <trkpt lat="45.45919" lon="5.92449">
        <ele>1890.09</ele>
        <time>2012-05-26T12:32:51Z</time>
      </trkpt>
      <trkpt lat="45.45904" lon="5.92431">
        <ele>1887.69</ele>
        <time>2012-05-26T12:33:21Z</time>
      </trkpt>
      <trkpt lat="45.45882" lon="5.92426">
        <ele>1883.36</ele>
        <time>2012-05-26T12:33:51Z</time>
      </trkpt>
      <trkpt lat="45.45851" lon="5.9241">
        <ele>1879.03</ele>
        <time>2012-05-26T12:34:21Z</time>
      </trkpt>
      <trkpt lat="45.45824" lon="5.92386">
        <ele>1880.96</ele>
        <time>2012-05-26T12:34:51Z</time>
      </trkpt>
      <trkpt lat="45.45808" lon="5.92361">
        <ele>1882.4</ele>
        <time>2012-05-26T12:35:21Z</time>
      </trkpt>
      <trkpt lat="45.45781" lon="5.92356">
        <ele>1881.44</ele>
        <time>2012-05-26T12:35:51Z</time>
      </trkpt>
      <trkpt lat="45.4576" lon="5.9235">
        <ele>1882.88</ele>
        <time>2012-05-26T12:36:21Z</time>
      </trkpt>
      <trkpt lat="45.4575" lon="5.92348">
        <ele>1879.03</ele>
        <time>2012-05-26T12:36:51Z</time>
      </trkpt>
      <trkpt lat="45.45734" lon="5.92354">
        <ele>1875.67</ele>
        <time>2012-05-26T12:37:21Z</time>
      </trkpt>
      <trkpt lat="45.45729" lon="5.92352">
        <ele>1873.27</ele>
        <time>2012-05-26T12:37:51Z</time>
      </trkpt>
      <trkpt lat="45.45715" lon="5.92356">
        <ele>1868.46</ele>
        <time>2012-05-26T12:38:21Z</time>
      </trkpt>
      <trkpt lat="45.45695" lon="5.92368">
        <ele>1861.73</ele>
        <time>2012-05-26T12:38:51Z</time>
      </trkpt>
      <trkpt lat="45.45677" lon="5.92379">
        <ele>1855.96</ele>
        <time>2012-05-26T12:39:21Z</time>
      </trkpt>
      <trkpt lat="45.45651" lon="5.92387">
        <ele>1852.6</ele>
        <time>2012-05-26T12:39:51Z</time>
      </trkpt>
      <trkpt lat="45.4563" lon="5.92377">
        <ele>1853.56</ele>
        <time>2012-05-26T12:40:21Z</time>
      </trkpt>
      <trkpt lat="45.45613" lon="5.92372">
        <ele>1848.27</ele>
        <time>2012-05-26T12:40:51Z</time>
      </trkpt>
      <trkpt lat="45.45593" lon="5.92372">
        <ele>1845.39</ele>
        <time>2012-05-26T12:41:21Z</time>
      </trkpt>
      <trkpt lat="45.4558" lon="5.92374">
        <ele>1839.14</ele>
        <time>2012-05-26T12:41:51Z</time>
      </trkpt>
      <trkpt lat="45.45559" lon="5.92357">
        <ele>1842.02</ele>
        <time>2012-05-26T12:42:21Z</time>
      </trkpt>
      <trkpt lat="45.45536" lon="5.92345">
        <ele>1838.66</ele>
        <time>2012-05-26T12:42:51Z</time>
      </trkpt>
      <trkpt lat="45.4552" lon="5.92334">
        <ele>1838.18</ele>
        <time>2012-05-26T12:43:21Z</time>
      </trkpt>
      <trkpt lat="45.45507" lon="5.92319">
        <ele>1839.14</ele>
        <time>2012-05-26T12:43:51Z</time>
      </trkpt>
      <trkpt lat="45.45489" lon="5.92306">
        <ele>1839.62</ele>
        <time>2012-05-26T12:44:21Z</time>
      </trkpt>
      <trkpt lat="45.45477" lon="5.92308">
        <ele>1835.77</ele>
        <time>2012-05-26T12:44:51Z</time>
      </trkpt>
      <trkpt lat="45.45457" lon="5.92313">
        <ele>1833.37</ele>
        <time>2012-05-26T12:45:21Z</time>
      </trkpt>
      <trkpt lat="45.45439" lon="5.9233">
        <ele>1828.08</ele>
        <time>2012-05-26T12:45:51Z</time>
      </trkpt>
      <trkpt lat="45.4542" lon="5.92352">
        <ele>1824.72</ele>
        <time>2012-05-26T12:46:21Z</time>
      </trkpt>
      <trkpt lat="45.45399" lon="5.9237">
        <ele>1821.35</ele>
        <time>2012-05-26T12:46:51Z</time>
      </trkpt>
      <trkpt lat="45.45379" lon="5.92371">
        <ele>1822.32</ele>
        <time>2012-05-26T12:47:21Z</time>
      </trkpt>
      <trkpt lat="45.45362" lon="5.92368">
        <ele>1820.39</ele>
        <time>2012-05-26T12:47:51Z</time>
      </trkpt>
      <trkpt lat="45.45336" lon="5.92364">
        <ele>1819.43</ele>
        <time>2012-05-26T12:48:21Z</time>
      </trkpt>
      <trkpt lat="45.45311" lon="5.92365">
        <ele>1817.51</ele>
        <time>2012-05-26T12:48:51Z</time>
      </trkpt>
      <trkpt lat="45.45286" lon="5.92378">
        <ele>1811.26</ele>
        <time>2012-05-26T12:49:21Z</time>
      </trkpt>
      <trkpt lat="45.45266" lon="5.92388">
        <ele>1809.82</ele>
        <time>2012-05-26T12:49:51Z</time>
      </trkpt>
      <trkpt lat="45.45249" lon="5.92395">
        <ele>1808.38</ele>
        <time>2012-05-26T12:50:21Z</time>
      </trkpt>
      <trkpt lat="45.4523" lon="5.92411">
        <ele>1805.01</ele>
        <time>2012-05-26T12:50:51Z</time>
      </trkpt>
      <trkpt lat="45.45216" lon="5.92422">
        <ele>1808.38</ele>
        <time>2012-05-26T12:51:21Z</time>
      </trkpt>
      <trkpt lat="45.45194" lon="5.92436">
        <ele>1808.38</ele>
        <time>2012-05-26T12:51:51Z</time>
      </trkpt>
      <trkpt lat="45.4518" lon="5.92448">
        <ele>1807.9</ele>
        <time>2012-05-26T12:52:21Z</time>
      </trkpt>
      <trkpt lat="45.45173" lon="5.92459">
        <ele>1808.38</ele>
        <time>2012-05-26T12:52:51Z</time>
      </trkpt>
      <trkpt lat="45.45162" lon="5.92479">
        <ele>1809.34</ele>
        <time>2012-05-26T12:53:21Z</time>
      </trkpt>
      <trkpt lat="45.45154" lon="5.92502">
        <ele>1808.86</ele>
        <time>2012-05-26T12:53:51Z</time>
      </trkpt>
      <trkpt lat="45.45149" lon="5.92524">
        <ele>1806.45</ele>
        <time>2012-05-26T12:54:21Z</time>
      </trkpt>
      <trkpt lat="45.45156" lon="5.92555">
        <ele>1801.65</ele>
        <time>2012-05-26T12:54:51Z</time>
      </trkpt>
      <trkpt lat="45.45157" lon="5.92578">
        <ele>1800.21</ele>
        <time>2012-05-26T12:55:21Z</time>
      </trkpt>
      <trkpt lat="45.45147" lon="5.92612">
        <ele>1796.84</ele>
        <time>2012-05-26T12:55:51Z</time>
      </trkpt>
      <trkpt lat="45.45151" lon="5.92628">
        <ele>1796.36</ele>
        <time>2012-05-26T12:56:21Z</time>
      </trkpt>
      <trkpt lat="45.4515" lon="5.92626">
        <ele>1797.32</ele>
        <time>2012-05-26T12:56:51Z</time>
      </trkpt>
      <trkpt lat="45.4515" lon="5.92626">
        <ele>1797.8</ele>
        <time>2012-05-26T12:57:21Z</time>
      </trkpt>
      <trkpt lat="45.45149" lon="5.92626">
        <ele>1797.8</ele>
        <time>2012-05-26T12:57:51Z</time>
      </trkpt>
      <trkpt lat="45.45147" lon="5.92627">
        <ele>1797.32</ele>
        <time>2012-05-26T12:58:21Z</time>
      </trkpt>
      <trkpt lat="45.45147" lon="5.92627">
        <ele>1797.8</ele>
        <time>2012-05-26T12:58:51Z</time>
      </trkpt>
      <trkpt lat="45.45147" lon="5.92628">
        <ele>1797.8</ele>
        <time>2012-05-26T12:59:21Z</time>
      </trkpt>
      <trkpt lat="45.45147" lon="5.92629">
        <ele>1797.32</ele>
        <time>2012-05-26T12:59:51Z</time>
      </trkpt>
      <trkpt lat="45.45147" lon="5.92629">
        <ele>1797.32</ele>
        <time>2012-05-26T13:00:21Z</time>
      </trkpt>
      <trkpt lat="45.45147" lon="5.92629">
        <ele>1798.28</ele>
        <time>2012-05-26T13:00:51Z</time>
      </trkpt>
      <trkpt lat="45.45147" lon="5.92629">
        <ele>1798.28</ele>
        <time>2012-05-26T13:01:21Z</time>
      </trkpt>
      <trkpt lat="45.45146" lon="5.92629">
        <ele>1797.8</ele>
        <time>2012-05-26T13:01:51Z</time>
      </trkpt>
      <trkpt lat="45.45146" lon="5.92629">
        <ele>1798.28</ele>
        <time>2012-05-26T13:02:21Z</time>
      </trkpt>
      <trkpt lat="45.45149" lon="5.92655">
        <ele>1795.88</ele>
        <time>2012-05-26T13:02:51Z</time>
      </trkpt>
      <trkpt lat="45.45152" lon="5.92678">
        <ele>1793</ele>
        <time>2012-05-26T13:03:21Z</time>
      </trkpt>
      <trkpt lat="45.45163" lon="5.92699">
        <ele>1788.19</ele>
        <time>2012-05-26T13:03:51Z</time>
      </trkpt>
      <trkpt lat="45.45168" lon="5.92737">
        <ele>1784.82</ele>
        <time>2012-05-26T13:04:21Z</time>
      </trkpt>
      <trkpt lat="45.45175" lon="5.92777">
        <ele>1780.98</ele>
        <time>2012-05-26T13:04:51Z</time>
      </trkpt>
      <trkpt lat="45.45182" lon="5.9282">
        <ele>1778.1</ele>
        <time>2012-05-26T13:05:21Z</time>
      </trkpt>
      <trkpt lat="45.45183" lon="5.92827">
        <ele>1777.61</ele>
        <time>2012-05-26T13:05:51Z</time>
      </trkpt>
      <trkpt lat="45.45183" lon="5.92827">
        <ele>1778.1</ele>
        <time>2012-05-26T13:06:21Z</time>
      </trkpt>
      <trkpt lat="45.45179" lon="5.9284">
        <ele>1778.1</ele>
        <time>2012-05-26T13:06:51Z</time>
      </trkpt>
      <trkpt lat="45.45163" lon="5.92871">
        <ele>1778.1</ele>
        <time>2012-05-26T13:07:21Z</time>
      </trkpt>
      <trkpt lat="45.45138" lon="5.92897">
        <ele>1779.06</ele>
        <time>2012-05-26T13:07:51Z</time>
      </trkpt>
      <trkpt lat="45.45121" lon="5.92925">
        <ele>1779.06</ele>
        <time>2012-05-26T13:08:21Z</time>
      </trkpt>
      <trkpt lat="45.45099" lon="5.92952">
        <ele>1780.02</ele>
        <time>2012-05-26T13:08:51Z</time>
      </trkpt>
      <trkpt lat="45.45073" lon="5.92971">
        <ele>1782.42</ele>
        <time>2012-05-26T13:09:21Z</time>
      </trkpt>
      <trkpt lat="45.45042" lon="5.92977">
        <ele>1784.34</ele>
        <time>2012-05-26T13:09:51Z</time>
      </trkpt>
      <trkpt lat="45.45018" lon="5.92967">
        <ele>1786.27</ele>
        <time>2012-05-26T13:10:21Z</time>
      </trkpt>
      <trkpt lat="45.44998" lon="5.92965">
        <ele>1783.38</ele>
        <time>2012-05-26T13:10:51Z</time>
      </trkpt>
      <trkpt lat="45.44968" lon="5.9296">
        <ele>1778.1</ele>
        <time>2012-05-26T13:11:21Z</time>
      </trkpt>
      <trkpt lat="45.44956" lon="5.92967">
        <ele>1775.21</ele>
        <time>2012-05-26T13:11:51Z</time>
      </trkpt>
      <trkpt lat="45.44933" lon="5.92979">
        <ele>1768.96</ele>
        <time>2012-05-26T13:12:21Z</time>
      </trkpt>
      <trkpt lat="45.44937" lon="5.92996">
        <ele>1759.83</ele>
        <time>2012-05-26T13:12:51Z</time>
      </trkpt>
      <trkpt lat="45.44938" lon="5.93017">
        <ele>1751.66</ele>
        <time>2012-05-26T13:13:21Z</time>
      </trkpt>
      <trkpt lat="45.44948" lon="5.93046">
        <ele>1743.01</ele>
        <time>2012-05-26T13:13:51Z</time>
      </trkpt>
      <trkpt lat="45.44944" lon="5.93067">
        <ele>1733.88</ele>
        <time>2012-05-26T13:14:21Z</time>
      </trkpt>
      <trkpt lat="45.4494" lon="5.93081">
        <ele>1725.7</ele>
        <time>2012-05-26T13:14:51Z</time>
      </trkpt>
      <trkpt lat="45.44929" lon="5.93099">
        <ele>1718.01</ele>
        <time>2012-05-26T13:15:21Z</time>
      </trkpt>
      <trkpt lat="45.44945" lon="5.93118">
        <ele>1714.17</ele>
        <time>2012-05-26T13:15:51Z</time>
      </trkpt>
      <trkpt lat="45.44946" lon="5.93119">
        <ele>1713.69</ele>
        <time>2012-05-26T13:16:21Z</time>
      </trkpt>
      <trkpt lat="45.44946" lon="5.93119">
        <ele>1713.69</ele>
        <time>2012-05-26T13:16:51Z</time>
      </trkpt>
      <trkpt lat="45.44948" lon="5.9312">
        <ele>1713.69</ele>
        <time>2012-05-26T13:17:21Z</time>
      </trkpt>
      <trkpt lat="45.44971" lon="5.93138">
        <ele>1710.32</ele>
        <time>2012-05-26T13:17:51Z</time>
      </trkpt>
      <trkpt lat="45.44983" lon="5.93164">
        <ele>1706</ele>
        <time>2012-05-26T13:18:21Z</time>
      </trkpt>
      <trkpt lat="45.44992" lon="5.93192">
        <ele>1703.11</ele>
        <time>2012-05-26T13:18:51Z</time>
      </trkpt>
      <trkpt lat="45.44994" lon="5.93204">
        <ele>1697.83</ele>
        <time>2012-05-26T13:19:21Z</time>
      </trkpt>
      <trkpt lat="45.44987" lon="5.93206">
        <ele>1693.5</ele>
        <time>2012-05-26T13:19:51Z</time>
      </trkpt>
      <trkpt lat="45.4498" lon="5.93208">
        <ele>1689.65</ele>
        <time>2012-05-26T13:20:21Z</time>
      </trkpt>
      <trkpt lat="45.44984" lon="5.93217">
        <ele>1684.37</ele>
        <time>2012-05-26T13:20:51Z</time>
      </trkpt>
      <trkpt lat="45.44983" lon="5.93226">
        <ele>1680.04</ele>
        <time>2012-05-26T13:21:21Z</time>
      </trkpt>
      <trkpt lat="45.44982" lon="5.93226">
        <ele>1676.68</ele>
        <time>2012-05-26T13:21:51Z</time>
      </trkpt>
      <trkpt lat="45.44979" lon="5.93228">
        <ele>1673.31</ele>
        <time>2012-05-26T13:22:21Z</time>
      </trkpt>
      <trkpt lat="45.44979" lon="5.93228">
        <ele>1674.75</ele>
        <time>2012-05-26T13:22:50Z</time>
      </trkpt>
      <trkpt lat="45.44977" lon="5.93234">
        <ele>1673.79</ele>
        <time>2012-05-26T13:23:20Z</time>
      </trkpt>
      <trkpt lat="45.44977" lon="5.93234">
        <ele>1673.79</ele>
        <time>2012-05-26T13:23:50Z</time>
      </trkpt>
      <trkpt lat="45.44976" lon="5.93232">
        <ele>1674.75</ele>
        <time>2012-05-26T13:24:20Z</time>
      </trkpt>
      <trkpt lat="45.44982" lon="5.93245">
        <ele>1668.99</ele>
        <time>2012-05-26T13:24:50Z</time>
      </trkpt>
      <trkpt lat="45.44983" lon="5.9325">
        <ele>1665.62</ele>
        <time>2012-05-26T13:25:20Z</time>
      </trkpt>
      <trkpt lat="45.44981" lon="5.93251">
        <ele>1663.22</ele>
        <time>2012-05-26T13:25:50Z</time>
      </trkpt>
      <trkpt lat="45.44981" lon="5.93252">
        <ele>1663.22</ele>
        <time>2012-05-26T13:26:20Z</time>
      </trkpt>
      <trkpt lat="45.44981" lon="5.93252">
        <ele>1662.74</ele>
        <time>2012-05-26T13:26:50Z</time>
      </trkpt>
      <trkpt lat="45.44981" lon="5.93252">
        <ele>1662.74</ele>
        <time>2012-05-26T13:27:20Z</time>
      </trkpt>
      <trkpt lat="45.44981" lon="5.93252">
        <ele>1662.74</ele>
        <time>2012-05-26T13:27:50Z</time>
      </trkpt>
      <trkpt lat="45.44982" lon="5.93252">
        <ele>1662.74</ele>
        <time>2012-05-26T13:28:20Z</time>
      </trkpt>
      <trkpt lat="45.44982" lon="5.93254">
        <ele>1662.74</ele>
        <time>2012-05-26T13:28:50Z</time>
      </trkpt>
      <trkpt lat="45.44982" lon="5.93254">
        <ele>1663.22</ele>
        <time>2012-05-26T13:29:20Z</time>
      </trkpt>
      <trkpt lat="45.44982" lon="5.93254">
        <ele>1663.22</ele>
        <time>2012-05-26T13:29:50Z</time>
      </trkpt>
      <trkpt lat="45.44982" lon="5.93255">
        <ele>1663.22</ele>
        <time>2012-05-26T13:30:20Z</time>
      </trkpt>
      <trkpt lat="45.44982" lon="5.93254">
        <ele>1663.22</ele>
        <time>2012-05-26T13:30:50Z</time>
      </trkpt>
      <trkpt lat="45.44982" lon="5.93254">
        <ele>1663.22</ele>
        <time>2012-05-26T13:31:20Z</time>
      </trkpt>
      <trkpt lat="45.44982" lon="5.93254">
        <ele>1663.22</ele>
        <time>2012-05-26T13:31:50Z</time>
      </trkpt>
      <trkpt lat="45.44975" lon="5.9325">
        <ele>1661.78</ele>
        <time>2012-05-26T13:32:20Z</time>
      </trkpt>
      <trkpt lat="45.44973" lon="5.9325">
        <ele>1659.85</ele>
        <time>2012-05-26T13:32:50Z</time>
      </trkpt>
      <trkpt lat="45.44963" lon="5.9322">
        <ele>1656.97</ele>
        <time>2012-05-26T13:33:20Z</time>
      </trkpt>
      <trkpt lat="45.44958" lon="5.9322">
        <ele>1654.57</ele>
        <time>2012-05-26T13:33:50Z</time>
      </trkpt>
      <trkpt lat="45.44957" lon="5.93214">
        <ele>1652.64</ele>
        <time>2012-05-26T13:34:20Z</time>
      </trkpt>
      <trkpt lat="45.44956" lon="5.93214">
        <ele>1650.24</ele>
        <time>2012-05-26T13:34:50Z</time>
      </trkpt>
      <trkpt lat="45.44956" lon="5.93214">
        <ele>1648.32</ele>
        <time>2012-05-26T13:35:20Z</time>
      </trkpt>
      <trkpt lat="45.44953" lon="5.93218">
        <ele>1644.95</ele>
        <time>2012-05-26T13:35:50Z</time>
      </trkpt>
      <trkpt lat="45.44953" lon="5.93218">
        <ele>1642.07</ele>
        <time>2012-05-26T13:36:20Z</time>
      </trkpt>
      <trkpt lat="45.4496" lon="5.93237">
        <ele>1643.51</ele>
        <time>2012-05-26T13:36:50Z</time>
      </trkpt>
      <trkpt lat="45.44953" lon="5.93228">
        <ele>1642.07</ele>
        <time>2012-05-26T13:37:20Z</time>
      </trkpt>
      <trkpt lat="45.44948" lon="5.9323">
        <ele>1638.7</ele>
        <time>2012-05-26T13:37:50Z</time>
      </trkpt>
      <trkpt lat="45.44945" lon="5.93221">
        <ele>1637.26</ele>
        <time>2012-05-26T13:38:20Z</time>
      </trkpt>
      <trkpt lat="45.44944" lon="5.93222">
        <ele>1634.38</ele>
        <time>2012-05-26T13:38:50Z</time>
      </trkpt>
      <trkpt lat="45.44945" lon="5.93217">
        <ele>1629.57</ele>
        <time>2012-05-26T13:39:20Z</time>
      </trkpt>
      <trkpt lat="45.44927" lon="5.93179">
        <ele>1627.17</ele>
        <time>2012-05-26T13:39:50Z</time>
      </trkpt>
      <trkpt lat="45.44915" lon="5.9315">
        <ele>1628.61</ele>
        <time>2012-05-26T13:40:20Z</time>
      </trkpt>
      <trkpt lat="45.44899" lon="5.93111">
        <ele>1628.61</ele>
        <time>2012-05-26T13:40:50Z</time>
      </trkpt>
      <trkpt lat="45.44889" lon="5.9306">
        <ele>1627.65</ele>
        <time>2012-05-26T13:41:20Z</time>
      </trkpt>
      <trkpt lat="45.44866" lon="5.93029">
        <ele>1631.49</ele>
        <time>2012-05-26T13:41:50Z</time>
      </trkpt>
      <trkpt lat="45.44843" lon="5.93014">
        <ele>1629.57</ele>
        <time>2012-05-26T13:42:20Z</time>
      </trkpt>
      <trkpt lat="45.44836" lon="5.93022">
        <ele>1625.25</ele>
        <time>2012-05-26T13:42:50Z</time>
      </trkpt>
      <trkpt lat="45.44837" lon="5.93039">
        <ele>1618.04</ele>
        <time>2012-05-26T13:43:20Z</time>
      </trkpt>
      <trkpt lat="45.44839" lon="5.9305">
        <ele>1610.35</ele>
        <time>2012-05-26T13:43:50Z</time>
      </trkpt>
      <trkpt lat="45.44825" lon="5.93038">
        <ele>1605.54</ele>
        <time>2012-05-26T13:44:20Z</time>
      </trkpt>
      <trkpt lat="45.44815" lon="5.9302">
        <ele>1604.1</ele>
        <time>2012-05-26T13:44:50Z</time>
      </trkpt>
      <trkpt lat="45.44804" lon="5.93022">
        <ele>1597.85</ele>
        <time>2012-05-26T13:45:20Z</time>
      </trkpt>
      <trkpt lat="45.44805" lon="5.93025">
        <ele>1594.96</ele>
        <time>2012-05-26T13:45:50Z</time>
      </trkpt>
      <trkpt lat="45.44788" lon="5.93005">
        <ele>1591.6</ele>
        <time>2012-05-26T13:46:20Z</time>
      </trkpt>
      <trkpt lat="45.44768" lon="5.92969">
        <ele>1592.56</ele>
        <time>2012-05-26T13:46:50Z</time>
      </trkpt>
      <trkpt lat="45.44745" lon="5.92935">
        <ele>1593.04</ele>
        <time>2012-05-26T13:47:20Z</time>
      </trkpt>
      <trkpt lat="45.44718" lon="5.92904">
        <ele>1593.04</ele>
        <time>2012-05-26T13:47:50Z</time>
      </trkpt>
      <trkpt lat="45.44695" lon="5.92869">
        <ele>1591.12</ele>
        <time>2012-05-26T13:48:20Z</time>
      </trkpt>
      <trkpt lat="45.44667" lon="5.92862">
        <ele>1582.95</ele>
        <time>2012-05-26T13:48:50Z</time>
      </trkpt>
      <trkpt lat="45.44639" lon="5.92849">
        <ele>1579.1</ele>
        <time>2012-05-26T13:49:20Z</time>
      </trkpt>
      <trkpt lat="45.44602" lon="5.92842">
        <ele>1573.33</ele>
        <time>2012-05-26T13:49:50Z</time>
      </trkpt>
      <trkpt lat="45.4457" lon="5.92811">
        <ele>1565.64</ele>
        <time>2012-05-26T13:50:20Z</time>
      </trkpt>
      <trkpt lat="45.44537" lon="5.92796">
        <ele>1559.4</ele>
        <time>2012-05-26T13:50:50Z</time>
      </trkpt>
      <trkpt lat="45.44506" lon="5.92776">
        <ele>1560.36</ele>
        <time>2012-05-26T13:51:20Z</time>
      </trkpt>
      <trkpt lat="45.44474" lon="5.92743">
        <ele>1559.88</ele>
        <time>2012-05-26T13:51:50Z</time>
      </trkpt>
      <trkpt lat="45.4445" lon="5.92697">
        <ele>1559.4</ele>
        <time>2012-05-26T13:52:20Z</time>
      </trkpt>
      <trkpt lat="45.44421" lon="5.92659">
        <ele>1556.51</ele>
        <time>2012-05-26T13:52:50Z</time>
      </trkpt>
      <trkpt lat="45.44392" lon="5.92618">
        <ele>1553.63</ele>
        <time>2012-05-26T13:53:20Z</time>
      </trkpt>
      <trkpt lat="45.44373" lon="5.9257">
        <ele>1550.74</ele>
        <time>2012-05-26T13:53:50Z</time>
      </trkpt>
      <trkpt lat="45.44343" lon="5.92527">
        <ele>1552.19</ele>
        <time>2012-05-26T13:54:20Z</time>
      </trkpt>
      <trkpt lat="45.44318" lon="5.92482">
        <ele>1552.19</ele>
        <time>2012-05-26T13:54:50Z</time>
      </trkpt>
      <trkpt lat="45.44297" lon="5.92439">
        <ele>1549.3</ele>
        <time>2012-05-26T13:55:20Z</time>
      </trkpt>
      <trkpt lat="45.44274" lon="5.92418">
        <ele>1546.9</ele>
        <time>2012-05-26T13:55:50Z</time>
      </trkpt>
      <trkpt lat="45.44274" lon="5.92417">
        <ele>1546.9</ele>
        <time>2012-05-26T13:56:20Z</time>
      </trkpt>
      <trkpt lat="45.44274" lon="5.92417">
        <ele>1546.42</ele>
        <time>2012-05-26T13:56:50Z</time>
      </trkpt>
      <trkpt lat="45.44274" lon="5.92417">
        <ele>1546.42</ele>
        <time>2012-05-26T13:57:20Z</time>
      </trkpt>
      <trkpt lat="45.44274" lon="5.92417">
        <ele>1546.42</ele>
        <time>2012-05-26T13:57:50Z</time>
      </trkpt>
      <trkpt lat="45.44275" lon="5.92416">
        <ele>1546.42</ele>
        <time>2012-05-26T13:58:20Z</time>
      </trkpt>
      <trkpt lat="45.44275" lon="5.92416">
        <ele>1545.94</ele>
        <time>2012-05-26T13:58:50Z</time>
      </trkpt>
      <trkpt lat="45.44274" lon="5.92417">
        <ele>1545.46</ele>
        <time>2012-05-26T13:59:20Z</time>
      </trkpt>
      <trkpt lat="45.44274" lon="5.92417">
        <ele>1544.98</ele>
        <time>2012-05-26T13:59:50Z</time>
      </trkpt>
      <trkpt lat="45.44274" lon="5.92417">
        <ele>1544.98</ele>
        <time>2012-05-26T14:00:20Z</time>
      </trkpt>
      <trkpt lat="45.44274" lon="5.92417">
        <ele>1544.98</ele>
        <time>2012-05-26T14:00:50Z</time>
      </trkpt>
      <trkpt lat="45.44274" lon="5.92418">
        <ele>1544.98</ele>
        <time>2012-05-26T14:01:20Z</time>
      </trkpt>
      <trkpt lat="45.44275" lon="5.92417">
        <ele>1543.53</ele>
        <time>2012-05-26T14:01:50Z</time>
      </trkpt>
      <trkpt lat="45.44275" lon="5.92418">
        <ele>1544.01</ele>
        <time>2012-05-26T14:02:20Z</time>
      </trkpt>
      <trkpt lat="45.44275" lon="5.92418">
        <ele>1544.01</ele>
        <time>2012-05-26T14:02:50Z</time>
      </trkpt>
      <trkpt lat="45.44278" lon="5.92419">
        <ele>1543.05</ele>
        <time>2012-05-26T14:03:20Z</time>
      </trkpt>
      <trkpt lat="45.44278" lon="5.92418">
        <ele>1543.05</ele>
        <time>2012-05-26T14:03:50Z</time>
      </trkpt>
      <trkpt lat="45.44278" lon="5.92418">
        <ele>1543.53</ele>
        <time>2012-05-26T14:04:20Z</time>
      </trkpt>
      <trkpt lat="45.44278" lon="5.92418">
        <ele>1543.53</ele>
        <time>2012-05-26T14:04:50Z</time>
      </trkpt>
      <trkpt lat="45.44278" lon="5.92418">
        <ele>1543.05</ele>
        <time>2012-05-26T14:05:20Z</time>
      </trkpt>
      <trkpt lat="45.44278" lon="5.92418">
        <ele>1543.05</ele>
        <time>2012-05-26T14:05:50Z</time>
      </trkpt>
      <trkpt lat="45.44278" lon="5.92418">
        <ele>1543.53</ele>
        <time>2012-05-26T14:06:20Z</time>
      </trkpt>
      <trkpt lat="45.44277" lon="5.92416">
        <ele>1542.09</ele>
        <time>2012-05-26T14:06:50Z</time>
      </trkpt>
      <trkpt lat="45.44272" lon="5.92413">
        <ele>1542.57</ele>
        <time>2012-05-26T14:07:20Z</time>
      </trkpt>
      <trkpt lat="45.44261" lon="5.92392">
        <ele>1544.01</ele>
        <time>2012-05-26T14:07:50Z</time>
      </trkpt>
      <trkpt lat="45.44241" lon="5.92347">
        <ele>1545.46</ele>
        <time>2012-05-26T14:08:20Z</time>
      </trkpt>
      <trkpt lat="45.44215" lon="5.92334">
        <ele>1542.57</ele>
        <time>2012-05-26T14:08:50Z</time>
      </trkpt>
      <trkpt lat="45.44185" lon="5.92369">
        <ele>1539.21</ele>
        <time>2012-05-26T14:09:20Z</time>
      </trkpt>
      <trkpt lat="45.4416" lon="5.92406">
        <ele>1539.21</ele>
        <time>2012-05-26T14:09:50Z</time>
      </trkpt>
      <trkpt lat="45.44117" lon="5.92407">
        <ele>1529.11</ele>
        <time>2012-05-26T14:10:20Z</time>
      </trkpt>
      <trkpt lat="45.44081" lon="5.92415">
        <ele>1531.52</ele>
        <time>2012-05-26T14:10:50Z</time>
      </trkpt>
      <trkpt lat="45.44045" lon="5.92424">
        <ele>1533.44</ele>
        <time>2012-05-26T14:11:20Z</time>
      </trkpt>
      <trkpt lat="45.44012" lon="5.9244">
        <ele>1524.31</ele>
        <time>2012-05-26T14:11:50Z</time>
      </trkpt>
      <trkpt lat="45.43976" lon="5.92443">
        <ele>1525.75</ele>
        <time>2012-05-26T14:12:20Z</time>
      </trkpt>
      <trkpt lat="45.43946" lon="5.9243">
        <ele>1532</ele>
        <time>2012-05-26T14:12:50Z</time>
      </trkpt>
      <trkpt lat="45.43917" lon="5.92426">
        <ele>1538.25</ele>
        <time>2012-05-26T14:13:20Z</time>
      </trkpt>
      <trkpt lat="45.43892" lon="5.92455">
        <ele>1540.17</ele>
        <time>2012-05-26T14:13:50Z</time>
      </trkpt>
      <trkpt lat="45.43869" lon="5.9249">
        <ele>1532.48</ele>
        <time>2012-05-26T14:14:20Z</time>
      </trkpt>
      <trkpt lat="45.43836" lon="5.92489">
        <ele>1534.88</ele>
        <time>2012-05-26T14:14:50Z</time>
      </trkpt>
      <trkpt lat="45.43817" lon="5.92459">
        <ele>1537.77</ele>
        <time>2012-05-26T14:15:20Z</time>
      </trkpt>
      <trkpt lat="45.4379" lon="5.92446">
        <ele>1540.17</ele>
        <time>2012-05-26T14:15:50Z</time>
      </trkpt>
      <trkpt lat="45.43765" lon="5.92427">
        <ele>1546.42</ele>
        <time>2012-05-26T14:16:20Z</time>
      </trkpt>
      <trkpt lat="45.43763" lon="5.92427">
        <ele>1546.9</ele>
        <time>2012-05-26T14:16:50Z</time>
      </trkpt>
      <trkpt lat="45.43759" lon="5.92428">
        <ele>1546.9</ele>
        <time>2012-05-26T14:17:20Z</time>
      </trkpt>
      <trkpt lat="45.43724" lon="5.92424">
        <ele>1548.82</ele>
        <time>2012-05-26T14:17:50Z</time>
      </trkpt>
      <trkpt lat="45.43697" lon="5.92409">
        <ele>1551.71</ele>
        <time>2012-05-26T14:18:20Z</time>
      </trkpt>
      <trkpt lat="45.43664" lon="5.92409">
        <ele>1554.11</ele>
        <time>2012-05-26T14:18:50Z</time>
      </trkpt>
      <trkpt lat="45.43637" lon="5.92424">
        <ele>1550.74</ele>
        <time>2012-05-26T14:19:20Z</time>
      </trkpt>
      <trkpt lat="45.43611" lon="5.92425">
        <ele>1543.05</ele>
        <time>2012-05-26T14:19:50Z</time>
      </trkpt>
      <trkpt lat="45.43578" lon="5.92429">
        <ele>1541.13</ele>
        <time>2012-05-26T14:20:20Z</time>
      </trkpt>
      <trkpt lat="45.43546" lon="5.92431">
        <ele>1542.57</ele>
        <time>2012-05-26T14:20:50Z</time>
      </trkpt>
      <trkpt lat="45.43526" lon="5.92437">
        <ele>1540.65</ele>
        <time>2012-05-26T14:21:20Z</time>
      </trkpt>
      <trkpt lat="45.43504" lon="5.92412">
        <ele>1547.38</ele>
        <time>2012-05-26T14:21:50Z</time>
      </trkpt>
      <trkpt lat="45.43484" lon="5.92392">
        <ele>1550.26</ele>
        <time>2012-05-26T14:22:20Z</time>
      </trkpt>
      <trkpt lat="45.4346" lon="5.92366">
        <ele>1550.74</ele>
        <time>2012-05-26T14:22:50Z</time>
      </trkpt>
      <trkpt lat="45.43445" lon="5.92345">
        <ele>1554.11</ele>
        <time>2012-05-26T14:23:20Z</time>
      </trkpt>
      <trkpt lat="45.43425" lon="5.92309">
        <ele>1554.59</ele>
        <time>2012-05-26T14:23:50Z</time>
      </trkpt>
      <trkpt lat="45.4342" lon="5.92272">
        <ele>1557.47</ele>
        <time>2012-05-26T14:24:20Z</time>
      </trkpt>
      <trkpt lat="45.43405" lon="5.92259">
        <ele>1562.28</ele>
        <time>2012-05-26T14:24:50Z</time>
      </trkpt>
      <trkpt lat="45.43385" lon="5.92236">
        <ele>1564.68</ele>
        <time>2012-05-26T14:25:20Z</time>
      </trkpt>
      <trkpt lat="45.43372" lon="5.92201">
        <ele>1568.05</ele>
        <time>2012-05-26T14:25:50Z</time>
      </trkpt>
      <trkpt lat="45.43338" lon="5.92184">
        <ele>1568.53</ele>
        <time>2012-05-26T14:26:20Z</time>
      </trkpt>
      <trkpt lat="45.43322" lon="5.92145">
        <ele>1570.45</ele>
        <time>2012-05-26T14:26:50Z</time>
      </trkpt>
      <trkpt lat="45.43278" lon="5.9212">
        <ele>1569.97</ele>
        <time>2012-05-26T14:27:20Z</time>
      </trkpt>
      <trkpt lat="45.43256" lon="5.9213">
        <ele>1569.97</ele>
        <time>2012-05-26T14:27:50Z</time>
      </trkpt>
      <trkpt lat="45.43254" lon="5.92131">
        <ele>1573.33</ele>
        <time>2012-05-26T14:28:20Z</time>
      </trkpt>
      <trkpt lat="45.43254" lon="5.92132">
        <ele>1571.41</ele>
        <time>2012-05-26T14:28:50Z</time>
      </trkpt>
      <trkpt lat="45.4325" lon="5.92132">
        <ele>1569.97</ele>
        <time>2012-05-26T14:29:20Z</time>
      </trkpt>
      <trkpt lat="45.4325" lon="5.92132">
        <ele>1569.01</ele>
        <time>2012-05-26T14:29:50Z</time>
      </trkpt>
      <trkpt lat="45.4325" lon="5.92132">
        <ele>1572.37</ele>
        <time>2012-05-26T14:30:20Z</time>
      </trkpt>
      <trkpt lat="45.43242" lon="5.9214">
        <ele>1571.41</ele>
        <time>2012-05-26T14:30:50Z</time>
      </trkpt>
      <trkpt lat="45.4322" lon="5.92173">
        <ele>1569.49</ele>
        <time>2012-05-26T14:31:20Z</time>
      </trkpt>
      <trkpt lat="45.43191" lon="5.92187">
        <ele>1571.89</ele>
        <time>2012-05-26T14:31:50Z</time>
      </trkpt>
      <trkpt lat="45.43167" lon="5.92188">
        <ele>1571.89</ele>
        <time>2012-05-26T14:32:20Z</time>
      </trkpt>
      <trkpt lat="45.43154" lon="5.9219">
        <ele>1573.82</ele>
        <time>2012-05-26T14:32:50Z</time>
      </trkpt>
      <trkpt lat="45.43125" lon="5.92186">
        <ele>1576.22</ele>
        <time>2012-05-26T14:33:20Z</time>
      </trkpt>
      <trkpt lat="45.43101" lon="5.92182">
        <ele>1577.18</ele>
        <time>2012-05-26T14:33:50Z</time>
      </trkpt>
      <trkpt lat="45.43076" lon="5.92168">
        <ele>1578.62</ele>
        <time>2012-05-26T14:34:20Z</time>
      </trkpt>
      <trkpt lat="45.43065" lon="5.92177">
        <ele>1590.16</ele>
        <time>2012-05-26T14:34:50Z</time>
      </trkpt>
      <trkpt lat="45.43041" lon="5.92189">
        <ele>1592.56</ele>
        <time>2012-05-26T14:35:20Z</time>
      </trkpt>
      <trkpt lat="45.43008" lon="5.92193">
        <ele>1594.96</ele>
        <time>2012-05-26T14:35:50Z</time>
      </trkpt>
      <trkpt lat="45.42977" lon="5.92184">
        <ele>1596.41</ele>
        <time>2012-05-26T14:36:20Z</time>
      </trkpt>
      <trkpt lat="45.42948" lon="5.92176">
        <ele>1598.81</ele>
        <time>2012-05-26T14:36:50Z</time>
      </trkpt>
      <trkpt lat="45.42921" lon="5.92168">
        <ele>1600.73</ele>
        <time>2012-05-26T14:37:20Z</time>
      </trkpt>
      <trkpt lat="45.42913" lon="5.92162">
        <ele>1601.69</ele>
        <time>2012-05-26T14:37:50Z</time>
      </trkpt>
      <trkpt lat="45.42914" lon="5.9216">
        <ele>1600.25</ele>
        <time>2012-05-26T14:38:20Z</time>
      </trkpt>
      <trkpt lat="45.42914" lon="5.9216">
        <ele>1600.25</ele>
        <time>2012-05-26T14:38:50Z</time>
      </trkpt>
      <trkpt lat="45.42914" lon="5.9216">
        <ele>1601.21</ele>
        <time>2012-05-26T14:39:20Z</time>
      </trkpt>
      <trkpt lat="45.42914" lon="5.92158">
        <ele>1599.77</ele>
        <time>2012-05-26T14:39:50Z</time>
      </trkpt>
      <trkpt lat="45.42912" lon="5.92154">
        <ele>1599.77</ele>
        <time>2012-05-26T14:40:20Z</time>
      </trkpt>
      <trkpt lat="45.42912" lon="5.92154">
        <ele>1599.77</ele>
        <time>2012-05-26T14:40:50Z</time>
      </trkpt>
      <trkpt lat="45.42912" lon="5.92154">
        <ele>1599.29</ele>
        <time>2012-05-26T14:41:20Z</time>
      </trkpt>
      <trkpt lat="45.42912" lon="5.92155">
        <ele>1600.73</ele>
        <time>2012-05-26T14:41:50Z</time>
      </trkpt>
      <trkpt lat="45.42888" lon="5.92142">
        <ele>1598.81</ele>
        <time>2012-05-26T14:42:20Z</time>
      </trkpt>
      <trkpt lat="45.42866" lon="5.92113">
        <ele>1602.17</ele>
        <time>2012-05-26T14:42:50Z</time>
      </trkpt>
      <trkpt lat="45.42834" lon="5.92089">
        <ele>1600.73</ele>
        <time>2012-05-26T14:43:20Z</time>
      </trkpt>
      <trkpt lat="45.42803" lon="5.92073">
        <ele>1595.45</ele>
        <time>2012-05-26T14:43:50Z</time>
      </trkpt>
      <trkpt lat="45.42769" lon="5.92061">
        <ele>1596.89</ele>
        <time>2012-05-26T14:44:20Z</time>
      </trkpt>
      <trkpt lat="45.42736" lon="5.92049">
        <ele>1596.89</ele>
        <time>2012-05-26T14:44:50Z</time>
      </trkpt>
      <trkpt lat="45.42704" lon="5.92028">
        <ele>1599.29</ele>
        <time>2012-05-26T14:45:20Z</time>
      </trkpt>
      <trkpt lat="45.42668" lon="5.9202">
        <ele>1599.77</ele>
        <time>2012-05-26T14:45:50Z</time>
      </trkpt>
      <trkpt lat="45.42635" lon="5.92004">
        <ele>1603.14</ele>
        <time>2012-05-26T14:46:20Z</time>
      </trkpt>
      <trkpt lat="45.42606" lon="5.91985">
        <ele>1603.14</ele>
        <time>2012-05-26T14:46:50Z</time>
      </trkpt>
      <trkpt lat="45.42582" lon="5.9197">
        <ele>1606.98</ele>
        <time>2012-05-26T14:47:20Z</time>
      </trkpt>
      <trkpt lat="45.4256" lon="5.91955">
        <ele>1609.38</ele>
        <time>2012-05-26T14:47:50Z</time>
      </trkpt>
      <trkpt lat="45.42541" lon="5.91938">
        <ele>1615.15</ele>
        <time>2012-05-26T14:48:20Z</time>
      </trkpt>
      <trkpt lat="45.42523" lon="5.91908">
        <ele>1618.04</ele>
        <time>2012-05-26T14:48:50Z</time>
      </trkpt>
      <trkpt lat="45.42502" lon="5.91902">
        <ele>1622.84</ele>
        <time>2012-05-26T14:49:20Z</time>
      </trkpt>
      <trkpt lat="45.42487" lon="5.91871">
        <ele>1625.25</ele>
        <time>2012-05-26T14:49:50Z</time>
      </trkpt>
      <trkpt lat="45.42462" lon="5.91846">
        <ele>1626.21</ele>
        <time>2012-05-26T14:50:20Z</time>
      </trkpt>
      <trkpt lat="45.42431" lon="5.91843">
        <ele>1631.98</ele>
        <time>2012-05-26T14:50:50Z</time>
      </trkpt>
      <trkpt lat="45.42413" lon="5.91818">
        <ele>1633.9</ele>
        <time>2012-05-26T14:51:20Z</time>
      </trkpt>
      <trkpt lat="45.42389" lon="5.9181">
        <ele>1636.3</ele>
        <time>2012-05-26T14:51:50Z</time>
      </trkpt>
      <trkpt lat="45.42358" lon="5.91792">
        <ele>1639.19</ele>
        <time>2012-05-26T14:52:20Z</time>
      </trkpt>
      <trkpt lat="45.42342" lon="5.91764">
        <ele>1640.63</ele>
        <time>2012-05-26T14:52:50Z</time>
      </trkpt>
      <trkpt lat="45.42318" lon="5.91745">
        <ele>1639.19</ele>
        <time>2012-05-26T14:53:20Z</time>
      </trkpt>
      <trkpt lat="45.4229" lon="5.9173">
        <ele>1641.11</ele>
        <time>2012-05-26T14:53:50Z</time>
      </trkpt>
      <trkpt lat="45.42281" lon="5.91724">
        <ele>1641.11</ele>
        <time>2012-05-26T14:54:20Z</time>
      </trkpt>
      <trkpt lat="45.42281" lon="5.91724">
        <ele>1642.55</ele>
        <time>2012-05-26T14:54:50Z</time>
      </trkpt>
      <trkpt lat="45.42259" lon="5.91719">
        <ele>1642.55</ele>
        <time>2012-05-26T14:55:20Z</time>
      </trkpt>
      <trkpt lat="45.42226" lon="5.91715">
        <ele>1643.51</ele>
        <time>2012-05-26T14:55:50Z</time>
      </trkpt>
      <trkpt lat="45.42196" lon="5.91722">
        <ele>1646.88</ele>
        <time>2012-05-26T14:56:20Z</time>
      </trkpt>
      <trkpt lat="45.42168" lon="5.91721">
        <ele>1649.76</ele>
        <time>2012-05-26T14:56:50Z</time>
      </trkpt>
      <trkpt lat="45.42139" lon="5.91704">
        <ele>1648.8</ele>
        <time>2012-05-26T14:57:20Z</time>
      </trkpt>
      <trkpt lat="45.42115" lon="5.9168">
        <ele>1652.16</ele>
        <time>2012-05-26T14:57:50Z</time>
      </trkpt>
      <trkpt lat="45.42085" lon="5.91659">
        <ele>1652.16</ele>
        <time>2012-05-26T14:58:20Z</time>
      </trkpt>
      <trkpt lat="45.42056" lon="5.91632">
        <ele>1654.09</ele>
        <time>2012-05-26T14:58:50Z</time>
      </trkpt>
      <trkpt lat="45.42028" lon="5.91625">
        <ele>1654.09</ele>
        <time>2012-05-26T14:59:20Z</time>
      </trkpt>
      <trkpt lat="45.41997" lon="5.91617">
        <ele>1656.01</ele>
        <time>2012-05-26T14:59:50Z</time>
      </trkpt>
      <trkpt lat="45.41964" lon="5.91605">
        <ele>1656.01</ele>
        <time>2012-05-26T15:00:20Z</time>
      </trkpt>
      <trkpt lat="45.41928" lon="5.91595">
        <ele>1655.53</ele>
        <time>2012-05-26T15:00:50Z</time>
      </trkpt>
      <trkpt lat="45.4189" lon="5.91588">
        <ele>1656.49</ele>
        <time>2012-05-26T15:01:20Z</time>
      </trkpt>
      <trkpt lat="45.41863" lon="5.91576">
        <ele>1659.85</ele>
        <time>2012-05-26T15:01:50Z</time>
      </trkpt>
      <trkpt lat="45.41832" lon="5.91561">
        <ele>1662.26</ele>
        <time>2012-05-26T15:02:20Z</time>
      </trkpt>
      <trkpt lat="45.41803" lon="5.91538">
        <ele>1664.66</ele>
        <time>2012-05-26T15:02:50Z</time>
      </trkpt>
      <trkpt lat="45.41773" lon="5.91517">
        <ele>1664.18</ele>
        <time>2012-05-26T15:03:20Z</time>
      </trkpt>
      <trkpt lat="45.41741" lon="5.91497">
        <ele>1663.22</ele>
        <time>2012-05-26T15:03:50Z</time>
      </trkpt>
      <trkpt lat="45.41713" lon="5.91485">
        <ele>1664.66</ele>
        <time>2012-05-26T15:04:20Z</time>
      </trkpt>
      <trkpt lat="45.41688" lon="5.91465">
        <ele>1666.58</ele>
        <time>2012-05-26T15:04:50Z</time>
      </trkpt>
      <trkpt lat="45.41668" lon="5.91441">
        <ele>1665.14</ele>
        <time>2012-05-26T15:05:20Z</time>
      </trkpt>
      <trkpt lat="45.41638" lon="5.91436">
        <ele>1668.51</ele>
        <time>2012-05-26T15:05:50Z</time>
      </trkpt>
      <trkpt lat="45.41609" lon="5.91438">
        <ele>1669.95</ele>
        <time>2012-05-26T15:06:20Z</time>
      </trkpt>
      <trkpt lat="45.41579" lon="5.91437">
        <ele>1666.58</ele>
        <time>2012-05-26T15:06:50Z</time>
      </trkpt>
      <trkpt lat="45.41551" lon="5.91448">
        <ele>1669.47</ele>
        <time>2012-05-26T15:07:20Z</time>
      </trkpt>
      <trkpt lat="45.41518" lon="5.91448">
        <ele>1666.58</ele>
        <time>2012-05-26T15:07:50Z</time>
      </trkpt>
      <trkpt lat="45.41491" lon="5.91456">
        <ele>1664.66</ele>
        <time>2012-05-26T15:08:20Z</time>
      </trkpt>
      <trkpt lat="45.4148" lon="5.91475">
        <ele>1662.26</ele>
        <time>2012-05-26T15:08:50Z</time>
      </trkpt>
      <trkpt lat="45.41463" lon="5.915">
        <ele>1664.18</ele>
        <time>2012-05-26T15:09:20Z</time>
      </trkpt>
      <trkpt lat="45.41463" lon="5.915">
        <ele>1664.18</ele>
        <time>2012-05-26T15:09:50Z</time>
      </trkpt>
      <trkpt lat="45.41463" lon="5.91499">
        <ele>1663.7</ele>
        <time>2012-05-26T15:10:20Z</time>
      </trkpt>
      <trkpt lat="45.41463" lon="5.91499">
        <ele>1663.7</ele>
        <time>2012-05-26T15:10:50Z</time>
      </trkpt>
      <trkpt lat="45.41463" lon="5.91499">
        <ele>1663.7</ele>
        <time>2012-05-26T15:11:20Z</time>
      </trkpt>
      <trkpt lat="45.41465" lon="5.91497">
        <ele>1663.7</ele>
        <time>2012-05-26T15:11:50Z</time>
      </trkpt>
      <trkpt lat="45.41465" lon="5.91496">
        <ele>1664.66</ele>
        <time>2012-05-26T15:12:20Z</time>
      </trkpt>
      <trkpt lat="45.41465" lon="5.91496">
        <ele>1664.18</ele>
        <time>2012-05-26T15:12:50Z</time>
      </trkpt>
      <trkpt lat="45.41464" lon="5.91496">
        <ele>1663.7</ele>
        <time>2012-05-26T15:13:20Z</time>
      </trkpt>
      <trkpt lat="45.41464" lon="5.91496">
        <ele>1664.18</ele>
        <time>2012-05-26T15:13:50Z</time>
      </trkpt>
      <trkpt lat="45.41464" lon="5.91495">
        <ele>1664.18</ele>
        <time>2012-05-26T15:14:20Z</time>
      </trkpt>
      <trkpt lat="45.41464" lon="5.91496">
        <ele>1665.14</ele>
        <time>2012-05-26T15:14:50Z</time>
      </trkpt>
      <trkpt lat="45.41463" lon="5.91496">
        <ele>1664.18</ele>
        <time>2012-05-26T15:15:20Z</time>
      </trkpt>
      <trkpt lat="45.41463" lon="5.91496">
        <ele>1664.18</ele>
        <time>2012-05-26T15:15:50Z</time>
      </trkpt>
      <trkpt lat="45.41462" lon="5.91497">
        <ele>1665.14</ele>
        <time>2012-05-26T15:16:20Z</time>
      </trkpt>
      <trkpt lat="45.41462" lon="5.91497">
        <ele>1664.18</ele>
        <time>2012-05-26T15:16:50Z</time>
      </trkpt>
      <trkpt lat="45.41462" lon="5.91497">
        <ele>1664.66</ele>
        <time>2012-05-26T15:17:20Z</time>
      </trkpt>
      <trkpt lat="45.41462" lon="5.91497">
        <ele>1664.66</ele>
        <time>2012-05-26T15:17:50Z</time>
      </trkpt>
      <trkpt lat="45.41466" lon="5.91462">
        <ele>1662.74</ele>
        <time>2012-05-26T15:18:20Z</time>
      </trkpt>
      <trkpt lat="45.4147" lon="5.91434">
        <ele>1661.3</ele>
        <time>2012-05-26T15:18:50Z</time>
      </trkpt>
      <trkpt lat="45.41475" lon="5.91436">
        <ele>1661.3</ele>
        <time>2012-05-26T15:19:20Z</time>
      </trkpt>
      <trkpt lat="45.41461" lon="5.91434">
        <ele>1661.3</ele>
        <time>2012-05-26T15:19:50Z</time>
      </trkpt>
      <trkpt lat="45.41467" lon="5.91467">
        <ele>1662.26</ele>
        <time>2012-05-26T15:20:20Z</time>
      </trkpt>
      <trkpt lat="45.41462" lon="5.91497">
        <ele>1666.1</ele>
        <time>2012-05-26T15:20:50Z</time>
      </trkpt>
      <trkpt lat="45.41463" lon="5.91497">
        <ele>1668.02</ele>
        <time>2012-05-26T15:21:20Z</time>
      </trkpt>
      <trkpt lat="45.41463" lon="5.91497">
        <ele>1667.06</ele>
        <time>2012-05-26T15:21:50Z</time>
      </trkpt>
      <trkpt lat="45.41463" lon="5.91498">
        <ele>1665.62</ele>
        <time>2012-05-26T15:22:20Z</time>
      </trkpt>
      <trkpt lat="45.41459" lon="5.91498">
        <ele>1666.58</ele>
        <time>2012-05-26T15:22:50Z</time>
      </trkpt>
      <trkpt lat="45.41431" lon="5.91463">
        <ele>1665.14</ele>
        <time>2012-05-26T15:23:20Z</time>
      </trkpt>
      <trkpt lat="45.41413" lon="5.9144">
        <ele>1664.66</ele>
        <time>2012-05-26T15:23:50Z</time>
      </trkpt>
      <trkpt lat="45.41406" lon="5.91428">
        <ele>1662.26</ele>
        <time>2012-05-26T15:24:20Z</time>
      </trkpt>
      <trkpt lat="45.41406" lon="5.91428">
        <ele>1662.74</ele>
        <time>2012-05-26T15:24:50Z</time>
      </trkpt>
      <trkpt lat="45.4138" lon="5.91411">
        <ele>1661.3</ele>
        <time>2012-05-26T15:25:20Z</time>
      </trkpt>
      <trkpt lat="45.41363" lon="5.91369">
        <ele>1658.41</ele>
        <time>2012-05-26T15:25:50Z</time>
      </trkpt>
      <trkpt lat="45.41329" lon="5.91369">
        <ele>1659.85</ele>
        <time>2012-05-26T15:26:20Z</time>
      </trkpt>
      <trkpt lat="45.41291" lon="5.91387">
        <ele>1660.33</ele>
        <time>2012-05-26T15:26:50Z</time>
      </trkpt>
      <trkpt lat="45.41266" lon="5.91379">
        <ele>1659.37</ele>
        <time>2012-05-26T15:27:20Z</time>
      </trkpt>
      <trkpt lat="45.41265" lon="5.91377">
        <ele>1656.01</ele>
        <time>2012-05-26T15:27:50Z</time>
      </trkpt>
      <trkpt lat="45.41252" lon="5.91366">
        <ele>1654.09</ele>
        <time>2012-05-26T15:28:20Z</time>
      </trkpt>
      <trkpt lat="45.41224" lon="5.91353">
        <ele>1655.53</ele>
        <time>2012-05-26T15:28:50Z</time>
      </trkpt>
      <trkpt lat="45.41198" lon="5.91343">
        <ele>1658.89</ele>
        <time>2012-05-26T15:29:20Z</time>
      </trkpt>
      <trkpt lat="45.41183" lon="5.91357">
        <ele>1653.6</ele>
        <time>2012-05-26T15:29:50Z</time>
      </trkpt>
      <trkpt lat="45.41162" lon="5.91327">
        <ele>1651.2</ele>
        <time>2012-05-26T15:30:20Z</time>
      </trkpt>
      <trkpt lat="45.41141" lon="5.91291">
        <ele>1648.8</ele>
        <time>2012-05-26T15:30:50Z</time>
      </trkpt>
      <trkpt lat="45.41125" lon="5.91276">
        <ele>1652.16</ele>
        <time>2012-05-26T15:31:20Z</time>
      </trkpt>
      <trkpt lat="45.41094" lon="5.91276">
        <ele>1655.05</ele>
        <time>2012-05-26T15:31:50Z</time>
      </trkpt>
      <trkpt lat="45.4107" lon="5.91265">
        <ele>1658.41</ele>
        <time>2012-05-26T15:32:20Z</time>
      </trkpt>
      <trkpt lat="45.41056" lon="5.91223">
        <ele>1655.53</ele>
        <time>2012-05-26T15:32:50Z</time>
      </trkpt>
      <trkpt lat="45.41031" lon="5.91187">
        <ele>1654.09</ele>
        <time>2012-05-26T15:33:20Z</time>
      </trkpt>
      <trkpt lat="45.41028" lon="5.9116">
        <ele>1651.68</ele>
        <time>2012-05-26T15:33:50Z</time>
      </trkpt>
      <trkpt lat="45.41011" lon="5.91169">
        <ele>1644.47</ele>
        <time>2012-05-26T15:34:20Z</time>
      </trkpt>
      <trkpt lat="45.4099" lon="5.91191">
        <ele>1636.3</ele>
        <time>2012-05-26T15:34:50Z</time>
      </trkpt>
      <trkpt lat="45.40978" lon="5.91205">
        <ele>1627.17</ele>
        <time>2012-05-26T15:35:20Z</time>
      </trkpt>
      <trkpt lat="45.40966" lon="5.9122">
        <ele>1618.52</ele>
        <time>2012-05-26T15:35:50Z</time>
      </trkpt>
      <trkpt lat="45.40968" lon="5.91243">
        <ele>1610.83</ele>
        <time>2012-05-26T15:36:20Z</time>
      </trkpt>
      <trkpt lat="45.40964" lon="5.91242">
        <ele>1606.5</ele>
        <time>2012-05-26T15:36:50Z</time>
      </trkpt>
      <trkpt lat="45.40947" lon="5.91226">
        <ele>1596.89</ele>
        <time>2012-05-26T15:37:20Z</time>
      </trkpt>
      <trkpt lat="45.40929" lon="5.91212">
        <ele>1592.08</ele>
        <time>2012-05-26T15:37:50Z</time>
      </trkpt>
      <trkpt lat="45.4091" lon="5.91192">
        <ele>1586.31</ele>
        <time>2012-05-26T15:38:20Z</time>
      </trkpt>
      <trkpt lat="45.40893" lon="5.91179">
        <ele>1581.99</ele>
        <time>2012-05-26T15:38:50Z</time>
      </trkpt>
      <trkpt lat="45.40875" lon="5.91167">
        <ele>1572.37</ele>
        <time>2012-05-26T15:39:20Z</time>
      </trkpt>
      <trkpt lat="45.40862" lon="5.91165">
        <ele>1567.57</ele>
        <time>2012-05-26T15:39:50Z</time>
      </trkpt>
      <trkpt lat="45.40852" lon="5.91168">
        <ele>1556.99</ele>
        <time>2012-05-26T15:40:20Z</time>
      </trkpt>
      <trkpt lat="45.40823" lon="5.9117">
        <ele>1550.26</ele>
        <time>2012-05-26T15:40:50Z</time>
      </trkpt>
      <trkpt lat="45.40833" lon="5.91212">
        <ele>1544.98</ele>
        <time>2012-05-26T15:41:20Z</time>
      </trkpt>
      <trkpt lat="45.40837" lon="5.91247">
        <ele>1535.36</ele>
        <time>2012-05-26T15:41:50Z</time>
      </trkpt>
      <trkpt lat="45.40838" lon="5.91293">
        <ele>1530.56</ele>
        <time>2012-05-26T15:42:20Z</time>
      </trkpt>
      <trkpt lat="45.40829" lon="5.91311">
        <ele>1526.71</ele>
        <time>2012-05-26T15:42:50Z</time>
      </trkpt>
      <trkpt lat="45.40827" lon="5.91311">
        <ele>1527.67</ele>
        <time>2012-05-26T15:43:20Z</time>
      </trkpt>
      <trkpt lat="45.40827" lon="5.9131">
        <ele>1530.56</ele>
        <time>2012-05-26T15:43:50Z</time>
      </trkpt>
      <trkpt lat="45.40828" lon="5.91311">
        <ele>1527.67</ele>
        <time>2012-05-26T15:44:20Z</time>
      </trkpt>
      <trkpt lat="45.40828" lon="5.91311">
        <ele>1529.11</ele>
        <time>2012-05-26T15:44:50Z</time>
      </trkpt>
      <trkpt lat="45.40811" lon="5.91299">
        <ele>1525.75</ele>
        <time>2012-05-26T15:45:20Z</time>
      </trkpt>
      <trkpt lat="45.40794" lon="5.91279">
        <ele>1521.9</ele>
        <time>2012-05-26T15:45:50Z</time>
      </trkpt>
      <trkpt lat="45.40777" lon="5.91287">
        <ele>1516.14</ele>
        <time>2012-05-26T15:46:20Z</time>
      </trkpt>
      <trkpt lat="45.40757" lon="5.9128">
        <ele>1509.41</ele>
        <time>2012-05-26T15:46:50Z</time>
      </trkpt>
      <trkpt lat="45.40733" lon="5.9126">
        <ele>1505.08</ele>
        <time>2012-05-26T15:47:20Z</time>
      </trkpt>
      <trkpt lat="45.40724" lon="5.91228">
        <ele>1495.47</ele>
        <time>2012-05-26T15:47:50Z</time>
      </trkpt>
      <trkpt lat="45.40701" lon="5.91178">
        <ele>1494.03</ele>
        <time>2012-05-26T15:48:20Z</time>
      </trkpt>
      <trkpt lat="45.40677" lon="5.91134">
        <ele>1489.7</ele>
        <time>2012-05-26T15:48:50Z</time>
      </trkpt>
      <trkpt lat="45.40642" lon="5.91102">
        <ele>1486.82</ele>
        <time>2012-05-26T15:49:20Z</time>
      </trkpt>
      <trkpt lat="45.40619" lon="5.91075">
        <ele>1481.53</ele>
        <time>2012-05-26T15:49:50Z</time>
      </trkpt>
      <trkpt lat="45.40611" lon="5.91066">
        <ele>1475.28</ele>
        <time>2012-05-26T15:50:20Z</time>
      </trkpt>
      <trkpt lat="45.40595" lon="5.91031">
        <ele>1475.28</ele>
        <time>2012-05-26T15:50:50Z</time>
      </trkpt>
      <trkpt lat="45.40568" lon="5.90989">
        <ele>1470.47</ele>
        <time>2012-05-26T15:51:20Z</time>
      </trkpt>
      <trkpt lat="45.40549" lon="5.90949">
        <ele>1470.47</ele>
        <time>2012-05-26T15:51:50Z</time>
      </trkpt>
      <trkpt lat="45.40517" lon="5.90916">
        <ele>1468.55</ele>
        <time>2012-05-26T15:52:20Z</time>
      </trkpt>
      <trkpt lat="45.405" lon="5.90936">
        <ele>1472.4</ele>
        <time>2012-05-26T15:52:50Z</time>
      </trkpt>
      <trkpt lat="45.40479" lon="5.90966">
        <ele>1482.97</ele>
        <time>2012-05-26T15:53:20Z</time>
      </trkpt>
      <trkpt lat="45.40477" lon="5.9098">
        <ele>1483.93</ele>
        <time>2012-05-26T15:53:50Z</time>
      </trkpt>
      <trkpt lat="45.40457" lon="5.90994">
        <ele>1491.14</ele>
        <time>2012-05-26T15:54:20Z</time>
      </trkpt>
      <trkpt lat="45.40438" lon="5.91005">
        <ele>1496.91</ele>
        <time>2012-05-26T15:54:50Z</time>
      </trkpt>
      <trkpt lat="45.40416" lon="5.91005">
        <ele>1504.6</ele>
        <time>2012-05-26T15:55:20Z</time>
      </trkpt>
      <trkpt lat="45.40391" lon="5.90998">
        <ele>1508.93</ele>
        <time>2012-05-26T15:55:50Z</time>
      </trkpt>
      <trkpt lat="45.40359" lon="5.90967">
        <ele>1503.64</ele>
        <time>2012-05-26T15:56:20Z</time>
      </trkpt>
      <trkpt lat="45.40326" lon="5.90946">
        <ele>1506.04</ele>
        <time>2012-05-26T15:56:50Z</time>
      </trkpt>
      <trkpt lat="45.40284" lon="5.90919">
        <ele>1506.04</ele>
        <time>2012-05-26T15:57:20Z</time>
      </trkpt>
      <trkpt lat="45.40256" lon="5.90893">
        <ele>1504.12</ele>
        <time>2012-05-26T15:57:50Z</time>
      </trkpt>
      <trkpt lat="45.4022" lon="5.90861">
        <ele>1505.08</ele>
        <time>2012-05-26T15:58:20Z</time>
      </trkpt>
      <trkpt lat="45.40199" lon="5.90849">
        <ele>1508.93</ele>
        <time>2012-05-26T15:58:50Z</time>
      </trkpt>
      <trkpt lat="45.40155" lon="5.90828">
        <ele>1513.25</ele>
        <time>2012-05-26T15:59:20Z</time>
      </trkpt>
      <trkpt lat="45.40122" lon="5.90807">
        <ele>1516.14</ele>
        <time>2012-05-26T15:59:50Z</time>
      </trkpt>
      <trkpt lat="45.40094" lon="5.9078">
        <ele>1517.1</ele>
        <time>2012-05-26T16:00:20Z</time>
      </trkpt>
      <trkpt lat="45.40054" lon="5.90765">
        <ele>1524.31</ele>
        <time>2012-05-26T16:00:50Z</time>
      </trkpt>
      <trkpt lat="45.40021" lon="5.90754">
        <ele>1531.04</ele>
        <time>2012-05-26T16:01:20Z</time>
      </trkpt>
      <trkpt lat="45.39979" lon="5.90743">
        <ele>1533.92</ele>
        <time>2012-05-26T16:01:50Z</time>
      </trkpt>
      <trkpt lat="45.39953" lon="5.90734">
        <ele>1542.09</ele>
        <time>2012-05-26T16:02:20Z</time>
      </trkpt>
      <trkpt lat="45.39907" lon="5.90729">
        <ele>1537.29</ele>
        <time>2012-05-26T16:02:50Z</time>
      </trkpt>
      <trkpt lat="45.39866" lon="5.90726">
        <ele>1536.32</ele>
        <time>2012-05-26T16:03:20Z</time>
      </trkpt>
      <trkpt lat="45.39844" lon="5.9071">
        <ele>1534.88</ele>
        <time>2012-05-26T16:03:50Z</time>
      </trkpt>
      <trkpt lat="45.39813" lon="5.90708">
        <ele>1541.13</ele>
        <time>2012-05-26T16:04:20Z</time>
      </trkpt>
      <trkpt lat="45.39781" lon="5.90707">
        <ele>1547.38</ele>
        <time>2012-05-26T16:04:50Z</time>
      </trkpt>
      <trkpt lat="45.39764" lon="5.90704">
        <ele>1552.19</ele>
        <time>2012-05-26T16:05:20Z</time>
      </trkpt>
      <trkpt lat="45.39734" lon="5.90693">
        <ele>1553.63</ele>
        <time>2012-05-26T16:05:50Z</time>
      </trkpt>
      <trkpt lat="45.397" lon="5.90703">
        <ele>1560.84</ele>
        <time>2012-05-26T16:06:20Z</time>
      </trkpt>
      <trkpt lat="45.39668" lon="5.90711">
        <ele>1568.53</ele>
        <time>2012-05-26T16:06:50Z</time>
      </trkpt>
      <trkpt lat="45.39667" lon="5.90724">
        <ele>1575.26</ele>
        <time>2012-05-26T16:07:20Z</time>
      </trkpt>
      <trkpt lat="45.39643" lon="5.90703">
        <ele>1572.37</ele>
        <time>2012-05-26T16:07:50Z</time>
      </trkpt>
      <trkpt lat="45.39614" lon="5.90679">
        <ele>1573.33</ele>
        <time>2012-05-26T16:08:20Z</time>
      </trkpt>
      <trkpt lat="45.3958" lon="5.90637">
        <ele>1569.01</ele>
        <time>2012-05-26T16:08:50Z</time>
      </trkpt>
      <trkpt lat="45.39544" lon="5.90601">
        <ele>1569.97</ele>
        <time>2012-05-26T16:09:20Z</time>
      </trkpt>
      <trkpt lat="45.39515" lon="5.90566">
        <ele>1569.97</ele>
        <time>2012-05-26T16:09:50Z</time>
      </trkpt>
      <trkpt lat="45.39505" lon="5.90523">
        <ele>1563.24</ele>
        <time>2012-05-26T16:10:20Z</time>
      </trkpt>
      <trkpt lat="45.39473" lon="5.90488">
        <ele>1567.57</ele>
        <time>2012-05-26T16:10:50Z</time>
      </trkpt>
      <trkpt lat="45.3946" lon="5.90455">
        <ele>1563.24</ele>
        <time>2012-05-26T16:11:20Z</time>
      </trkpt>
      <trkpt lat="45.39441" lon="5.90414">
        <ele>1556.99</ele>
        <time>2012-05-26T16:11:50Z</time>
      </trkpt>
      <trkpt lat="45.39422" lon="5.90398">
        <ele>1562.28</ele>
        <time>2012-05-26T16:12:20Z</time>
      </trkpt>
      <trkpt lat="45.39402" lon="5.90384">
        <ele>1566.61</ele>
        <time>2012-05-26T16:12:50Z</time>
      </trkpt>
      <trkpt lat="45.39372" lon="5.90369">
        <ele>1563.72</ele>
        <time>2012-05-26T16:13:20Z</time>
      </trkpt>
      <trkpt lat="45.39346" lon="5.90328">
        <ele>1556.03</ele>
        <time>2012-05-26T16:13:50Z</time>
      </trkpt>
      <trkpt lat="45.39333" lon="5.90285">
        <ele>1554.59</ele>
        <time>2012-05-26T16:14:20Z</time>
      </trkpt>
      <trkpt lat="45.39321" lon="5.90245">
        <ele>1551.22</ele>
        <time>2012-05-26T16:14:50Z</time>
      </trkpt>
      <trkpt lat="45.39335" lon="5.90234">
        <ele>1556.03</ele>
        <time>2012-05-26T16:15:20Z</time>
      </trkpt>
      <trkpt lat="45.39341" lon="5.90206">
        <ele>1560.36</ele>
        <time>2012-05-26T16:15:50Z</time>
      </trkpt>
      <trkpt lat="45.39329" lon="5.90184">
        <ele>1566.12</ele>
        <time>2012-05-26T16:16:20Z</time>
      </trkpt>
      <trkpt lat="45.39315" lon="5.90155">
        <ele>1564.2</ele>
        <time>2012-05-26T16:16:50Z</time>
      </trkpt>
      <trkpt lat="45.39291" lon="5.90138">
        <ele>1567.57</ele>
        <time>2012-05-26T16:17:20Z</time>
      </trkpt>
      <trkpt lat="45.39289" lon="5.90127">
        <ele>1569.49</ele>
        <time>2012-05-26T16:17:50Z</time>
      </trkpt>
      <trkpt lat="45.39289" lon="5.90127">
        <ele>1570.45</ele>
        <time>2012-05-26T16:18:20Z</time>
      </trkpt>
      <trkpt lat="45.39289" lon="5.90128">
        <ele>1569.01</ele>
        <time>2012-05-26T16:18:50Z</time>
      </trkpt>
      <trkpt lat="45.39289" lon="5.90128">
        <ele>1570.93</ele>
        <time>2012-05-26T16:19:20Z</time>
      </trkpt>
      <trkpt lat="45.39289" lon="5.90128">
        <ele>1565.64</ele>
        <time>2012-05-26T16:19:50Z</time>
      </trkpt>
      <trkpt lat="45.39288" lon="5.90128">
        <ele>1566.12</ele>
        <time>2012-05-26T16:20:20Z</time>
      </trkpt>
      <trkpt lat="45.39287" lon="5.90128">
        <ele>1565.64</ele>
        <time>2012-05-26T16:20:50Z</time>
      </trkpt>
      <trkpt lat="45.39283" lon="5.90122">
        <ele>1568.53</ele>
        <time>2012-05-26T16:21:20Z</time>
      </trkpt>
      <trkpt lat="45.39272" lon="5.901">
        <ele>1572.37</ele>
        <time>2012-05-26T16:21:50Z</time>
      </trkpt>
      <trkpt lat="45.39267" lon="5.90068">
        <ele>1573.33</ele>
        <time>2012-05-26T16:22:20Z</time>
      </trkpt>
      <trkpt lat="45.39263" lon="5.90041">
        <ele>1575.74</ele>
        <time>2012-05-26T16:22:50Z</time>
      </trkpt>
      <trkpt lat="45.39262" lon="5.90041">
        <ele>1576.22</ele>
        <time>2012-05-26T16:23:20Z</time>
      </trkpt>
      <trkpt lat="45.3926" lon="5.90042">
        <ele>1576.22</ele>
        <time>2012-05-26T16:23:50Z</time>
      </trkpt>
      <trkpt lat="45.3926" lon="5.90042">
        <ele>1574.78</ele>
        <time>2012-05-26T16:24:20Z</time>
      </trkpt>
      <trkpt lat="45.3926" lon="5.90042">
        <ele>1575.26</ele>
        <time>2012-05-26T16:24:50Z</time>
      </trkpt>
      <trkpt lat="45.3926" lon="5.90043">
        <ele>1575.26</ele>
        <time>2012-05-26T16:25:20Z</time>
      </trkpt>
      <trkpt lat="45.3926" lon="5.90043">
        <ele>1574.78</ele>
        <time>2012-05-26T16:25:50Z</time>
      </trkpt>
      <trkpt lat="45.3926" lon="5.90042">
        <ele>1575.26</ele>
        <time>2012-05-26T16:26:20Z</time>
      </trkpt>
      <trkpt lat="45.39259" lon="5.90042">
        <ele>1574.3</ele>
        <time>2012-05-26T16:26:50Z</time>
      </trkpt>
      <trkpt lat="45.39259" lon="5.90042">
        <ele>1574.78</ele>
        <time>2012-05-26T16:27:20Z</time>
      </trkpt>
      <trkpt lat="45.39259" lon="5.90042">
        <ele>1574.78</ele>
        <time>2012-05-26T16:27:50Z</time>
      </trkpt>
      <trkpt lat="45.39259" lon="5.90042">
        <ele>1574.78</ele>
        <time>2012-05-26T16:28:20Z</time>
      </trkpt>
      <trkpt lat="45.39259" lon="5.90042">
        <ele>1574.3</ele>
        <time>2012-05-26T16:28:50Z</time>
      </trkpt>
      <trkpt lat="45.39259" lon="5.90043">
        <ele>1574.78</ele>
        <time>2012-05-26T16:29:20Z</time>
      </trkpt>
      <trkpt lat="45.39259" lon="5.90043">
        <ele>1574.3</ele>
        <time>2012-05-26T16:29:50Z</time>
      </trkpt>
      <trkpt lat="45.39259" lon="5.90043">
        <ele>1573.82</ele>
        <time>2012-05-26T16:30:20Z</time>
      </trkpt>
      <trkpt lat="45.39259" lon="5.90043">
        <ele>1574.3</ele>
        <time>2012-05-26T16:30:50Z</time>
      </trkpt>
      <trkpt lat="45.39259" lon="5.90043">
        <ele>1574.78</ele>
        <time>2012-05-26T16:31:20Z</time>
      </trkpt>
      <trkpt lat="45.39259" lon="5.90043">
        <ele>1573.33</ele>
        <time>2012-05-26T16:31:50Z</time>
      </trkpt>
      <trkpt lat="45.39259" lon="5.90043">
        <ele>1573.33</ele>
        <time>2012-05-26T16:32:20Z</time>
      </trkpt>
      <trkpt lat="45.39258" lon="5.90043">
        <ele>1573.82</ele>
        <time>2012-05-26T16:32:50Z</time>
      </trkpt>
      <trkpt lat="45.39259" lon="5.90043">
        <ele>1572.85</ele>
        <time>2012-05-26T16:33:20Z</time>
      </trkpt>
      <trkpt lat="45.39259" lon="5.90043">
        <ele>1573.82</ele>
        <time>2012-05-26T16:33:50Z</time>
      </trkpt>
      <trkpt lat="45.39258" lon="5.90043">
        <ele>1572.85</ele>
        <time>2012-05-26T16:34:20Z</time>
      </trkpt>
      <trkpt lat="45.39258" lon="5.90043">
        <ele>1572.37</ele>
        <time>2012-05-26T16:34:50Z</time>
      </trkpt>
      <trkpt lat="45.39258" lon="5.90043">
        <ele>1571.89</ele>
        <time>2012-05-26T16:35:20Z</time>
      </trkpt>
      <trkpt lat="45.39258" lon="5.90043">
        <ele>1571.41</ele>
        <time>2012-05-26T16:35:50Z</time>
      </trkpt>
      <trkpt lat="45.39258" lon="5.90043">
        <ele>1571.89</ele>
        <time>2012-05-26T16:36:20Z</time>
      </trkpt>
      <trkpt lat="45.39258" lon="5.90043">
        <ele>1571.41</ele>
        <time>2012-05-26T16:36:50Z</time>
      </trkpt>
      <trkpt lat="45.39258" lon="5.90043">
        <ele>1571.41</ele>
        <time>2012-05-26T16:37:20Z</time>
      </trkpt>
      <trkpt lat="45.39258" lon="5.90043">
        <ele>1571.41</ele>
        <time>2012-05-26T16:37:50Z</time>
      </trkpt>
      <trkpt lat="45.39259" lon="5.90042">
        <ele>1571.89</ele>
        <time>2012-05-26T16:38:20Z</time>
      </trkpt>
      <trkpt lat="45.39259" lon="5.90042">
        <ele>1570.93</ele>
        <time>2012-05-26T16:38:50Z</time>
      </trkpt>
      <trkpt lat="45.39259" lon="5.90042">
        <ele>1571.89</ele>
        <time>2012-05-26T16:39:20Z</time>
      </trkpt>
      <trkpt lat="45.39259" lon="5.90042">
        <ele>1571.89</ele>
        <time>2012-05-26T16:39:50Z</time>
      </trkpt>
      <trkpt lat="45.39258" lon="5.90042">
        <ele>1571.41</ele>
        <time>2012-05-26T16:40:20Z</time>
      </trkpt>
      <trkpt lat="45.39258" lon="5.90045">
        <ele>1571.41</ele>
        <time>2012-05-26T16:40:50Z</time>
      </trkpt>
      <trkpt lat="45.39258" lon="5.90045">
        <ele>1571.41</ele>
        <time>2012-05-26T16:41:20Z</time>
      </trkpt>
      <trkpt lat="45.39258" lon="5.90044">
        <ele>1571.41</ele>
        <time>2012-05-26T16:41:50Z</time>
      </trkpt>
      <trkpt lat="45.39256" lon="5.90044">
        <ele>1572.85</ele>
        <time>2012-05-26T16:42:20Z</time>
      </trkpt>
      <trkpt lat="45.39258" lon="5.90046">
        <ele>1571.41</ele>
        <time>2012-05-26T16:42:50Z</time>
      </trkpt>
      <trkpt lat="45.39258" lon="5.90046">
        <ele>1571.89</ele>
        <time>2012-05-26T16:43:20Z</time>
      </trkpt>
      <trkpt lat="45.39259" lon="5.90046">
        <ele>1571.89</ele>
        <time>2012-05-26T16:43:50Z</time>
      </trkpt>
      <trkpt lat="45.39259" lon="5.90046">
        <ele>1571.41</ele>
        <time>2012-05-26T16:44:20Z</time>
      </trkpt>
      <trkpt lat="45.39259" lon="5.90046">
        <ele>1570.93</ele>
        <time>2012-05-26T16:44:50Z</time>
      </trkpt>
      <trkpt lat="45.39259" lon="5.90045">
        <ele>1570.93</ele>
        <time>2012-05-26T16:45:20Z</time>
      </trkpt>
      <trkpt lat="45.39259" lon="5.90045">
        <ele>1570.93</ele>
        <time>2012-05-26T16:45:50Z</time>
      </trkpt>
      <trkpt lat="45.39257" lon="5.90045">
        <ele>1571.41</ele>
        <time>2012-05-26T16:46:20Z</time>
      </trkpt>
      <trkpt lat="45.39256" lon="5.90044">
        <ele>1570.93</ele>
        <time>2012-05-26T16:46:50Z</time>
      </trkpt>
      <trkpt lat="45.39255" lon="5.90043">
        <ele>1571.89</ele>
        <time>2012-05-26T16:47:20Z</time>
      </trkpt>
      <trkpt lat="45.39255" lon="5.90042">
        <ele>1571.89</ele>
        <time>2012-05-26T16:47:50Z</time>
      </trkpt>
      <trkpt lat="45.39249" lon="5.90041">
        <ele>1569.97</ele>
        <time>2012-05-26T16:48:20Z</time>
      </trkpt>
      <trkpt lat="45.3922" lon="5.90037">
        <ele>1569.49</ele>
        <time>2012-05-26T16:48:50Z</time>
      </trkpt>
      <trkpt lat="45.39188" lon="5.9005">
        <ele>1569.49</ele>
        <time>2012-05-26T16:49:20Z</time>
      </trkpt>
      <trkpt lat="45.39161" lon="5.90079">
        <ele>1571.41</ele>
        <time>2012-05-26T16:49:50Z</time>
      </trkpt>
      <trkpt lat="45.39132" lon="5.90098">
        <ele>1571.41</ele>
        <time>2012-05-26T16:50:20Z</time>
      </trkpt>
      <trkpt lat="45.39099" lon="5.90108">
        <ele>1571.41</ele>
        <time>2012-05-26T16:50:50Z</time>
      </trkpt>
      <trkpt lat="45.39065" lon="5.90116">
        <ele>1571.41</ele>
        <time>2012-05-26T16:51:20Z</time>
      </trkpt>
      <trkpt lat="45.39042" lon="5.90111">
        <ele>1569.97</ele>
        <time>2012-05-26T16:51:50Z</time>
      </trkpt>
      <trkpt lat="45.3902" lon="5.90122">
        <ele>1566.12</ele>
        <time>2012-05-26T16:52:20Z</time>
      </trkpt>
      <trkpt lat="45.38994" lon="5.90126">
        <ele>1561.32</ele>
        <time>2012-05-26T16:52:50Z</time>
      </trkpt>
      <trkpt lat="45.38981" lon="5.90128">
        <ele>1555.07</ele>
        <time>2012-05-26T16:53:20Z</time>
      </trkpt>
      <trkpt lat="45.38956" lon="5.90134">
        <ele>1553.63</ele>
        <time>2012-05-26T16:53:50Z</time>
      </trkpt>
      <trkpt lat="45.38941" lon="5.90152">
        <ele>1558.92</ele>
        <time>2012-05-26T16:54:20Z</time>
      </trkpt>
      <trkpt lat="45.38929" lon="5.90163">
        <ele>1559.88</ele>
        <time>2012-05-26T16:54:50Z</time>
      </trkpt>
      <trkpt lat="45.38929" lon="5.90163">
        <ele>1559.88</ele>
        <time>2012-05-26T16:55:20Z</time>
      </trkpt>
      <trkpt lat="45.38929" lon="5.90181">
        <ele>1566.12</ele>
        <time>2012-05-26T16:55:50Z</time>
      </trkpt>
      <trkpt lat="45.38924" lon="5.90193">
        <ele>1570.45</ele>
        <time>2012-05-26T16:56:20Z</time>
      </trkpt>
      <trkpt lat="45.38919" lon="5.90204">
        <ele>1573.82</ele>
        <time>2012-05-26T16:56:50Z</time>
      </trkpt>
      <trkpt lat="45.38905" lon="5.90227">
        <ele>1580.06</ele>
        <time>2012-05-26T16:57:20Z</time>
      </trkpt>
      <trkpt lat="45.38904" lon="5.90227">
        <ele>1580.06</ele>
        <time>2012-05-26T16:57:50Z</time>
      </trkpt>
      <trkpt lat="45.38903" lon="5.90235">
        <ele>1580.54</ele>
        <time>2012-05-26T16:58:20Z</time>
      </trkpt>
      <trkpt lat="45.38888" lon="5.90227">
        <ele>1581.51</ele>
        <time>2012-05-26T16:58:50Z</time>
      </trkpt>
      <trkpt lat="45.38861" lon="5.90213">
        <ele>1581.99</ele>
        <time>2012-05-26T16:59:20Z</time>
      </trkpt>
      <trkpt lat="45.38846" lon="5.90213">
        <ele>1584.87</ele>
        <time>2012-05-26T16:59:50Z</time>
      </trkpt>
      <trkpt lat="45.38842" lon="5.90217">
        <ele>1583.43</ele>
        <time>2012-05-26T17:00:20Z</time>
      </trkpt>
      <trkpt lat="45.38838" lon="5.90216">
        <ele>1584.39</ele>
        <time>2012-05-26T17:00:50Z</time>
      </trkpt>
      <trkpt lat="45.38823" lon="5.90203">
        <ele>1578.62</ele>
        <time>2012-05-26T17:01:20Z</time>
      </trkpt>
      <trkpt lat="45.38817" lon="5.9019">
        <ele>1574.78</ele>
        <time>2012-05-26T17:01:50Z</time>
      </trkpt>
      <trkpt lat="45.38816" lon="5.90182">
        <ele>1573.82</ele>
        <time>2012-05-26T17:02:20Z</time>
      </trkpt>
      <trkpt lat="45.38814" lon="5.90182">
        <ele>1574.3</ele>
        <time>2012-05-26T17:02:50Z</time>
      </trkpt>
      <trkpt lat="45.38815" lon="5.90171">
        <ele>1571.89</ele>
        <time>2012-05-26T17:03:20Z</time>
      </trkpt>
      <trkpt lat="45.38807" lon="5.90151">
        <ele>1567.09</ele>
        <time>2012-05-26T17:03:50Z</time>
      </trkpt>
      <trkpt lat="45.38799" lon="5.90141">
        <ele>1568.05</ele>
        <time>2012-05-26T17:04:20Z</time>
      </trkpt>
      <trkpt lat="45.38792" lon="5.90137">
        <ele>1566.61</ele>
        <time>2012-05-26T17:04:50Z</time>
      </trkpt>
      <trkpt lat="45.38785" lon="5.90114">
        <ele>1563.72</ele>
        <time>2012-05-26T17:05:20Z</time>
      </trkpt>
      <trkpt lat="45.38778" lon="5.90109">
        <ele>1563.72</ele>
        <time>2012-05-26T17:05:50Z</time>
      </trkpt>
      <trkpt lat="45.38763" lon="5.90094">
        <ele>1560.84</ele>
        <time>2012-05-26T17:06:20Z</time>
      </trkpt>
      <trkpt lat="45.38758" lon="5.90071">
        <ele>1555.07</ele>
        <time>2012-05-26T17:06:50Z</time>
      </trkpt>
      <trkpt lat="45.38749" lon="5.9004">
        <ele>1551.22</ele>
        <time>2012-05-26T17:07:20Z</time>
      </trkpt>
      <trkpt lat="45.38737" lon="5.90023">
        <ele>1550.26</ele>
        <time>2012-05-26T17:07:50Z</time>
      </trkpt>
      <trkpt lat="45.38735" lon="5.90023">
        <ele>1551.22</ele>
        <time>2012-05-26T17:08:20Z</time>
      </trkpt>
      <trkpt lat="45.38735" lon="5.90023">
        <ele>1551.22</ele>
        <time>2012-05-26T17:08:50Z</time>
      </trkpt>
      <trkpt lat="45.38737" lon="5.90015">
        <ele>1545.94</ele>
        <time>2012-05-26T17:09:20Z</time>
      </trkpt>
      <trkpt lat="45.38743" lon="5.89981">
        <ele>1538.73</ele>
        <time>2012-05-26T17:09:50Z</time>
      </trkpt>
      <trkpt lat="45.38752" lon="5.89943">
        <ele>1532.96</ele>
        <time>2012-05-26T17:10:20Z</time>
      </trkpt>
      <trkpt lat="45.38755" lon="5.89917">
        <ele>1529.11</ele>
        <time>2012-05-26T17:10:50Z</time>
      </trkpt>
      <trkpt lat="45.38739" lon="5.89893">
        <ele>1528.15</ele>
        <time>2012-05-26T17:11:20Z</time>
      </trkpt>
      <trkpt lat="45.38724" lon="5.89874">
        <ele>1524.79</ele>
        <time>2012-05-26T17:11:50Z</time>
      </trkpt>
      <trkpt lat="45.38715" lon="5.89861">
        <ele>1524.31</ele>
        <time>2012-05-26T17:12:20Z</time>
      </trkpt>
      <trkpt lat="45.38707" lon="5.89858">
        <ele>1523.35</ele>
        <time>2012-05-26T17:12:50Z</time>
      </trkpt>
      <trkpt lat="45.38699" lon="5.89858">
        <ele>1519.02</ele>
        <time>2012-05-26T17:13:20Z</time>
      </trkpt>
      <trkpt lat="45.38699" lon="5.89858">
        <ele>1524.31</ele>
        <time>2012-05-26T17:13:50Z</time>
      </trkpt>
      <trkpt lat="45.38695" lon="5.89852">
        <ele>1520.94</ele>
        <time>2012-05-26T17:14:20Z</time>
      </trkpt>
      <trkpt lat="45.38706" lon="5.89826">
        <ele>1515.18</ele>
        <time>2012-05-26T17:14:50Z</time>
      </trkpt>
      <trkpt lat="45.38696" lon="5.89812">
        <ele>1514.69</ele>
        <time>2012-05-26T17:15:20Z</time>
      </trkpt>
      <trkpt lat="45.38681" lon="5.89794">
        <ele>1513.25</ele>
        <time>2012-05-26T17:15:50Z</time>
      </trkpt>
      <trkpt lat="45.38678" lon="5.89777">
        <ele>1509.41</ele>
        <time>2012-05-26T17:16:20Z</time>
      </trkpt>
      <trkpt lat="45.38682" lon="5.89762">
        <ele>1505.08</ele>
        <time>2012-05-26T17:16:50Z</time>
      </trkpt>
      <trkpt lat="45.38681" lon="5.89761">
        <ele>1503.64</ele>
        <time>2012-05-26T17:17:20Z</time>
      </trkpt>
      <trkpt lat="45.38681" lon="5.89733">
        <ele>1498.35</ele>
        <time>2012-05-26T17:17:50Z</time>
      </trkpt>
      <trkpt lat="45.38671" lon="5.89711">
        <ele>1494.51</ele>
        <time>2012-05-26T17:18:20Z</time>
      </trkpt>
      <trkpt lat="45.38663" lon="5.89684">
        <ele>1490.66</ele>
        <time>2012-05-26T17:18:50Z</time>
      </trkpt>
      <trkpt lat="45.38644" lon="5.89657">
        <ele>1484.41</ele>
        <time>2012-05-26T17:19:20Z</time>
      </trkpt>
      <trkpt lat="45.38623" lon="5.89634">
        <ele>1479.13</ele>
        <time>2012-05-26T17:19:50Z</time>
      </trkpt>
      <trkpt lat="45.38599" lon="5.89616">
        <ele>1482.01</ele>
        <time>2012-05-26T17:20:20Z</time>
      </trkpt>
      <trkpt lat="45.38591" lon="5.89621">
        <ele>1481.53</ele>
        <time>2012-05-26T17:20:50Z</time>
      </trkpt>
      <trkpt lat="45.3859" lon="5.89621">
        <ele>1482.49</ele>
        <time>2012-05-26T17:21:20Z</time>
      </trkpt>
      <trkpt lat="45.38577" lon="5.89627">
        <ele>1485.37</ele>
        <time>2012-05-26T17:21:50Z</time>
      </trkpt>
      <trkpt lat="45.38548" lon="5.89614">
        <ele>1483.45</ele>
        <time>2012-05-26T17:22:20Z</time>
      </trkpt>
      <trkpt lat="45.38527" lon="5.89599">
        <ele>1485.37</ele>
        <time>2012-05-26T17:22:50Z</time>
      </trkpt>
      <trkpt lat="45.38513" lon="5.89577">
        <ele>1487.3</ele>
        <time>2012-05-26T17:23:20Z</time>
      </trkpt>
      <trkpt lat="45.3849" lon="5.89572">
        <ele>1485.85</ele>
        <time>2012-05-26T17:23:50Z</time>
      </trkpt>
      <trkpt lat="45.3849" lon="5.89572">
        <ele>1485.37</ele>
        <time>2012-05-26T17:24:20Z</time>
      </trkpt>
      <trkpt lat="45.38463" lon="5.89568">
        <ele>1487.3</ele>
        <time>2012-05-26T17:24:50Z</time>
      </trkpt>
      <trkpt lat="45.38443" lon="5.89556">
        <ele>1490.66</ele>
        <time>2012-05-26T17:25:20Z</time>
      </trkpt>
      <trkpt lat="45.38419" lon="5.89539">
        <ele>1491.62</ele>
        <time>2012-05-26T17:25:50Z</time>
      </trkpt>
      <trkpt lat="45.38384" lon="5.89524">
        <ele>1496.43</ele>
        <time>2012-05-26T17:26:20Z</time>
      </trkpt>
      <trkpt lat="45.38372" lon="5.89516">
        <ele>1494.99</ele>
        <time>2012-05-26T17:26:50Z</time>
      </trkpt>
      <trkpt lat="45.38345" lon="5.89498">
        <ele>1494.51</ele>
        <time>2012-05-26T17:27:20Z</time>
      </trkpt>
      <trkpt lat="45.38323" lon="5.89478">
        <ele>1496.43</ele>
        <time>2012-05-26T17:27:50Z</time>
      </trkpt>
      <trkpt lat="45.38301" lon="5.89475">
        <ele>1499.31</ele>
        <time>2012-05-26T17:28:20Z</time>
      </trkpt>
      <trkpt lat="45.3827" lon="5.89463">
        <ele>1495.95</ele>
        <time>2012-05-26T17:28:50Z</time>
      </trkpt>
      <trkpt lat="45.38248" lon="5.8946">
        <ele>1495.47</ele>
        <time>2012-05-26T17:29:20Z</time>
      </trkpt>
      <trkpt lat="45.38231" lon="5.8945">
        <ele>1494.99</ele>
        <time>2012-05-26T17:29:50Z</time>
      </trkpt>
      <trkpt lat="45.38203" lon="5.8944">
        <ele>1492.58</ele>
        <time>2012-05-26T17:30:20Z</time>
      </trkpt>
      <trkpt lat="45.38181" lon="5.89436">
        <ele>1493.06</ele>
        <time>2012-05-26T17:30:50Z</time>
      </trkpt>
      <trkpt lat="45.38181" lon="5.89436">
        <ele>1493.06</ele>
        <time>2012-05-26T17:31:20Z</time>
      </trkpt>
      <trkpt lat="45.3816" lon="5.89427">
        <ele>1494.51</ele>
        <time>2012-05-26T17:31:50Z</time>
      </trkpt>
      <trkpt lat="45.3813" lon="5.89412">
        <ele>1493.55</ele>
        <time>2012-05-26T17:32:20Z</time>
      </trkpt>
      <trkpt lat="45.38098" lon="5.894">
        <ele>1494.99</ele>
        <time>2012-05-26T17:32:50Z</time>
      </trkpt>
      <trkpt lat="45.38066" lon="5.89387">
        <ele>1496.91</ele>
        <time>2012-05-26T17:33:20Z</time>
      </trkpt>
      <trkpt lat="45.38046" lon="5.89371">
        <ele>1498.35</ele>
        <time>2012-05-26T17:33:50Z</time>
      </trkpt>
      <trkpt lat="45.38015" lon="5.89362">
        <ele>1500.27</ele>
        <time>2012-05-26T17:34:20Z</time>
      </trkpt>
      <trkpt lat="45.37994" lon="5.89364">
        <ele>1502.2</ele>
        <time>2012-05-26T17:34:50Z</time>
      </trkpt>
      <trkpt lat="45.37978" lon="5.89358">
        <ele>1502.2</ele>
        <time>2012-05-26T17:35:20Z</time>
      </trkpt>
      <trkpt lat="45.37965" lon="5.89356">
        <ele>1504.12</ele>
        <time>2012-05-26T17:35:50Z</time>
      </trkpt>
      <trkpt lat="45.37934" lon="5.8935">
        <ele>1505.08</ele>
        <time>2012-05-26T17:36:20Z</time>
      </trkpt>
      <trkpt lat="45.37911" lon="5.89341">
        <ele>1506.04</ele>
        <time>2012-05-26T17:36:50Z</time>
      </trkpt>
      <trkpt lat="45.37898" lon="5.89327">
        <ele>1508.45</ele>
        <time>2012-05-26T17:37:20Z</time>
      </trkpt>
      <trkpt lat="45.37882" lon="5.89332">
        <ele>1510.85</ele>
        <time>2012-05-26T17:37:50Z</time>
      </trkpt>
      <trkpt lat="45.37858" lon="5.89332">
        <ele>1512.29</ele>
        <time>2012-05-26T17:38:20Z</time>
      </trkpt>
      <trkpt lat="45.37835" lon="5.89332">
        <ele>1514.21</ele>
        <time>2012-05-26T17:38:50Z</time>
      </trkpt>
      <trkpt lat="45.37815" lon="5.89331">
        <ele>1514.69</ele>
        <time>2012-05-26T17:39:20Z</time>
      </trkpt>
      <trkpt lat="45.378" lon="5.89323">
        <ele>1517.1</ele>
        <time>2012-05-26T17:39:50Z</time>
      </trkpt>
      <trkpt lat="45.37777" lon="5.89314">
        <ele>1519.98</ele>
        <time>2012-05-26T17:40:20Z</time>
      </trkpt>
      <trkpt lat="45.37743" lon="5.89315">
        <ele>1522.39</ele>
        <time>2012-05-26T17:40:50Z</time>
      </trkpt>
      <trkpt lat="45.37728" lon="5.89306">
        <ele>1525.27</ele>
        <time>2012-05-26T17:41:20Z</time>
      </trkpt>
      <trkpt lat="45.37727" lon="5.89308">
        <ele>1525.27</ele>
        <time>2012-05-26T17:41:50Z</time>
      </trkpt>
      <trkpt lat="45.37722" lon="5.89312">
        <ele>1526.23</ele>
        <time>2012-05-26T17:42:20Z</time>
      </trkpt>
      <trkpt lat="45.37714" lon="5.893">
        <ele>1526.23</ele>
        <time>2012-05-26T17:42:50Z</time>
      </trkpt>
      <trkpt lat="45.37694" lon="5.89286">
        <ele>1528.63</ele>
        <time>2012-05-26T17:43:20Z</time>
      </trkpt>
      <trkpt lat="45.37671" lon="5.89277">
        <ele>1531.04</ele>
        <time>2012-05-26T17:43:50Z</time>
      </trkpt>
      <trkpt lat="45.37668" lon="5.89278">
        <ele>1531.52</ele>
        <time>2012-05-26T17:44:20Z</time>
      </trkpt>
      <trkpt lat="45.37658" lon="5.89283">
        <ele>1532.48</ele>
        <time>2012-05-26T17:44:50Z</time>
      </trkpt>
      <trkpt lat="45.37656" lon="5.89286">
        <ele>1533.92</ele>
        <time>2012-05-26T17:45:20Z</time>
      </trkpt>
      <trkpt lat="45.37643" lon="5.89278">
        <ele>1536.32</ele>
        <time>2012-05-26T17:45:50Z</time>
      </trkpt>
      <trkpt lat="45.37603" lon="5.89255">
        <ele>1535.84</ele>
        <time>2012-05-26T17:46:20Z</time>
      </trkpt>
      <trkpt lat="45.37586" lon="5.89241">
        <ele>1538.25</ele>
        <time>2012-05-26T17:46:50Z</time>
      </trkpt>
      <trkpt lat="45.37561" lon="5.89219">
        <ele>1540.17</ele>
        <time>2012-05-26T17:47:20Z</time>
      </trkpt>
      <trkpt lat="45.37538" lon="5.89204">
        <ele>1542.09</ele>
        <time>2012-05-26T17:47:50Z</time>
      </trkpt>
      <trkpt lat="45.37538" lon="5.89204">
        <ele>1541.13</ele>
        <time>2012-05-26T17:48:20Z</time>
      </trkpt>
      <trkpt lat="45.37537" lon="5.89207">
        <ele>1541.13</ele>
        <time>2012-05-26T17:48:50Z</time>
      </trkpt>
      <trkpt lat="45.37524" lon="5.89211">
        <ele>1535.84</ele>
        <time>2012-05-26T17:49:20Z</time>
      </trkpt>
      <trkpt lat="45.37492" lon="5.89208">
        <ele>1536.32</ele>
        <time>2012-05-26T17:49:50Z</time>
      </trkpt>
      <trkpt lat="45.37472" lon="5.89199">
        <ele>1537.77</ele>
        <time>2012-05-26T17:50:20Z</time>
      </trkpt>
      <trkpt lat="45.37451" lon="5.89207">
        <ele>1537.77</ele>
        <time>2012-05-26T17:50:50Z</time>
      </trkpt>
      <trkpt lat="45.3745" lon="5.8921">
        <ele>1537.77</ele>
        <time>2012-05-26T17:51:20Z</time>
      </trkpt>
      <trkpt lat="45.3745" lon="5.8921">
        <ele>1538.25</ele>
        <time>2012-05-26T17:51:50Z</time>
      </trkpt>
      <trkpt lat="45.37449" lon="5.89208">
        <ele>1537.77</ele>
        <time>2012-05-26T17:52:20Z</time>
      </trkpt>
      <trkpt lat="45.37449" lon="5.89208">
        <ele>1538.25</ele>
        <time>2012-05-26T17:52:40Z</time>
      </trkpt>
      <trkpt lat="45.37453" lon="5.89211">
        <ele>1536.32</ele>
        <time>2012-05-26T17:54:32Z</time>
      </trkpt>
      <trkpt lat="45.37452" lon="5.89208">
        <ele>1500.27</ele>
        <time>2012-05-27T06:45:02Z</time>
      </trkpt>
      <trkpt lat="45.37451" lon="5.89214">
        <ele>1516.62</ele>
        <time>2012-05-27T06:45:32Z</time>
      </trkpt>
      <trkpt lat="45.37444" lon="5.89197">
        <ele>1526.71</ele>
        <time>2012-05-27T06:46:02Z</time>
      </trkpt>
      <trkpt lat="45.37449" lon="5.89204">
        <ele>1539.21</ele>
        <time>2012-05-27T06:46:32Z</time>
      </trkpt>
      <trkpt lat="45.37453" lon="5.89203">
        <ele>1541.13</ele>
        <time>2012-05-27T06:47:02Z</time>
      </trkpt>
      <trkpt lat="45.37453" lon="5.89203">
        <ele>1541.13</ele>
        <time>2012-05-27T06:47:32Z</time>
      </trkpt>
      <trkpt lat="45.37453" lon="5.89203">
        <ele>1541.13</ele>
        <time>2012-05-27T06:48:02Z</time>
      </trkpt>
      <trkpt lat="45.3745" lon="5.89202">
        <ele>1540.65</ele>
        <time>2012-05-27T06:48:32Z</time>
      </trkpt>
      <trkpt lat="45.37449" lon="5.89193">
        <ele>1540.65</ele>
        <time>2012-05-27T06:49:02Z</time>
      </trkpt>
      <trkpt lat="45.37436" lon="5.89173">
        <ele>1543.05</ele>
        <time>2012-05-27T06:49:32Z</time>
      </trkpt>
      <trkpt lat="45.37417" lon="5.89179">
        <ele>1545.46</ele>
        <time>2012-05-27T06:50:02Z</time>
      </trkpt>
      <trkpt lat="45.37401" lon="5.89178">
        <ele>1548.82</ele>
        <time>2012-05-27T06:50:32Z</time>
      </trkpt>
      <trkpt lat="45.37372" lon="5.89167">
        <ele>1549.3</ele>
        <time>2012-05-27T06:51:02Z</time>
      </trkpt>
      <trkpt lat="45.37357" lon="5.89158">
        <ele>1553.15</ele>
        <time>2012-05-27T06:51:32Z</time>
      </trkpt>
      <trkpt lat="45.37335" lon="5.89136">
        <ele>1556.51</ele>
        <time>2012-05-27T06:52:02Z</time>
      </trkpt>
      <trkpt lat="45.37319" lon="5.8912">
        <ele>1557.95</ele>
        <time>2012-05-27T06:52:32Z</time>
      </trkpt>
      <trkpt lat="45.37301" lon="5.89109">
        <ele>1563.24</ele>
        <time>2012-05-27T06:53:02Z</time>
      </trkpt>
      <trkpt lat="45.37283" lon="5.89094">
        <ele>1567.57</ele>
        <time>2012-05-27T06:53:32Z</time>
      </trkpt>
      <trkpt lat="45.37264" lon="5.8908">
        <ele>1571.89</ele>
        <time>2012-05-27T06:54:02Z</time>
      </trkpt>
      <trkpt lat="45.37245" lon="5.89052">
        <ele>1570.45</ele>
        <time>2012-05-27T06:54:32Z</time>
      </trkpt>
      <trkpt lat="45.37218" lon="5.89027">
        <ele>1571.89</ele>
        <time>2012-05-27T06:55:02Z</time>
      </trkpt>
      <trkpt lat="45.37195" lon="5.8901">
        <ele>1573.33</ele>
        <time>2012-05-27T06:55:32Z</time>
      </trkpt>
      <trkpt lat="45.37172" lon="5.88987">
        <ele>1574.78</ele>
        <time>2012-05-27T06:56:02Z</time>
      </trkpt>
      <trkpt lat="45.37146" lon="5.88953">
        <ele>1576.22</ele>
        <time>2012-05-27T06:56:32Z</time>
      </trkpt>
      <trkpt lat="45.37117" lon="5.8893">
        <ele>1577.18</ele>
        <time>2012-05-27T06:57:02Z</time>
      </trkpt>
      <trkpt lat="45.3709" lon="5.88926">
        <ele>1579.58</ele>
        <time>2012-05-27T06:57:32Z</time>
      </trkpt>
      <trkpt lat="45.37063" lon="5.88911">
        <ele>1582.47</ele>
        <time>2012-05-27T06:58:02Z</time>
      </trkpt>
      <trkpt lat="45.37041" lon="5.88877">
        <ele>1584.39</ele>
        <time>2012-05-27T06:58:32Z</time>
      </trkpt>
      <trkpt lat="45.37012" lon="5.88869">
        <ele>1586.31</ele>
        <time>2012-05-27T06:59:02Z</time>
      </trkpt>
      <trkpt lat="45.3698" lon="5.88867">
        <ele>1586.79</ele>
        <time>2012-05-27T06:59:32Z</time>
      </trkpt>
      <trkpt lat="45.36952" lon="5.88869">
        <ele>1588.72</ele>
        <time>2012-05-27T07:00:02Z</time>
      </trkpt>
      <trkpt lat="45.3693" lon="5.88853">
        <ele>1594.48</ele>
        <time>2012-05-27T07:00:32Z</time>
      </trkpt>
      <trkpt lat="45.36917" lon="5.88839">
        <ele>1597.85</ele>
        <time>2012-05-27T07:01:02Z</time>
      </trkpt>
      <trkpt lat="45.36891" lon="5.88808">
        <ele>1599.29</ele>
        <time>2012-05-27T07:01:32Z</time>
      </trkpt>
      <trkpt lat="45.36873" lon="5.88771">
        <ele>1600.25</ele>
        <time>2012-05-27T07:02:02Z</time>
      </trkpt>
      <trkpt lat="45.3685" lon="5.88739">
        <ele>1602.17</ele>
        <time>2012-05-27T07:02:32Z</time>
      </trkpt>
      <trkpt lat="45.36833" lon="5.88737">
        <ele>1601.69</ele>
        <time>2012-05-27T07:03:02Z</time>
      </trkpt>
      <trkpt lat="45.36804" lon="5.88725">
        <ele>1603.62</ele>
        <time>2012-05-27T07:03:32Z</time>
      </trkpt>
      <trkpt lat="45.36783" lon="5.88696">
        <ele>1606.02</ele>
        <time>2012-05-27T07:04:02Z</time>
      </trkpt>
      <trkpt lat="45.36764" lon="5.88682">
        <ele>1606.5</ele>
        <time>2012-05-27T07:04:32Z</time>
      </trkpt>
      <trkpt lat="45.36734" lon="5.88663">
        <ele>1608.9</ele>
        <time>2012-05-27T07:05:02Z</time>
      </trkpt>
      <trkpt lat="45.36711" lon="5.88643">
        <ele>1610.35</ele>
        <time>2012-05-27T07:05:32Z</time>
      </trkpt>
      <trkpt lat="45.36683" lon="5.88639">
        <ele>1610.35</ele>
        <time>2012-05-27T07:06:02Z</time>
      </trkpt>
      <trkpt lat="45.36652" lon="5.88621">
        <ele>1610.35</ele>
        <time>2012-05-27T07:06:32Z</time>
      </trkpt>
      <trkpt lat="45.3662" lon="5.88603">
        <ele>1609.38</ele>
        <time>2012-05-27T07:07:02Z</time>
      </trkpt>
      <trkpt lat="45.36586" lon="5.88584">
        <ele>1611.31</ele>
        <time>2012-05-27T07:07:32Z</time>
      </trkpt>
      <trkpt lat="45.36554" lon="5.88572">
        <ele>1610.83</ele>
        <time>2012-05-27T07:08:02Z</time>
      </trkpt>
      <trkpt lat="45.36518" lon="5.88562">
        <ele>1611.79</ele>
        <time>2012-05-27T07:08:32Z</time>
      </trkpt>
      <trkpt lat="45.36485" lon="5.88551">
        <ele>1613.23</ele>
        <time>2012-05-27T07:09:02Z</time>
      </trkpt>
      <trkpt lat="45.36449" lon="5.88538">
        <ele>1614.19</ele>
        <time>2012-05-27T07:09:32Z</time>
      </trkpt>
      <trkpt lat="45.36416" lon="5.88526">
        <ele>1615.15</ele>
        <time>2012-05-27T07:10:02Z</time>
      </trkpt>
      <trkpt lat="45.36384" lon="5.88514">
        <ele>1613.71</ele>
        <time>2012-05-27T07:10:32Z</time>
      </trkpt>
      <trkpt lat="45.36354" lon="5.88502">
        <ele>1615.63</ele>
        <time>2012-05-27T07:11:02Z</time>
      </trkpt>
      <trkpt lat="45.36322" lon="5.88491">
        <ele>1617.07</ele>
        <time>2012-05-27T07:11:32Z</time>
      </trkpt>
      <trkpt lat="45.363" lon="5.88501">
        <ele>1622.84</ele>
        <time>2012-05-27T07:12:02Z</time>
      </trkpt>
      <trkpt lat="45.3628" lon="5.8852">
        <ele>1625.73</ele>
        <time>2012-05-27T07:12:32Z</time>
      </trkpt>
      <trkpt lat="45.36252" lon="5.88506">
        <ele>1626.69</ele>
        <time>2012-05-27T07:13:02Z</time>
      </trkpt>
      <trkpt lat="45.36221" lon="5.88507">
        <ele>1630.05</ele>
        <time>2012-05-27T07:13:32Z</time>
      </trkpt>
      <trkpt lat="45.36195" lon="5.88509">
        <ele>1631.49</ele>
        <time>2012-05-27T07:14:02Z</time>
      </trkpt>
      <trkpt lat="45.36166" lon="5.88503">
        <ele>1633.42</ele>
        <time>2012-05-27T07:14:32Z</time>
      </trkpt>
      <trkpt lat="45.36134" lon="5.88489">
        <ele>1633.42</ele>
        <time>2012-05-27T07:15:02Z</time>
      </trkpt>
      <trkpt lat="45.36109" lon="5.88461">
        <ele>1634.86</ele>
        <time>2012-05-27T07:15:32Z</time>
      </trkpt>
      <trkpt lat="45.36079" lon="5.88443">
        <ele>1636.78</ele>
        <time>2012-05-27T07:16:02Z</time>
      </trkpt>
      <trkpt lat="45.36047" lon="5.88431">
        <ele>1637.74</ele>
        <time>2012-05-27T07:16:32Z</time>
      </trkpt>
      <trkpt lat="45.36017" lon="5.88435">
        <ele>1640.15</ele>
        <time>2012-05-27T07:17:02Z</time>
      </trkpt>
      <trkpt lat="45.35987" lon="5.88432">
        <ele>1640.15</ele>
        <time>2012-05-27T07:17:32Z</time>
      </trkpt>
      <trkpt lat="45.35959" lon="5.88421">
        <ele>1641.11</ele>
        <time>2012-05-27T07:18:02Z</time>
      </trkpt>
      <trkpt lat="45.35929" lon="5.88405">
        <ele>1643.03</ele>
        <time>2012-05-27T07:18:32Z</time>
      </trkpt>
      <trkpt lat="45.35895" lon="5.88397">
        <ele>1645.91</ele>
        <time>2012-05-27T07:19:02Z</time>
      </trkpt>
      <trkpt lat="45.35863" lon="5.884">
        <ele>1647.84</ele>
        <time>2012-05-27T07:19:32Z</time>
      </trkpt>
      <trkpt lat="45.35832" lon="5.8842">
        <ele>1648.8</ele>
        <time>2012-05-27T07:20:02Z</time>
      </trkpt>
      <trkpt lat="45.35801" lon="5.8844">
        <ele>1651.2</ele>
        <time>2012-05-27T07:20:32Z</time>
      </trkpt>
      <trkpt lat="45.35778" lon="5.88461">
        <ele>1655.53</ele>
        <time>2012-05-27T07:21:02Z</time>
      </trkpt>
      <trkpt lat="45.35755" lon="5.88483">
        <ele>1658.41</ele>
        <time>2012-05-27T07:21:32Z</time>
      </trkpt>
      <trkpt lat="45.35724" lon="5.88477">
        <ele>1661.3</ele>
        <time>2012-05-27T07:22:02Z</time>
      </trkpt>
      <trkpt lat="45.35691" lon="5.88466">
        <ele>1661.78</ele>
        <time>2012-05-27T07:22:32Z</time>
      </trkpt>
      <trkpt lat="45.35671" lon="5.88478">
        <ele>1666.1</ele>
        <time>2012-05-27T07:23:02Z</time>
      </trkpt>
      <trkpt lat="45.35652" lon="5.88501">
        <ele>1673.31</ele>
        <time>2012-05-27T07:23:32Z</time>
      </trkpt>
      <trkpt lat="45.35654" lon="5.8851">
        <ele>1674.27</ele>
        <time>2012-05-27T07:24:02Z</time>
      </trkpt>
      <trkpt lat="45.35655" lon="5.88514">
        <ele>1675.72</ele>
        <time>2012-05-27T07:24:32Z</time>
      </trkpt>
      <trkpt lat="45.35655" lon="5.88514">
        <ele>1675.23</ele>
        <time>2012-05-27T07:25:02Z</time>
      </trkpt>
      <trkpt lat="45.35655" lon="5.88514">
        <ele>1674.75</ele>
        <time>2012-05-27T07:25:32Z</time>
      </trkpt>
      <trkpt lat="45.35655" lon="5.88514">
        <ele>1674.75</ele>
        <time>2012-05-27T07:26:02Z</time>
      </trkpt>
      <trkpt lat="45.35655" lon="5.88514">
        <ele>1674.75</ele>
        <time>2012-05-27T07:26:32Z</time>
      </trkpt>
      <trkpt lat="45.35655" lon="5.88513">
        <ele>1675.72</ele>
        <time>2012-05-27T07:27:02Z</time>
      </trkpt>
      <trkpt lat="45.35654" lon="5.88511">
        <ele>1675.72</ele>
        <time>2012-05-27T07:27:32Z</time>
      </trkpt>
      <trkpt lat="45.35654" lon="5.88523">
        <ele>1677.64</ele>
        <time>2012-05-27T07:28:02Z</time>
      </trkpt>
      <trkpt lat="45.35657" lon="5.88556">
        <ele>1679.08</ele>
        <time>2012-05-27T07:28:32Z</time>
      </trkpt>
      <trkpt lat="45.35653" lon="5.88588">
        <ele>1681</ele>
        <time>2012-05-27T07:29:02Z</time>
      </trkpt>
      <trkpt lat="45.35654" lon="5.88595">
        <ele>1682.44</ele>
        <time>2012-05-27T07:29:32Z</time>
      </trkpt>
      <trkpt lat="45.35655" lon="5.88596">
        <ele>1681.96</ele>
        <time>2012-05-27T07:30:02Z</time>
      </trkpt>
      <trkpt lat="45.35655" lon="5.88596">
        <ele>1681</ele>
        <time>2012-05-27T07:30:32Z</time>
      </trkpt>
      <trkpt lat="45.35655" lon="5.88596">
        <ele>1681.48</ele>
        <time>2012-05-27T07:31:02Z</time>
      </trkpt>
      <trkpt lat="45.35655" lon="5.88596">
        <ele>1682.44</ele>
        <time>2012-05-27T07:31:32Z</time>
      </trkpt>
      <trkpt lat="45.35656" lon="5.88597">
        <ele>1682.44</ele>
        <time>2012-05-27T07:32:02Z</time>
      </trkpt>
      <trkpt lat="45.35655" lon="5.88596">
        <ele>1681.96</ele>
        <time>2012-05-27T07:32:32Z</time>
      </trkpt>
      <trkpt lat="45.35655" lon="5.88596">
        <ele>1681.96</ele>
        <time>2012-05-27T07:33:02Z</time>
      </trkpt>
      <trkpt lat="45.35654" lon="5.88585">
        <ele>1681.48</ele>
        <time>2012-05-27T07:33:32Z</time>
      </trkpt>
      <trkpt lat="45.35653" lon="5.88583">
        <ele>1681.48</ele>
        <time>2012-05-27T07:34:02Z</time>
      </trkpt>
      <trkpt lat="45.35655" lon="5.88557">
        <ele>1680.04</ele>
        <time>2012-05-27T07:34:32Z</time>
      </trkpt>
      <trkpt lat="45.35656" lon="5.88558">
        <ele>1679.08</ele>
        <time>2012-05-27T07:35:02Z</time>
      </trkpt>
      <trkpt lat="45.35655" lon="5.88557">
        <ele>1679.56</ele>
        <time>2012-05-27T07:35:32Z</time>
      </trkpt>
      <trkpt lat="45.35655" lon="5.88557">
        <ele>1680.52</ele>
        <time>2012-05-27T07:36:02Z</time>
      </trkpt>
      <trkpt lat="45.35655" lon="5.88555">
        <ele>1679.56</ele>
        <time>2012-05-27T07:36:32Z</time>
      </trkpt>
      <trkpt lat="45.35656" lon="5.8855">
        <ele>1679.56</ele>
        <time>2012-05-27T07:37:02Z</time>
      </trkpt>
      <trkpt lat="45.35661" lon="5.88521">
        <ele>1675.72</ele>
        <time>2012-05-27T07:37:32Z</time>
      </trkpt>
      <trkpt lat="45.3566" lon="5.8852">
        <ele>1675.72</ele>
        <time>2012-05-27T07:38:02Z</time>
      </trkpt>
      <trkpt lat="45.3566" lon="5.8852">
        <ele>1676.2</ele>
        <time>2012-05-27T07:38:32Z</time>
      </trkpt>
      <trkpt lat="45.35659" lon="5.88519">
        <ele>1676.2</ele>
        <time>2012-05-27T07:39:02Z</time>
      </trkpt>
      <trkpt lat="45.35659" lon="5.88519">
        <ele>1676.2</ele>
        <time>2012-05-27T07:39:32Z</time>
      </trkpt>
      <trkpt lat="45.35659" lon="5.88519">
        <ele>1676.68</ele>
        <time>2012-05-27T07:40:02Z</time>
      </trkpt>
      <trkpt lat="45.35659" lon="5.88519">
        <ele>1676.68</ele>
        <time>2012-05-27T07:40:32Z</time>
      </trkpt>
      <trkpt lat="45.35659" lon="5.88519">
        <ele>1677.16</ele>
        <time>2012-05-27T07:41:02Z</time>
      </trkpt>
      <trkpt lat="45.35659" lon="5.88518">
        <ele>1676.2</ele>
        <time>2012-05-27T07:41:32Z</time>
      </trkpt>
      <trkpt lat="45.35658" lon="5.88514">
        <ele>1676.2</ele>
        <time>2012-05-27T07:42:02Z</time>
      </trkpt>
      <trkpt lat="45.35659" lon="5.88511">
        <ele>1677.16</ele>
        <time>2012-05-27T07:42:32Z</time>
      </trkpt>
      <trkpt lat="45.35659" lon="5.88513">
        <ele>1676.68</ele>
        <time>2012-05-27T07:43:02Z</time>
      </trkpt>
      <trkpt lat="45.35659" lon="5.88513">
        <ele>1676.68</ele>
        <time>2012-05-27T07:43:32Z</time>
      </trkpt>
      <trkpt lat="45.35661" lon="5.88519">
        <ele>1676.2</ele>
        <time>2012-05-27T07:44:02Z</time>
      </trkpt>
      <trkpt lat="45.35661" lon="5.88519">
        <ele>1675.72</ele>
        <time>2012-05-27T07:44:32Z</time>
      </trkpt>
      <trkpt lat="45.35657" lon="5.88511">
        <ele>1676.2</ele>
        <time>2012-05-27T07:45:02Z</time>
      </trkpt>
      <trkpt lat="45.35651" lon="5.88462">
        <ele>1668.02</ele>
        <time>2012-05-27T07:45:32Z</time>
      </trkpt>
      <trkpt lat="45.35631" lon="5.88426">
        <ele>1665.62</ele>
        <time>2012-05-27T07:46:02Z</time>
      </trkpt>
      <trkpt lat="45.35613" lon="5.88394">
        <ele>1665.62</ele>
        <time>2012-05-27T07:46:32Z</time>
      </trkpt>
      <trkpt lat="45.35586" lon="5.88394">
        <ele>1668.99</ele>
        <time>2012-05-27T07:47:02Z</time>
      </trkpt>
      <trkpt lat="45.3556" lon="5.88385">
        <ele>1669.95</ele>
        <time>2012-05-27T07:47:32Z</time>
      </trkpt>
      <trkpt lat="45.35532" lon="5.88366">
        <ele>1673.31</ele>
        <time>2012-05-27T07:48:02Z</time>
      </trkpt>
      <trkpt lat="45.35505" lon="5.88343">
        <ele>1674.27</ele>
        <time>2012-05-27T07:48:32Z</time>
      </trkpt>
      <trkpt lat="45.3548" lon="5.88317">
        <ele>1676.68</ele>
        <time>2012-05-27T07:49:02Z</time>
      </trkpt>
      <trkpt lat="45.35456" lon="5.88298">
        <ele>1683.41</ele>
        <time>2012-05-27T07:49:32Z</time>
      </trkpt>
      <trkpt lat="45.35442" lon="5.88281">
        <ele>1689.17</ele>
        <time>2012-05-27T07:50:02Z</time>
      </trkpt>
      <trkpt lat="45.35442" lon="5.88281">
        <ele>1689.65</ele>
        <time>2012-05-27T07:50:32Z</time>
      </trkpt>
      <trkpt lat="45.35442" lon="5.88281">
        <ele>1689.65</ele>
        <time>2012-05-27T07:51:02Z</time>
      </trkpt>
      <trkpt lat="45.35442" lon="5.88281">
        <ele>1689.17</ele>
        <time>2012-05-27T07:51:32Z</time>
      </trkpt>
      <trkpt lat="45.35442" lon="5.88281">
        <ele>1688.69</ele>
        <time>2012-05-27T07:52:02Z</time>
      </trkpt>
      <trkpt lat="45.35443" lon="5.88281">
        <ele>1688.21</ele>
        <time>2012-05-27T07:52:32Z</time>
      </trkpt>
      <trkpt lat="45.35443" lon="5.8828">
        <ele>1689.17</ele>
        <time>2012-05-27T07:53:02Z</time>
      </trkpt>
      <trkpt lat="45.35443" lon="5.8828">
        <ele>1689.17</ele>
        <time>2012-05-27T07:53:32Z</time>
      </trkpt>
      <trkpt lat="45.35443" lon="5.88281">
        <ele>1688.21</ele>
        <time>2012-05-27T07:54:02Z</time>
      </trkpt>
      <trkpt lat="45.35443" lon="5.8828">
        <ele>1688.21</ele>
        <time>2012-05-27T07:54:32Z</time>
      </trkpt>
      <trkpt lat="45.35443" lon="5.8828">
        <ele>1688.69</ele>
        <time>2012-05-27T07:55:02Z</time>
      </trkpt>
      <trkpt lat="45.35443" lon="5.88279">
        <ele>1688.69</ele>
        <time>2012-05-27T07:55:32Z</time>
      </trkpt>
      <trkpt lat="45.35443" lon="5.88279">
        <ele>1687.25</ele>
        <time>2012-05-27T07:56:02Z</time>
      </trkpt>
      <trkpt lat="45.35428" lon="5.88276">
        <ele>1685.81</ele>
        <time>2012-05-27T07:56:32Z</time>
      </trkpt>
      <trkpt lat="45.35399" lon="5.88255">
        <ele>1688.21</ele>
        <time>2012-05-27T07:57:02Z</time>
      </trkpt>
      <trkpt lat="45.35381" lon="5.8823">
        <ele>1691.1</ele>
        <time>2012-05-27T07:57:32Z</time>
      </trkpt>
      <trkpt lat="45.35373" lon="5.882">
        <ele>1692.06</ele>
        <time>2012-05-27T07:58:02Z</time>
      </trkpt>
      <trkpt lat="45.35362" lon="5.88194">
        <ele>1692.54</ele>
        <time>2012-05-27T07:58:32Z</time>
      </trkpt>
      <trkpt lat="45.3534" lon="5.88187">
        <ele>1693.98</ele>
        <time>2012-05-27T07:59:02Z</time>
      </trkpt>
      <trkpt lat="45.35317" lon="5.88163">
        <ele>1698.31</ele>
        <time>2012-05-27T07:59:32Z</time>
      </trkpt>
      <trkpt lat="45.35285" lon="5.88159">
        <ele>1699.27</ele>
        <time>2012-05-27T08:00:02Z</time>
      </trkpt>
      <trkpt lat="45.35257" lon="5.88151">
        <ele>1697.83</ele>
        <time>2012-05-27T08:00:32Z</time>
      </trkpt>
      <trkpt lat="45.35237" lon="5.88165">
        <ele>1702.15</ele>
        <time>2012-05-27T08:01:02Z</time>
      </trkpt>
      <trkpt lat="45.35214" lon="5.88162">
        <ele>1703.11</ele>
        <time>2012-05-27T08:01:32Z</time>
      </trkpt>
      <trkpt lat="45.35186" lon="5.8815">
        <ele>1709.36</ele>
        <time>2012-05-27T08:02:02Z</time>
      </trkpt>
      <trkpt lat="45.35162" lon="5.88153">
        <ele>1711.28</ele>
        <time>2012-05-27T08:02:32Z</time>
      </trkpt>
      <trkpt lat="45.35136" lon="5.88138">
        <ele>1715.13</ele>
        <time>2012-05-27T08:03:02Z</time>
      </trkpt>
      <trkpt lat="45.35117" lon="5.88114">
        <ele>1714.65</ele>
        <time>2012-05-27T08:03:32Z</time>
      </trkpt>
      <trkpt lat="45.3509" lon="5.88127">
        <ele>1710.8</ele>
        <time>2012-05-27T08:04:02Z</time>
      </trkpt>
      <trkpt lat="45.35083" lon="5.88148">
        <ele>1711.28</ele>
        <time>2012-05-27T08:04:32Z</time>
      </trkpt>
      <trkpt lat="45.35066" lon="5.88159">
        <ele>1712.73</ele>
        <time>2012-05-27T08:05:02Z</time>
      </trkpt>
      <trkpt lat="45.35045" lon="5.88126">
        <ele>1711.76</ele>
        <time>2012-05-27T08:05:32Z</time>
      </trkpt>
      <trkpt lat="45.35025" lon="5.88107">
        <ele>1708.4</ele>
        <time>2012-05-27T08:06:02Z</time>
      </trkpt>
      <trkpt lat="45.35001" lon="5.88091">
        <ele>1709.84</ele>
        <time>2012-05-27T08:06:32Z</time>
      </trkpt>
      <trkpt lat="45.34974" lon="5.88082">
        <ele>1709.84</ele>
        <time>2012-05-27T08:07:02Z</time>
      </trkpt>
      <trkpt lat="45.34948" lon="5.8808">
        <ele>1706</ele>
        <time>2012-05-27T08:07:32Z</time>
      </trkpt>
      <trkpt lat="45.3492" lon="5.88085">
        <ele>1707.92</ele>
        <time>2012-05-27T08:08:02Z</time>
      </trkpt>
      <trkpt lat="45.34894" lon="5.88071">
        <ele>1711.76</ele>
        <time>2012-05-27T08:08:32Z</time>
      </trkpt>
      <trkpt lat="45.34873" lon="5.88055">
        <ele>1711.28</ele>
        <time>2012-05-27T08:09:02Z</time>
      </trkpt>
      <trkpt lat="45.34848" lon="5.88039">
        <ele>1715.13</ele>
        <time>2012-05-27T08:09:32Z</time>
      </trkpt>
      <trkpt lat="45.34825" lon="5.88023">
        <ele>1720.9</ele>
        <time>2012-05-27T08:10:02Z</time>
      </trkpt>
      <trkpt lat="45.34807" lon="5.88003">
        <ele>1721.38</ele>
        <time>2012-05-27T08:10:32Z</time>
      </trkpt>
      <trkpt lat="45.34793" lon="5.87985">
        <ele>1726.18</ele>
        <time>2012-05-27T08:11:02Z</time>
      </trkpt>
      <trkpt lat="45.34778" lon="5.87969">
        <ele>1728.11</ele>
        <time>2012-05-27T08:11:32Z</time>
      </trkpt>
      <trkpt lat="45.34766" lon="5.87951">
        <ele>1735.32</ele>
        <time>2012-05-27T08:12:02Z</time>
      </trkpt>
      <trkpt lat="45.34748" lon="5.87945">
        <ele>1743.97</ele>
        <time>2012-05-27T08:12:32Z</time>
      </trkpt>
      <trkpt lat="45.34726" lon="5.87942">
        <ele>1744.45</ele>
        <time>2012-05-27T08:13:02Z</time>
      </trkpt>
      <trkpt lat="45.34707" lon="5.8793">
        <ele>1748.78</ele>
        <time>2012-05-27T08:13:32Z</time>
      </trkpt>
      <trkpt lat="45.34699" lon="5.87922">
        <ele>1754.54</ele>
        <time>2012-05-27T08:14:02Z</time>
      </trkpt>
      <trkpt lat="45.34694" lon="5.8793">
        <ele>1753.58</ele>
        <time>2012-05-27T08:14:32Z</time>
      </trkpt>
      <trkpt lat="45.34669" lon="5.87934">
        <ele>1754.06</ele>
        <time>2012-05-27T08:15:02Z</time>
      </trkpt>
      <trkpt lat="45.34643" lon="5.87927">
        <ele>1760.31</ele>
        <time>2012-05-27T08:15:32Z</time>
      </trkpt>
      <trkpt lat="45.34624" lon="5.8791">
        <ele>1763.2</ele>
        <time>2012-05-27T08:16:02Z</time>
      </trkpt>
      <trkpt lat="45.34601" lon="5.879">
        <ele>1764.64</ele>
        <time>2012-05-27T08:16:32Z</time>
      </trkpt>
      <trkpt lat="45.34578" lon="5.87897">
        <ele>1768.48</ele>
        <time>2012-05-27T08:17:02Z</time>
      </trkpt>
      <trkpt lat="45.34562" lon="5.87881">
        <ele>1774.25</ele>
        <time>2012-05-27T08:17:32Z</time>
      </trkpt>
      <trkpt lat="45.34562" lon="5.87847">
        <ele>1778.1</ele>
        <time>2012-05-27T08:18:02Z</time>
      </trkpt>
      <trkpt lat="45.34552" lon="5.87808">
        <ele>1779.06</ele>
        <time>2012-05-27T08:18:32Z</time>
      </trkpt>
      <trkpt lat="45.34545" lon="5.87776">
        <ele>1781.94</ele>
        <time>2012-05-27T08:19:02Z</time>
      </trkpt>
      <trkpt lat="45.34548" lon="5.87747">
        <ele>1787.23</ele>
        <time>2012-05-27T08:19:32Z</time>
      </trkpt>
      <trkpt lat="45.34543" lon="5.8773">
        <ele>1788.67</ele>
        <time>2012-05-27T08:20:02Z</time>
      </trkpt>
      <trkpt lat="45.34532" lon="5.87713">
        <ele>1793</ele>
        <time>2012-05-27T08:20:32Z</time>
      </trkpt>
      <trkpt lat="45.34521" lon="5.87698">
        <ele>1798.28</ele>
        <time>2012-05-27T08:21:02Z</time>
      </trkpt>
      <trkpt lat="45.34513" lon="5.87694">
        <ele>1800.21</ele>
        <time>2012-05-27T08:21:32Z</time>
      </trkpt>
      <trkpt lat="45.34512" lon="5.87694">
        <ele>1801.17</ele>
        <time>2012-05-27T08:22:02Z</time>
      </trkpt>
      <trkpt lat="45.34512" lon="5.87693">
        <ele>1801.65</ele>
        <time>2012-05-27T08:22:32Z</time>
      </trkpt>
      <trkpt lat="45.34512" lon="5.87694">
        <ele>1802.61</ele>
        <time>2012-05-27T08:23:02Z</time>
      </trkpt>
      <trkpt lat="45.34512" lon="5.87694">
        <ele>1798.28</ele>
        <time>2012-05-27T08:23:32Z</time>
      </trkpt>
      <trkpt lat="45.34512" lon="5.87694">
        <ele>1802.13</ele>
        <time>2012-05-27T08:24:02Z</time>
      </trkpt>
      <trkpt lat="45.34512" lon="5.87696">
        <ele>1801.65</ele>
        <time>2012-05-27T08:24:32Z</time>
      </trkpt>
      <trkpt lat="45.34512" lon="5.87696">
        <ele>1802.13</ele>
        <time>2012-05-27T08:25:02Z</time>
      </trkpt>
      <trkpt lat="45.34512" lon="5.87696">
        <ele>1801.65</ele>
        <time>2012-05-27T08:25:32Z</time>
      </trkpt>
      <trkpt lat="45.34512" lon="5.87696">
        <ele>1804.53</ele>
        <time>2012-05-27T08:26:02Z</time>
      </trkpt>
      <trkpt lat="45.34514" lon="5.87694">
        <ele>1804.05</ele>
        <time>2012-05-27T08:26:32Z</time>
      </trkpt>
      <trkpt lat="45.34522" lon="5.87687">
        <ele>1808.38</ele>
        <time>2012-05-27T08:27:02Z</time>
      </trkpt>
      <trkpt lat="45.34534" lon="5.87679">
        <ele>1813.66</ele>
        <time>2012-05-27T08:27:32Z</time>
      </trkpt>
      <trkpt lat="45.34547" lon="5.87666">
        <ele>1819.91</ele>
        <time>2012-05-27T08:28:02Z</time>
      </trkpt>
      <trkpt lat="45.34536" lon="5.87661">
        <ele>1825.2</ele>
        <time>2012-05-27T08:28:32Z</time>
      </trkpt>
      <trkpt lat="45.34523" lon="5.87654">
        <ele>1830.01</ele>
        <time>2012-05-27T08:29:02Z</time>
      </trkpt>
      <trkpt lat="45.34511" lon="5.87642">
        <ele>1834.81</ele>
        <time>2012-05-27T08:29:32Z</time>
      </trkpt>
      <trkpt lat="45.34498" lon="5.87631">
        <ele>1838.66</ele>
        <time>2012-05-27T08:30:02Z</time>
      </trkpt>
      <trkpt lat="45.34487" lon="5.87615">
        <ele>1842.98</ele>
        <time>2012-05-27T08:30:32Z</time>
      </trkpt>
      <trkpt lat="45.34472" lon="5.87605">
        <ele>1848.75</ele>
        <time>2012-05-27T08:31:02Z</time>
      </trkpt>
      <trkpt lat="45.34464" lon="5.87591">
        <ele>1853.56</ele>
        <time>2012-05-27T08:31:32Z</time>
      </trkpt>
      <trkpt lat="45.34454" lon="5.87579">
        <ele>1858.37</ele>
        <time>2012-05-27T08:32:02Z</time>
      </trkpt>
      <trkpt lat="45.34441" lon="5.87579">
        <ele>1863.17</ele>
        <time>2012-05-27T08:32:32Z</time>
      </trkpt>
      <trkpt lat="45.34423" lon="5.87577">
        <ele>1867.02</ele>
        <time>2012-05-27T08:33:02Z</time>
      </trkpt>
      <trkpt lat="45.34405" lon="5.8758">
        <ele>1871.82</ele>
        <time>2012-05-27T08:33:32Z</time>
      </trkpt>
      <trkpt lat="45.34393" lon="5.8758">
        <ele>1875.19</ele>
        <time>2012-05-27T08:34:02Z</time>
      </trkpt>
      <trkpt lat="45.34378" lon="5.87583">
        <ele>1881.44</ele>
        <time>2012-05-27T08:34:32Z</time>
      </trkpt>
      <trkpt lat="45.34366" lon="5.87582">
        <ele>1885.76</ele>
        <time>2012-05-27T08:35:02Z</time>
      </trkpt>
      <trkpt lat="45.34355" lon="5.87582">
        <ele>1892.01</ele>
        <time>2012-05-27T08:35:32Z</time>
      </trkpt>
      <trkpt lat="45.34359" lon="5.87572">
        <ele>1895.86</ele>
        <time>2012-05-27T08:36:02Z</time>
      </trkpt>
      <trkpt lat="45.34354" lon="5.87565">
        <ele>1899.22</ele>
        <time>2012-05-27T08:36:32Z</time>
      </trkpt>
      <trkpt lat="45.34354" lon="5.87565">
        <ele>1898.74</ele>
        <time>2012-05-27T08:37:02Z</time>
      </trkpt>
      <trkpt lat="45.34336" lon="5.87583">
        <ele>1899.22</ele>
        <time>2012-05-27T08:37:32Z</time>
      </trkpt>
      <trkpt lat="45.34326" lon="5.87593">
        <ele>1898.74</ele>
        <time>2012-05-27T08:38:02Z</time>
      </trkpt>
      <trkpt lat="45.34314" lon="5.87618">
        <ele>1903.07</ele>
        <time>2012-05-27T08:38:32Z</time>
      </trkpt>
      <trkpt lat="45.34313" lon="5.87623">
        <ele>1905.47</ele>
        <time>2012-05-27T08:39:02Z</time>
      </trkpt>
      <trkpt lat="45.34313" lon="5.87623">
        <ele>1904.51</ele>
        <time>2012-05-27T08:39:32Z</time>
      </trkpt>
      <trkpt lat="45.34313" lon="5.87623">
        <ele>1904.51</ele>
        <time>2012-05-27T08:40:02Z</time>
      </trkpt>
      <trkpt lat="45.34306" lon="5.87632">
        <ele>1905.47</ele>
        <time>2012-05-27T08:40:32Z</time>
      </trkpt>
      <trkpt lat="45.34305" lon="5.87634">
        <ele>1905.47</ele>
        <time>2012-05-27T08:41:02Z</time>
      </trkpt>
      <trkpt lat="45.34305" lon="5.87634">
        <ele>1905.47</ele>
        <time>2012-05-27T08:41:32Z</time>
      </trkpt>
      <trkpt lat="45.34306" lon="5.87634">
        <ele>1905.47</ele>
        <time>2012-05-27T08:42:02Z</time>
      </trkpt>
      <trkpt lat="45.343" lon="5.87645">
        <ele>1906.43</ele>
        <time>2012-05-27T08:42:32Z</time>
      </trkpt>
      <trkpt lat="45.34299" lon="5.87645">
        <ele>1905.47</ele>
        <time>2012-05-27T08:43:02Z</time>
      </trkpt>
      <trkpt lat="45.343" lon="5.87645">
        <ele>1905.95</ele>
        <time>2012-05-27T08:43:32Z</time>
      </trkpt>
      <trkpt lat="45.343" lon="5.87646">
        <ele>1905.47</ele>
        <time>2012-05-27T08:44:02Z</time>
      </trkpt>
      <trkpt lat="45.343" lon="5.87646">
        <ele>1905.95</ele>
        <time>2012-05-27T08:44:32Z</time>
      </trkpt>
      <trkpt lat="45.343" lon="5.87645">
        <ele>1905.95</ele>
        <time>2012-05-27T08:45:02Z</time>
      </trkpt>
      <trkpt lat="45.343" lon="5.87645">
        <ele>1905.95</ele>
        <time>2012-05-27T08:45:32Z</time>
      </trkpt>
      <trkpt lat="45.343" lon="5.87645">
        <ele>1906.43</ele>
        <time>2012-05-27T08:46:02Z</time>
      </trkpt>
      <trkpt lat="45.343" lon="5.87645">
        <ele>1905.95</ele>
        <time>2012-05-27T08:46:32Z</time>
      </trkpt>
      <trkpt lat="45.34301" lon="5.87645">
        <ele>1905.95</ele>
        <time>2012-05-27T08:47:02Z</time>
      </trkpt>
      <trkpt lat="45.34301" lon="5.87645">
        <ele>1906.43</ele>
        <time>2012-05-27T08:47:32Z</time>
      </trkpt>
      <trkpt lat="45.34301" lon="5.87645">
        <ele>1906.43</ele>
        <time>2012-05-27T08:48:02Z</time>
      </trkpt>
      <trkpt lat="45.34301" lon="5.87645">
        <ele>1906.43</ele>
        <time>2012-05-27T08:48:32Z</time>
      </trkpt>
      <trkpt lat="45.34301" lon="5.87645">
        <ele>1906.43</ele>
        <time>2012-05-27T08:49:02Z</time>
      </trkpt>
      <trkpt lat="45.34301" lon="5.87644">
        <ele>1906.91</ele>
        <time>2012-05-27T08:49:32Z</time>
      </trkpt>
      <trkpt lat="45.34301" lon="5.87645">
        <ele>1905.95</ele>
        <time>2012-05-27T08:50:02Z</time>
      </trkpt>
      <trkpt lat="45.34301" lon="5.87645">
        <ele>1906.91</ele>
        <time>2012-05-27T08:50:32Z</time>
      </trkpt>
      <trkpt lat="45.34301" lon="5.87645">
        <ele>1906.43</ele>
        <time>2012-05-27T08:51:02Z</time>
      </trkpt>
      <trkpt lat="45.34301" lon="5.87644">
        <ele>1907.39</ele>
        <time>2012-05-27T08:51:32Z</time>
      </trkpt>
      <trkpt lat="45.34283" lon="5.87657">
        <ele>1903.07</ele>
        <time>2012-05-27T08:52:02Z</time>
      </trkpt>
      <trkpt lat="45.34259" lon="5.87674">
        <ele>1897.78</ele>
        <time>2012-05-27T08:52:32Z</time>
      </trkpt>
      <trkpt lat="45.34259" lon="5.87675">
        <ele>1897.3</ele>
        <time>2012-05-27T08:53:02Z</time>
      </trkpt>
      <trkpt lat="45.34259" lon="5.87675">
        <ele>1897.78</ele>
        <time>2012-05-27T08:53:32Z</time>
      </trkpt>
      <trkpt lat="45.34259" lon="5.87675">
        <ele>1898.26</ele>
        <time>2012-05-27T08:54:02Z</time>
      </trkpt>
      <trkpt lat="45.34259" lon="5.87676">
        <ele>1898.26</ele>
        <time>2012-05-27T08:54:32Z</time>
      </trkpt>
      <trkpt lat="45.34259" lon="5.87675">
        <ele>1898.74</ele>
        <time>2012-05-27T08:55:02Z</time>
      </trkpt>
      <trkpt lat="45.34259" lon="5.87675">
        <ele>1898.26</ele>
        <time>2012-05-27T08:55:32Z</time>
      </trkpt>
      <trkpt lat="45.3426" lon="5.87675">
        <ele>1898.26</ele>
        <time>2012-05-27T08:56:02Z</time>
      </trkpt>
      <trkpt lat="45.3426" lon="5.87675">
        <ele>1898.74</ele>
        <time>2012-05-27T08:56:32Z</time>
      </trkpt>
      <trkpt lat="45.3426" lon="5.87675">
        <ele>1899.7</ele>
        <time>2012-05-27T08:57:02Z</time>
      </trkpt>
      <trkpt lat="45.34259" lon="5.87674">
        <ele>1899.22</ele>
        <time>2012-05-27T08:57:32Z</time>
      </trkpt>
      <trkpt lat="45.34259" lon="5.87675">
        <ele>1899.7</ele>
        <time>2012-05-27T08:58:02Z</time>
      </trkpt>
      <trkpt lat="45.34259" lon="5.87674">
        <ele>1898.74</ele>
        <time>2012-05-27T08:58:32Z</time>
      </trkpt>
      <trkpt lat="45.34259" lon="5.87674">
        <ele>1900.18</ele>
        <time>2012-05-27T08:59:02Z</time>
      </trkpt>
      <trkpt lat="45.3426" lon="5.87675">
        <ele>1900.18</ele>
        <time>2012-05-27T08:59:32Z</time>
      </trkpt>
      <trkpt lat="45.3426" lon="5.87675">
        <ele>1900.18</ele>
        <time>2012-05-27T09:00:02Z</time>
      </trkpt>
      <trkpt lat="45.3426" lon="5.87675">
        <ele>1900.18</ele>
        <time>2012-05-27T09:00:32Z</time>
      </trkpt>
      <trkpt lat="45.3426" lon="5.87675">
        <ele>1899.7</ele>
        <time>2012-05-27T09:01:02Z</time>
      </trkpt>
      <trkpt lat="45.3426" lon="5.87675">
        <ele>1900.18</ele>
        <time>2012-05-27T09:01:32Z</time>
      </trkpt>
      <trkpt lat="45.34259" lon="5.87676">
        <ele>1900.18</ele>
        <time>2012-05-27T09:02:02Z</time>
      </trkpt>
      <trkpt lat="45.34243" lon="5.87701">
        <ele>1901.63</ele>
        <time>2012-05-27T09:02:32Z</time>
      </trkpt>
      <trkpt lat="45.34235" lon="5.87714">
        <ele>1900.66</ele>
        <time>2012-05-27T09:03:02Z</time>
      </trkpt>
      <trkpt lat="45.34218" lon="5.87751">
        <ele>1900.66</ele>
        <time>2012-05-27T09:03:32Z</time>
      </trkpt>
      <trkpt lat="45.34197" lon="5.87787">
        <ele>1900.66</ele>
        <time>2012-05-27T09:04:02Z</time>
      </trkpt>
      <trkpt lat="45.34182" lon="5.8781">
        <ele>1907.39</ele>
        <time>2012-05-27T09:04:32Z</time>
      </trkpt>
      <trkpt lat="45.34174" lon="5.87831">
        <ele>1912.68</ele>
        <time>2012-05-27T09:05:02Z</time>
      </trkpt>
      <trkpt lat="45.34167" lon="5.87855">
        <ele>1917.97</ele>
        <time>2012-05-27T09:05:32Z</time>
      </trkpt>
      <trkpt lat="45.34158" lon="5.87872">
        <ele>1923.74</ele>
        <time>2012-05-27T09:06:02Z</time>
      </trkpt>
      <trkpt lat="45.34146" lon="5.87889">
        <ele>1929.02</ele>
        <time>2012-05-27T09:06:32Z</time>
      </trkpt>
      <trkpt lat="45.34134" lon="5.87901">
        <ele>1933.35</ele>
        <time>2012-05-27T09:07:02Z</time>
      </trkpt>
      <trkpt lat="45.34117" lon="5.87913">
        <ele>1936.23</ele>
        <time>2012-05-27T09:07:32Z</time>
      </trkpt>
      <trkpt lat="45.34105" lon="5.87924">
        <ele>1939.12</ele>
        <time>2012-05-27T09:08:02Z</time>
      </trkpt>
      <trkpt lat="45.34083" lon="5.87941">
        <ele>1942.48</ele>
        <time>2012-05-27T09:08:32Z</time>
      </trkpt>
      <trkpt lat="45.34058" lon="5.87941">
        <ele>1945.85</ele>
        <time>2012-05-27T09:09:02Z</time>
      </trkpt>
      <trkpt lat="45.3403" lon="5.87931">
        <ele>1946.33</ele>
        <time>2012-05-27T09:09:32Z</time>
      </trkpt>
      <trkpt lat="45.3402" lon="5.87923">
        <ele>1945.85</ele>
        <time>2012-05-27T09:10:02Z</time>
      </trkpt>
      <trkpt lat="45.3401" lon="5.87913">
        <ele>1944.88</ele>
        <time>2012-05-27T09:10:32Z</time>
      </trkpt>
      <trkpt lat="45.33997" lon="5.87896">
        <ele>1940.08</ele>
        <time>2012-05-27T09:11:02Z</time>
      </trkpt>
      <trkpt lat="45.33985" lon="5.87891">
        <ele>1942</ele>
        <time>2012-05-27T09:11:32Z</time>
      </trkpt>
      <trkpt lat="45.33979" lon="5.87887">
        <ele>1944.4</ele>
        <time>2012-05-27T09:12:02Z</time>
      </trkpt>
      <trkpt lat="45.33973" lon="5.87886">
        <ele>1944.4</ele>
        <time>2012-05-27T09:12:32Z</time>
      </trkpt>
      <trkpt lat="45.33949" lon="5.87882">
        <ele>1943.44</ele>
        <time>2012-05-27T09:13:02Z</time>
      </trkpt>
      <trkpt lat="45.33925" lon="5.87873">
        <ele>1941.52</ele>
        <time>2012-05-27T09:13:32Z</time>
      </trkpt>
      <trkpt lat="45.33897" lon="5.87867">
        <ele>1943.44</ele>
        <time>2012-05-27T09:14:02Z</time>
      </trkpt>
      <trkpt lat="45.33871" lon="5.87857">
        <ele>1944.4</ele>
        <time>2012-05-27T09:14:32Z</time>
      </trkpt>
      <trkpt lat="45.33843" lon="5.87842">
        <ele>1945.85</ele>
        <time>2012-05-27T09:15:02Z</time>
      </trkpt>
      <trkpt lat="45.33818" lon="5.87824">
        <ele>1945.85</ele>
        <time>2012-05-27T09:15:32Z</time>
      </trkpt>
      <trkpt lat="45.338" lon="5.87816">
        <ele>1947.77</ele>
        <time>2012-05-27T09:16:02Z</time>
      </trkpt>
      <trkpt lat="45.33792" lon="5.87809">
        <ele>1949.69</ele>
        <time>2012-05-27T09:16:32Z</time>
      </trkpt>
      <trkpt lat="45.33777" lon="5.87789">
        <ele>1946.33</ele>
        <time>2012-05-27T09:17:02Z</time>
      </trkpt>
      <trkpt lat="45.33777" lon="5.87788">
        <ele>1946.81</ele>
        <time>2012-05-27T09:17:32Z</time>
      </trkpt>
      <trkpt lat="45.33785" lon="5.87794">
        <ele>1946.81</ele>
        <time>2012-05-27T09:18:02Z</time>
      </trkpt>
      <trkpt lat="45.33791" lon="5.8781">
        <ele>1950.65</ele>
        <time>2012-05-27T09:18:32Z</time>
      </trkpt>
      <trkpt lat="45.33773" lon="5.87797">
        <ele>1954.98</ele>
        <time>2012-05-27T09:19:02Z</time>
      </trkpt>
      <trkpt lat="45.33767" lon="5.87805">
        <ele>1953.54</ele>
        <time>2012-05-27T09:19:32Z</time>
      </trkpt>
      <trkpt lat="45.33767" lon="5.87807">
        <ele>1950.17</ele>
        <time>2012-05-27T09:20:02Z</time>
      </trkpt>
      <trkpt lat="45.33769" lon="5.8781">
        <ele>1947.77</ele>
        <time>2012-05-27T09:20:32Z</time>
      </trkpt>
      <trkpt lat="45.33768" lon="5.87813">
        <ele>1945.85</ele>
        <time>2012-05-27T09:21:02Z</time>
      </trkpt>
      <trkpt lat="45.33768" lon="5.87813">
        <ele>1945.85</ele>
        <time>2012-05-27T09:21:32Z</time>
      </trkpt>
      <trkpt lat="45.33764" lon="5.87809">
        <ele>1946.33</ele>
        <time>2012-05-27T09:22:02Z</time>
      </trkpt>
      <trkpt lat="45.33764" lon="5.87809">
        <ele>1946.81</ele>
        <time>2012-05-27T09:22:32Z</time>
      </trkpt>
      <trkpt lat="45.33764" lon="5.87809">
        <ele>1946.81</ele>
        <time>2012-05-27T09:23:02Z</time>
      </trkpt>
      <trkpt lat="45.33764" lon="5.87809">
        <ele>1946.33</ele>
        <time>2012-05-27T09:23:32Z</time>
      </trkpt>
      <trkpt lat="45.33764" lon="5.87809">
        <ele>1947.29</ele>
        <time>2012-05-27T09:24:02Z</time>
      </trkpt>
      <trkpt lat="45.33761" lon="5.87807">
        <ele>1946.33</ele>
        <time>2012-05-27T09:24:32Z</time>
      </trkpt>
      <trkpt lat="45.33761" lon="5.87807">
        <ele>1947.29</ele>
        <time>2012-05-27T09:25:02Z</time>
      </trkpt>
      <trkpt lat="45.3375" lon="5.878">
        <ele>1942.48</ele>
        <time>2012-05-27T09:25:32Z</time>
      </trkpt>
      <trkpt lat="45.33725" lon="5.87779">
        <ele>1934.31</ele>
        <time>2012-05-27T09:26:02Z</time>
      </trkpt>
      <trkpt lat="45.33707" lon="5.87759">
        <ele>1925.18</ele>
        <time>2012-05-27T09:26:32Z</time>
      </trkpt>
      <trkpt lat="45.33693" lon="5.87743">
        <ele>1918.93</ele>
        <time>2012-05-27T09:27:02Z</time>
      </trkpt>
      <trkpt lat="45.33692" lon="5.87741">
        <ele>1915.56</ele>
        <time>2012-05-27T09:27:32Z</time>
      </trkpt>
      <trkpt lat="45.33685" lon="5.87735">
        <ele>1913.16</ele>
        <time>2012-05-27T09:28:02Z</time>
      </trkpt>
      <trkpt lat="45.33664" lon="5.87727">
        <ele>1904.99</ele>
        <time>2012-05-27T09:28:32Z</time>
      </trkpt>
      <trkpt lat="45.33641" lon="5.87701">
        <ele>1896.34</ele>
        <time>2012-05-27T09:29:02Z</time>
      </trkpt>
      <trkpt lat="45.33626" lon="5.87679">
        <ele>1893.45</ele>
        <time>2012-05-27T09:29:32Z</time>
      </trkpt>
      <trkpt lat="45.33609" lon="5.87661">
        <ele>1887.21</ele>
        <time>2012-05-27T09:30:02Z</time>
      </trkpt>
      <trkpt lat="45.336" lon="5.87648">
        <ele>1880.96</ele>
        <time>2012-05-27T09:30:32Z</time>
      </trkpt>
      <trkpt lat="45.33593" lon="5.87644">
        <ele>1877.59</ele>
        <time>2012-05-27T09:31:02Z</time>
      </trkpt>
      <trkpt lat="45.33593" lon="5.87644">
        <ele>1876.63</ele>
        <time>2012-05-27T09:31:32Z</time>
      </trkpt>
      <trkpt lat="45.3359" lon="5.87643">
        <ele>1874.23</ele>
        <time>2012-05-27T09:32:02Z</time>
      </trkpt>
      <trkpt lat="45.33588" lon="5.87646">
        <ele>1872.79</ele>
        <time>2012-05-27T09:32:32Z</time>
      </trkpt>
      <trkpt lat="45.33586" lon="5.87646">
        <ele>1872.79</ele>
        <time>2012-05-27T09:33:02Z</time>
      </trkpt>
      <trkpt lat="45.33574" lon="5.87644">
        <ele>1869.9</ele>
        <time>2012-05-27T09:33:32Z</time>
      </trkpt>
      <trkpt lat="45.33555" lon="5.87631">
        <ele>1862.21</ele>
        <time>2012-05-27T09:34:02Z</time>
      </trkpt>
      <trkpt lat="45.33534" lon="5.87624">
        <ele>1858.37</ele>
        <time>2012-05-27T09:34:32Z</time>
      </trkpt>
      <trkpt lat="45.33503" lon="5.87621">
        <ele>1860.29</ele>
        <time>2012-05-27T09:35:02Z</time>
      </trkpt>
      <trkpt lat="45.33491" lon="5.87621">
        <ele>1860.29</ele>
        <time>2012-05-27T09:35:32Z</time>
      </trkpt>
      <trkpt lat="45.33479" lon="5.87625">
        <ele>1864.13</ele>
        <time>2012-05-27T09:36:02Z</time>
      </trkpt>
      <trkpt lat="45.33473" lon="5.87627">
        <ele>1866.06</ele>
        <time>2012-05-27T09:36:32Z</time>
      </trkpt>
      <trkpt lat="45.33457" lon="5.8763">
        <ele>1867.98</ele>
        <time>2012-05-27T09:37:02Z</time>
      </trkpt>
      <trkpt lat="45.33455" lon="5.87629">
        <ele>1868.94</ele>
        <time>2012-05-27T09:37:32Z</time>
      </trkpt>
      <trkpt lat="45.33455" lon="5.87629">
        <ele>1868.94</ele>
        <time>2012-05-27T09:38:02Z</time>
      </trkpt>
      <trkpt lat="45.33455" lon="5.87629">
        <ele>1868.94</ele>
        <time>2012-05-27T09:38:32Z</time>
      </trkpt>
      <trkpt lat="45.33455" lon="5.87629">
        <ele>1868.94</ele>
        <time>2012-05-27T09:39:02Z</time>
      </trkpt>
      <trkpt lat="45.33449" lon="5.87624">
        <ele>1867.5</ele>
        <time>2012-05-27T09:39:32Z</time>
      </trkpt>
      <trkpt lat="45.33421" lon="5.87612">
        <ele>1868.94</ele>
        <time>2012-05-27T09:40:02Z</time>
      </trkpt>
      <trkpt lat="45.33398" lon="5.87592">
        <ele>1869.42</ele>
        <time>2012-05-27T09:40:32Z</time>
      </trkpt>
      <trkpt lat="45.33378" lon="5.87562">
        <ele>1865.58</ele>
        <time>2012-05-27T09:41:02Z</time>
      </trkpt>
      <trkpt lat="45.33364" lon="5.87526">
        <ele>1859.81</ele>
        <time>2012-05-27T09:41:32Z</time>
      </trkpt>
      <trkpt lat="45.3334" lon="5.87495">
        <ele>1859.33</ele>
        <time>2012-05-27T09:42:02Z</time>
      </trkpt>
      <trkpt lat="45.33331" lon="5.87468">
        <ele>1855.96</ele>
        <time>2012-05-27T09:42:32Z</time>
      </trkpt>
      <trkpt lat="45.3331" lon="5.8745">
        <ele>1857.4</ele>
        <time>2012-05-27T09:43:02Z</time>
      </trkpt>
      <trkpt lat="45.33289" lon="5.87432">
        <ele>1858.37</ele>
        <time>2012-05-27T09:43:32Z</time>
      </trkpt>
      <trkpt lat="45.3326" lon="5.87413">
        <ele>1856.92</ele>
        <time>2012-05-27T09:44:02Z</time>
      </trkpt>
      <trkpt lat="45.33228" lon="5.874">
        <ele>1858.85</ele>
        <time>2012-05-27T09:44:32Z</time>
      </trkpt>
      <trkpt lat="45.33194" lon="5.87395">
        <ele>1858.85</ele>
        <time>2012-05-27T09:45:02Z</time>
      </trkpt>
      <trkpt lat="45.3316" lon="5.87382">
        <ele>1857.89</ele>
        <time>2012-05-27T09:45:32Z</time>
      </trkpt>
      <trkpt lat="45.33134" lon="5.87365">
        <ele>1856.44</ele>
        <time>2012-05-27T09:46:02Z</time>
      </trkpt>
      <trkpt lat="45.3311" lon="5.87352">
        <ele>1855</ele>
        <time>2012-05-27T09:46:32Z</time>
      </trkpt>
      <trkpt lat="45.331" lon="5.87346">
        <ele>1850.19</ele>
        <time>2012-05-27T09:47:02Z</time>
      </trkpt>
      <trkpt lat="45.33092" lon="5.87342">
        <ele>1849.71</ele>
        <time>2012-05-27T09:47:32Z</time>
      </trkpt>
      <trkpt lat="45.33073" lon="5.87327">
        <ele>1847.31</ele>
        <time>2012-05-27T09:48:02Z</time>
      </trkpt>
      <trkpt lat="45.33055" lon="5.87301">
        <ele>1842.98</ele>
        <time>2012-05-27T09:48:32Z</time>
      </trkpt>
      <trkpt lat="45.3303" lon="5.87275">
        <ele>1845.39</ele>
        <time>2012-05-27T09:49:02Z</time>
      </trkpt>
      <trkpt lat="45.33008" lon="5.8725">
        <ele>1848.27</ele>
        <time>2012-05-27T09:49:32Z</time>
      </trkpt>
      <trkpt lat="45.32991" lon="5.87224">
        <ele>1850.19</ele>
        <time>2012-05-27T09:50:02Z</time>
      </trkpt>
      <trkpt lat="45.32991" lon="5.87224">
        <ele>1849.71</ele>
        <time>2012-05-27T09:50:32Z</time>
      </trkpt>
      <trkpt lat="45.32991" lon="5.87224">
        <ele>1849.23</ele>
        <time>2012-05-27T09:51:02Z</time>
      </trkpt>
      <trkpt lat="45.32991" lon="5.87224">
        <ele>1849.71</ele>
        <time>2012-05-27T09:51:32Z</time>
      </trkpt>
      <trkpt lat="45.32992" lon="5.87224">
        <ele>1850.19</ele>
        <time>2012-05-27T09:52:02Z</time>
      </trkpt>
      <trkpt lat="45.32982" lon="5.87194">
        <ele>1852.6</ele>
        <time>2012-05-27T09:52:32Z</time>
      </trkpt>
      <trkpt lat="45.32974" lon="5.87166">
        <ele>1853.08</ele>
        <time>2012-05-27T09:53:02Z</time>
      </trkpt>
      <trkpt lat="45.32965" lon="5.8713">
        <ele>1855.48</ele>
        <time>2012-05-27T09:53:32Z</time>
      </trkpt>
      <trkpt lat="45.32955" lon="5.87098">
        <ele>1858.85</ele>
        <time>2012-05-27T09:54:02Z</time>
      </trkpt>
      <trkpt lat="45.32946" lon="5.87064">
        <ele>1859.81</ele>
        <time>2012-05-27T09:54:32Z</time>
      </trkpt>
      <trkpt lat="45.32937" lon="5.87042">
        <ele>1862.69</ele>
        <time>2012-05-27T09:55:02Z</time>
      </trkpt>
      <trkpt lat="45.32916" lon="5.87021">
        <ele>1864.13</ele>
        <time>2012-05-27T09:55:32Z</time>
      </trkpt>
      <trkpt lat="45.32895" lon="5.87004">
        <ele>1864.61</ele>
        <time>2012-05-27T09:56:02Z</time>
      </trkpt>
      <trkpt lat="45.3288" lon="5.86995">
        <ele>1862.21</ele>
        <time>2012-05-27T09:56:32Z</time>
      </trkpt>
      <trkpt lat="45.32866" lon="5.86973">
        <ele>1863.17</ele>
        <time>2012-05-27T09:57:02Z</time>
      </trkpt>
      <trkpt lat="45.32856" lon="5.86961">
        <ele>1863.17</ele>
        <time>2012-05-27T09:57:32Z</time>
      </trkpt>
      <trkpt lat="45.32833" lon="5.86938">
        <ele>1861.73</ele>
        <time>2012-05-27T09:58:02Z</time>
      </trkpt>
      <trkpt lat="45.32817" lon="5.8692">
        <ele>1859.81</ele>
        <time>2012-05-27T09:58:32Z</time>
      </trkpt>
      <trkpt lat="45.32795" lon="5.86903">
        <ele>1860.29</ele>
        <time>2012-05-27T09:59:02Z</time>
      </trkpt>
      <trkpt lat="45.32774" lon="5.8689">
        <ele>1860.29</ele>
        <time>2012-05-27T09:59:32Z</time>
      </trkpt>
      <trkpt lat="45.32763" lon="5.86889">
        <ele>1859.33</ele>
        <time>2012-05-27T10:00:02Z</time>
      </trkpt>
      <trkpt lat="45.32749" lon="5.86887">
        <ele>1856.44</ele>
        <time>2012-05-27T10:00:32Z</time>
      </trkpt>
      <trkpt lat="45.32735" lon="5.86884">
        <ele>1855</ele>
        <time>2012-05-27T10:01:02Z</time>
      </trkpt>
      <trkpt lat="45.32721" lon="5.86893">
        <ele>1857.4</ele>
        <time>2012-05-27T10:01:32Z</time>
      </trkpt>
      <trkpt lat="45.327" lon="5.86889">
        <ele>1858.37</ele>
        <time>2012-05-27T10:02:02Z</time>
      </trkpt>
      <trkpt lat="45.32686" lon="5.86888">
        <ele>1863.17</ele>
        <time>2012-05-27T10:02:32Z</time>
      </trkpt>
      <trkpt lat="45.32665" lon="5.86878">
        <ele>1862.69</ele>
        <time>2012-05-27T10:03:02Z</time>
      </trkpt>
      <trkpt lat="45.32645" lon="5.8687">
        <ele>1865.09</ele>
        <time>2012-05-27T10:03:32Z</time>
      </trkpt>
      <trkpt lat="45.32626" lon="5.86861">
        <ele>1867.98</ele>
        <time>2012-05-27T10:04:02Z</time>
      </trkpt>
      <trkpt lat="45.3261" lon="5.86861">
        <ele>1871.34</ele>
        <time>2012-05-27T10:04:32Z</time>
      </trkpt>
      <trkpt lat="45.326" lon="5.86854">
        <ele>1871.82</ele>
        <time>2012-05-27T10:05:02Z</time>
      </trkpt>
      <trkpt lat="45.32583" lon="5.86849">
        <ele>1873.75</ele>
        <time>2012-05-27T10:05:32Z</time>
      </trkpt>
      <trkpt lat="45.32563" lon="5.86832">
        <ele>1875.67</ele>
        <time>2012-05-27T10:06:02Z</time>
      </trkpt>
      <trkpt lat="45.32547" lon="5.86822">
        <ele>1877.59</ele>
        <time>2012-05-27T10:06:32Z</time>
      </trkpt>
      <trkpt lat="45.32537" lon="5.86814">
        <ele>1878.55</ele>
        <time>2012-05-27T10:07:02Z</time>
      </trkpt>
      <trkpt lat="45.32522" lon="5.86807">
        <ele>1880.96</ele>
        <time>2012-05-27T10:07:32Z</time>
      </trkpt>
      <trkpt lat="45.32508" lon="5.86803">
        <ele>1884.8</ele>
        <time>2012-05-27T10:08:02Z</time>
      </trkpt>
      <trkpt lat="45.32492" lon="5.8679">
        <ele>1887.21</ele>
        <time>2012-05-27T10:08:32Z</time>
      </trkpt>
      <trkpt lat="45.32487" lon="5.86783">
        <ele>1887.21</ele>
        <time>2012-05-27T10:09:02Z</time>
      </trkpt>
      <trkpt lat="45.32487" lon="5.86781">
        <ele>1886.24</ele>
        <time>2012-05-27T10:09:32Z</time>
      </trkpt>
      <trkpt lat="45.32463" lon="5.86763">
        <ele>1888.65</ele>
        <time>2012-05-27T10:10:02Z</time>
      </trkpt>
      <trkpt lat="45.32436" lon="5.86744">
        <ele>1887.21</ele>
        <time>2012-05-27T10:10:32Z</time>
      </trkpt>
      <trkpt lat="45.32412" lon="5.86724">
        <ele>1887.21</ele>
        <time>2012-05-27T10:11:02Z</time>
      </trkpt>
      <trkpt lat="45.32389" lon="5.86711">
        <ele>1888.17</ele>
        <time>2012-05-27T10:11:32Z</time>
      </trkpt>
      <trkpt lat="45.32364" lon="5.86698">
        <ele>1885.76</ele>
        <time>2012-05-27T10:12:02Z</time>
      </trkpt>
      <trkpt lat="45.3235" lon="5.86703">
        <ele>1887.21</ele>
        <time>2012-05-27T10:12:32Z</time>
      </trkpt>
      <trkpt lat="45.3234" lon="5.86699">
        <ele>1885.76</ele>
        <time>2012-05-27T10:13:02Z</time>
      </trkpt>
      <trkpt lat="45.32311" lon="5.86686">
        <ele>1882.88</ele>
        <time>2012-05-27T10:13:32Z</time>
      </trkpt>
      <trkpt lat="45.32288" lon="5.86685">
        <ele>1881.92</ele>
        <time>2012-05-27T10:14:02Z</time>
      </trkpt>
      <trkpt lat="45.32277" lon="5.86677">
        <ele>1880.96</ele>
        <time>2012-05-27T10:14:32Z</time>
      </trkpt>
      <trkpt lat="45.32277" lon="5.86677">
        <ele>1880.48</ele>
        <time>2012-05-27T10:15:02Z</time>
      </trkpt>
      <trkpt lat="45.32277" lon="5.86677">
        <ele>1880.48</ele>
        <time>2012-05-27T10:15:32Z</time>
      </trkpt>
      <trkpt lat="45.32267" lon="5.86667">
        <ele>1880.48</ele>
        <time>2012-05-27T10:16:02Z</time>
      </trkpt>
      <trkpt lat="45.32251" lon="5.86662">
        <ele>1880.48</ele>
        <time>2012-05-27T10:16:32Z</time>
      </trkpt>
      <trkpt lat="45.32238" lon="5.86658">
        <ele>1880</ele>
        <time>2012-05-27T10:17:02Z</time>
      </trkpt>
      <trkpt lat="45.32217" lon="5.8665">
        <ele>1880</ele>
        <time>2012-05-27T10:17:32Z</time>
      </trkpt>
      <trkpt lat="45.32199" lon="5.86642">
        <ele>1878.07</ele>
        <time>2012-05-27T10:18:02Z</time>
      </trkpt>
      <trkpt lat="45.32192" lon="5.86636">
        <ele>1877.11</ele>
        <time>2012-05-27T10:18:32Z</time>
      </trkpt>
      <trkpt lat="45.3219" lon="5.86645">
        <ele>1880</ele>
        <time>2012-05-27T10:19:02Z</time>
      </trkpt>
      <trkpt lat="45.32172" lon="5.86645">
        <ele>1882.88</ele>
        <time>2012-05-27T10:19:32Z</time>
      </trkpt>
      <trkpt lat="45.32148" lon="5.8664">
        <ele>1885.28</ele>
        <time>2012-05-27T10:20:02Z</time>
      </trkpt>
      <trkpt lat="45.32142" lon="5.86641">
        <ele>1884.8</ele>
        <time>2012-05-27T10:20:32Z</time>
      </trkpt>
      <trkpt lat="45.32144" lon="5.86641">
        <ele>1884.8</ele>
        <time>2012-05-27T10:21:02Z</time>
      </trkpt>
      <trkpt lat="45.32144" lon="5.86641">
        <ele>1884.8</ele>
        <time>2012-05-27T10:21:32Z</time>
      </trkpt>
      <trkpt lat="45.32144" lon="5.86641">
        <ele>1884.8</ele>
        <time>2012-05-27T10:22:02Z</time>
      </trkpt>
      <trkpt lat="45.32144" lon="5.86642">
        <ele>1884.8</ele>
        <time>2012-05-27T10:22:32Z</time>
      </trkpt>
      <trkpt lat="45.32143" lon="5.86642">
        <ele>1884.32</ele>
        <time>2012-05-27T10:23:02Z</time>
      </trkpt>
      <trkpt lat="45.32143" lon="5.86642">
        <ele>1884.32</ele>
        <time>2012-05-27T10:23:32Z</time>
      </trkpt>
      <trkpt lat="45.32143" lon="5.86642">
        <ele>1884.8</ele>
        <time>2012-05-27T10:24:02Z</time>
      </trkpt>
      <trkpt lat="45.32143" lon="5.86642">
        <ele>1885.28</ele>
        <time>2012-05-27T10:24:32Z</time>
      </trkpt>
      <trkpt lat="45.32144" lon="5.86642">
        <ele>1884.8</ele>
        <time>2012-05-27T10:25:02Z</time>
      </trkpt>
      <trkpt lat="45.32144" lon="5.86642">
        <ele>1884.8</ele>
        <time>2012-05-27T10:25:32Z</time>
      </trkpt>
      <trkpt lat="45.32143" lon="5.86642">
        <ele>1884.8</ele>
        <time>2012-05-27T10:26:02Z</time>
      </trkpt>
      <trkpt lat="45.32143" lon="5.86641">
        <ele>1886.24</ele>
        <time>2012-05-27T10:26:32Z</time>
      </trkpt>
      <trkpt lat="45.32143" lon="5.86641">
        <ele>1886.24</ele>
        <time>2012-05-27T10:27:02Z</time>
      </trkpt>
      <trkpt lat="45.32143" lon="5.86641">
        <ele>1885.76</ele>
        <time>2012-05-27T10:27:32Z</time>
      </trkpt>
      <trkpt lat="45.32144" lon="5.86641">
        <ele>1885.76</ele>
        <time>2012-05-27T10:28:02Z</time>
      </trkpt>
      <trkpt lat="45.32144" lon="5.86641">
        <ele>1885.76</ele>
        <time>2012-05-27T10:28:32Z</time>
      </trkpt>
      <trkpt lat="45.32144" lon="5.86641">
        <ele>1886.72</ele>
        <time>2012-05-27T10:29:02Z</time>
      </trkpt>
      <trkpt lat="45.32144" lon="5.86641">
        <ele>1886.24</ele>
        <time>2012-05-27T10:29:32Z</time>
      </trkpt>
      <trkpt lat="45.32144" lon="5.86643">
        <ele>1887.21</ele>
        <time>2012-05-27T10:30:02Z</time>
      </trkpt>
      <trkpt lat="45.32124" lon="5.86649">
        <ele>1889.61</ele>
        <time>2012-05-27T10:30:32Z</time>
      </trkpt>
      <trkpt lat="45.32099" lon="5.86649">
        <ele>1892.01</ele>
        <time>2012-05-27T10:31:02Z</time>
      </trkpt>
      <trkpt lat="45.32088" lon="5.86642">
        <ele>1892.01</ele>
        <time>2012-05-27T10:31:32Z</time>
      </trkpt>
      <trkpt lat="45.32079" lon="5.86643">
        <ele>1892.97</ele>
        <time>2012-05-27T10:32:02Z</time>
      </trkpt>
      <trkpt lat="45.32075" lon="5.86641">
        <ele>1890.09</ele>
        <time>2012-05-27T10:32:32Z</time>
      </trkpt>
      <trkpt lat="45.32074" lon="5.86632">
        <ele>1882.4</ele>
        <time>2012-05-27T10:33:02Z</time>
      </trkpt>
      <trkpt lat="45.32077" lon="5.86623">
        <ele>1877.59</ele>
        <time>2012-05-27T10:33:32Z</time>
      </trkpt>
      <trkpt lat="45.32077" lon="5.86623">
        <ele>1875.67</ele>
        <time>2012-05-27T10:34:02Z</time>
      </trkpt>
      <trkpt lat="45.32086" lon="5.86627">
        <ele>1879.03</ele>
        <time>2012-05-27T10:34:32Z</time>
      </trkpt>
      <trkpt lat="45.3209" lon="5.86621">
        <ele>1875.67</ele>
        <time>2012-05-27T10:35:02Z</time>
      </trkpt>
      <trkpt lat="45.32093" lon="5.86621">
        <ele>1873.27</ele>
        <time>2012-05-27T10:35:32Z</time>
      </trkpt>
      <trkpt lat="45.32093" lon="5.86621">
        <ele>1872.3</ele>
        <time>2012-05-27T10:36:02Z</time>
      </trkpt>
      <trkpt lat="45.32094" lon="5.8662">
        <ele>1872.79</ele>
        <time>2012-05-27T10:36:32Z</time>
      </trkpt>
      <trkpt lat="45.32094" lon="5.8662">
        <ele>1872.79</ele>
        <time>2012-05-27T10:37:02Z</time>
      </trkpt>
      <trkpt lat="45.32094" lon="5.8662">
        <ele>1872.3</ele>
        <time>2012-05-27T10:37:32Z</time>
      </trkpt>
      <trkpt lat="45.32094" lon="5.8662">
        <ele>1872.3</ele>
        <time>2012-05-27T10:38:02Z</time>
      </trkpt>
      <trkpt lat="45.32095" lon="5.8662">
        <ele>1872.3</ele>
        <time>2012-05-27T10:38:32Z</time>
      </trkpt>
      <trkpt lat="45.32095" lon="5.86619">
        <ele>1872.3</ele>
        <time>2012-05-27T10:39:02Z</time>
      </trkpt>
      <trkpt lat="45.32095" lon="5.86619">
        <ele>1872.3</ele>
        <time>2012-05-27T10:39:32Z</time>
      </trkpt>
      <trkpt lat="45.32096" lon="5.8661">
        <ele>1869.42</ele>
        <time>2012-05-27T10:40:02Z</time>
      </trkpt>
      <trkpt lat="45.32089" lon="5.86577">
        <ele>1869.42</ele>
        <time>2012-05-27T10:40:31Z</time>
      </trkpt>
      <trkpt lat="45.32095" lon="5.86613">
        <ele>1862.21</ele>
        <time>2012-05-27T10:47:27Z</time>
      </trkpt>
      <trkpt lat="45.32088" lon="5.86612">
        <ele>1862.69</ele>
        <time>2012-05-27T10:47:57Z</time>
      </trkpt>
      <trkpt lat="45.32027" lon="5.86575">
        <ele>1862.69</ele>
        <time>2012-05-27T10:48:27Z</time>
      </trkpt>
      <trkpt lat="45.32004" lon="5.86558">
        <ele>1862.21</ele>
        <time>2012-05-27T10:48:56Z</time>
      </trkpt>
      <trkpt lat="45.32045" lon="5.86582">
        <ele>1860.77</ele>
        <time>2012-05-27T10:49:26Z</time>
      </trkpt>
      <trkpt lat="45.32078" lon="5.86583">
        <ele>1861.73</ele>
        <time>2012-05-27T10:49:56Z</time>
      </trkpt>
      <trkpt lat="45.32084" lon="5.866">
        <ele>1860.77</ele>
        <time>2012-05-27T10:50:26Z</time>
      </trkpt>
      <trkpt lat="45.32085" lon="5.8661">
        <ele>1860.29</ele>
        <time>2012-05-27T10:50:56Z</time>
      </trkpt>
      <trkpt lat="45.32087" lon="5.86612">
        <ele>1860.29</ele>
        <time>2012-05-27T10:51:26Z</time>
      </trkpt>
      <trkpt lat="45.32087" lon="5.86609">
        <ele>1857.89</ele>
        <time>2012-05-27T10:51:56Z</time>
      </trkpt>
      <trkpt lat="45.32086" lon="5.86605">
        <ele>1854.04</ele>
        <time>2012-05-27T10:52:26Z</time>
      </trkpt>
      <trkpt lat="45.32074" lon="5.86577">
        <ele>1846.83</ele>
        <time>2012-05-27T10:52:56Z</time>
      </trkpt>
      <trkpt lat="45.32071" lon="5.86587">
        <ele>1850.68</ele>
        <time>2012-05-27T10:53:26Z</time>
      </trkpt>
      <trkpt lat="45.32069" lon="5.8659">
        <ele>1852.6</ele>
        <time>2012-05-27T10:53:56Z</time>
      </trkpt>
      <trkpt lat="45.3207" lon="5.8659">
        <ele>1852.12</ele>
        <time>2012-05-27T10:54:26Z</time>
      </trkpt>
      <trkpt lat="45.3205" lon="5.86572">
        <ele>1855</ele>
        <time>2012-05-27T10:54:56Z</time>
      </trkpt>
      <trkpt lat="45.32033" lon="5.86557">
        <ele>1859.33</ele>
        <time>2012-05-27T10:55:26Z</time>
      </trkpt>
      <trkpt lat="45.32016" lon="5.86543">
        <ele>1863.17</ele>
        <time>2012-05-27T10:55:56Z</time>
      </trkpt>
      <trkpt lat="45.32007" lon="5.86534">
        <ele>1865.09</ele>
        <time>2012-05-27T10:56:26Z</time>
      </trkpt>
      <trkpt lat="45.31991" lon="5.8653">
        <ele>1869.9</ele>
        <time>2012-05-27T10:56:56Z</time>
      </trkpt>
      <trkpt lat="45.31981" lon="5.86531">
        <ele>1873.75</ele>
        <time>2012-05-27T10:57:26Z</time>
      </trkpt>
      <trkpt lat="45.31972" lon="5.86518">
        <ele>1876.15</ele>
        <time>2012-05-27T10:57:56Z</time>
      </trkpt>
      <trkpt lat="45.31972" lon="5.86518">
        <ele>1876.15</ele>
        <time>2012-05-27T10:58:26Z</time>
      </trkpt>
      <trkpt lat="45.31972" lon="5.86518">
        <ele>1875.67</ele>
        <time>2012-05-27T10:58:56Z</time>
      </trkpt>
      <trkpt lat="45.31969" lon="5.86503">
        <ele>1876.15</ele>
        <time>2012-05-27T10:59:26Z</time>
      </trkpt>
      <trkpt lat="45.31963" lon="5.86491">
        <ele>1874.71</ele>
        <time>2012-05-27T10:59:56Z</time>
      </trkpt>
      <trkpt lat="45.31961" lon="5.86469">
        <ele>1876.15</ele>
        <time>2012-05-27T11:00:26Z</time>
      </trkpt>
      <trkpt lat="45.31961" lon="5.86462">
        <ele>1877.59</ele>
        <time>2012-05-27T11:00:56Z</time>
      </trkpt>
      <trkpt lat="45.31957" lon="5.86448">
        <ele>1878.55</ele>
        <time>2012-05-27T11:01:26Z</time>
      </trkpt>
      <trkpt lat="45.31953" lon="5.86429">
        <ele>1878.55</ele>
        <time>2012-05-27T11:01:56Z</time>
      </trkpt>
      <trkpt lat="45.31942" lon="5.86433">
        <ele>1882.88</ele>
        <time>2012-05-27T11:02:26Z</time>
      </trkpt>
      <trkpt lat="45.31937" lon="5.86442">
        <ele>1886.72</ele>
        <time>2012-05-27T11:02:56Z</time>
      </trkpt>
      <trkpt lat="45.31926" lon="5.86439">
        <ele>1891.05</ele>
        <time>2012-05-27T11:03:26Z</time>
      </trkpt>
      <trkpt lat="45.31926" lon="5.86439">
        <ele>1891.05</ele>
        <time>2012-05-27T11:03:56Z</time>
      </trkpt>
      <trkpt lat="45.31924" lon="5.86432">
        <ele>1890.57</ele>
        <time>2012-05-27T11:04:26Z</time>
      </trkpt>
      <trkpt lat="45.31917" lon="5.86402">
        <ele>1892.01</ele>
        <time>2012-05-27T11:04:56Z</time>
      </trkpt>
      <trkpt lat="45.31911" lon="5.86372">
        <ele>1893.93</ele>
        <time>2012-05-27T11:05:26Z</time>
      </trkpt>
      <trkpt lat="45.31907" lon="5.86352">
        <ele>1892.97</ele>
        <time>2012-05-27T11:05:56Z</time>
      </trkpt>
      <trkpt lat="45.319" lon="5.86328">
        <ele>1894.42</ele>
        <time>2012-05-27T11:06:26Z</time>
      </trkpt>
      <trkpt lat="45.31893" lon="5.86318">
        <ele>1895.38</ele>
        <time>2012-05-27T11:06:56Z</time>
      </trkpt>
      <trkpt lat="45.31871" lon="5.86292">
        <ele>1895.86</ele>
        <time>2012-05-27T11:07:26Z</time>
      </trkpt>
      <trkpt lat="45.31856" lon="5.86274">
        <ele>1897.3</ele>
        <time>2012-05-27T11:07:56Z</time>
      </trkpt>
      <trkpt lat="45.31841" lon="5.86256">
        <ele>1898.74</ele>
        <time>2012-05-27T11:08:26Z</time>
      </trkpt>
      <trkpt lat="45.31831" lon="5.86248">
        <ele>1900.18</ele>
        <time>2012-05-27T11:08:56Z</time>
      </trkpt>
      <trkpt lat="45.31826" lon="5.86243">
        <ele>1901.63</ele>
        <time>2012-05-27T11:09:26Z</time>
      </trkpt>
      <trkpt lat="45.31811" lon="5.86232">
        <ele>1904.51</ele>
        <time>2012-05-27T11:09:56Z</time>
      </trkpt>
      <trkpt lat="45.31794" lon="5.86221">
        <ele>1907.87</ele>
        <time>2012-05-27T11:10:26Z</time>
      </trkpt>
      <trkpt lat="45.31774" lon="5.86205">
        <ele>1908.35</ele>
        <time>2012-05-27T11:10:56Z</time>
      </trkpt>
      <trkpt lat="45.31757" lon="5.86189">
        <ele>1904.99</ele>
        <time>2012-05-27T11:11:26Z</time>
      </trkpt>
      <trkpt lat="45.31743" lon="5.86179">
        <ele>1906.43</ele>
        <time>2012-05-27T11:11:56Z</time>
      </trkpt>
      <trkpt lat="45.31721" lon="5.86159">
        <ele>1908.83</ele>
        <time>2012-05-27T11:12:26Z</time>
      </trkpt>
      <trkpt lat="45.31717" lon="5.86156">
        <ele>1908.35</ele>
        <time>2012-05-27T11:12:56Z</time>
      </trkpt>
      <trkpt lat="45.31717" lon="5.86156">
        <ele>1910.28</ele>
        <time>2012-05-27T11:13:26Z</time>
      </trkpt>
      <trkpt lat="45.31717" lon="5.86156">
        <ele>1909.32</ele>
        <time>2012-05-27T11:13:56Z</time>
      </trkpt>
      <trkpt lat="45.31717" lon="5.86156">
        <ele>1909.32</ele>
        <time>2012-05-27T11:14:26Z</time>
      </trkpt>
      <trkpt lat="45.31717" lon="5.86157">
        <ele>1908.83</ele>
        <time>2012-05-27T11:14:56Z</time>
      </trkpt>
      <trkpt lat="45.31717" lon="5.86157">
        <ele>1908.83</ele>
        <time>2012-05-27T11:15:26Z</time>
      </trkpt>
      <trkpt lat="45.31717" lon="5.86157">
        <ele>1908.83</ele>
        <time>2012-05-27T11:15:56Z</time>
      </trkpt>
      <trkpt lat="45.31717" lon="5.86157">
        <ele>1908.83</ele>
        <time>2012-05-27T11:16:26Z</time>
      </trkpt>
      <trkpt lat="45.31717" lon="5.86157">
        <ele>1909.32</ele>
        <time>2012-05-27T11:16:56Z</time>
      </trkpt>
      <trkpt lat="45.31717" lon="5.86157">
        <ele>1908.35</ele>
        <time>2012-05-27T11:17:26Z</time>
      </trkpt>
      <trkpt lat="45.31717" lon="5.86157">
        <ele>1908.83</ele>
        <time>2012-05-27T11:17:56Z</time>
      </trkpt>
      <trkpt lat="45.31717" lon="5.86158">
        <ele>1908.83</ele>
        <time>2012-05-27T11:18:26Z</time>
      </trkpt>
      <trkpt lat="45.31717" lon="5.86158">
        <ele>1908.83</ele>
        <time>2012-05-27T11:18:56Z</time>
      </trkpt>
      <trkpt lat="45.31716" lon="5.86158">
        <ele>1908.83</ele>
        <time>2012-05-27T11:19:26Z</time>
      </trkpt>
      <trkpt lat="45.31716" lon="5.86158">
        <ele>1908.83</ele>
        <time>2012-05-27T11:19:56Z</time>
      </trkpt>
      <trkpt lat="45.31717" lon="5.86157">
        <ele>1908.35</ele>
        <time>2012-05-27T11:20:26Z</time>
      </trkpt>
      <trkpt lat="45.31717" lon="5.86158">
        <ele>1908.83</ele>
        <time>2012-05-27T11:20:56Z</time>
      </trkpt>
      <trkpt lat="45.31717" lon="5.86158">
        <ele>1909.32</ele>
        <time>2012-05-27T11:21:26Z</time>
      </trkpt>
      <trkpt lat="45.31717" lon="5.86158">
        <ele>1908.83</ele>
        <time>2012-05-27T11:21:56Z</time>
      </trkpt>
      <trkpt lat="45.31717" lon="5.86158">
        <ele>1908.83</ele>
        <time>2012-05-27T11:22:26Z</time>
      </trkpt>
      <trkpt lat="45.31716" lon="5.86158">
        <ele>1908.35</ele>
        <time>2012-05-27T11:22:56Z</time>
      </trkpt>
      <trkpt lat="45.31716" lon="5.86158">
        <ele>1908.83</ele>
        <time>2012-05-27T11:23:26Z</time>
      </trkpt>
      <trkpt lat="45.31716" lon="5.86158">
        <ele>1908.35</ele>
        <time>2012-05-27T11:23:56Z</time>
      </trkpt>
      <trkpt lat="45.31716" lon="5.86157">
        <ele>1908.83</ele>
        <time>2012-05-27T11:24:26Z</time>
      </trkpt>
      <trkpt lat="45.31717" lon="5.86157">
        <ele>1908.83</ele>
        <time>2012-05-27T11:24:56Z</time>
      </trkpt>
      <trkpt lat="45.31717" lon="5.86157">
        <ele>1908.83</ele>
        <time>2012-05-27T11:25:26Z</time>
      </trkpt>
      <trkpt lat="45.31717" lon="5.86157">
        <ele>1908.35</ele>
        <time>2012-05-27T11:25:56Z</time>
      </trkpt>
      <trkpt lat="45.31717" lon="5.86157">
        <ele>1908.83</ele>
        <time>2012-05-27T11:26:26Z</time>
      </trkpt>
      <trkpt lat="45.31716" lon="5.86157">
        <ele>1908.83</ele>
        <time>2012-05-27T11:26:56Z</time>
      </trkpt>
      <trkpt lat="45.31717" lon="5.86157">
        <ele>1908.83</ele>
        <time>2012-05-27T11:27:26Z</time>
      </trkpt>
      <trkpt lat="45.31717" lon="5.86157">
        <ele>1908.83</ele>
        <time>2012-05-27T11:27:56Z</time>
      </trkpt>
      <trkpt lat="45.31717" lon="5.86157">
        <ele>1908.35</ele>
        <time>2012-05-27T11:28:26Z</time>
      </trkpt>
      <trkpt lat="45.31717" lon="5.86158">
        <ele>1908.83</ele>
        <time>2012-05-27T11:28:56Z</time>
      </trkpt>
      <trkpt lat="45.31717" lon="5.86157">
        <ele>1908.35</ele>
        <time>2012-05-27T11:29:26Z</time>
      </trkpt>
      <trkpt lat="45.31717" lon="5.86157">
        <ele>1909.32</ele>
        <time>2012-05-27T11:29:56Z</time>
      </trkpt>
      <trkpt lat="45.31717" lon="5.86157">
        <ele>1908.35</ele>
        <time>2012-05-27T11:30:26Z</time>
      </trkpt>
      <trkpt lat="45.31717" lon="5.86157">
        <ele>1908.83</ele>
        <time>2012-05-27T11:30:56Z</time>
      </trkpt>
      <trkpt lat="45.31717" lon="5.86157">
        <ele>1908.83</ele>
        <time>2012-05-27T11:31:26Z</time>
      </trkpt>
      <trkpt lat="45.31717" lon="5.86157">
        <ele>1908.83</ele>
        <time>2012-05-27T11:31:56Z</time>
      </trkpt>
      <trkpt lat="45.31716" lon="5.86158">
        <ele>1908.83</ele>
        <time>2012-05-27T11:32:26Z</time>
      </trkpt>
      <trkpt lat="45.31716" lon="5.86158">
        <ele>1908.83</ele>
        <time>2012-05-27T11:32:56Z</time>
      </trkpt>
      <trkpt lat="45.31716" lon="5.86158">
        <ele>1909.32</ele>
        <time>2012-05-27T11:33:26Z</time>
      </trkpt>
      <trkpt lat="45.31716" lon="5.86158">
        <ele>1909.32</ele>
        <time>2012-05-27T11:33:56Z</time>
      </trkpt>
      <trkpt lat="45.31716" lon="5.86157">
        <ele>1909.32</ele>
        <time>2012-05-27T11:34:26Z</time>
      </trkpt>
      <trkpt lat="45.31716" lon="5.86157">
        <ele>1908.83</ele>
        <time>2012-05-27T11:34:56Z</time>
      </trkpt>
      <trkpt lat="45.31716" lon="5.86157">
        <ele>1908.83</ele>
        <time>2012-05-27T11:35:26Z</time>
      </trkpt>
      <trkpt lat="45.31716" lon="5.86157">
        <ele>1908.83</ele>
        <time>2012-05-27T11:35:56Z</time>
      </trkpt>
      <trkpt lat="45.31715" lon="5.86157">
        <ele>1908.83</ele>
        <time>2012-05-27T11:36:26Z</time>
      </trkpt>
      <trkpt lat="45.31715" lon="5.86156">
        <ele>1908.83</ele>
        <time>2012-05-27T11:36:56Z</time>
      </trkpt>
      <trkpt lat="45.31716" lon="5.86155">
        <ele>1908.35</ele>
        <time>2012-05-27T11:37:26Z</time>
      </trkpt>
      <trkpt lat="45.31716" lon="5.86155">
        <ele>1909.32</ele>
        <time>2012-05-27T11:37:56Z</time>
      </trkpt>
      <trkpt lat="45.31716" lon="5.86156">
        <ele>1909.32</ele>
        <time>2012-05-27T11:38:26Z</time>
      </trkpt>
      <trkpt lat="45.31716" lon="5.86156">
        <ele>1908.83</ele>
        <time>2012-05-27T11:38:56Z</time>
      </trkpt>
      <trkpt lat="45.31717" lon="5.86156">
        <ele>1909.32</ele>
        <time>2012-05-27T11:39:26Z</time>
      </trkpt>
      <trkpt lat="45.31717" lon="5.86157">
        <ele>1908.83</ele>
        <time>2012-05-27T11:39:56Z</time>
      </trkpt>
      <trkpt lat="45.31716" lon="5.86157">
        <ele>1909.32</ele>
        <time>2012-05-27T11:40:26Z</time>
      </trkpt>
      <trkpt lat="45.31716" lon="5.86157">
        <ele>1909.8</ele>
        <time>2012-05-27T11:40:56Z</time>
      </trkpt>
      <trkpt lat="45.31716" lon="5.86157">
        <ele>1910.28</ele>
        <time>2012-05-27T11:41:26Z</time>
      </trkpt>
      <trkpt lat="45.31716" lon="5.86157">
        <ele>1910.28</ele>
        <time>2012-05-27T11:41:56Z</time>
      </trkpt>
      <trkpt lat="45.31717" lon="5.86158">
        <ele>1910.28</ele>
        <time>2012-05-27T11:42:26Z</time>
      </trkpt>
      <trkpt lat="45.31717" lon="5.86158">
        <ele>1909.32</ele>
        <time>2012-05-27T11:42:56Z</time>
      </trkpt>
      <trkpt lat="45.31717" lon="5.86158">
        <ele>1909.32</ele>
        <time>2012-05-27T11:43:26Z</time>
      </trkpt>
      <trkpt lat="45.31717" lon="5.86158">
        <ele>1909.8</ele>
        <time>2012-05-27T11:43:56Z</time>
      </trkpt>
      <trkpt lat="45.31717" lon="5.86158">
        <ele>1909.32</ele>
        <time>2012-05-27T11:44:26Z</time>
      </trkpt>
      <trkpt lat="45.31717" lon="5.86158">
        <ele>1910.28</ele>
        <time>2012-05-27T11:44:56Z</time>
      </trkpt>
      <trkpt lat="45.31716" lon="5.86158">
        <ele>1909.8</ele>
        <time>2012-05-27T11:45:26Z</time>
      </trkpt>
      <trkpt lat="45.31716" lon="5.86158">
        <ele>1910.28</ele>
        <time>2012-05-27T11:45:56Z</time>
      </trkpt>
      <trkpt lat="45.31716" lon="5.86158">
        <ele>1909.8</ele>
        <time>2012-05-27T11:46:26Z</time>
      </trkpt>
      <trkpt lat="45.31716" lon="5.86158">
        <ele>1909.8</ele>
        <time>2012-05-27T11:46:56Z</time>
      </trkpt>
      <trkpt lat="45.31716" lon="5.86158">
        <ele>1910.28</ele>
        <time>2012-05-27T11:47:26Z</time>
      </trkpt>
      <trkpt lat="45.31716" lon="5.86158">
        <ele>1910.28</ele>
        <time>2012-05-27T11:47:56Z</time>
      </trkpt>
      <trkpt lat="45.31716" lon="5.86158">
        <ele>1910.28</ele>
        <time>2012-05-27T11:48:26Z</time>
      </trkpt>
      <trkpt lat="45.31716" lon="5.86158">
        <ele>1910.28</ele>
        <time>2012-05-27T11:48:56Z</time>
      </trkpt>
      <trkpt lat="45.31716" lon="5.86157">
        <ele>1910.76</ele>
        <time>2012-05-27T11:49:26Z</time>
      </trkpt>
      <trkpt lat="45.31716" lon="5.86157">
        <ele>1910.76</ele>
        <time>2012-05-27T11:49:56Z</time>
      </trkpt>
      <trkpt lat="45.31716" lon="5.86157">
        <ele>1910.76</ele>
        <time>2012-05-27T11:50:26Z</time>
      </trkpt>
      <trkpt lat="45.31716" lon="5.86157">
        <ele>1910.76</ele>
        <time>2012-05-27T11:50:56Z</time>
      </trkpt>
      <trkpt lat="45.31716" lon="5.86157">
        <ele>1910.76</ele>
        <time>2012-05-27T11:51:26Z</time>
      </trkpt>
      <trkpt lat="45.31716" lon="5.86157">
        <ele>1911.24</ele>
        <time>2012-05-27T11:51:56Z</time>
      </trkpt>
      <trkpt lat="45.31716" lon="5.86157">
        <ele>1911.24</ele>
        <time>2012-05-27T11:52:26Z</time>
      </trkpt>
      <trkpt lat="45.31716" lon="5.86157">
        <ele>1911.24</ele>
        <time>2012-05-27T11:52:56Z</time>
      </trkpt>
      <trkpt lat="45.31716" lon="5.86157">
        <ele>1911.24</ele>
        <time>2012-05-27T11:53:26Z</time>
      </trkpt>
      <trkpt lat="45.31716" lon="5.86157">
        <ele>1911.24</ele>
        <time>2012-05-27T11:53:56Z</time>
      </trkpt>
      <trkpt lat="45.31716" lon="5.86156">
        <ele>1910.76</ele>
        <time>2012-05-27T11:54:26Z</time>
      </trkpt>
      <trkpt lat="45.31716" lon="5.86156">
        <ele>1911.24</ele>
        <time>2012-05-27T11:54:56Z</time>
      </trkpt>
      <trkpt lat="45.31716" lon="5.86156">
        <ele>1911.24</ele>
        <time>2012-05-27T11:55:26Z</time>
      </trkpt>
      <trkpt lat="45.31716" lon="5.86156">
        <ele>1910.76</ele>
        <time>2012-05-27T11:55:56Z</time>
      </trkpt>
      <trkpt lat="45.31716" lon="5.86156">
        <ele>1910.76</ele>
        <time>2012-05-27T11:56:26Z</time>
      </trkpt>
      <trkpt lat="45.31716" lon="5.86156">
        <ele>1911.24</ele>
        <time>2012-05-27T11:56:56Z</time>
      </trkpt>
      <trkpt lat="45.31716" lon="5.86156">
        <ele>1911.72</ele>
        <time>2012-05-27T11:57:26Z</time>
      </trkpt>
      <trkpt lat="45.31716" lon="5.86156">
        <ele>1911.72</ele>
        <time>2012-05-27T11:57:56Z</time>
      </trkpt>
      <trkpt lat="45.31716" lon="5.86156">
        <ele>1911.24</ele>
        <time>2012-05-27T11:58:26Z</time>
      </trkpt>
      <trkpt lat="45.31716" lon="5.86156">
        <ele>1911.72</ele>
        <time>2012-05-27T11:58:56Z</time>
      </trkpt>
      <trkpt lat="45.31716" lon="5.86156">
        <ele>1911.72</ele>
        <time>2012-05-27T11:59:26Z</time>
      </trkpt>
      <trkpt lat="45.31716" lon="5.86156">
        <ele>1911.24</ele>
        <time>2012-05-27T11:59:56Z</time>
      </trkpt>
      <trkpt lat="45.31716" lon="5.86157">
        <ele>1911.72</ele>
        <time>2012-05-27T12:00:26Z</time>
      </trkpt>
      <trkpt lat="45.31716" lon="5.86156">
        <ele>1910.76</ele>
        <time>2012-05-27T12:00:56Z</time>
      </trkpt>
      <trkpt lat="45.31707" lon="5.8615">
        <ele>1913.64</ele>
        <time>2012-05-27T12:01:26Z</time>
      </trkpt>
      <trkpt lat="45.31689" lon="5.86146">
        <ele>1917.01</ele>
        <time>2012-05-27T12:01:56Z</time>
      </trkpt>
      <trkpt lat="45.31669" lon="5.86136">
        <ele>1920.85</ele>
        <time>2012-05-27T12:02:26Z</time>
      </trkpt>
      <trkpt lat="45.31646" lon="5.86121">
        <ele>1922.29</ele>
        <time>2012-05-27T12:02:56Z</time>
      </trkpt>
      <trkpt lat="45.31623" lon="5.86105">
        <ele>1923.25</ele>
        <time>2012-05-27T12:03:26Z</time>
      </trkpt>
      <trkpt lat="45.31598" lon="5.86084">
        <ele>1922.77</ele>
        <time>2012-05-27T12:03:56Z</time>
      </trkpt>
      <trkpt lat="45.31576" lon="5.86073">
        <ele>1925.18</ele>
        <time>2012-05-27T12:04:26Z</time>
      </trkpt>
      <trkpt lat="45.31553" lon="5.86059">
        <ele>1926.14</ele>
        <time>2012-05-27T12:04:56Z</time>
      </trkpt>
      <trkpt lat="45.31529" lon="5.86046">
        <ele>1928.54</ele>
        <time>2012-05-27T12:05:26Z</time>
      </trkpt>
      <trkpt lat="45.31504" lon="5.86039">
        <ele>1931.91</ele>
        <time>2012-05-27T12:05:56Z</time>
      </trkpt>
      <trkpt lat="45.31493" lon="5.86033">
        <ele>1931.91</ele>
        <time>2012-05-27T12:06:26Z</time>
      </trkpt>
      <trkpt lat="45.31475" lon="5.86024">
        <ele>1932.39</ele>
        <time>2012-05-27T12:06:56Z</time>
      </trkpt>
      <trkpt lat="45.31449" lon="5.86015">
        <ele>1935.75</ele>
        <time>2012-05-27T12:07:26Z</time>
      </trkpt>
      <trkpt lat="45.31427" lon="5.86001">
        <ele>1939.6</ele>
        <time>2012-05-27T12:07:56Z</time>
      </trkpt>
      <trkpt lat="45.31427" lon="5.86003">
        <ele>1940.08</ele>
        <time>2012-05-27T12:08:26Z</time>
      </trkpt>
      <trkpt lat="45.31422" lon="5.85971">
        <ele>1935.27</ele>
        <time>2012-05-27T12:08:56Z</time>
      </trkpt>
      <trkpt lat="45.31417" lon="5.85932">
        <ele>1928.54</ele>
        <time>2012-05-27T12:09:26Z</time>
      </trkpt>
      <trkpt lat="45.3142" lon="5.85899">
        <ele>1921.33</ele>
        <time>2012-05-27T12:09:56Z</time>
      </trkpt>
      <trkpt lat="45.31428" lon="5.85857">
        <ele>1912.2</ele>
        <time>2012-05-27T12:10:26Z</time>
      </trkpt>
      <trkpt lat="45.31433" lon="5.85824">
        <ele>1906.91</ele>
        <time>2012-05-27T12:10:56Z</time>
      </trkpt>
      <trkpt lat="45.31441" lon="5.85795">
        <ele>1902.11</ele>
        <time>2012-05-27T12:11:26Z</time>
      </trkpt>
      <trkpt lat="45.31454" lon="5.85775">
        <ele>1894.9</ele>
        <time>2012-05-27T12:11:56Z</time>
      </trkpt>
      <trkpt lat="45.31474" lon="5.85751">
        <ele>1887.69</ele>
        <time>2012-05-27T12:12:26Z</time>
      </trkpt>
      <trkpt lat="45.31495" lon="5.85742">
        <ele>1881.44</ele>
        <time>2012-05-27T12:12:56Z</time>
      </trkpt>
      <trkpt lat="45.31511" lon="5.85729">
        <ele>1875.19</ele>
        <time>2012-05-27T12:13:26Z</time>
      </trkpt>
      <trkpt lat="45.31522" lon="5.85701">
        <ele>1873.27</ele>
        <time>2012-05-27T12:13:56Z</time>
      </trkpt>
      <trkpt lat="45.31523" lon="5.85672">
        <ele>1873.27</ele>
        <time>2012-05-27T12:14:26Z</time>
      </trkpt>
      <trkpt lat="45.31521" lon="5.85642">
        <ele>1871.82</ele>
        <time>2012-05-27T12:14:56Z</time>
      </trkpt>
      <trkpt lat="45.31529" lon="5.85584">
        <ele>1859.81</ele>
        <time>2012-05-27T12:18:41Z</time>
      </trkpt>
      <trkpt lat="45.31532" lon="5.85567">
        <ele>1867.98</ele>
        <time>2012-05-27T12:19:11Z</time>
      </trkpt>
      <trkpt lat="45.31529" lon="5.85571">
        <ele>1869.42</ele>
        <time>2012-05-27T12:19:41Z</time>
      </trkpt>
      <trkpt lat="45.31528" lon="5.85566">
        <ele>1868.94</ele>
        <time>2012-05-27T12:20:11Z</time>
      </trkpt>
      <trkpt lat="45.31528" lon="5.85567">
        <ele>1867.98</ele>
        <time>2012-05-27T12:20:41Z</time>
      </trkpt>
      <trkpt lat="45.31528" lon="5.85566">
        <ele>1868.46</ele>
        <time>2012-05-27T12:21:11Z</time>
      </trkpt>
      <trkpt lat="45.31528" lon="5.85566">
        <ele>1868.94</ele>
        <time>2012-05-27T12:21:41Z</time>
      </trkpt>
      <trkpt lat="45.31528" lon="5.85566">
        <ele>1868.46</ele>
        <time>2012-05-27T12:22:11Z</time>
      </trkpt>
      <trkpt lat="45.31528" lon="5.85565">
        <ele>1868.46</ele>
        <time>2012-05-27T12:22:41Z</time>
      </trkpt>
      <trkpt lat="45.31528" lon="5.85565">
        <ele>1868.94</ele>
        <time>2012-05-27T12:23:11Z</time>
      </trkpt>
      <trkpt lat="45.31528" lon="5.85565">
        <ele>1868.94</ele>
        <time>2012-05-27T12:23:41Z</time>
      </trkpt>
      <trkpt lat="45.31528" lon="5.85565">
        <ele>1868.94</ele>
        <time>2012-05-27T12:24:11Z</time>
      </trkpt>
      <trkpt lat="45.31528" lon="5.85565">
        <ele>1868.94</ele>
        <time>2012-05-27T12:24:41Z</time>
      </trkpt>
      <trkpt lat="45.31528" lon="5.85565">
        <ele>1868.46</ele>
        <time>2012-05-27T12:25:11Z</time>
      </trkpt>
      <trkpt lat="45.31528" lon="5.85563">
        <ele>1869.42</ele>
        <time>2012-05-27T12:25:41Z</time>
      </trkpt>
      <trkpt lat="45.31543" lon="5.85539">
        <ele>1862.21</ele>
        <time>2012-05-27T12:26:11Z</time>
      </trkpt>
      <trkpt lat="45.31575" lon="5.85538">
        <ele>1854.52</ele>
        <time>2012-05-27T12:26:41Z</time>
      </trkpt>
      <trkpt lat="45.31597" lon="5.85543">
        <ele>1850.19</ele>
        <time>2012-05-27T12:27:11Z</time>
      </trkpt>
      <trkpt lat="45.31629" lon="5.85552">
        <ele>1842.5</ele>
        <time>2012-05-27T12:27:41Z</time>
      </trkpt>
      <trkpt lat="45.3166" lon="5.8555">
        <ele>1833.85</ele>
        <time>2012-05-27T12:28:11Z</time>
      </trkpt>
      <trkpt lat="45.31689" lon="5.85553">
        <ele>1826.64</ele>
        <time>2012-05-27T12:28:41Z</time>
      </trkpt>
      <trkpt lat="45.31714" lon="5.85549">
        <ele>1822.32</ele>
        <time>2012-05-27T12:29:11Z</time>
      </trkpt>
      <trkpt lat="45.31735" lon="5.85545">
        <ele>1819.43</ele>
        <time>2012-05-27T12:29:41Z</time>
      </trkpt>
      <trkpt lat="45.31769" lon="5.8552">
        <ele>1812.22</ele>
        <time>2012-05-27T12:30:11Z</time>
      </trkpt>
      <trkpt lat="45.31784" lon="5.85504">
        <ele>1809.34</ele>
        <time>2012-05-27T12:30:41Z</time>
      </trkpt>
      <trkpt lat="45.31783" lon="5.85505">
        <ele>1808.38</ele>
        <time>2012-05-27T12:31:11Z</time>
      </trkpt>
      <trkpt lat="45.31782" lon="5.85505">
        <ele>1808.38</ele>
        <time>2012-05-27T12:31:41Z</time>
      </trkpt>
      <trkpt lat="45.31782" lon="5.85505">
        <ele>1808.38</ele>
        <time>2012-05-27T12:32:11Z</time>
      </trkpt>
      <trkpt lat="45.31783" lon="5.85504">
        <ele>1807.9</ele>
        <time>2012-05-27T12:32:41Z</time>
      </trkpt>
      <trkpt lat="45.31784" lon="5.85504">
        <ele>1808.86</ele>
        <time>2012-05-27T12:33:11Z</time>
      </trkpt>
      <trkpt lat="45.31798" lon="5.85512">
        <ele>1805.97</ele>
        <time>2012-05-27T12:33:41Z</time>
      </trkpt>
      <trkpt lat="45.31831" lon="5.85506">
        <ele>1799.73</ele>
        <time>2012-05-27T12:34:11Z</time>
      </trkpt>
      <trkpt lat="45.31856" lon="5.85501">
        <ele>1795.4</ele>
        <time>2012-05-27T12:34:41Z</time>
      </trkpt>
      <trkpt lat="45.31853" lon="5.85479">
        <ele>1793</ele>
        <time>2012-05-27T12:35:11Z</time>
      </trkpt>
      <trkpt lat="45.31882" lon="5.85464">
        <ele>1788.67</ele>
        <time>2012-05-27T12:35:41Z</time>
      </trkpt>
      <trkpt lat="45.31895" lon="5.85466">
        <ele>1786.27</ele>
        <time>2012-05-27T12:36:11Z</time>
      </trkpt>
      <trkpt lat="45.31897" lon="5.85468">
        <ele>1786.27</ele>
        <time>2012-05-27T12:36:41Z</time>
      </trkpt>
      <trkpt lat="45.31895" lon="5.85435">
        <ele>1783.38</ele>
        <time>2012-05-27T12:37:11Z</time>
      </trkpt>
      <trkpt lat="45.31914" lon="5.85406">
        <ele>1780.98</ele>
        <time>2012-05-27T12:37:41Z</time>
      </trkpt>
      <trkpt lat="45.31919" lon="5.85365">
        <ele>1777.13</ele>
        <time>2012-05-27T12:38:11Z</time>
      </trkpt>
      <trkpt lat="45.31911" lon="5.8533">
        <ele>1769.92</ele>
        <time>2012-05-27T12:38:41Z</time>
      </trkpt>
      <trkpt lat="45.31911" lon="5.85328">
        <ele>1766.08</ele>
        <time>2012-05-27T12:39:11Z</time>
      </trkpt>
      <trkpt lat="45.3191" lon="5.85319">
        <ele>1761.75</ele>
        <time>2012-05-27T12:39:41Z</time>
      </trkpt>
      <trkpt lat="45.3191" lon="5.8531">
        <ele>1756.95</ele>
        <time>2012-05-27T12:40:11Z</time>
      </trkpt>
      <trkpt lat="45.31885" lon="5.85285">
        <ele>1751.18</ele>
        <time>2012-05-27T12:40:41Z</time>
      </trkpt>
      <trkpt lat="45.31874" lon="5.85263">
        <ele>1747.81</ele>
        <time>2012-05-27T12:41:11Z</time>
      </trkpt>
      <trkpt lat="45.31863" lon="5.85249">
        <ele>1746.37</ele>
        <time>2012-05-27T12:41:41Z</time>
      </trkpt>
      <trkpt lat="45.3186" lon="5.85239">
        <ele>1743.97</ele>
        <time>2012-05-27T12:42:11Z</time>
      </trkpt>
      <trkpt lat="45.3186" lon="5.85234">
        <ele>1740.6</ele>
        <time>2012-05-27T12:42:41Z</time>
      </trkpt>
      <trkpt lat="45.31872" lon="5.8525">
        <ele>1736.28</ele>
        <time>2012-05-27T12:43:11Z</time>
      </trkpt>
      <trkpt lat="45.31874" lon="5.85255">
        <ele>1734.84</ele>
        <time>2012-05-27T12:43:41Z</time>
      </trkpt>
      <trkpt lat="45.31876" lon="5.85257">
        <ele>1733.88</ele>
        <time>2012-05-27T12:44:11Z</time>
      </trkpt>
      <trkpt lat="45.31876" lon="5.85257">
        <ele>1733.88</ele>
        <time>2012-05-27T12:44:41Z</time>
      </trkpt>
      <trkpt lat="45.3188" lon="5.85259">
        <ele>1732.43</ele>
        <time>2012-05-27T12:45:11Z</time>
      </trkpt>
      <trkpt lat="45.31886" lon="5.85246">
        <ele>1728.11</ele>
        <time>2012-05-27T12:45:41Z</time>
      </trkpt>
      <trkpt lat="45.31871" lon="5.85216">
        <ele>1726.18</ele>
        <time>2012-05-27T12:46:11Z</time>
      </trkpt>
      <trkpt lat="45.31866" lon="5.8521">
        <ele>1725.22</ele>
        <time>2012-05-27T12:46:41Z</time>
      </trkpt>
      <trkpt lat="45.31862" lon="5.85209">
        <ele>1719.94</ele>
        <time>2012-05-27T12:47:11Z</time>
      </trkpt>
      <trkpt lat="45.3186" lon="5.85208">
        <ele>1718.49</ele>
        <time>2012-05-27T12:47:41Z</time>
      </trkpt>
      <trkpt lat="45.3185" lon="5.85192">
        <ele>1716.57</ele>
        <time>2012-05-27T12:48:11Z</time>
      </trkpt>
      <trkpt lat="45.31844" lon="5.85187">
        <ele>1716.09</ele>
        <time>2012-05-27T12:48:41Z</time>
      </trkpt>
      <trkpt lat="45.31842" lon="5.85186">
        <ele>1713.69</ele>
        <time>2012-05-27T12:49:11Z</time>
      </trkpt>
      <trkpt lat="45.3184" lon="5.85184">
        <ele>1712.25</ele>
        <time>2012-05-27T12:49:41Z</time>
      </trkpt>
      <trkpt lat="45.31838" lon="5.85188">
        <ele>1709.36</ele>
        <time>2012-05-27T12:50:11Z</time>
      </trkpt>
      <trkpt lat="45.31831" lon="5.85186">
        <ele>1707.44</ele>
        <time>2012-05-27T12:50:41Z</time>
      </trkpt>
      <trkpt lat="45.31817" lon="5.85169">
        <ele>1703.59</ele>
        <time>2012-05-27T12:51:11Z</time>
      </trkpt>
      <trkpt lat="45.31799" lon="5.85162">
        <ele>1698.31</ele>
        <time>2012-05-27T12:51:41Z</time>
      </trkpt>
      <trkpt lat="45.318" lon="5.85163">
        <ele>1697.34</ele>
        <time>2012-05-27T12:52:11Z</time>
      </trkpt>
      <trkpt lat="45.318" lon="5.85163">
        <ele>1697.83</ele>
        <time>2012-05-27T12:52:41Z</time>
      </trkpt>
      <trkpt lat="45.318" lon="5.85163">
        <ele>1698.31</ele>
        <time>2012-05-27T12:53:11Z</time>
      </trkpt>
      <trkpt lat="45.318" lon="5.85162">
        <ele>1698.31</ele>
        <time>2012-05-27T12:53:41Z</time>
      </trkpt>
      <trkpt lat="45.31801" lon="5.85164">
        <ele>1698.79</ele>
        <time>2012-05-27T12:54:11Z</time>
      </trkpt>
      <trkpt lat="45.31788" lon="5.85169">
        <ele>1696.86</ele>
        <time>2012-05-27T12:54:41Z</time>
      </trkpt>
      <trkpt lat="45.31784" lon="5.85165">
        <ele>1694.46</ele>
        <time>2012-05-27T12:55:11Z</time>
      </trkpt>
      <trkpt lat="45.3178" lon="5.85161">
        <ele>1691.58</ele>
        <time>2012-05-27T12:55:41Z</time>
      </trkpt>
      <trkpt lat="45.31779" lon="5.85159">
        <ele>1687.73</ele>
        <time>2012-05-27T12:56:11Z</time>
      </trkpt>
      <trkpt lat="45.31768" lon="5.85145">
        <ele>1682.44</ele>
        <time>2012-05-27T12:56:41Z</time>
      </trkpt>
      <trkpt lat="45.31745" lon="5.85148">
        <ele>1688.69</ele>
        <time>2012-05-27T12:57:11Z</time>
      </trkpt>
      <trkpt lat="45.31725" lon="5.85143">
        <ele>1693.98</ele>
        <time>2012-05-27T12:57:41Z</time>
      </trkpt>
      <trkpt lat="45.31724" lon="5.85141">
        <ele>1694.46</ele>
        <time>2012-05-27T12:58:11Z</time>
      </trkpt>
      <trkpt lat="45.31716" lon="5.85136">
        <ele>1696.38</ele>
        <time>2012-05-27T12:58:41Z</time>
      </trkpt>
      <trkpt lat="45.31693" lon="5.85131">
        <ele>1700.71</ele>
        <time>2012-05-27T12:59:11Z</time>
      </trkpt>
      <trkpt lat="45.31674" lon="5.85115">
        <ele>1706.96</ele>
        <time>2012-05-27T12:59:41Z</time>
      </trkpt>
      <trkpt lat="45.31654" lon="5.85109">
        <ele>1712.73</ele>
        <time>2012-05-27T13:00:11Z</time>
      </trkpt>
      <trkpt lat="45.31646" lon="5.85103">
        <ele>1718.97</ele>
        <time>2012-05-27T13:00:41Z</time>
      </trkpt>
      <trkpt lat="45.31638" lon="5.85115">
        <ele>1723.78</ele>
        <time>2012-05-27T13:01:11Z</time>
      </trkpt>
      <trkpt lat="45.31628" lon="5.8509">
        <ele>1728.59</ele>
        <time>2012-05-27T13:01:41Z</time>
      </trkpt>
      <trkpt lat="45.31608" lon="5.85085">
        <ele>1727.63</ele>
        <time>2012-05-27T13:02:11Z</time>
      </trkpt>
      <trkpt lat="45.31598" lon="5.85064">
        <ele>1724.26</ele>
        <time>2012-05-27T13:02:41Z</time>
      </trkpt>
      <trkpt lat="45.31583" lon="5.8505">
        <ele>1722.82</ele>
        <time>2012-05-27T13:03:11Z</time>
      </trkpt>
      <trkpt lat="45.31559" lon="5.85018">
        <ele>1721.38</ele>
        <time>2012-05-27T13:03:41Z</time>
      </trkpt>
      <trkpt lat="45.31535" lon="5.84994">
        <ele>1715.13</ele>
        <time>2012-05-27T13:04:11Z</time>
      </trkpt>
      <trkpt lat="45.31502" lon="5.84989">
        <ele>1711.28</ele>
        <time>2012-05-27T13:04:41Z</time>
      </trkpt>
      <trkpt lat="45.31475" lon="5.84959">
        <ele>1709.36</ele>
        <time>2012-05-27T13:05:11Z</time>
      </trkpt>
      <trkpt lat="45.31449" lon="5.84932">
        <ele>1704.55</ele>
        <time>2012-05-27T13:05:41Z</time>
      </trkpt>
      <trkpt lat="45.31433" lon="5.84907">
        <ele>1704.07</ele>
        <time>2012-05-27T13:06:11Z</time>
      </trkpt>
      <trkpt lat="45.31405" lon="5.84884">
        <ele>1701.67</ele>
        <time>2012-05-27T13:06:41Z</time>
      </trkpt>
      <trkpt lat="45.31379" lon="5.84861">
        <ele>1698.79</ele>
        <time>2012-05-27T13:07:11Z</time>
      </trkpt>
      <trkpt lat="45.31358" lon="5.84835">
        <ele>1693.5</ele>
        <time>2012-05-27T13:07:41Z</time>
      </trkpt>
      <trkpt lat="45.31338" lon="5.84813">
        <ele>1695.42</ele>
        <time>2012-05-27T13:08:11Z</time>
      </trkpt>
      <trkpt lat="45.3132" lon="5.84778">
        <ele>1691.58</ele>
        <time>2012-05-27T13:08:41Z</time>
      </trkpt>
      <trkpt lat="45.31299" lon="5.84748">
        <ele>1688.21</ele>
        <time>2012-05-27T13:09:11Z</time>
      </trkpt>
      <trkpt lat="45.31278" lon="5.84715">
        <ele>1684.37</ele>
        <time>2012-05-27T13:09:41Z</time>
      </trkpt>
      <trkpt lat="45.31259" lon="5.847">
        <ele>1682.44</ele>
        <time>2012-05-27T13:10:11Z</time>
      </trkpt>
      <trkpt lat="45.31259" lon="5.847">
        <ele>1681.96</ele>
        <time>2012-05-27T13:10:41Z</time>
      </trkpt>
      <trkpt lat="45.31259" lon="5.847">
        <ele>1682.93</ele>
        <time>2012-05-27T13:11:11Z</time>
      </trkpt>
      <trkpt lat="45.31259" lon="5.84702">
        <ele>1682.93</ele>
        <time>2012-05-27T13:11:41Z</time>
      </trkpt>
      <trkpt lat="45.31259" lon="5.84702">
        <ele>1682.93</ele>
        <time>2012-05-27T13:12:11Z</time>
      </trkpt>
      <trkpt lat="45.31259" lon="5.84702">
        <ele>1682.44</ele>
        <time>2012-05-27T13:12:41Z</time>
      </trkpt>
      <trkpt lat="45.3126" lon="5.84704">
        <ele>1681.96</ele>
        <time>2012-05-27T13:13:11Z</time>
      </trkpt>
      <trkpt lat="45.3126" lon="5.84704">
        <ele>1681.96</ele>
        <time>2012-05-27T13:13:41Z</time>
      </trkpt>
      <trkpt lat="45.31259" lon="5.84702">
        <ele>1681.96</ele>
        <time>2012-05-27T13:14:11Z</time>
      </trkpt>
      <trkpt lat="45.31259" lon="5.84702">
        <ele>1681</ele>
        <time>2012-05-27T13:14:41Z</time>
      </trkpt>
      <trkpt lat="45.31255" lon="5.84701">
        <ele>1681</ele>
        <time>2012-05-27T13:15:11Z</time>
      </trkpt>
      <trkpt lat="45.31255" lon="5.84701">
        <ele>1680.52</ele>
        <time>2012-05-27T13:15:41Z</time>
      </trkpt>
      <trkpt lat="45.31257" lon="5.847">
        <ele>1681.48</ele>
        <time>2012-05-27T13:16:11Z</time>
      </trkpt>
      <trkpt lat="45.31258" lon="5.847">
        <ele>1680.04</ele>
        <time>2012-05-27T13:16:41Z</time>
      </trkpt>
      <trkpt lat="45.31257" lon="5.84699">
        <ele>1680.04</ele>
        <time>2012-05-27T13:17:11Z</time>
      </trkpt>
      <trkpt lat="45.31257" lon="5.84699">
        <ele>1679.56</ele>
        <time>2012-05-27T13:17:41Z</time>
      </trkpt>
      <trkpt lat="45.31257" lon="5.84699">
        <ele>1680.52</ele>
        <time>2012-05-27T13:18:11Z</time>
      </trkpt>
      <trkpt lat="45.31257" lon="5.84699">
        <ele>1679.08</ele>
        <time>2012-05-27T13:18:41Z</time>
      </trkpt>
      <trkpt lat="45.31257" lon="5.847">
        <ele>1680.04</ele>
        <time>2012-05-27T13:19:11Z</time>
      </trkpt>
      <trkpt lat="45.31257" lon="5.84694">
        <ele>1677.64</ele>
        <time>2012-05-27T13:19:41Z</time>
      </trkpt>
      <trkpt lat="45.31257" lon="5.84698">
        <ele>1679.56</ele>
        <time>2012-05-27T13:20:11Z</time>
      </trkpt>
      <trkpt lat="45.3124" lon="5.84681">
        <ele>1678.12</ele>
        <time>2012-05-27T13:20:41Z</time>
      </trkpt>
      <trkpt lat="45.31217" lon="5.84676">
        <ele>1673.79</ele>
        <time>2012-05-27T13:21:11Z</time>
      </trkpt>
      <trkpt lat="45.31187" lon="5.84664">
        <ele>1665.14</ele>
        <time>2012-05-27T13:21:41Z</time>
      </trkpt>
      <trkpt lat="45.31154" lon="5.84643">
        <ele>1661.78</ele>
        <time>2012-05-27T13:22:11Z</time>
      </trkpt>
      <trkpt lat="45.31125" lon="5.84612">
        <ele>1658.89</ele>
        <time>2012-05-27T13:22:41Z</time>
      </trkpt>
      <trkpt lat="45.31092" lon="5.84593">
        <ele>1653.6</ele>
        <time>2012-05-27T13:23:11Z</time>
      </trkpt>
      <trkpt lat="45.31055" lon="5.8457">
        <ele>1643.03</ele>
        <time>2012-05-27T13:23:41Z</time>
      </trkpt>
      <trkpt lat="45.31049" lon="5.84542">
        <ele>1631.01</ele>
        <time>2012-05-27T13:24:11Z</time>
      </trkpt>
      <trkpt lat="45.31053" lon="5.84523">
        <ele>1621.88</ele>
        <time>2012-05-27T13:24:41Z</time>
      </trkpt>
      <trkpt lat="45.31053" lon="5.84496">
        <ele>1612.75</ele>
        <time>2012-05-27T13:25:11Z</time>
      </trkpt>
      <trkpt lat="45.31026" lon="5.84464">
        <ele>1603.14</ele>
        <time>2012-05-27T13:25:41Z</time>
      </trkpt>
      <trkpt lat="45.31025" lon="5.84433">
        <ele>1593.52</ele>
        <time>2012-05-27T13:26:11Z</time>
      </trkpt>
      <trkpt lat="45.31033" lon="5.84406">
        <ele>1584.39</ele>
        <time>2012-05-27T13:26:41Z</time>
      </trkpt>
      <trkpt lat="45.31004" lon="5.84377">
        <ele>1575.74</ele>
        <time>2012-05-27T13:27:11Z</time>
      </trkpt>
      <trkpt lat="45.31017" lon="5.84337">
        <ele>1567.09</ele>
        <time>2012-05-27T13:27:41Z</time>
      </trkpt>
      <trkpt lat="45.30992" lon="5.84309">
        <ele>1555.55</ele>
        <time>2012-05-27T13:28:11Z</time>
      </trkpt>
      <trkpt lat="45.30965" lon="5.8426">
        <ele>1542.09</ele>
        <time>2012-05-27T13:28:41Z</time>
      </trkpt>
      <trkpt lat="45.30932" lon="5.84219">
        <ele>1527.19</ele>
        <time>2012-05-27T13:29:11Z</time>
      </trkpt>
      <trkpt lat="45.30902" lon="5.8418">
        <ele>1515.66</ele>
        <time>2012-05-27T13:29:41Z</time>
      </trkpt>
      <trkpt lat="45.30874" lon="5.84133">
        <ele>1505.56</ele>
        <time>2012-05-27T13:30:11Z</time>
      </trkpt>
      <trkpt lat="45.30839" lon="5.8409">
        <ele>1495.95</ele>
        <time>2012-05-27T13:30:41Z</time>
      </trkpt>
      <trkpt lat="45.30811" lon="5.84051">
        <ele>1493.55</ele>
        <time>2012-05-27T13:31:11Z</time>
      </trkpt>
      <trkpt lat="45.30789" lon="5.8401">
        <ele>1491.14</ele>
        <time>2012-05-27T13:31:41Z</time>
      </trkpt>
      <trkpt lat="45.30762" lon="5.83974">
        <ele>1489.22</ele>
        <time>2012-05-27T13:32:11Z</time>
      </trkpt>
      <trkpt lat="45.3074" lon="5.83944">
        <ele>1485.85</ele>
        <time>2012-05-27T13:32:41Z</time>
      </trkpt>
      <trkpt lat="45.3072" lon="5.83919">
        <ele>1485.85</ele>
        <time>2012-05-27T13:33:11Z</time>
      </trkpt>
      <trkpt lat="45.307" lon="5.83895">
        <ele>1487.78</ele>
        <time>2012-05-27T13:33:41Z</time>
      </trkpt>
      <trkpt lat="45.30681" lon="5.83876">
        <ele>1487.3</ele>
        <time>2012-05-27T13:34:11Z</time>
      </trkpt>
      <trkpt lat="45.3066" lon="5.83863">
        <ele>1486.34</ele>
        <time>2012-05-27T13:34:41Z</time>
      </trkpt>
      <trkpt lat="45.30642" lon="5.83844">
        <ele>1486.82</ele>
        <time>2012-05-27T13:35:11Z</time>
      </trkpt>
      <trkpt lat="45.30637" lon="5.83841">
        <ele>1487.78</ele>
        <time>2012-05-27T13:35:41Z</time>
      </trkpt>
      <trkpt lat="45.30625" lon="5.8383">
        <ele>1488.26</ele>
        <time>2012-05-27T13:36:11Z</time>
      </trkpt>
      <trkpt lat="45.30602" lon="5.83811">
        <ele>1488.74</ele>
        <time>2012-05-27T13:36:41Z</time>
      </trkpt>
      <trkpt lat="45.30584" lon="5.83795">
        <ele>1484.41</ele>
        <time>2012-05-27T13:37:11Z</time>
      </trkpt>
      <trkpt lat="45.30569" lon="5.83784">
        <ele>1478.16</ele>
        <time>2012-05-27T13:37:41Z</time>
      </trkpt>
      <trkpt lat="45.30549" lon="5.8377">
        <ele>1475.28</ele>
        <time>2012-05-27T13:38:11Z</time>
      </trkpt>
      <trkpt lat="45.30522" lon="5.83739">
        <ele>1469.99</ele>
        <time>2012-05-27T13:38:41Z</time>
      </trkpt>
      <trkpt lat="45.30505" lon="5.83738">
        <ele>1467.59</ele>
        <time>2012-05-27T13:39:11Z</time>
      </trkpt>
      <trkpt lat="45.30481" lon="5.83731">
        <ele>1465.67</ele>
        <time>2012-05-27T13:39:41Z</time>
      </trkpt>
      <trkpt lat="45.30456" lon="5.83729">
        <ele>1464.23</ele>
        <time>2012-05-27T13:40:11Z</time>
      </trkpt>
      <trkpt lat="45.30429" lon="5.83735">
        <ele>1461.34</ele>
        <time>2012-05-27T13:40:41Z</time>
      </trkpt>
      <trkpt lat="45.30399" lon="5.83731">
        <ele>1456.53</ele>
        <time>2012-05-27T13:41:11Z</time>
      </trkpt>
      <trkpt lat="45.30372" lon="5.83732">
        <ele>1452.21</ele>
        <time>2012-05-27T13:41:41Z</time>
      </trkpt>
      <trkpt lat="45.30349" lon="5.83722">
        <ele>1449.32</ele>
        <time>2012-05-27T13:42:11Z</time>
      </trkpt>
      <trkpt lat="45.3032" lon="5.83719">
        <ele>1443.56</ele>
        <time>2012-05-27T13:42:41Z</time>
      </trkpt>
      <trkpt lat="45.30301" lon="5.83701">
        <ele>1447.4</ele>
        <time>2012-05-27T13:43:11Z</time>
      </trkpt>
      <trkpt lat="45.30287" lon="5.83686">
        <ele>1445</ele>
        <time>2012-05-27T13:43:41Z</time>
      </trkpt>
      <trkpt lat="45.30264" lon="5.8368">
        <ele>1439.23</ele>
        <time>2012-05-27T13:44:11Z</time>
      </trkpt>
      <trkpt lat="45.30246" lon="5.83683">
        <ele>1437.79</ele>
        <time>2012-05-27T13:44:41Z</time>
      </trkpt>
      <trkpt lat="45.30228" lon="5.83695">
        <ele>1437.31</ele>
        <time>2012-05-27T13:45:11Z</time>
      </trkpt>
      <trkpt lat="45.30229" lon="5.83695">
        <ele>1437.31</ele>
        <time>2012-05-27T13:45:41Z</time>
      </trkpt>
      <trkpt lat="45.30229" lon="5.83695">
        <ele>1437.31</ele>
        <time>2012-05-27T13:46:11Z</time>
      </trkpt>
      <trkpt lat="45.30228" lon="5.83695">
        <ele>1436.35</ele>
        <time>2012-05-27T13:46:41Z</time>
      </trkpt>
      <trkpt lat="45.30228" lon="5.83696">
        <ele>1436.83</ele>
        <time>2012-05-27T13:47:11Z</time>
      </trkpt>
      <trkpt lat="45.30228" lon="5.83695">
        <ele>1436.83</ele>
        <time>2012-05-27T13:47:41Z</time>
      </trkpt>
      <trkpt lat="45.30228" lon="5.83695">
        <ele>1436.35</ele>
        <time>2012-05-27T13:48:11Z</time>
      </trkpt>
      <trkpt lat="45.30229" lon="5.83695">
        <ele>1436.35</ele>
        <time>2012-05-27T13:48:41Z</time>
      </trkpt>
      <trkpt lat="45.30229" lon="5.83696">
        <ele>1436.83</ele>
        <time>2012-05-27T13:49:11Z</time>
      </trkpt>
      <trkpt lat="45.30229" lon="5.83696">
        <ele>1436.35</ele>
        <time>2012-05-27T13:49:41Z</time>
      </trkpt>
      <trkpt lat="45.30228" lon="5.83696">
        <ele>1436.83</ele>
        <time>2012-05-27T13:50:11Z</time>
      </trkpt>
      <trkpt lat="45.30235" lon="5.83698">
        <ele>1436.35</ele>
        <time>2012-05-27T13:50:41Z</time>
      </trkpt>
      <trkpt lat="45.30235" lon="5.83698">
        <ele>1436.83</ele>
        <time>2012-05-27T13:51:11Z</time>
      </trkpt>
      <trkpt lat="45.30235" lon="5.83698">
        <ele>1436.35</ele>
        <time>2012-05-27T13:51:41Z</time>
      </trkpt>
      <trkpt lat="45.30235" lon="5.83698">
        <ele>1436.35</ele>
        <time>2012-05-27T13:52:11Z</time>
      </trkpt>
      <trkpt lat="45.30233" lon="5.83698">
        <ele>1435.87</ele>
        <time>2012-05-27T13:52:41Z</time>
      </trkpt>
      <trkpt lat="45.30234" lon="5.83698">
        <ele>1435.87</ele>
        <time>2012-05-27T13:53:11Z</time>
      </trkpt>
      <trkpt lat="45.30232" lon="5.83697">
        <ele>1435.39</ele>
        <time>2012-05-27T13:53:41Z</time>
      </trkpt>
      <trkpt lat="45.30231" lon="5.83698">
        <ele>1435.39</ele>
        <time>2012-05-27T13:54:11Z</time>
      </trkpt>
      <trkpt lat="45.30231" lon="5.83698">
        <ele>1434.91</ele>
        <time>2012-05-27T13:54:41Z</time>
      </trkpt>
      <trkpt lat="45.30231" lon="5.83698">
        <ele>1434.91</ele>
        <time>2012-05-27T13:55:11Z</time>
      </trkpt>
      <trkpt lat="45.30231" lon="5.83698">
        <ele>1434.91</ele>
        <time>2012-05-27T13:55:41Z</time>
      </trkpt>
      <trkpt lat="45.3023" lon="5.83697">
        <ele>1434.42</ele>
        <time>2012-05-27T13:56:11Z</time>
      </trkpt>
      <trkpt lat="45.3023" lon="5.83697">
        <ele>1433.94</ele>
        <time>2012-05-27T13:56:41Z</time>
      </trkpt>
      <trkpt lat="45.30231" lon="5.83697">
        <ele>1433.94</ele>
        <time>2012-05-27T13:57:11Z</time>
      </trkpt>
      <trkpt lat="45.30231" lon="5.83698">
        <ele>1434.42</ele>
        <time>2012-05-27T13:57:41Z</time>
      </trkpt>
      <trkpt lat="45.30231" lon="5.83699">
        <ele>1433.94</ele>
        <time>2012-05-27T13:58:11Z</time>
      </trkpt>
      <trkpt lat="45.30231" lon="5.83699">
        <ele>1433.94</ele>
        <time>2012-05-27T13:58:41Z</time>
      </trkpt>
      <trkpt lat="45.30231" lon="5.837">
        <ele>1433.94</ele>
        <time>2012-05-27T13:59:11Z</time>
      </trkpt>
      <trkpt lat="45.3023" lon="5.83701">
        <ele>1434.42</ele>
        <time>2012-05-27T13:59:41Z</time>
      </trkpt>
      <trkpt lat="45.3023" lon="5.83701">
        <ele>1434.42</ele>
        <time>2012-05-27T14:00:11Z</time>
      </trkpt>
      <trkpt lat="45.3023" lon="5.83701">
        <ele>1434.42</ele>
        <time>2012-05-27T14:00:41Z</time>
      </trkpt>
      <trkpt lat="45.30231" lon="5.83702">
        <ele>1434.42</ele>
        <time>2012-05-27T14:01:11Z</time>
      </trkpt>
      <trkpt lat="45.30231" lon="5.83702">
        <ele>1434.91</ele>
        <time>2012-05-27T14:01:41Z</time>
      </trkpt>
      <trkpt lat="45.30231" lon="5.83702">
        <ele>1434.42</ele>
        <time>2012-05-27T14:02:11Z</time>
      </trkpt>
      <trkpt lat="45.30232" lon="5.83706">
        <ele>1434.91</ele>
        <time>2012-05-27T14:02:41Z</time>
      </trkpt>
      <trkpt lat="45.30248" lon="5.8368">
        <ele>1434.91</ele>
        <time>2012-05-27T14:03:11Z</time>
      </trkpt>
      <trkpt lat="45.30276" lon="5.83642">
        <ele>1432.5</ele>
        <time>2012-05-27T14:03:41Z</time>
      </trkpt>
      <trkpt lat="45.30289" lon="5.83599">
        <ele>1429.62</ele>
        <time>2012-05-27T14:04:11Z</time>
      </trkpt>
      <trkpt lat="45.30291" lon="5.83584">
        <ele>1429.14</ele>
        <time>2012-05-27T14:04:41Z</time>
      </trkpt>
      <trkpt lat="45.3029" lon="5.83584">
        <ele>1429.62</ele>
        <time>2012-05-27T14:05:11Z</time>
      </trkpt>
      <trkpt lat="45.30291" lon="5.83586">
        <ele>1429.14</ele>
        <time>2012-05-27T14:05:41Z</time>
      </trkpt>
      <trkpt lat="45.30278" lon="5.83597">
        <ele>1428.66</ele>
        <time>2012-05-27T14:06:11Z</time>
      </trkpt>
      <trkpt lat="45.30252" lon="5.83602">
        <ele>1424.33</ele>
        <time>2012-05-27T14:06:41Z</time>
      </trkpt>
      <trkpt lat="45.30225" lon="5.83571">
        <ele>1420</ele>
        <time>2012-05-27T14:07:11Z</time>
      </trkpt>
      <trkpt lat="45.30192" lon="5.83543">
        <ele>1415.2</ele>
        <time>2012-05-27T14:07:41Z</time>
      </trkpt>
      <trkpt lat="45.30174" lon="5.83492">
        <ele>1410.87</ele>
        <time>2012-05-27T14:08:11Z</time>
      </trkpt>
      <trkpt lat="45.3016" lon="5.83443">
        <ele>1406.07</ele>
        <time>2012-05-27T14:08:41Z</time>
      </trkpt>
      <trkpt lat="45.30162" lon="5.83393">
        <ele>1403.18</ele>
        <time>2012-05-27T14:09:11Z</time>
      </trkpt>
      <trkpt lat="45.30178" lon="5.83345">
        <ele>1401.74</ele>
        <time>2012-05-27T14:09:41Z</time>
      </trkpt>
      <trkpt lat="45.30187" lon="5.83293">
        <ele>1399.82</ele>
        <time>2012-05-27T14:10:11Z</time>
      </trkpt>
      <trkpt lat="45.30182" lon="5.83239">
        <ele>1397.41</ele>
        <time>2012-05-27T14:10:41Z</time>
      </trkpt>
      <trkpt lat="45.30182" lon="5.83238">
        <ele>1395.97</ele>
        <time>2012-05-27T14:11:11Z</time>
      </trkpt>
      <trkpt lat="45.30182" lon="5.83238">
        <ele>1395.97</ele>
        <time>2012-05-27T14:11:41Z</time>
      </trkpt>
      <trkpt lat="45.30183" lon="5.83238">
        <ele>1395.97</ele>
        <time>2012-05-27T14:12:11Z</time>
      </trkpt>
      <trkpt lat="45.30183" lon="5.83238">
        <ele>1395.97</ele>
        <time>2012-05-27T14:12:41Z</time>
      </trkpt>
      <trkpt lat="45.30182" lon="5.83239">
        <ele>1396.45</ele>
        <time>2012-05-27T14:13:11Z</time>
      </trkpt>
      <trkpt lat="45.30182" lon="5.83239">
        <ele>1396.93</ele>
        <time>2012-05-27T14:13:41Z</time>
      </trkpt>
      <trkpt lat="45.30182" lon="5.83239">
        <ele>1395.97</ele>
        <time>2012-05-27T14:14:11Z</time>
      </trkpt>
      <trkpt lat="45.30181" lon="5.8324">
        <ele>1396.93</ele>
        <time>2012-05-27T14:14:41Z</time>
      </trkpt>
      <trkpt lat="45.30181" lon="5.83239">
        <ele>1396.45</ele>
        <time>2012-05-27T14:15:11Z</time>
      </trkpt>
      <trkpt lat="45.30181" lon="5.83239">
        <ele>1396.45</ele>
        <time>2012-05-27T14:15:41Z</time>
      </trkpt>
      <trkpt lat="45.30181" lon="5.8324">
        <ele>1396.45</ele>
        <time>2012-05-27T14:16:11Z</time>
      </trkpt>
      <trkpt lat="45.30182" lon="5.83239">
        <ele>1395.49</ele>
        <time>2012-05-27T14:16:41Z</time>
      </trkpt>
      <trkpt lat="45.30182" lon="5.83239">
        <ele>1395.97</ele>
        <time>2012-05-27T14:17:11Z</time>
      </trkpt>
      <trkpt lat="45.30182" lon="5.83239">
        <ele>1395.97</ele>
        <time>2012-05-27T14:17:41Z</time>
      </trkpt>
      <trkpt lat="45.30181" lon="5.83239">
        <ele>1395.97</ele>
        <time>2012-05-27T14:18:11Z</time>
      </trkpt>
      <trkpt lat="45.30181" lon="5.83239">
        <ele>1395.97</ele>
        <time>2012-05-27T14:18:41Z</time>
      </trkpt>
      <trkpt lat="45.30181" lon="5.83239">
        <ele>1396.45</ele>
        <time>2012-05-27T14:19:11Z</time>
      </trkpt>
      <trkpt lat="45.30181" lon="5.83239">
        <ele>1395.97</ele>
        <time>2012-05-27T14:19:41Z</time>
      </trkpt>
      <trkpt lat="45.30181" lon="5.83239">
        <ele>1396.45</ele>
        <time>2012-05-27T14:20:11Z</time>
      </trkpt>
      <trkpt lat="45.30181" lon="5.83239">
        <ele>1396.45</ele>
        <time>2012-05-27T14:20:41Z</time>
      </trkpt>
      <trkpt lat="45.30181" lon="5.8324">
        <ele>1396.45</ele>
        <time>2012-05-27T14:21:11Z</time>
      </trkpt>
      <trkpt lat="45.30181" lon="5.8324">
        <ele>1395.97</ele>
        <time>2012-05-27T14:21:41Z</time>
      </trkpt>
      <trkpt lat="45.3018" lon="5.83238">
        <ele>1396.45</ele>
        <time>2012-05-27T14:22:11Z</time>
      </trkpt>
      <trkpt lat="45.30182" lon="5.83234">
        <ele>1397.41</ele>
        <time>2012-05-27T14:22:41Z</time>
      </trkpt>
      <trkpt lat="45.30186" lon="5.83217">
        <ele>1396.45</ele>
        <time>2012-05-27T14:23:11Z</time>
      </trkpt>
      <trkpt lat="45.30174" lon="5.83187">
        <ele>1392.13</ele>
        <time>2012-05-27T14:23:41Z</time>
      </trkpt>
      <trkpt lat="45.30175" lon="5.83143">
        <ele>1394.53</ele>
        <time>2012-05-27T14:24:11Z</time>
      </trkpt>
      <trkpt lat="45.30176" lon="5.83129">
        <ele>1394.53</ele>
        <time>2012-05-27T14:24:41Z</time>
      </trkpt>
      <trkpt lat="45.30176" lon="5.83129">
        <ele>1394.05</ele>
        <time>2012-05-27T14:25:11Z</time>
      </trkpt>
      <trkpt lat="45.30176" lon="5.8313">
        <ele>1393.57</ele>
        <time>2012-05-27T14:25:41Z</time>
      </trkpt>
      <trkpt lat="45.30175" lon="5.83129">
        <ele>1393.57</ele>
        <time>2012-05-27T14:26:11Z</time>
      </trkpt>
      <trkpt lat="45.30176" lon="5.83109">
        <ele>1393.09</ele>
        <time>2012-05-27T14:26:41Z</time>
      </trkpt>
      <trkpt lat="45.30177" lon="5.83093">
        <ele>1394.05</ele>
        <time>2012-05-27T14:27:11Z</time>
      </trkpt>
      <trkpt lat="45.30191" lon="5.83071">
        <ele>1395.49</ele>
        <time>2012-05-27T14:27:41Z</time>
      </trkpt>
      <trkpt lat="45.30203" lon="5.83038">
        <ele>1398.37</ele>
        <time>2012-05-27T14:28:11Z</time>
      </trkpt>
      <trkpt lat="45.30204" lon="5.83005">
        <ele>1405.1</ele>
        <time>2012-05-27T14:28:41Z</time>
      </trkpt>
      <trkpt lat="45.30205" lon="5.82972">
        <ele>1410.39</ele>
        <time>2012-05-27T14:29:11Z</time>
      </trkpt>
      <trkpt lat="45.30204" lon="5.82936">
        <ele>1416.64</ele>
        <time>2012-05-27T14:29:41Z</time>
      </trkpt>
      <trkpt lat="45.30198" lon="5.82894">
        <ele>1420</ele>
        <time>2012-05-27T14:30:11Z</time>
      </trkpt>
      <trkpt lat="45.30177" lon="5.82854">
        <ele>1421.45</ele>
        <time>2012-05-27T14:30:41Z</time>
      </trkpt>
      <trkpt lat="45.30164" lon="5.82831">
        <ele>1424.81</ele>
        <time>2012-05-27T14:31:11Z</time>
      </trkpt>
      <trkpt lat="45.30147" lon="5.82819">
        <ele>1430.58</ele>
        <time>2012-05-27T14:31:41Z</time>
      </trkpt>
      <trkpt lat="45.30132" lon="5.82803">
        <ele>1435.39</ele>
        <time>2012-05-27T14:32:11Z</time>
      </trkpt>
      <trkpt lat="45.30122" lon="5.82791">
        <ele>1439.71</ele>
        <time>2012-05-27T14:32:41Z</time>
      </trkpt>
      <trkpt lat="45.30117" lon="5.82769">
        <ele>1445</ele>
        <time>2012-05-27T14:33:11Z</time>
      </trkpt>
      <trkpt lat="45.30105" lon="5.82757">
        <ele>1450.77</ele>
        <time>2012-05-27T14:33:41Z</time>
      </trkpt>
      <trkpt lat="45.30089" lon="5.82739">
        <ele>1454.61</ele>
        <time>2012-05-27T14:34:11Z</time>
      </trkpt>
      <trkpt lat="45.30078" lon="5.82705">
        <ele>1455.57</ele>
        <time>2012-05-27T14:34:41Z</time>
      </trkpt>
      <trkpt lat="45.30057" lon="5.82663">
        <ele>1458.46</ele>
        <time>2012-05-27T14:35:11Z</time>
      </trkpt>
      <trkpt lat="45.30052" lon="5.82648">
        <ele>1464.71</ele>
        <time>2012-05-27T14:35:41Z</time>
      </trkpt>
      <trkpt lat="45.30044" lon="5.82636">
        <ele>1469.03</ele>
        <time>2012-05-27T14:36:11Z</time>
      </trkpt>
      <trkpt lat="45.30038" lon="5.82617">
        <ele>1474.8</ele>
        <time>2012-05-27T14:36:41Z</time>
      </trkpt>
      <trkpt lat="45.30037" lon="5.82587">
        <ele>1479.13</ele>
        <time>2012-05-27T14:37:11Z</time>
      </trkpt>
      <trkpt lat="45.30035" lon="5.82567">
        <ele>1483.93</ele>
        <time>2012-05-27T14:37:41Z</time>
      </trkpt>
      <trkpt lat="45.30031" lon="5.82557">
        <ele>1489.7</ele>
        <time>2012-05-27T14:38:11Z</time>
      </trkpt>
      <trkpt lat="45.30031" lon="5.82553">
        <ele>1493.06</ele>
        <time>2012-05-27T14:38:41Z</time>
      </trkpt>
      <trkpt lat="45.30029" lon="5.82544">
        <ele>1495.47</ele>
        <time>2012-05-27T14:39:11Z</time>
      </trkpt>
      <trkpt lat="45.30036" lon="5.82522">
        <ele>1496.43</ele>
        <time>2012-05-27T14:39:41Z</time>
      </trkpt>
      <trkpt lat="45.30041" lon="5.82487">
        <ele>1498.83</ele>
        <time>2012-05-27T14:40:11Z</time>
      </trkpt>
      <trkpt lat="45.30051" lon="5.82477">
        <ele>1501.24</ele>
        <time>2012-05-27T14:40:41Z</time>
      </trkpt>
      <trkpt lat="45.3005" lon="5.82476">
        <ele>1501.72</ele>
        <time>2012-05-27T14:41:11Z</time>
      </trkpt>
      <trkpt lat="45.3005" lon="5.82476">
        <ele>1501.72</ele>
        <time>2012-05-27T14:41:41Z</time>
      </trkpt>
      <trkpt lat="45.3005" lon="5.82469">
        <ele>1500.76</ele>
        <time>2012-05-27T14:42:11Z</time>
      </trkpt>
      <trkpt lat="45.30055" lon="5.8244">
        <ele>1504.6</ele>
        <time>2012-05-27T14:42:41Z</time>
      </trkpt>
      <trkpt lat="45.30043" lon="5.82411">
        <ele>1502.68</ele>
        <time>2012-05-27T14:43:11Z</time>
      </trkpt>
      <trkpt lat="45.30024" lon="5.82391">
        <ele>1503.64</ele>
        <time>2012-05-27T14:43:41Z</time>
      </trkpt>
      <trkpt lat="45.30005" lon="5.82368">
        <ele>1504.12</ele>
        <time>2012-05-27T14:44:11Z</time>
      </trkpt>
      <trkpt lat="45.29982" lon="5.82347">
        <ele>1503.64</ele>
        <time>2012-05-27T14:44:41Z</time>
      </trkpt>
      <trkpt lat="45.2996" lon="5.82334">
        <ele>1501.24</ele>
        <time>2012-05-27T14:45:11Z</time>
      </trkpt>
      <trkpt lat="45.29943" lon="5.8232">
        <ele>1501.24</ele>
        <time>2012-05-27T14:45:41Z</time>
      </trkpt>
      <trkpt lat="45.29931" lon="5.82313">
        <ele>1498.83</ele>
        <time>2012-05-27T14:46:11Z</time>
      </trkpt>
      <trkpt lat="45.29909" lon="5.82304">
        <ele>1498.83</ele>
        <time>2012-05-27T14:46:41Z</time>
      </trkpt>
      <trkpt lat="45.29889" lon="5.82307">
        <ele>1498.35</ele>
        <time>2012-05-27T14:47:11Z</time>
      </trkpt>
      <trkpt lat="45.29869" lon="5.82316">
        <ele>1496.43</ele>
        <time>2012-05-27T14:47:41Z</time>
      </trkpt>
      <trkpt lat="45.29842" lon="5.82319">
        <ele>1494.51</ele>
        <time>2012-05-27T14:48:11Z</time>
      </trkpt>
      <trkpt lat="45.29831" lon="5.82316">
        <ele>1493.06</ele>
        <time>2012-05-27T14:48:41Z</time>
      </trkpt>
      <trkpt lat="45.29813" lon="5.82308">
        <ele>1489.7</ele>
        <time>2012-05-27T14:49:11Z</time>
      </trkpt>
      <trkpt lat="45.29799" lon="5.82291">
        <ele>1488.26</ele>
        <time>2012-05-27T14:49:41Z</time>
      </trkpt>
      <trkpt lat="45.29777" lon="5.82279">
        <ele>1484.89</ele>
        <time>2012-05-27T14:50:11Z</time>
      </trkpt>
      <trkpt lat="45.29753" lon="5.8227">
        <ele>1483.93</ele>
        <time>2012-05-27T14:50:41Z</time>
      </trkpt>
      <trkpt lat="45.29731" lon="5.82269">
        <ele>1482.01</ele>
        <time>2012-05-27T14:51:11Z</time>
      </trkpt>
      <trkpt lat="45.29711" lon="5.82267">
        <ele>1480.09</ele>
        <time>2012-05-27T14:51:41Z</time>
      </trkpt>
      <trkpt lat="45.29696" lon="5.8226">
        <ele>1476.24</ele>
        <time>2012-05-27T14:52:11Z</time>
      </trkpt>
      <trkpt lat="45.29689" lon="5.82259">
        <ele>1474.8</ele>
        <time>2012-05-27T14:52:41Z</time>
      </trkpt>
      <trkpt lat="45.29667" lon="5.82252">
        <ele>1472.4</ele>
        <time>2012-05-27T14:53:11Z</time>
      </trkpt>
      <trkpt lat="45.29651" lon="5.82238">
        <ele>1469.03</ele>
        <time>2012-05-27T14:53:41Z</time>
      </trkpt>
      <trkpt lat="45.29627" lon="5.8223">
        <ele>1466.63</ele>
        <time>2012-05-27T14:54:11Z</time>
      </trkpt>
      <trkpt lat="45.29627" lon="5.8223">
        <ele>1467.11</ele>
        <time>2012-05-27T14:54:41Z</time>
      </trkpt>
      <trkpt lat="45.29611" lon="5.82219">
        <ele>1461.82</ele>
        <time>2012-05-27T14:55:11Z</time>
      </trkpt>
      <trkpt lat="45.29589" lon="5.82209">
        <ele>1460.38</ele>
        <time>2012-05-27T14:55:41Z</time>
      </trkpt>
      <trkpt lat="45.29566" lon="5.82196">
        <ele>1455.09</ele>
        <time>2012-05-27T14:56:11Z</time>
      </trkpt>
      <trkpt lat="45.29547" lon="5.82184">
        <ele>1453.65</ele>
        <time>2012-05-27T14:56:41Z</time>
      </trkpt>
      <trkpt lat="45.2953" lon="5.82181">
        <ele>1451.73</ele>
        <time>2012-05-27T14:57:11Z</time>
      </trkpt>
      <trkpt lat="45.29522" lon="5.82179">
        <ele>1446.92</ele>
        <time>2012-05-27T14:57:41Z</time>
      </trkpt>
      <trkpt lat="45.29497" lon="5.82171">
        <ele>1446.44</ele>
        <time>2012-05-27T14:58:11Z</time>
      </trkpt>
      <trkpt lat="45.29481" lon="5.82157">
        <ele>1442.6</ele>
        <time>2012-05-27T14:58:41Z</time>
      </trkpt>
      <trkpt lat="45.29458" lon="5.82145">
        <ele>1439.71</ele>
        <time>2012-05-27T14:59:11Z</time>
      </trkpt>
      <trkpt lat="45.29438" lon="5.82142">
        <ele>1437.31</ele>
        <time>2012-05-27T14:59:41Z</time>
      </trkpt>
      <trkpt lat="45.29406" lon="5.82132">
        <ele>1432.02</ele>
        <time>2012-05-27T15:00:11Z</time>
      </trkpt>
      <trkpt lat="45.29394" lon="5.82124">
        <ele>1428.66</ele>
        <time>2012-05-27T15:00:41Z</time>
      </trkpt>
      <trkpt lat="45.2937" lon="5.82109">
        <ele>1425.77</ele>
        <time>2012-05-27T15:01:11Z</time>
      </trkpt>
      <trkpt lat="45.29346" lon="5.82085">
        <ele>1420</ele>
        <time>2012-05-27T15:01:41Z</time>
      </trkpt>
      <trkpt lat="45.29322" lon="5.82064">
        <ele>1414.24</ele>
        <time>2012-05-27T15:02:11Z</time>
      </trkpt>
      <trkpt lat="45.29295" lon="5.82061">
        <ele>1411.35</ele>
        <time>2012-05-27T15:02:41Z</time>
      </trkpt>
      <trkpt lat="45.29295" lon="5.82061">
        <ele>1410.87</ele>
        <time>2012-05-27T15:03:11Z</time>
      </trkpt>
      <trkpt lat="45.29295" lon="5.82061">
        <ele>1410.39</ele>
        <time>2012-05-27T15:03:41Z</time>
      </trkpt>
      <trkpt lat="45.29295" lon="5.8206">
        <ele>1410.39</ele>
        <time>2012-05-27T15:04:11Z</time>
      </trkpt>
      <trkpt lat="45.29295" lon="5.8206">
        <ele>1410.87</ele>
        <time>2012-05-27T15:04:41Z</time>
      </trkpt>
      <trkpt lat="45.29279" lon="5.82061">
        <ele>1411.83</ele>
        <time>2012-05-27T15:05:11Z</time>
      </trkpt>
      <trkpt lat="45.29242" lon="5.82051">
        <ele>1410.39</ele>
        <time>2012-05-27T15:05:41Z</time>
      </trkpt>
      <trkpt lat="45.29235" lon="5.82054">
        <ele>1410.39</ele>
        <time>2012-05-27T15:06:11Z</time>
      </trkpt>
      <trkpt lat="45.29235" lon="5.82054">
        <ele>1410.39</ele>
        <time>2012-05-27T15:06:41Z</time>
      </trkpt>
      <trkpt lat="45.29235" lon="5.82054">
        <ele>1410.87</ele>
        <time>2012-05-27T15:07:11Z</time>
      </trkpt>
      <trkpt lat="45.29235" lon="5.82054">
        <ele>1410.39</ele>
        <time>2012-05-27T15:07:41Z</time>
      </trkpt>
      <trkpt lat="45.29235" lon="5.82054">
        <ele>1410.39</ele>
        <time>2012-05-27T15:08:11Z</time>
      </trkpt>
      <trkpt lat="45.29204" lon="5.8204">
        <ele>1407.99</ele>
        <time>2012-05-27T15:08:41Z</time>
      </trkpt>
      <trkpt lat="45.29162" lon="5.82032">
        <ele>1407.03</ele>
        <time>2012-05-27T15:09:11Z</time>
      </trkpt>
      <trkpt lat="45.29121" lon="5.8203">
        <ele>1404.14</ele>
        <time>2012-05-27T15:09:41Z</time>
      </trkpt>
      <trkpt lat="45.29082" lon="5.82011">
        <ele>1401.74</ele>
        <time>2012-05-27T15:10:11Z</time>
      </trkpt>
      <trkpt lat="45.29048" lon="5.8203">
        <ele>1400.78</ele>
        <time>2012-05-27T15:10:41Z</time>
      </trkpt>
      <trkpt lat="45.29016" lon="5.82065">
        <ele>1398.86</ele>
        <time>2012-05-27T15:11:11Z</time>
      </trkpt>
      <trkpt lat="45.28983" lon="5.82064">
        <ele>1395.49</ele>
        <time>2012-05-27T15:11:41Z</time>
      </trkpt>
      <trkpt lat="45.28955" lon="5.82031">
        <ele>1394.05</ele>
        <time>2012-05-27T15:12:11Z</time>
      </trkpt>
      <trkpt lat="45.28939" lon="5.8199">
        <ele>1391.17</ele>
        <time>2012-05-27T15:12:41Z</time>
      </trkpt>
      <trkpt lat="45.28903" lon="5.81978">
        <ele>1389.72</ele>
        <time>2012-05-27T15:13:11Z</time>
      </trkpt>
      <trkpt lat="45.28865" lon="5.8196">
        <ele>1387.32</ele>
        <time>2012-05-27T15:13:41Z</time>
      </trkpt>
      <trkpt lat="45.2883" lon="5.81944">
        <ele>1388.28</ele>
        <time>2012-05-27T15:14:11Z</time>
      </trkpt>
      <trkpt lat="45.28793" lon="5.81959">
        <ele>1387.32</ele>
        <time>2012-05-27T15:14:41Z</time>
      </trkpt>
      <trkpt lat="45.2876" lon="5.81969">
        <ele>1384.44</ele>
        <time>2012-05-27T15:15:11Z</time>
      </trkpt>
      <trkpt lat="45.28724" lon="5.81952">
        <ele>1382.99</ele>
        <time>2012-05-27T15:15:41Z</time>
      </trkpt>
      <trkpt lat="45.28698" lon="5.81918">
        <ele>1381.55</ele>
        <time>2012-05-27T15:16:11Z</time>
      </trkpt>
      <trkpt lat="45.28663" lon="5.81897">
        <ele>1383.47</ele>
        <time>2012-05-27T15:16:41Z</time>
      </trkpt>
      <trkpt lat="45.28631" lon="5.81883">
        <ele>1384.92</ele>
        <time>2012-05-27T15:17:11Z</time>
      </trkpt>
      <trkpt lat="45.28596" lon="5.81864">
        <ele>1384.44</ele>
        <time>2012-05-27T15:17:41Z</time>
      </trkpt>
      <trkpt lat="45.28561" lon="5.81846">
        <ele>1383.96</ele>
        <time>2012-05-27T15:18:11Z</time>
      </trkpt>
      <trkpt lat="45.28522" lon="5.81838">
        <ele>1382.99</ele>
        <time>2012-05-27T15:18:41Z</time>
      </trkpt>
      <trkpt lat="45.28494" lon="5.81819">
        <ele>1380.59</ele>
        <time>2012-05-27T15:19:11Z</time>
      </trkpt>
      <trkpt lat="45.28461" lon="5.81798">
        <ele>1377.71</ele>
        <time>2012-05-27T15:19:41Z</time>
      </trkpt>
      <trkpt lat="45.28429" lon="5.81764">
        <ele>1374.82</ele>
        <time>2012-05-27T15:20:11Z</time>
      </trkpt>
      <trkpt lat="45.28395" lon="5.81735">
        <ele>1372.9</ele>
        <time>2012-05-27T15:20:41Z</time>
      </trkpt>
      <trkpt lat="45.28368" lon="5.8172">
        <ele>1371.94</ele>
        <time>2012-05-27T15:21:11Z</time>
      </trkpt>
      <trkpt lat="45.28332" lon="5.817">
        <ele>1371.94</ele>
        <time>2012-05-27T15:21:41Z</time>
      </trkpt>
      <trkpt lat="45.28304" lon="5.81677">
        <ele>1374.82</ele>
        <time>2012-05-27T15:22:11Z</time>
      </trkpt>
      <trkpt lat="45.28272" lon="5.81658">
        <ele>1376.26</ele>
        <time>2012-05-27T15:22:41Z</time>
      </trkpt>
      <trkpt lat="45.28261" lon="5.81606">
        <ele>1376.26</ele>
        <time>2012-05-27T15:23:11Z</time>
      </trkpt>
      <trkpt lat="45.28294" lon="5.8158">
        <ele>1377.71</ele>
        <time>2012-05-27T15:23:41Z</time>
      </trkpt>
      <trkpt lat="45.28301" lon="5.81533">
        <ele>1380.11</ele>
        <time>2012-05-27T15:24:11Z</time>
      </trkpt>
      <trkpt lat="45.28312" lon="5.81493">
        <ele>1382.03</ele>
        <time>2012-05-27T15:24:41Z</time>
      </trkpt>
      <trkpt lat="45.28338" lon="5.81468">
        <ele>1382.99</ele>
        <time>2012-05-27T15:25:11Z</time>
      </trkpt>
      <trkpt lat="45.28368" lon="5.81454">
        <ele>1385.4</ele>
        <time>2012-05-27T15:25:41Z</time>
      </trkpt>
      <trkpt lat="45.2838" lon="5.81407">
        <ele>1389.72</ele>
        <time>2012-05-27T15:26:11Z</time>
      </trkpt>
      <trkpt lat="45.28388" lon="5.81369">
        <ele>1393.57</ele>
        <time>2012-05-27T15:26:41Z</time>
      </trkpt>
      <trkpt lat="45.28404" lon="5.8133">
        <ele>1395.49</ele>
        <time>2012-05-27T15:27:11Z</time>
      </trkpt>
      <trkpt lat="45.28411" lon="5.81283">
        <ele>1397.41</ele>
        <time>2012-05-27T15:27:41Z</time>
      </trkpt>
      <trkpt lat="45.2842" lon="5.81238">
        <ele>1399.34</ele>
        <time>2012-05-27T15:28:11Z</time>
      </trkpt>
      <trkpt lat="45.28428" lon="5.81201">
        <ele>1403.66</ele>
        <time>2012-05-27T15:28:41Z</time>
      </trkpt>
      <trkpt lat="45.28435" lon="5.8116">
        <ele>1407.03</ele>
        <time>2012-05-27T15:29:11Z</time>
      </trkpt>
      <trkpt lat="45.28414" lon="5.81142">
        <ele>1411.35</ele>
        <time>2012-05-27T15:29:41Z</time>
      </trkpt>
      <trkpt lat="45.28398" lon="5.81135">
        <ele>1412.79</ele>
        <time>2012-05-27T15:30:11Z</time>
      </trkpt>
      <trkpt lat="45.28368" lon="5.81124">
        <ele>1416.16</ele>
        <time>2012-05-27T15:30:41Z</time>
      </trkpt>
      <trkpt lat="45.2833" lon="5.81124">
        <ele>1416.64</ele>
        <time>2012-05-27T15:31:11Z</time>
      </trkpt>
      <trkpt lat="45.28297" lon="5.81116">
        <ele>1418.56</ele>
        <time>2012-05-27T15:31:41Z</time>
      </trkpt>
      <trkpt lat="45.28265" lon="5.81098">
        <ele>1419.04</ele>
        <time>2012-05-27T15:32:11Z</time>
      </trkpt>
      <trkpt lat="45.28236" lon="5.81079">
        <ele>1421.93</ele>
        <time>2012-05-27T15:32:41Z</time>
      </trkpt>
      <trkpt lat="45.28209" lon="5.81059">
        <ele>1427.21</ele>
        <time>2012-05-27T15:33:11Z</time>
      </trkpt>
      <trkpt lat="45.28194" lon="5.81049">
        <ele>1429.62</ele>
        <time>2012-05-27T15:33:41Z</time>
      </trkpt>
      <trkpt lat="45.28167" lon="5.81027">
        <ele>1431.06</ele>
        <time>2012-05-27T15:34:11Z</time>
      </trkpt>
      <trkpt lat="45.28141" lon="5.81017">
        <ele>1429.62</ele>
        <time>2012-05-27T15:34:41Z</time>
      </trkpt>
      <trkpt lat="45.28137" lon="5.8101">
        <ele>1428.66</ele>
        <time>2012-05-27T15:35:11Z</time>
      </trkpt>
      <trkpt lat="45.2813" lon="5.81012">
        <ele>1428.66</ele>
        <time>2012-05-27T15:35:41Z</time>
      </trkpt>
      <trkpt lat="45.28128" lon="5.81009">
        <ele>1427.21</ele>
        <time>2012-05-27T15:36:11Z</time>
      </trkpt>
      <trkpt lat="45.28128" lon="5.81008">
        <ele>1427.7</ele>
        <time>2012-05-27T15:36:41Z</time>
      </trkpt>
      <trkpt lat="45.28128" lon="5.81006">
        <ele>1427.7</ele>
        <time>2012-05-27T15:37:11Z</time>
      </trkpt>
      <trkpt lat="45.28128" lon="5.81006">
        <ele>1428.66</ele>
        <time>2012-05-27T15:37:41Z</time>
      </trkpt>
      <trkpt lat="45.28128" lon="5.81005">
        <ele>1428.18</ele>
        <time>2012-05-27T15:38:11Z</time>
      </trkpt>
      <trkpt lat="45.28127" lon="5.81004">
        <ele>1428.18</ele>
        <time>2012-05-27T15:38:41Z</time>
      </trkpt>
      <trkpt lat="45.28127" lon="5.81004">
        <ele>1427.21</ele>
        <time>2012-05-27T15:39:11Z</time>
      </trkpt>
      <trkpt lat="45.28127" lon="5.81004">
        <ele>1427.21</ele>
        <time>2012-05-27T15:39:41Z</time>
      </trkpt>
      <trkpt lat="45.28127" lon="5.81004">
        <ele>1427.7</ele>
        <time>2012-05-27T15:40:11Z</time>
      </trkpt>
      <trkpt lat="45.28127" lon="5.81004">
        <ele>1427.7</ele>
        <time>2012-05-27T15:40:41Z</time>
      </trkpt>
      <trkpt lat="45.28127" lon="5.81003">
        <ele>1427.7</ele>
        <time>2012-05-27T15:41:11Z</time>
      </trkpt>
      <trkpt lat="45.28127" lon="5.81003">
        <ele>1427.21</ele>
        <time>2012-05-27T15:41:41Z</time>
      </trkpt>
      <trkpt lat="45.28127" lon="5.81003">
        <ele>1427.21</ele>
        <time>2012-05-27T15:42:11Z</time>
      </trkpt>
      <trkpt lat="45.28127" lon="5.81003">
        <ele>1427.7</ele>
        <time>2012-05-27T15:42:41Z</time>
      </trkpt>
      <trkpt lat="45.28127" lon="5.81003">
        <ele>1427.7</ele>
        <time>2012-05-27T15:43:11Z</time>
      </trkpt>
      <trkpt lat="45.28127" lon="5.81003">
        <ele>1428.18</ele>
        <time>2012-05-27T15:43:41Z</time>
      </trkpt>
      <trkpt lat="45.28127" lon="5.81003">
        <ele>1428.66</ele>
        <time>2012-05-27T15:44:11Z</time>
      </trkpt>
      <trkpt lat="45.28127" lon="5.81003">
        <ele>1429.14</ele>
        <time>2012-05-27T15:44:41Z</time>
      </trkpt>
      <trkpt lat="45.28127" lon="5.81003">
        <ele>1429.14</ele>
        <time>2012-05-27T15:45:11Z</time>
      </trkpt>
      <trkpt lat="45.28127" lon="5.81003">
        <ele>1429.14</ele>
        <time>2012-05-27T15:45:41Z</time>
      </trkpt>
      <trkpt lat="45.28127" lon="5.81003">
        <ele>1429.62</ele>
        <time>2012-05-27T15:46:11Z</time>
      </trkpt>
      <trkpt lat="45.28126" lon="5.81002">
        <ele>1429.62</ele>
        <time>2012-05-27T15:46:41Z</time>
      </trkpt>
      <trkpt lat="45.28126" lon="5.81002">
        <ele>1429.62</ele>
        <time>2012-05-27T15:47:11Z</time>
      </trkpt>
      <trkpt lat="45.28126" lon="5.81002">
        <ele>1430.1</ele>
        <time>2012-05-27T15:47:41Z</time>
      </trkpt>
      <trkpt lat="45.28127" lon="5.81001">
        <ele>1430.58</ele>
        <time>2012-05-27T15:48:11Z</time>
      </trkpt>
      <trkpt lat="45.28127" lon="5.81001">
        <ele>1430.58</ele>
        <time>2012-05-27T15:48:41Z</time>
      </trkpt>
      <trkpt lat="45.28127" lon="5.81001">
        <ele>1430.58</ele>
        <time>2012-05-27T15:49:11Z</time>
      </trkpt>
      <trkpt lat="45.28127" lon="5.81001">
        <ele>1431.06</ele>
        <time>2012-05-27T15:49:41Z</time>
      </trkpt>
      <trkpt lat="45.28127" lon="5.81001">
        <ele>1430.58</ele>
        <time>2012-05-27T15:50:11Z</time>
      </trkpt>
      <trkpt lat="45.28127" lon="5.81001">
        <ele>1431.06</ele>
        <time>2012-05-27T15:50:41Z</time>
      </trkpt>
      <trkpt lat="45.28127" lon="5.81">
        <ele>1430.58</ele>
        <time>2012-05-27T15:51:11Z</time>
      </trkpt>
      <trkpt lat="45.28127" lon="5.81">
        <ele>1430.58</ele>
        <time>2012-05-27T15:51:41Z</time>
      </trkpt>
      <trkpt lat="45.28127" lon="5.81">
        <ele>1430.58</ele>
        <time>2012-05-27T15:52:11Z</time>
      </trkpt>
      <trkpt lat="45.28127" lon="5.81">
        <ele>1431.06</ele>
        <time>2012-05-27T15:52:41Z</time>
      </trkpt>
      <trkpt lat="45.28127" lon="5.81">
        <ele>1430.1</ele>
        <time>2012-05-27T15:53:11Z</time>
      </trkpt>
      <trkpt lat="45.28127" lon="5.81">
        <ele>1430.58</ele>
        <time>2012-05-27T15:53:41Z</time>
      </trkpt>
      <trkpt lat="45.28127" lon="5.81">
        <ele>1430.1</ele>
        <time>2012-05-27T15:54:11Z</time>
      </trkpt>
      <trkpt lat="45.28127" lon="5.81">
        <ele>1430.1</ele>
        <time>2012-05-27T15:54:41Z</time>
      </trkpt>
      <trkpt lat="45.28127" lon="5.81001">
        <ele>1431.06</ele>
        <time>2012-05-27T15:55:11Z</time>
      </trkpt>
      <trkpt lat="45.28127" lon="5.81001">
        <ele>1430.58</ele>
        <time>2012-05-27T15:55:41Z</time>
      </trkpt>
      <trkpt lat="45.28127" lon="5.81001">
        <ele>1430.58</ele>
        <time>2012-05-27T15:56:11Z</time>
      </trkpt>
      <trkpt lat="45.28127" lon="5.81">
        <ele>1431.06</ele>
        <time>2012-05-27T15:56:41Z</time>
      </trkpt>
      <trkpt lat="45.28126" lon="5.80999">
        <ele>1431.06</ele>
        <time>2012-05-27T15:57:11Z</time>
      </trkpt>
      <trkpt lat="45.28125" lon="5.80999">
        <ele>1431.06</ele>
        <time>2012-05-27T15:57:41Z</time>
      </trkpt>
      <trkpt lat="45.28125" lon="5.80998">
        <ele>1432.02</ele>
        <time>2012-05-27T15:58:11Z</time>
      </trkpt>
      <trkpt lat="45.28131" lon="5.80999">
        <ele>1432.02</ele>
        <time>2012-05-27T15:58:41Z</time>
      </trkpt>
      <trkpt lat="45.28142" lon="5.80979">
        <ele>1430.1</ele>
        <time>2012-05-27T15:59:11Z</time>
      </trkpt>
      <trkpt lat="45.28153" lon="5.8094">
        <ele>1425.29</ele>
        <time>2012-05-27T15:59:41Z</time>
      </trkpt>
      <trkpt lat="45.28165" lon="5.80897">
        <ele>1421.45</ele>
        <time>2012-05-27T16:00:11Z</time>
      </trkpt>
      <trkpt lat="45.2818" lon="5.80848">
        <ele>1419.52</ele>
        <time>2012-05-27T16:00:41Z</time>
      </trkpt>
      <trkpt lat="45.28196" lon="5.808">
        <ele>1419.52</ele>
        <time>2012-05-27T16:01:11Z</time>
      </trkpt>
      <trkpt lat="45.28219" lon="5.80757">
        <ele>1420.49</ele>
        <time>2012-05-27T16:01:41Z</time>
      </trkpt>
      <trkpt lat="45.28222" lon="5.8075">
        <ele>1421.93</ele>
        <time>2012-05-27T16:02:11Z</time>
      </trkpt>
      <trkpt lat="45.28234" lon="5.80721">
        <ele>1424.33</ele>
        <time>2012-05-27T16:02:41Z</time>
      </trkpt>
      <trkpt lat="45.28236" lon="5.80701">
        <ele>1425.29</ele>
        <time>2012-05-27T16:03:11Z</time>
      </trkpt>
      <trkpt lat="45.28236" lon="5.80705">
        <ele>1425.29</ele>
        <time>2012-05-27T16:03:41Z</time>
      </trkpt>
      <trkpt lat="45.28231" lon="5.80729">
        <ele>1423.37</ele>
        <time>2012-05-27T16:04:11Z</time>
      </trkpt>
      <trkpt lat="45.28233" lon="5.80715">
        <ele>1424.81</ele>
        <time>2012-05-27T16:04:41Z</time>
      </trkpt>
      <trkpt lat="45.28239" lon="5.80682">
        <ele>1421.45</ele>
        <time>2012-05-27T16:05:11Z</time>
      </trkpt>
      <trkpt lat="45.28249" lon="5.80651">
        <ele>1416.16</ele>
        <time>2012-05-27T16:05:41Z</time>
      </trkpt>
      <trkpt lat="45.28259" lon="5.80623">
        <ele>1418.08</ele>
        <time>2012-05-27T16:06:11Z</time>
      </trkpt>
      <trkpt lat="45.28278" lon="5.80594">
        <ele>1416.64</ele>
        <time>2012-05-27T16:06:41Z</time>
      </trkpt>
      <trkpt lat="45.28296" lon="5.80558">
        <ele>1415.68</ele>
        <time>2012-05-27T16:07:11Z</time>
      </trkpt>
      <trkpt lat="45.28316" lon="5.80518">
        <ele>1413.76</ele>
        <time>2012-05-27T16:07:41Z</time>
      </trkpt>
      <trkpt lat="45.28328" lon="5.80485">
        <ele>1411.35</ele>
        <time>2012-05-27T16:08:11Z</time>
      </trkpt>
      <trkpt lat="45.28343" lon="5.80459">
        <ele>1406.07</ele>
        <time>2012-05-27T16:08:41Z</time>
      </trkpt>
      <trkpt lat="45.28339" lon="5.80444">
        <ele>1400.3</ele>
        <time>2012-05-27T16:09:11Z</time>
      </trkpt>
      <trkpt lat="45.28354" lon="5.8043">
        <ele>1394.53</ele>
        <time>2012-05-27T16:09:41Z</time>
      </trkpt>
      <trkpt lat="45.28372" lon="5.80413">
        <ele>1389.24</ele>
        <time>2012-05-27T16:10:11Z</time>
      </trkpt>
      <trkpt lat="45.28369" lon="5.80398">
        <ele>1383.96</ele>
        <time>2012-05-27T16:10:41Z</time>
      </trkpt>
      <trkpt lat="45.28369" lon="5.80389">
        <ele>1379.15</ele>
        <time>2012-05-27T16:11:11Z</time>
      </trkpt>
      <trkpt lat="45.2837" lon="5.80377">
        <ele>1377.23</ele>
        <time>2012-05-27T16:11:41Z</time>
      </trkpt>
      <trkpt lat="45.28376" lon="5.80376">
        <ele>1382.03</ele>
        <time>2012-05-27T16:12:11Z</time>
      </trkpt>
      <trkpt lat="45.28384" lon="5.80385">
        <ele>1385.88</ele>
        <time>2012-05-27T16:12:41Z</time>
      </trkpt>
      <trkpt lat="45.28396" lon="5.80363">
        <ele>1389.72</ele>
        <time>2012-05-27T16:13:11Z</time>
      </trkpt>
      <trkpt lat="45.28401" lon="5.80337">
        <ele>1395.01</ele>
        <time>2012-05-27T16:13:41Z</time>
      </trkpt>
      <trkpt lat="45.28405" lon="5.80328">
        <ele>1396.93</ele>
        <time>2012-05-27T16:14:11Z</time>
      </trkpt>
      <trkpt lat="45.28421" lon="5.80314">
        <ele>1391.65</ele>
        <time>2012-05-27T16:14:41Z</time>
      </trkpt>
      <trkpt lat="45.28432" lon="5.80288">
        <ele>1388.28</ele>
        <time>2012-05-27T16:15:11Z</time>
      </trkpt>
      <trkpt lat="45.28449" lon="5.80264">
        <ele>1388.76</ele>
        <time>2012-05-27T16:15:41Z</time>
      </trkpt>
      <trkpt lat="45.28465" lon="5.80222">
        <ele>1387.32</ele>
        <time>2012-05-27T16:16:11Z</time>
      </trkpt>
      <trkpt lat="45.28472" lon="5.80178">
        <ele>1386.84</ele>
        <time>2012-05-27T16:16:41Z</time>
      </trkpt>
      <trkpt lat="45.28473" lon="5.80139">
        <ele>1388.76</ele>
        <time>2012-05-27T16:17:11Z</time>
      </trkpt>
      <trkpt lat="45.28474" lon="5.80104">
        <ele>1388.76</ele>
        <time>2012-05-27T16:17:41Z</time>
      </trkpt>
      <trkpt lat="45.28478" lon="5.80065">
        <ele>1391.17</ele>
        <time>2012-05-27T16:18:11Z</time>
      </trkpt>
      <trkpt lat="45.28472" lon="5.80036">
        <ele>1394.53</ele>
        <time>2012-05-27T16:18:41Z</time>
      </trkpt>
      <trkpt lat="45.28466" lon="5.80015">
        <ele>1399.82</ele>
        <time>2012-05-27T16:19:11Z</time>
      </trkpt>
      <trkpt lat="45.28463" lon="5.79991">
        <ele>1404.14</ele>
        <time>2012-05-27T16:19:41Z</time>
      </trkpt>
      <trkpt lat="45.28453" lon="5.79969">
        <ele>1407.99</ele>
        <time>2012-05-27T16:20:11Z</time>
      </trkpt>
      <trkpt lat="45.28454" lon="5.79946">
        <ele>1414.24</ele>
        <time>2012-05-27T16:20:41Z</time>
      </trkpt>
      <trkpt lat="45.28447" lon="5.79924">
        <ele>1418.08</ele>
        <time>2012-05-27T16:21:11Z</time>
      </trkpt>
      <trkpt lat="45.28445" lon="5.79902">
        <ele>1422.41</ele>
        <time>2012-05-27T16:21:41Z</time>
      </trkpt>
      <trkpt lat="45.28436" lon="5.79875">
        <ele>1427.7</ele>
        <time>2012-05-27T16:22:11Z</time>
      </trkpt>
      <trkpt lat="45.28435" lon="5.79875">
        <ele>1427.21</ele>
        <time>2012-05-27T16:22:41Z</time>
      </trkpt>
      <trkpt lat="45.28436" lon="5.79875">
        <ele>1426.73</ele>
        <time>2012-05-27T16:23:11Z</time>
      </trkpt>
      <trkpt lat="45.28435" lon="5.79876">
        <ele>1426.25</ele>
        <time>2012-05-27T16:23:41Z</time>
      </trkpt>
      <trkpt lat="45.28435" lon="5.79876">
        <ele>1426.25</ele>
        <time>2012-05-27T16:24:11Z</time>
      </trkpt>
      <trkpt lat="45.28435" lon="5.79877">
        <ele>1426.73</ele>
        <time>2012-05-27T16:24:41Z</time>
      </trkpt>
      <trkpt lat="45.28436" lon="5.79868">
        <ele>1430.1</ele>
        <time>2012-05-27T16:25:11Z</time>
      </trkpt>
      <trkpt lat="45.28442" lon="5.79846">
        <ele>1434.91</ele>
        <time>2012-05-27T16:25:41Z</time>
      </trkpt>
      <trkpt lat="45.28443" lon="5.79843">
        <ele>1439.71</ele>
        <time>2012-05-27T16:26:11Z</time>
      </trkpt>
      <trkpt lat="45.28443" lon="5.79827">
        <ele>1445.96</ele>
        <time>2012-05-27T16:26:41Z</time>
      </trkpt>
      <trkpt lat="45.2844" lon="5.79813">
        <ele>1449.81</ele>
        <time>2012-05-27T16:27:11Z</time>
      </trkpt>
      <trkpt lat="45.28439" lon="5.79793">
        <ele>1453.65</ele>
        <time>2012-05-27T16:27:41Z</time>
      </trkpt>
      <trkpt lat="45.28428" lon="5.79763">
        <ele>1457.98</ele>
        <time>2012-05-27T16:28:11Z</time>
      </trkpt>
      <trkpt lat="45.28416" lon="5.79748">
        <ele>1460.86</ele>
        <time>2012-05-27T16:28:41Z</time>
      </trkpt>
      <trkpt lat="45.28399" lon="5.79731">
        <ele>1464.71</ele>
        <time>2012-05-27T16:29:11Z</time>
      </trkpt>
      <trkpt lat="45.28408" lon="5.79739">
        <ele>1468.07</ele>
        <time>2012-05-27T16:29:41Z</time>
      </trkpt>
      <trkpt lat="45.28422" lon="5.79743">
        <ele>1471.92</ele>
        <time>2012-05-27T16:30:11Z</time>
      </trkpt>
      <trkpt lat="45.28449" lon="5.79739">
        <ele>1475.28</ele>
        <time>2012-05-27T16:30:41Z</time>
      </trkpt>
      <trkpt lat="45.28452" lon="5.79718">
        <ele>1479.61</ele>
        <time>2012-05-27T16:31:11Z</time>
      </trkpt>
      <trkpt lat="45.2844" lon="5.79694">
        <ele>1483.45</ele>
        <time>2012-05-27T16:31:41Z</time>
      </trkpt>
      <trkpt lat="45.28427" lon="5.7968">
        <ele>1486.82</ele>
        <time>2012-05-27T16:32:11Z</time>
      </trkpt>
      <trkpt lat="45.28443" lon="5.79685">
        <ele>1492.1</ele>
        <time>2012-05-27T16:32:41Z</time>
      </trkpt>
      <trkpt lat="45.28453" lon="5.79663">
        <ele>1497.39</ele>
        <time>2012-05-27T16:33:11Z</time>
      </trkpt>
      <trkpt lat="45.28442" lon="5.7964">
        <ele>1503.16</ele>
        <time>2012-05-27T16:33:41Z</time>
      </trkpt>
      <trkpt lat="45.28437" lon="5.7962">
        <ele>1507.48</ele>
        <time>2012-05-27T16:34:11Z</time>
      </trkpt>
      <trkpt lat="45.28428" lon="5.79606">
        <ele>1513.25</ele>
        <time>2012-05-27T16:34:41Z</time>
      </trkpt>
      <trkpt lat="45.28424" lon="5.79599">
        <ele>1515.18</ele>
        <time>2012-05-27T16:35:11Z</time>
      </trkpt>
      <trkpt lat="45.28424" lon="5.79599">
        <ele>1515.18</ele>
        <time>2012-05-27T16:35:41Z</time>
      </trkpt>
      <trkpt lat="45.28424" lon="5.79599">
        <ele>1515.18</ele>
        <time>2012-05-27T16:36:11Z</time>
      </trkpt>
      <trkpt lat="45.28424" lon="5.79599">
        <ele>1515.66</ele>
        <time>2012-05-27T16:36:41Z</time>
      </trkpt>
      <trkpt lat="45.28426" lon="5.79583">
        <ele>1519.5</ele>
        <time>2012-05-27T16:37:11Z</time>
      </trkpt>
      <trkpt lat="45.28424" lon="5.79558">
        <ele>1524.31</ele>
        <time>2012-05-27T16:37:41Z</time>
      </trkpt>
      <trkpt lat="45.28414" lon="5.79534">
        <ele>1529.11</ele>
        <time>2012-05-27T16:38:11Z</time>
      </trkpt>
      <trkpt lat="45.2841" lon="5.79511">
        <ele>1534.4</ele>
        <time>2012-05-27T16:38:41Z</time>
      </trkpt>
      <trkpt lat="45.28411" lon="5.79498">
        <ele>1540.17</ele>
        <time>2012-05-27T16:39:11Z</time>
      </trkpt>
      <trkpt lat="45.28415" lon="5.79464">
        <ele>1542.09</ele>
        <time>2012-05-27T16:39:41Z</time>
      </trkpt>
      <trkpt lat="45.28414" lon="5.79431">
        <ele>1547.38</ele>
        <time>2012-05-27T16:40:11Z</time>
      </trkpt>
      <trkpt lat="45.28398" lon="5.79407">
        <ele>1548.82</ele>
        <time>2012-05-27T16:40:41Z</time>
      </trkpt>
      <trkpt lat="45.28383" lon="5.79391">
        <ele>1552.19</ele>
        <time>2012-05-27T16:41:11Z</time>
      </trkpt>
      <trkpt lat="45.28368" lon="5.79381">
        <ele>1557.47</ele>
        <time>2012-05-27T16:41:41Z</time>
      </trkpt>
      <trkpt lat="45.28358" lon="5.79381">
        <ele>1559.88</ele>
        <time>2012-05-27T16:42:11Z</time>
      </trkpt>
      <trkpt lat="45.28358" lon="5.79379">
        <ele>1559.88</ele>
        <time>2012-05-27T16:42:41Z</time>
      </trkpt>
      <trkpt lat="45.28358" lon="5.79379">
        <ele>1559.4</ele>
        <time>2012-05-27T16:43:11Z</time>
      </trkpt>
      <trkpt lat="45.28358" lon="5.79379">
        <ele>1559.88</ele>
        <time>2012-05-27T16:43:41Z</time>
      </trkpt>
      <trkpt lat="45.28358" lon="5.7938">
        <ele>1559.88</ele>
        <time>2012-05-27T16:44:11Z</time>
      </trkpt>
      <trkpt lat="45.28358" lon="5.79381">
        <ele>1558.43</ele>
        <time>2012-05-27T16:44:41Z</time>
      </trkpt>
      <trkpt lat="45.28358" lon="5.79381">
        <ele>1558.92</ele>
        <time>2012-05-27T16:45:11Z</time>
      </trkpt>
      <trkpt lat="45.28358" lon="5.79381">
        <ele>1557.47</ele>
        <time>2012-05-27T16:45:41Z</time>
      </trkpt>
      <trkpt lat="45.28342" lon="5.79394">
        <ele>1564.2</ele>
        <time>2012-05-27T16:46:11Z</time>
      </trkpt>
      <trkpt lat="45.28323" lon="5.79402">
        <ele>1566.61</ele>
        <time>2012-05-27T16:46:41Z</time>
      </trkpt>
      <trkpt lat="45.28305" lon="5.79389">
        <ele>1571.89</ele>
        <time>2012-05-27T16:47:11Z</time>
      </trkpt>
      <trkpt lat="45.28286" lon="5.79367">
        <ele>1573.82</ele>
        <time>2012-05-27T16:47:41Z</time>
      </trkpt>
      <trkpt lat="45.28267" lon="5.79347">
        <ele>1575.26</ele>
        <time>2012-05-27T16:48:11Z</time>
      </trkpt>
      <trkpt lat="45.28245" lon="5.79326">
        <ele>1578.14</ele>
        <time>2012-05-27T16:48:41Z</time>
      </trkpt>
      <trkpt lat="45.28225" lon="5.79305">
        <ele>1580.06</ele>
        <time>2012-05-27T16:49:11Z</time>
      </trkpt>
      <trkpt lat="45.2822" lon="5.79299">
        <ele>1581.51</ele>
        <time>2012-05-27T16:49:41Z</time>
      </trkpt>
      <trkpt lat="45.28201" lon="5.79281">
        <ele>1580.54</ele>
        <time>2012-05-27T16:50:11Z</time>
      </trkpt>
      <trkpt lat="45.28178" lon="5.79261">
        <ele>1584.39</ele>
        <time>2012-05-27T16:50:41Z</time>
      </trkpt>
      <trkpt lat="45.28156" lon="5.79251">
        <ele>1582.47</ele>
        <time>2012-05-27T16:51:11Z</time>
      </trkpt>
      <trkpt lat="45.28146" lon="5.79251">
        <ele>1583.91</ele>
        <time>2012-05-27T16:51:41Z</time>
      </trkpt>
      <trkpt lat="45.28121" lon="5.79239">
        <ele>1582.47</ele>
        <time>2012-05-27T16:52:11Z</time>
      </trkpt>
      <trkpt lat="45.28101" lon="5.79225">
        <ele>1581.51</ele>
        <time>2012-05-27T16:52:41Z</time>
      </trkpt>
      <trkpt lat="45.28073" lon="5.79204">
        <ele>1582.47</ele>
        <time>2012-05-27T16:53:11Z</time>
      </trkpt>
      <trkpt lat="45.28047" lon="5.7919">
        <ele>1584.87</ele>
        <time>2012-05-27T16:53:41Z</time>
      </trkpt>
      <trkpt lat="45.28024" lon="5.79191">
        <ele>1583.91</ele>
        <time>2012-05-27T16:54:11Z</time>
      </trkpt>
      <trkpt lat="45.28008" lon="5.7921">
        <ele>1577.66</ele>
        <time>2012-05-27T16:54:41Z</time>
      </trkpt>
      <trkpt lat="45.27996" lon="5.79243">
        <ele>1568.53</ele>
        <time>2012-05-27T16:55:11Z</time>
      </trkpt>
      <trkpt lat="45.27995" lon="5.79246">
        <ele>1566.12</ele>
        <time>2012-05-27T16:55:41Z</time>
      </trkpt>
      <trkpt lat="45.27993" lon="5.79246">
        <ele>1566.12</ele>
        <time>2012-05-27T16:56:11Z</time>
      </trkpt>
      <trkpt lat="45.27992" lon="5.79245">
        <ele>1565.16</ele>
        <time>2012-05-27T16:56:41Z</time>
      </trkpt>
      <trkpt lat="45.27992" lon="5.79245">
        <ele>1565.16</ele>
        <time>2012-05-27T16:57:11Z</time>
      </trkpt>
      <trkpt lat="45.27992" lon="5.79245">
        <ele>1564.2</ele>
        <time>2012-05-27T16:57:41Z</time>
      </trkpt>
      <trkpt lat="45.27991" lon="5.79246">
        <ele>1564.2</ele>
        <time>2012-05-27T16:58:11Z</time>
      </trkpt>
      <trkpt lat="45.2799" lon="5.79248">
        <ele>1564.2</ele>
        <time>2012-05-27T16:58:41Z</time>
      </trkpt>
      <trkpt lat="45.2799" lon="5.79248">
        <ele>1563.72</ele>
        <time>2012-05-27T16:59:11Z</time>
      </trkpt>
      <trkpt lat="45.2799" lon="5.79248">
        <ele>1563.72</ele>
        <time>2012-05-27T16:59:41Z</time>
      </trkpt>
      <trkpt lat="45.27991" lon="5.79248">
        <ele>1563.24</ele>
        <time>2012-05-27T17:00:11Z</time>
      </trkpt>
      <trkpt lat="45.2799" lon="5.79249">
        <ele>1563.24</ele>
        <time>2012-05-27T17:00:41Z</time>
      </trkpt>
      <trkpt lat="45.2799" lon="5.79249">
        <ele>1563.24</ele>
        <time>2012-05-27T17:01:11Z</time>
      </trkpt>
      <trkpt lat="45.2799" lon="5.79249">
        <ele>1563.72</ele>
        <time>2012-05-27T17:01:41Z</time>
      </trkpt>
      <trkpt lat="45.2799" lon="5.79249">
        <ele>1563.24</ele>
        <time>2012-05-27T17:02:11Z</time>
      </trkpt>
      <trkpt lat="45.2799" lon="5.79249">
        <ele>1563.72</ele>
        <time>2012-05-27T17:02:41Z</time>
      </trkpt>
      <trkpt lat="45.2799" lon="5.79249">
        <ele>1563.24</ele>
        <time>2012-05-27T17:03:11Z</time>
      </trkpt>
      <trkpt lat="45.2799" lon="5.79249">
        <ele>1564.2</ele>
        <time>2012-05-27T17:03:41Z</time>
      </trkpt>
      <trkpt lat="45.2799" lon="5.79249">
        <ele>1564.2</ele>
        <time>2012-05-27T17:04:11Z</time>
      </trkpt>
      <trkpt lat="45.2799" lon="5.79249">
        <ele>1564.2</ele>
        <time>2012-05-27T17:04:41Z</time>
      </trkpt>
      <trkpt lat="45.2799" lon="5.79249">
        <ele>1564.68</ele>
        <time>2012-05-27T17:05:11Z</time>
      </trkpt>
      <trkpt lat="45.2799" lon="5.79249">
        <ele>1565.16</ele>
        <time>2012-05-27T17:05:41Z</time>
      </trkpt>
      <trkpt lat="45.2799" lon="5.79249">
        <ele>1564.68</ele>
        <time>2012-05-27T17:06:11Z</time>
      </trkpt>
      <trkpt lat="45.27991" lon="5.7925">
        <ele>1564.68</ele>
        <time>2012-05-27T17:06:41Z</time>
      </trkpt>
      <trkpt lat="45.27991" lon="5.7925">
        <ele>1564.2</ele>
        <time>2012-05-27T17:07:11Z</time>
      </trkpt>
      <trkpt lat="45.2799" lon="5.7925">
        <ele>1565.16</ele>
        <time>2012-05-27T17:07:41Z</time>
      </trkpt>
      <trkpt lat="45.2799" lon="5.7925">
        <ele>1565.16</ele>
        <time>2012-05-27T17:08:11Z</time>
      </trkpt>
      <trkpt lat="45.2799" lon="5.7925">
        <ele>1565.16</ele>
        <time>2012-05-27T17:08:41Z</time>
      </trkpt>
      <trkpt lat="45.2799" lon="5.7925">
        <ele>1565.16</ele>
        <time>2012-05-27T17:09:11Z</time>
      </trkpt>
      <trkpt lat="45.27991" lon="5.7925">
        <ele>1566.12</ele>
        <time>2012-05-27T17:09:41Z</time>
      </trkpt>
      <trkpt lat="45.2799" lon="5.79263">
        <ele>1565.64</ele>
        <time>2012-05-27T17:10:11Z</time>
      </trkpt>
      <trkpt lat="45.27992" lon="5.7925">
        <ele>1567.09</ele>
        <time>2012-05-27T17:10:41Z</time>
      </trkpt>
      <trkpt lat="45.27973" lon="5.79256">
        <ele>1565.64</ele>
        <time>2012-05-27T17:11:11Z</time>
      </trkpt>
      <trkpt lat="45.28031" lon="5.79171">
        <ele>1569.97</ele>
        <time>2012-05-28T07:46:16Z</time>
      </trkpt>
      <trkpt lat="45.28026" lon="5.79186">
        <ele>1569.97</ele>
        <time>2012-05-28T07:46:46Z</time>
      </trkpt>
      <trkpt lat="45.28028" lon="5.79182">
        <ele>1581.99</ele>
        <time>2012-05-28T07:47:16Z</time>
      </trkpt>
      <trkpt lat="45.28028" lon="5.79181">
        <ele>1586.31</ele>
        <time>2012-05-28T07:47:46Z</time>
      </trkpt>
      <trkpt lat="45.28032" lon="5.79158">
        <ele>1589.2</ele>
        <time>2012-05-28T07:48:16Z</time>
      </trkpt>
      <trkpt lat="45.28036" lon="5.7912">
        <ele>1589.68</ele>
        <time>2012-05-28T07:48:46Z</time>
      </trkpt>
      <trkpt lat="45.28047" lon="5.7908">
        <ele>1596.41</ele>
        <time>2012-05-28T07:49:16Z</time>
      </trkpt>
      <trkpt lat="45.2806" lon="5.79054">
        <ele>1601.69</ele>
        <time>2012-05-28T07:49:46Z</time>
      </trkpt>
      <trkpt lat="45.28066" lon="5.79015">
        <ele>1606.98</ele>
        <time>2012-05-28T07:50:16Z</time>
      </trkpt>
      <trkpt lat="45.2807" lon="5.78987">
        <ele>1611.31</ele>
        <time>2012-05-28T07:50:46Z</time>
      </trkpt>
      <trkpt lat="45.28091" lon="5.78927">
        <ele>1615.15</ele>
        <time>2012-05-28T07:51:16Z</time>
      </trkpt>
      <trkpt lat="45.28101" lon="5.78886">
        <ele>1619.48</ele>
        <time>2012-05-28T07:51:46Z</time>
      </trkpt>
      <trkpt lat="45.28078" lon="5.78865">
        <ele>1619</ele>
        <time>2012-05-28T07:52:16Z</time>
      </trkpt>
      <trkpt lat="45.28063" lon="5.78815">
        <ele>1618.52</ele>
        <time>2012-05-28T07:52:46Z</time>
      </trkpt>
      <trkpt lat="45.28057" lon="5.7877">
        <ele>1620.92</ele>
        <time>2012-05-28T07:53:16Z</time>
      </trkpt>
      <trkpt lat="45.28054" lon="5.78716">
        <ele>1619.48</ele>
        <time>2012-05-28T07:53:46Z</time>
      </trkpt>
      <trkpt lat="45.28052" lon="5.78678">
        <ele>1621.88</ele>
        <time>2012-05-28T07:54:16Z</time>
      </trkpt>
      <trkpt lat="45.28035" lon="5.78641">
        <ele>1623.32</ele>
        <time>2012-05-28T07:54:46Z</time>
      </trkpt>
      <trkpt lat="45.28028" lon="5.786">
        <ele>1623.8</ele>
        <time>2012-05-28T07:55:16Z</time>
      </trkpt>
      <trkpt lat="45.28016" lon="5.78586">
        <ele>1623.32</ele>
        <time>2012-05-28T07:55:46Z</time>
      </trkpt>
      <trkpt lat="45.28015" lon="5.7858">
        <ele>1623.8</ele>
        <time>2012-05-28T07:56:16Z</time>
      </trkpt>
      <trkpt lat="45.28003" lon="5.78545">
        <ele>1623.8</ele>
        <time>2012-05-28T07:56:46Z</time>
      </trkpt>
      <trkpt lat="45.27996" lon="5.78505">
        <ele>1625.73</ele>
        <time>2012-05-28T07:57:16Z</time>
      </trkpt>
      <trkpt lat="45.27988" lon="5.78472">
        <ele>1628.61</ele>
        <time>2012-05-28T07:57:46Z</time>
      </trkpt>
      <trkpt lat="45.27965" lon="5.7844">
        <ele>1630.53</ele>
        <time>2012-05-28T07:58:16Z</time>
      </trkpt>
      <trkpt lat="45.27951" lon="5.78403">
        <ele>1633.42</ele>
        <time>2012-05-28T07:58:46Z</time>
      </trkpt>
      <trkpt lat="45.27948" lon="5.78357">
        <ele>1633.42</ele>
        <time>2012-05-28T07:59:16Z</time>
      </trkpt>
      <trkpt lat="45.27946" lon="5.78306">
        <ele>1633.42</ele>
        <time>2012-05-28T07:59:46Z</time>
      </trkpt>
      <trkpt lat="45.27938" lon="5.78271">
        <ele>1635.34</ele>
        <time>2012-05-28T08:00:16Z</time>
      </trkpt>
      <trkpt lat="45.27929" lon="5.78223">
        <ele>1633.9</ele>
        <time>2012-05-28T08:00:46Z</time>
      </trkpt>
      <trkpt lat="45.27918" lon="5.78189">
        <ele>1628.13</ele>
        <time>2012-05-28T08:01:16Z</time>
      </trkpt>
      <trkpt lat="45.279" lon="5.78161">
        <ele>1628.61</ele>
        <time>2012-05-28T08:01:46Z</time>
      </trkpt>
      <trkpt lat="45.2788" lon="5.78138">
        <ele>1628.61</ele>
        <time>2012-05-28T08:02:16Z</time>
      </trkpt>
      <trkpt lat="45.27867" lon="5.78109">
        <ele>1629.57</ele>
        <time>2012-05-28T08:02:46Z</time>
      </trkpt>
      <trkpt lat="45.27878" lon="5.78078">
        <ele>1627.17</ele>
        <time>2012-05-28T08:03:16Z</time>
      </trkpt>
      <trkpt lat="45.27889" lon="5.78057">
        <ele>1630.05</ele>
        <time>2012-05-28T08:03:46Z</time>
      </trkpt>
      <trkpt lat="45.27906" lon="5.78043">
        <ele>1628.13</ele>
        <time>2012-05-28T08:04:16Z</time>
      </trkpt>
      <trkpt lat="45.27926" lon="5.78001">
        <ele>1628.13</ele>
        <time>2012-05-28T08:04:46Z</time>
      </trkpt>
      <trkpt lat="45.2793" lon="5.77959">
        <ele>1628.13</ele>
        <time>2012-05-28T08:05:16Z</time>
      </trkpt>
      <trkpt lat="45.27933" lon="5.77937">
        <ele>1629.57</ele>
        <time>2012-05-28T08:05:46Z</time>
      </trkpt>
      <trkpt lat="45.27948" lon="5.77906">
        <ele>1631.01</ele>
        <time>2012-05-28T08:06:16Z</time>
      </trkpt>
      <trkpt lat="45.27967" lon="5.77872">
        <ele>1634.86</ele>
        <time>2012-05-28T08:06:46Z</time>
      </trkpt>
      <trkpt lat="45.27988" lon="5.77848">
        <ele>1636.78</ele>
        <time>2012-05-28T08:07:16Z</time>
      </trkpt>
      <trkpt lat="45.2801" lon="5.77819">
        <ele>1638.7</ele>
        <time>2012-05-28T08:07:46Z</time>
      </trkpt>
      <trkpt lat="45.28028" lon="5.77791">
        <ele>1640.15</ele>
        <time>2012-05-28T08:08:16Z</time>
      </trkpt>
      <trkpt lat="45.28048" lon="5.77768">
        <ele>1640.63</ele>
        <time>2012-05-28T08:08:46Z</time>
      </trkpt>
      <trkpt lat="45.28062" lon="5.77743">
        <ele>1637.26</ele>
        <time>2012-05-28T08:09:16Z</time>
      </trkpt>
      <trkpt lat="45.28089" lon="5.77727">
        <ele>1637.26</ele>
        <time>2012-05-28T08:09:46Z</time>
      </trkpt>
      <trkpt lat="45.28108" lon="5.77699">
        <ele>1634.86</ele>
        <time>2012-05-28T08:10:16Z</time>
      </trkpt>
      <trkpt lat="45.2812" lon="5.77685">
        <ele>1636.78</ele>
        <time>2012-05-28T08:10:46Z</time>
      </trkpt>
      <trkpt lat="45.28149" lon="5.77679">
        <ele>1637.74</ele>
        <time>2012-05-28T08:11:16Z</time>
      </trkpt>
      <trkpt lat="45.28172" lon="5.7769">
        <ele>1641.11</ele>
        <time>2012-05-28T08:11:46Z</time>
      </trkpt>
      <trkpt lat="45.28195" lon="5.77701">
        <ele>1643.51</ele>
        <time>2012-05-28T08:12:16Z</time>
      </trkpt>
      <trkpt lat="45.28222" lon="5.77712">
        <ele>1643.99</ele>
        <time>2012-05-28T08:12:46Z</time>
      </trkpt>
      <trkpt lat="45.28226" lon="5.77716">
        <ele>1645.91</ele>
        <time>2012-05-28T08:13:16Z</time>
      </trkpt>
      <trkpt lat="45.28238" lon="5.77723">
        <ele>1648.32</ele>
        <time>2012-05-28T08:13:46Z</time>
      </trkpt>
      <trkpt lat="45.28269" lon="5.7773">
        <ele>1643.51</ele>
        <time>2012-05-28T08:14:16Z</time>
      </trkpt>
      <trkpt lat="45.28288" lon="5.77739">
        <ele>1642.07</ele>
        <time>2012-05-28T08:14:46Z</time>
      </trkpt>
      <trkpt lat="45.28305" lon="5.7775">
        <ele>1641.59</ele>
        <time>2012-05-28T08:15:16Z</time>
      </trkpt>
      <trkpt lat="45.28327" lon="5.77766">
        <ele>1642.55</ele>
        <time>2012-05-28T08:15:46Z</time>
      </trkpt>
      <trkpt lat="45.28351" lon="5.77784">
        <ele>1638.22</ele>
        <time>2012-05-28T08:16:16Z</time>
      </trkpt>
      <trkpt lat="45.28364" lon="5.77793">
        <ele>1634.86</ele>
        <time>2012-05-28T08:16:46Z</time>
      </trkpt>
      <trkpt lat="45.28383" lon="5.77811">
        <ele>1635.34</ele>
        <time>2012-05-28T08:17:16Z</time>
      </trkpt>
      <trkpt lat="45.28403" lon="5.77824">
        <ele>1636.78</ele>
        <time>2012-05-28T08:17:46Z</time>
      </trkpt>
      <trkpt lat="45.28425" lon="5.77839">
        <ele>1636.3</ele>
        <time>2012-05-28T08:18:16Z</time>
      </trkpt>
      <trkpt lat="45.28453" lon="5.7786">
        <ele>1633.9</ele>
        <time>2012-05-28T08:18:46Z</time>
      </trkpt>
      <trkpt lat="45.28479" lon="5.77878">
        <ele>1633.42</ele>
        <time>2012-05-28T08:19:16Z</time>
      </trkpt>
      <trkpt lat="45.285" lon="5.7789">
        <ele>1628.61</ele>
        <time>2012-05-28T08:19:46Z</time>
      </trkpt>
      <trkpt lat="45.28529" lon="5.779">
        <ele>1628.13</ele>
        <time>2012-05-28T08:20:16Z</time>
      </trkpt>
      <trkpt lat="45.28555" lon="5.77919">
        <ele>1627.17</ele>
        <time>2012-05-28T08:20:46Z</time>
      </trkpt>
      <trkpt lat="45.28575" lon="5.77947">
        <ele>1628.13</ele>
        <time>2012-05-28T08:21:16Z</time>
      </trkpt>
      <trkpt lat="45.2858" lon="5.77958">
        <ele>1631.01</ele>
        <time>2012-05-28T08:21:46Z</time>
      </trkpt>
      <trkpt lat="45.2858" lon="5.77957">
        <ele>1630.53</ele>
        <time>2012-05-28T08:22:16Z</time>
      </trkpt>
      <trkpt lat="45.28581" lon="5.77955">
        <ele>1631.01</ele>
        <time>2012-05-28T08:22:46Z</time>
      </trkpt>
      <trkpt lat="45.28584" lon="5.77956">
        <ele>1630.05</ele>
        <time>2012-05-28T08:23:16Z</time>
      </trkpt>
      <trkpt lat="45.28584" lon="5.77956">
        <ele>1630.53</ele>
        <time>2012-05-28T08:23:46Z</time>
      </trkpt>
      <trkpt lat="45.28583" lon="5.77956">
        <ele>1630.53</ele>
        <time>2012-05-28T08:24:16Z</time>
      </trkpt>
      <trkpt lat="45.28583" lon="5.77956">
        <ele>1629.57</ele>
        <time>2012-05-28T08:24:46Z</time>
      </trkpt>
      <trkpt lat="45.28583" lon="5.77956">
        <ele>1630.53</ele>
        <time>2012-05-28T08:25:16Z</time>
      </trkpt>
      <trkpt lat="45.28591" lon="5.77961">
        <ele>1627.17</ele>
        <time>2012-05-28T08:25:46Z</time>
      </trkpt>
      <trkpt lat="45.28603" lon="5.77958">
        <ele>1621.4</ele>
        <time>2012-05-28T08:26:16Z</time>
      </trkpt>
      <trkpt lat="45.28621" lon="5.77941">
        <ele>1613.71</ele>
        <time>2012-05-28T08:26:46Z</time>
      </trkpt>
      <trkpt lat="45.28636" lon="5.77918">
        <ele>1606.5</ele>
        <time>2012-05-28T08:27:16Z</time>
      </trkpt>
      <trkpt lat="45.28652" lon="5.77894">
        <ele>1599.29</ele>
        <time>2012-05-28T08:27:46Z</time>
      </trkpt>
      <trkpt lat="45.28673" lon="5.7786">
        <ele>1591.6</ele>
        <time>2012-05-28T08:28:16Z</time>
      </trkpt>
      <trkpt lat="45.28698" lon="5.77845">
        <ele>1586.31</ele>
        <time>2012-05-28T08:28:46Z</time>
      </trkpt>
      <trkpt lat="45.28729" lon="5.77839">
        <ele>1580.06</ele>
        <time>2012-05-28T08:29:16Z</time>
      </trkpt>
      <trkpt lat="45.28754" lon="5.77839">
        <ele>1575.74</ele>
        <time>2012-05-28T08:29:46Z</time>
      </trkpt>
      <trkpt lat="45.2878" lon="5.7783">
        <ele>1570.93</ele>
        <time>2012-05-28T08:30:16Z</time>
      </trkpt>
      <trkpt lat="45.28773" lon="5.77812">
        <ele>1566.12</ele>
        <time>2012-05-28T08:30:46Z</time>
      </trkpt>
      <trkpt lat="45.28756" lon="5.77798">
        <ele>1561.8</ele>
        <time>2012-05-28T08:31:16Z</time>
      </trkpt>
      <trkpt lat="45.28725" lon="5.77778">
        <ele>1557.47</ele>
        <time>2012-05-28T08:31:46Z</time>
      </trkpt>
      <trkpt lat="45.28693" lon="5.77767">
        <ele>1550.74</ele>
        <time>2012-05-28T08:32:16Z</time>
      </trkpt>
      <trkpt lat="45.28697" lon="5.77757">
        <ele>1545.46</ele>
        <time>2012-05-28T08:32:46Z</time>
      </trkpt>
      <trkpt lat="45.28728" lon="5.77749">
        <ele>1539.69</ele>
        <time>2012-05-28T08:33:16Z</time>
      </trkpt>
      <trkpt lat="45.28766" lon="5.77745">
        <ele>1533.92</ele>
        <time>2012-05-28T08:33:46Z</time>
      </trkpt>
      <trkpt lat="45.28797" lon="5.77744">
        <ele>1528.63</ele>
        <time>2012-05-28T08:34:16Z</time>
      </trkpt>
      <trkpt lat="45.28828" lon="5.7772">
        <ele>1521.42</ele>
        <time>2012-05-28T08:34:46Z</time>
      </trkpt>
      <trkpt lat="45.28852" lon="5.77682">
        <ele>1516.62</ele>
        <time>2012-05-28T08:35:16Z</time>
      </trkpt>
      <trkpt lat="45.28883" lon="5.7766">
        <ele>1510.85</ele>
        <time>2012-05-28T08:35:46Z</time>
      </trkpt>
      <trkpt lat="45.28913" lon="5.77657">
        <ele>1505.56</ele>
        <time>2012-05-28T08:36:16Z</time>
      </trkpt>
      <trkpt lat="45.28953" lon="5.77652">
        <ele>1499.31</ele>
        <time>2012-05-28T08:36:46Z</time>
      </trkpt>
      <trkpt lat="45.2899" lon="5.77653">
        <ele>1492.58</ele>
        <time>2012-05-28T08:37:16Z</time>
      </trkpt>
      <trkpt lat="45.29019" lon="5.77666">
        <ele>1488.26</ele>
        <time>2012-05-28T08:37:46Z</time>
      </trkpt>
      <trkpt lat="45.29055" lon="5.77673">
        <ele>1480.57</ele>
        <time>2012-05-28T08:38:16Z</time>
      </trkpt>
      <trkpt lat="45.29092" lon="5.77674">
        <ele>1475.28</ele>
        <time>2012-05-28T08:38:46Z</time>
      </trkpt>
      <trkpt lat="45.29126" lon="5.77676">
        <ele>1467.11</ele>
        <time>2012-05-28T08:39:16Z</time>
      </trkpt>
      <trkpt lat="45.29109" lon="5.7763">
        <ele>1461.34</ele>
        <time>2012-05-28T08:39:46Z</time>
      </trkpt>
      <trkpt lat="45.29082" lon="5.77592">
        <ele>1455.09</ele>
        <time>2012-05-28T08:40:16Z</time>
      </trkpt>
      <trkpt lat="45.29067" lon="5.77549">
        <ele>1447.88</ele>
        <time>2012-05-28T08:40:46Z</time>
      </trkpt>
      <trkpt lat="45.29051" lon="5.77505">
        <ele>1441.15</ele>
        <time>2012-05-28T08:41:16Z</time>
      </trkpt>
      <trkpt lat="45.29039" lon="5.77462">
        <ele>1432.5</ele>
        <time>2012-05-28T08:41:46Z</time>
      </trkpt>
      <trkpt lat="45.29014" lon="5.77415">
        <ele>1424.81</ele>
        <time>2012-05-28T08:42:16Z</time>
      </trkpt>
      <trkpt lat="45.28991" lon="5.77381">
        <ele>1416.16</ele>
        <time>2012-05-28T08:42:46Z</time>
      </trkpt>
      <trkpt lat="45.28952" lon="5.77354">
        <ele>1407.51</ele>
        <time>2012-05-28T08:43:16Z</time>
      </trkpt>
      <trkpt lat="45.28922" lon="5.77331">
        <ele>1399.82</ele>
        <time>2012-05-28T08:43:46Z</time>
      </trkpt>
      <trkpt lat="45.28887" lon="5.77302">
        <ele>1391.65</ele>
        <time>2012-05-28T08:44:16Z</time>
      </trkpt>
      <trkpt lat="45.28856" lon="5.77276">
        <ele>1386.84</ele>
        <time>2012-05-28T08:44:46Z</time>
      </trkpt>
      <trkpt lat="45.28827" lon="5.77249">
        <ele>1382.51</ele>
        <time>2012-05-28T08:45:16Z</time>
      </trkpt>
      <trkpt lat="45.2882" lon="5.77205">
        <ele>1376.26</ele>
        <time>2012-05-28T08:45:46Z</time>
      </trkpt>
      <trkpt lat="45.28811" lon="5.77158">
        <ele>1369.54</ele>
        <time>2012-05-28T08:46:16Z</time>
      </trkpt>
      <trkpt lat="45.28815" lon="5.77111">
        <ele>1364.25</ele>
        <time>2012-05-28T08:46:46Z</time>
      </trkpt>
      <trkpt lat="45.28815" lon="5.77063">
        <ele>1356.56</ele>
        <time>2012-05-28T08:47:16Z</time>
      </trkpt>
      <trkpt lat="45.28825" lon="5.77019">
        <ele>1350.79</ele>
        <time>2012-05-28T08:47:46Z</time>
      </trkpt>
      <trkpt lat="45.28848" lon="5.76975">
        <ele>1345.02</ele>
        <time>2012-05-28T08:48:16Z</time>
      </trkpt>
      <trkpt lat="45.28869" lon="5.76938">
        <ele>1340.22</ele>
        <time>2012-05-28T08:48:46Z</time>
      </trkpt>
      <trkpt lat="45.28878" lon="5.76888">
        <ele>1334.93</ele>
        <time>2012-05-28T08:49:16Z</time>
      </trkpt>
      <trkpt lat="45.28882" lon="5.76839">
        <ele>1333.49</ele>
        <time>2012-05-28T08:49:46Z</time>
      </trkpt>
      <trkpt lat="45.28907" lon="5.76804">
        <ele>1333.49</ele>
        <time>2012-05-28T08:50:16Z</time>
      </trkpt>
      <trkpt lat="45.28929" lon="5.76777">
        <ele>1333.49</ele>
        <time>2012-05-28T08:50:46Z</time>
      </trkpt>
      <trkpt lat="45.28962" lon="5.76742">
        <ele>1334.45</ele>
        <time>2012-05-28T08:51:16Z</time>
      </trkpt>
      <trkpt lat="45.28991" lon="5.76715">
        <ele>1333.97</ele>
        <time>2012-05-28T08:51:46Z</time>
      </trkpt>
      <trkpt lat="45.29016" lon="5.76698">
        <ele>1332.52</ele>
        <time>2012-05-28T08:52:16Z</time>
      </trkpt>
      <trkpt lat="45.29049" lon="5.76685">
        <ele>1333.97</ele>
        <time>2012-05-28T08:52:46Z</time>
      </trkpt>
      <trkpt lat="45.29083" lon="5.76672">
        <ele>1334.93</ele>
        <time>2012-05-28T08:53:16Z</time>
      </trkpt>
      <trkpt lat="45.29117" lon="5.76671">
        <ele>1337.33</ele>
        <time>2012-05-28T08:53:46Z</time>
      </trkpt>
      <trkpt lat="45.29152" lon="5.76662">
        <ele>1338.77</ele>
        <time>2012-05-28T08:54:16Z</time>
      </trkpt>
      <trkpt lat="45.29195" lon="5.76653">
        <ele>1338.29</ele>
        <time>2012-05-28T08:54:46Z</time>
      </trkpt>
      <trkpt lat="45.29236" lon="5.7665">
        <ele>1337.81</ele>
        <time>2012-05-28T08:55:16Z</time>
      </trkpt>
      <trkpt lat="45.29276" lon="5.76654">
        <ele>1336.85</ele>
        <time>2012-05-28T08:55:46Z</time>
      </trkpt>
      <trkpt lat="45.29317" lon="5.76643">
        <ele>1337.81</ele>
        <time>2012-05-28T08:56:16Z</time>
      </trkpt>
      <trkpt lat="45.29357" lon="5.76628">
        <ele>1339.25</ele>
        <time>2012-05-28T08:56:46Z</time>
      </trkpt>
      <trkpt lat="45.29395" lon="5.76606">
        <ele>1340.7</ele>
        <time>2012-05-28T08:57:16Z</time>
      </trkpt>
      <trkpt lat="45.29423" lon="5.7658">
        <ele>1341.66</ele>
        <time>2012-05-28T08:57:46Z</time>
      </trkpt>
      <trkpt lat="45.29438" lon="5.76518">
        <ele>1339.25</ele>
        <time>2012-05-28T08:58:16Z</time>
      </trkpt>
      <trkpt lat="45.29469" lon="5.76485">
        <ele>1338.29</ele>
        <time>2012-05-28T08:58:46Z</time>
      </trkpt>
      <trkpt lat="45.29461" lon="5.76429">
        <ele>1335.89</ele>
        <time>2012-05-28T08:59:16Z</time>
      </trkpt>
      <trkpt lat="45.29443" lon="5.76381">
        <ele>1333.49</ele>
        <time>2012-05-28T08:59:46Z</time>
      </trkpt>
      <trkpt lat="45.29437" lon="5.76332">
        <ele>1333.97</ele>
        <time>2012-05-28T09:00:16Z</time>
      </trkpt>
      <trkpt lat="45.2944" lon="5.76305">
        <ele>1335.41</ele>
        <time>2012-05-28T09:00:46Z</time>
      </trkpt>
      <trkpt lat="45.29464" lon="5.76301">
        <ele>1333.97</ele>
        <time>2012-05-28T09:01:16Z</time>
      </trkpt>
      <trkpt lat="45.29446" lon="5.763">
        <ele>1333.49</ele>
        <time>2012-05-28T09:01:46Z</time>
      </trkpt>
      <trkpt lat="45.29439" lon="5.76296">
        <ele>1334.45</ele>
        <time>2012-05-28T09:02:16Z</time>
      </trkpt>
      <trkpt lat="45.2944" lon="5.76282">
        <ele>1339.73</ele>
        <time>2012-05-28T09:02:46Z</time>
      </trkpt>
      <trkpt lat="45.2944" lon="5.76281">
        <ele>1334.45</ele>
        <time>2012-05-28T09:03:16Z</time>
      </trkpt>
      <trkpt lat="45.29438" lon="5.76281">
        <ele>1333.97</ele>
        <time>2012-05-28T09:03:46Z</time>
      </trkpt>
      <trkpt lat="45.29438" lon="5.76281">
        <ele>1335.89</ele>
        <time>2012-05-28T09:04:16Z</time>
      </trkpt>
      <trkpt lat="45.29438" lon="5.7628">
        <ele>1335.89</ele>
        <time>2012-05-28T09:04:46Z</time>
      </trkpt>
      <trkpt lat="45.2945" lon="5.76254">
        <ele>1338.77</ele>
        <time>2012-05-28T09:05:16Z</time>
      </trkpt>
      <trkpt lat="45.29464" lon="5.76208">
        <ele>1344.06</ele>
        <time>2012-05-28T09:05:46Z</time>
      </trkpt>
      <trkpt lat="45.29474" lon="5.76144">
        <ele>1345.98</ele>
        <time>2012-05-28T09:06:16Z</time>
      </trkpt>
      <trkpt lat="45.29481" lon="5.7609">
        <ele>1346.46</ele>
        <time>2012-05-28T09:06:46Z</time>
      </trkpt>
      <trkpt lat="45.29494" lon="5.76044">
        <ele>1346.94</ele>
        <time>2012-05-28T09:07:16Z</time>
      </trkpt>
      <trkpt lat="45.29504" lon="5.75988">
        <ele>1349.83</ele>
        <time>2012-05-28T09:07:46Z</time>
      </trkpt>
      <trkpt lat="45.29518" lon="5.75951">
        <ele>1352.23</ele>
        <time>2012-05-28T09:08:16Z</time>
      </trkpt>
      <trkpt lat="45.29534" lon="5.75933">
        <ele>1356.56</ele>
        <time>2012-05-28T09:08:46Z</time>
      </trkpt>
      <trkpt lat="45.29565" lon="5.75904">
        <ele>1359.44</ele>
        <time>2012-05-28T09:09:16Z</time>
      </trkpt>
      <trkpt lat="45.29585" lon="5.7583">
        <ele>1361.36</ele>
        <time>2012-05-28T09:09:46Z</time>
      </trkpt>
      <trkpt lat="45.29572" lon="5.75773">
        <ele>1362.81</ele>
        <time>2012-05-28T09:10:16Z</time>
      </trkpt>
      <trkpt lat="45.29553" lon="5.75714">
        <ele>1362.33</ele>
        <time>2012-05-28T09:10:46Z</time>
      </trkpt>
      <trkpt lat="45.29541" lon="5.75663">
        <ele>1363.29</ele>
        <time>2012-05-28T09:11:16Z</time>
      </trkpt>
      <trkpt lat="45.29521" lon="5.75626">
        <ele>1365.69</ele>
        <time>2012-05-28T09:11:46Z</time>
      </trkpt>
      <trkpt lat="45.29523" lon="5.75588">
        <ele>1370.5</ele>
        <time>2012-05-28T09:12:16Z</time>
      </trkpt>
      <trkpt lat="45.29525" lon="5.75577">
        <ele>1377.23</ele>
        <time>2012-05-28T09:12:46Z</time>
      </trkpt>
      <trkpt lat="45.29527" lon="5.75548">
        <ele>1382.51</ele>
        <time>2012-05-28T09:13:16Z</time>
      </trkpt>
      <trkpt lat="45.29526" lon="5.75475">
        <ele>1385.88</ele>
        <time>2012-05-28T09:13:46Z</time>
      </trkpt>
      <trkpt lat="45.29521" lon="5.75436">
        <ele>1388.28</ele>
        <time>2012-05-28T09:14:16Z</time>
      </trkpt>
      <trkpt lat="45.29509" lon="5.75411">
        <ele>1393.09</ele>
        <time>2012-05-28T09:14:46Z</time>
      </trkpt>
      <trkpt lat="45.295" lon="5.75401">
        <ele>1394.05</ele>
        <time>2012-05-28T09:15:16Z</time>
      </trkpt>
      <trkpt lat="45.29493" lon="5.75379">
        <ele>1398.37</ele>
        <time>2012-05-28T09:15:46Z</time>
      </trkpt>
      <trkpt lat="45.29474" lon="5.75334">
        <ele>1402.7</ele>
        <time>2012-05-28T09:16:16Z</time>
      </trkpt>
      <trkpt lat="45.29462" lon="5.75292">
        <ele>1406.55</ele>
        <time>2012-05-28T09:16:46Z</time>
      </trkpt>
      <trkpt lat="45.29453" lon="5.7528">
        <ele>1409.43</ele>
        <time>2012-05-28T09:17:16Z</time>
      </trkpt>
      <trkpt lat="45.2944" lon="5.75269">
        <ele>1408.95</ele>
        <time>2012-05-28T09:17:46Z</time>
      </trkpt>
      <trkpt lat="45.29418" lon="5.75253">
        <ele>1414.72</ele>
        <time>2012-05-28T09:18:16Z</time>
      </trkpt>
      <trkpt lat="45.29382" lon="5.75248">
        <ele>1418.08</ele>
        <time>2012-05-28T09:18:46Z</time>
      </trkpt>
      <trkpt lat="45.29362" lon="5.75231">
        <ele>1422.89</ele>
        <time>2012-05-28T09:19:16Z</time>
      </trkpt>
      <trkpt lat="45.29341" lon="5.75211">
        <ele>1426.25</ele>
        <time>2012-05-28T09:19:46Z</time>
      </trkpt>
      <trkpt lat="45.29331" lon="5.75191">
        <ele>1431.06</ele>
        <time>2012-05-28T09:20:16Z</time>
      </trkpt>
      <trkpt lat="45.29333" lon="5.75183">
        <ele>1436.83</ele>
        <time>2012-05-28T09:20:46Z</time>
      </trkpt>
      <trkpt lat="45.29343" lon="5.75173">
        <ele>1441.15</ele>
        <time>2012-05-28T09:21:16Z</time>
      </trkpt>
      <trkpt lat="45.29362" lon="5.75143">
        <ele>1445.96</ele>
        <time>2012-05-28T09:21:46Z</time>
      </trkpt>
      <trkpt lat="45.29385" lon="5.75068">
        <ele>1445.96</ele>
        <time>2012-05-28T09:22:16Z</time>
      </trkpt>
      <trkpt lat="45.29382" lon="5.75031">
        <ele>1448.84</ele>
        <time>2012-05-28T09:22:46Z</time>
      </trkpt>
      <trkpt lat="45.29384" lon="5.75001">
        <ele>1452.21</ele>
        <time>2012-05-28T09:23:16Z</time>
      </trkpt>
      <trkpt lat="45.2938" lon="5.75002">
        <ele>1457.98</ele>
        <time>2012-05-28T09:23:46Z</time>
      </trkpt>
      <trkpt lat="45.29388" lon="5.74984">
        <ele>1463.26</ele>
        <time>2012-05-28T09:24:16Z</time>
      </trkpt>
      <trkpt lat="45.29388" lon="5.74984">
        <ele>1462.78</ele>
        <time>2012-05-28T09:24:46Z</time>
      </trkpt>
      <trkpt lat="45.29388" lon="5.74983">
        <ele>1463.74</ele>
        <time>2012-05-28T09:25:16Z</time>
      </trkpt>
      <trkpt lat="45.29404" lon="5.74918">
        <ele>1466.63</ele>
        <time>2012-05-28T09:25:46Z</time>
      </trkpt>
      <trkpt lat="45.294" lon="5.74892">
        <ele>1471.44</ele>
        <time>2012-05-28T09:26:16Z</time>
      </trkpt>
      <trkpt lat="45.29406" lon="5.74884">
        <ele>1475.76</ele>
        <time>2012-05-28T09:26:46Z</time>
      </trkpt>
      <trkpt lat="45.29416" lon="5.74866">
        <ele>1480.57</ele>
        <time>2012-05-28T09:27:16Z</time>
      </trkpt>
      <trkpt lat="45.29428" lon="5.74843">
        <ele>1483.93</ele>
        <time>2012-05-28T09:27:46Z</time>
      </trkpt>
      <trkpt lat="45.29433" lon="5.74851">
        <ele>1486.34</ele>
        <time>2012-05-28T09:28:16Z</time>
      </trkpt>
      <trkpt lat="45.29456" lon="5.74848">
        <ele>1491.62</ele>
        <time>2012-05-28T09:28:46Z</time>
      </trkpt>
      <trkpt lat="45.29482" lon="5.74864">
        <ele>1495.47</ele>
        <time>2012-05-28T09:29:16Z</time>
      </trkpt>
      <trkpt lat="45.29498" lon="5.7489">
        <ele>1498.83</ele>
        <time>2012-05-28T09:29:46Z</time>
      </trkpt>
      <trkpt lat="45.29525" lon="5.74915">
        <ele>1501.24</ele>
        <time>2012-05-28T09:30:16Z</time>
      </trkpt>
      <trkpt lat="45.29543" lon="5.74895">
        <ele>1507.97</ele>
        <time>2012-05-28T09:30:46Z</time>
      </trkpt>
      <trkpt lat="45.29542" lon="5.74855">
        <ele>1512.29</ele>
        <time>2012-05-28T09:31:16Z</time>
      </trkpt>
      <trkpt lat="45.29537" lon="5.74825">
        <ele>1519.02</ele>
        <time>2012-05-28T09:31:46Z</time>
      </trkpt>
      <trkpt lat="45.29532" lon="5.74796">
        <ele>1523.35</ele>
        <time>2012-05-28T09:32:16Z</time>
      </trkpt>
      <trkpt lat="45.29545" lon="5.74789">
        <ele>1527.67</ele>
        <time>2012-05-28T09:32:46Z</time>
      </trkpt>
      <trkpt lat="45.29554" lon="5.74772">
        <ele>1532.96</ele>
        <time>2012-05-28T09:33:16Z</time>
      </trkpt>
      <trkpt lat="45.29565" lon="5.74738">
        <ele>1537.77</ele>
        <time>2012-05-28T09:33:46Z</time>
      </trkpt>
      <trkpt lat="45.29566" lon="5.74705">
        <ele>1542.57</ele>
        <time>2012-05-28T09:34:16Z</time>
      </trkpt>
      <trkpt lat="45.29566" lon="5.74671">
        <ele>1546.9</ele>
        <time>2012-05-28T09:34:46Z</time>
      </trkpt>
      <trkpt lat="45.29562" lon="5.74646">
        <ele>1552.67</ele>
        <time>2012-05-28T09:35:16Z</time>
      </trkpt>
      <trkpt lat="45.29562" lon="5.74623">
        <ele>1558.43</ele>
        <time>2012-05-28T09:35:46Z</time>
      </trkpt>
      <trkpt lat="45.2956" lon="5.746">
        <ele>1564.2</ele>
        <time>2012-05-28T09:36:16Z</time>
      </trkpt>
      <trkpt lat="45.29557" lon="5.74572">
        <ele>1568.53</ele>
        <time>2012-05-28T09:36:46Z</time>
      </trkpt>
      <trkpt lat="45.29541" lon="5.74539">
        <ele>1572.85</ele>
        <time>2012-05-28T09:37:16Z</time>
      </trkpt>
      <trkpt lat="45.29518" lon="5.74512">
        <ele>1573.82</ele>
        <time>2012-05-28T09:37:46Z</time>
      </trkpt>
      <trkpt lat="45.29492" lon="5.74501">
        <ele>1576.7</ele>
        <time>2012-05-28T09:38:16Z</time>
      </trkpt>
      <trkpt lat="45.29468" lon="5.7449">
        <ele>1578.14</ele>
        <time>2012-05-28T09:38:46Z</time>
      </trkpt>
      <trkpt lat="45.29442" lon="5.74481">
        <ele>1581.03</ele>
        <time>2012-05-28T09:39:16Z</time>
      </trkpt>
      <trkpt lat="45.29413" lon="5.74476">
        <ele>1585.83</ele>
        <time>2012-05-28T09:39:46Z</time>
      </trkpt>
      <trkpt lat="45.29405" lon="5.74454">
        <ele>1591.6</ele>
        <time>2012-05-28T09:40:16Z</time>
      </trkpt>
      <trkpt lat="45.29397" lon="5.74431">
        <ele>1596.89</ele>
        <time>2012-05-28T09:40:46Z</time>
      </trkpt>
      <trkpt lat="45.29383" lon="5.7441">
        <ele>1602.66</ele>
        <time>2012-05-28T09:41:16Z</time>
      </trkpt>
      <trkpt lat="45.29367" lon="5.74392">
        <ele>1607.46</ele>
        <time>2012-05-28T09:41:46Z</time>
      </trkpt>
      <trkpt lat="45.2935" lon="5.74384">
        <ele>1611.79</ele>
        <time>2012-05-28T09:42:16Z</time>
      </trkpt>
      <trkpt lat="45.2935" lon="5.74384">
        <ele>1611.79</ele>
        <time>2012-05-28T09:42:46Z</time>
      </trkpt>
      <trkpt lat="45.2935" lon="5.74384">
        <ele>1612.75</ele>
        <time>2012-05-28T09:43:16Z</time>
      </trkpt>
      <trkpt lat="45.29349" lon="5.74382">
        <ele>1612.27</ele>
        <time>2012-05-28T09:43:46Z</time>
      </trkpt>
      <trkpt lat="45.29366" lon="5.74379">
        <ele>1615.15</ele>
        <time>2012-05-28T09:44:16Z</time>
      </trkpt>
      <trkpt lat="45.29396" lon="5.74362">
        <ele>1618.04</ele>
        <time>2012-05-28T09:44:46Z</time>
      </trkpt>
      <trkpt lat="45.29422" lon="5.74347">
        <ele>1622.84</ele>
        <time>2012-05-28T09:45:16Z</time>
      </trkpt>
      <trkpt lat="45.29444" lon="5.74342">
        <ele>1627.17</ele>
        <time>2012-05-28T09:45:46Z</time>
      </trkpt>
      <trkpt lat="45.29469" lon="5.74344">
        <ele>1631.98</ele>
        <time>2012-05-28T09:46:16Z</time>
      </trkpt>
      <trkpt lat="45.2949" lon="5.74349">
        <ele>1635.82</ele>
        <time>2012-05-28T09:46:46Z</time>
      </trkpt>
      <trkpt lat="45.29513" lon="5.74358">
        <ele>1640.15</ele>
        <time>2012-05-28T09:47:16Z</time>
      </trkpt>
      <trkpt lat="45.29533" lon="5.74358">
        <ele>1646.4</ele>
        <time>2012-05-28T09:47:46Z</time>
      </trkpt>
      <trkpt lat="45.29551" lon="5.74365">
        <ele>1649.28</ele>
        <time>2012-05-28T09:48:16Z</time>
      </trkpt>
      <trkpt lat="45.29572" lon="5.74373">
        <ele>1652.64</ele>
        <time>2012-05-28T09:48:46Z</time>
      </trkpt>
      <trkpt lat="45.29591" lon="5.74378">
        <ele>1657.45</ele>
        <time>2012-05-28T09:49:16Z</time>
      </trkpt>
      <trkpt lat="45.29614" lon="5.74387">
        <ele>1662.26</ele>
        <time>2012-05-28T09:49:46Z</time>
      </trkpt>
      <trkpt lat="45.29628" lon="5.74387">
        <ele>1665.62</ele>
        <time>2012-05-28T09:50:16Z</time>
      </trkpt>
      <trkpt lat="45.29654" lon="5.74398">
        <ele>1665.62</ele>
        <time>2012-05-28T09:50:46Z</time>
      </trkpt>
      <trkpt lat="45.29684" lon="5.74388">
        <ele>1662.74</ele>
        <time>2012-05-28T09:51:16Z</time>
      </trkpt>
      <trkpt lat="45.29713" lon="5.7436">
        <ele>1662.26</ele>
        <time>2012-05-28T09:51:46Z</time>
      </trkpt>
      <trkpt lat="45.2974" lon="5.74333">
        <ele>1663.7</ele>
        <time>2012-05-28T09:52:16Z</time>
      </trkpt>
      <trkpt lat="45.29759" lon="5.74303">
        <ele>1659.85</ele>
        <time>2012-05-28T09:52:46Z</time>
      </trkpt>
      <trkpt lat="45.29775" lon="5.74269">
        <ele>1654.09</ele>
        <time>2012-05-28T09:53:16Z</time>
      </trkpt>
      <trkpt lat="45.298" lon="5.7426">
        <ele>1656.97</ele>
        <time>2012-05-28T09:53:46Z</time>
      </trkpt>
      <trkpt lat="45.29826" lon="5.74269">
        <ele>1659.85</ele>
        <time>2012-05-28T09:54:16Z</time>
      </trkpt>
      <trkpt lat="45.29854" lon="5.74285">
        <ele>1657.93</ele>
        <time>2012-05-28T09:54:46Z</time>
      </trkpt>
      <trkpt lat="45.29877" lon="5.74312">
        <ele>1660.33</ele>
        <time>2012-05-28T09:55:16Z</time>
      </trkpt>
      <trkpt lat="45.29904" lon="5.74338">
        <ele>1658.41</ele>
        <time>2012-05-28T09:55:46Z</time>
      </trkpt>
      <trkpt lat="45.2993" lon="5.74364">
        <ele>1656.97</ele>
        <time>2012-05-28T09:56:16Z</time>
      </trkpt>
      <trkpt lat="45.29931" lon="5.74363">
        <ele>1656.49</ele>
        <time>2012-05-28T09:56:46Z</time>
      </trkpt>
      <trkpt lat="45.29934" lon="5.74366">
        <ele>1656.49</ele>
        <time>2012-05-28T09:57:16Z</time>
      </trkpt>
      <trkpt lat="45.2995" lon="5.74367">
        <ele>1649.28</ele>
        <time>2012-05-28T09:57:46Z</time>
      </trkpt>
      <trkpt lat="45.29971" lon="5.74379">
        <ele>1643.51</ele>
        <time>2012-05-28T09:58:16Z</time>
      </trkpt>
      <trkpt lat="45.29985" lon="5.74381">
        <ele>1636.78</ele>
        <time>2012-05-28T09:58:46Z</time>
      </trkpt>
      <trkpt lat="45.29996" lon="5.74396">
        <ele>1631.98</ele>
        <time>2012-05-28T09:59:16Z</time>
      </trkpt>
      <trkpt lat="45.30015" lon="5.74402">
        <ele>1630.05</ele>
        <time>2012-05-28T09:59:46Z</time>
      </trkpt>
      <trkpt lat="45.30037" lon="5.74414">
        <ele>1629.09</ele>
        <time>2012-05-28T10:00:16Z</time>
      </trkpt>
      <trkpt lat="45.30055" lon="5.74427">
        <ele>1625.25</ele>
        <time>2012-05-28T10:00:46Z</time>
      </trkpt>
      <trkpt lat="45.30074" lon="5.7444">
        <ele>1623.8</ele>
        <time>2012-05-28T10:01:16Z</time>
      </trkpt>
      <trkpt lat="45.30086" lon="5.74449">
        <ele>1628.13</ele>
        <time>2012-05-28T10:01:46Z</time>
      </trkpt>
      <trkpt lat="45.30118" lon="5.74458">
        <ele>1631.98</ele>
        <time>2012-05-28T10:02:16Z</time>
      </trkpt>
      <trkpt lat="45.30145" lon="5.7447">
        <ele>1633.9</ele>
        <time>2012-05-28T10:02:46Z</time>
      </trkpt>
      <trkpt lat="45.30174" lon="5.74491">
        <ele>1633.9</ele>
        <time>2012-05-28T10:03:16Z</time>
      </trkpt>
      <trkpt lat="45.30203" lon="5.74511">
        <ele>1635.34</ele>
        <time>2012-05-28T10:03:46Z</time>
      </trkpt>
      <trkpt lat="45.30231" lon="5.74534">
        <ele>1639.67</ele>
        <time>2012-05-28T10:04:16Z</time>
      </trkpt>
      <trkpt lat="45.30258" lon="5.74546">
        <ele>1641.11</ele>
        <time>2012-05-28T10:04:46Z</time>
      </trkpt>
      <trkpt lat="45.30287" lon="5.74571">
        <ele>1643.51</ele>
        <time>2012-05-28T10:05:16Z</time>
      </trkpt>
      <trkpt lat="45.30319" lon="5.74583">
        <ele>1646.4</ele>
        <time>2012-05-28T10:05:46Z</time>
      </trkpt>
      <trkpt lat="45.30346" lon="5.746">
        <ele>1648.8</ele>
        <time>2012-05-28T10:06:16Z</time>
      </trkpt>
      <trkpt lat="45.30371" lon="5.74619">
        <ele>1652.64</ele>
        <time>2012-05-28T10:06:46Z</time>
      </trkpt>
      <trkpt lat="45.30399" lon="5.74631">
        <ele>1657.45</ele>
        <time>2012-05-28T10:07:16Z</time>
      </trkpt>
      <trkpt lat="45.30433" lon="5.7464">
        <ele>1659.85</ele>
        <time>2012-05-28T10:07:46Z</time>
      </trkpt>
      <trkpt lat="45.30465" lon="5.74654">
        <ele>1663.22</ele>
        <time>2012-05-28T10:08:16Z</time>
      </trkpt>
      <trkpt lat="45.30497" lon="5.7466">
        <ele>1665.62</ele>
        <time>2012-05-28T10:08:46Z</time>
      </trkpt>
      <trkpt lat="45.30527" lon="5.74669">
        <ele>1666.58</ele>
        <time>2012-05-28T10:09:16Z</time>
      </trkpt>
      <trkpt lat="45.30547" lon="5.74679">
        <ele>1671.87</ele>
        <time>2012-05-28T10:09:46Z</time>
      </trkpt>
      <trkpt lat="45.30559" lon="5.74686">
        <ele>1676.68</ele>
        <time>2012-05-28T10:10:16Z</time>
      </trkpt>
      <trkpt lat="45.30583" lon="5.74708">
        <ele>1682.93</ele>
        <time>2012-05-28T10:10:46Z</time>
      </trkpt>
      <trkpt lat="45.30602" lon="5.74723">
        <ele>1687.25</ele>
        <time>2012-05-28T10:11:16Z</time>
      </trkpt>
      <trkpt lat="45.30621" lon="5.74737">
        <ele>1692.54</ele>
        <time>2012-05-28T10:11:46Z</time>
      </trkpt>
      <trkpt lat="45.30644" lon="5.74753">
        <ele>1695.9</ele>
        <time>2012-05-28T10:12:16Z</time>
      </trkpt>
      <trkpt lat="45.30669" lon="5.74767">
        <ele>1698.79</ele>
        <time>2012-05-28T10:12:46Z</time>
      </trkpt>
      <trkpt lat="45.30693" lon="5.74774">
        <ele>1706</ele>
        <time>2012-05-28T10:13:16Z</time>
      </trkpt>
      <trkpt lat="45.30708" lon="5.74777">
        <ele>1708.4</ele>
        <time>2012-05-28T10:13:46Z</time>
      </trkpt>
      <trkpt lat="45.3071" lon="5.74775">
        <ele>1708.88</ele>
        <time>2012-05-28T10:14:16Z</time>
      </trkpt>
      <trkpt lat="45.3071" lon="5.74775">
        <ele>1708.88</ele>
        <time>2012-05-28T10:14:46Z</time>
      </trkpt>
      <trkpt lat="45.3071" lon="5.74775">
        <ele>1707.92</ele>
        <time>2012-05-28T10:15:16Z</time>
      </trkpt>
      <trkpt lat="45.3071" lon="5.74775">
        <ele>1708.88</ele>
        <time>2012-05-28T10:15:46Z</time>
      </trkpt>
      <trkpt lat="45.3071" lon="5.74775">
        <ele>1708.88</ele>
        <time>2012-05-28T10:16:16Z</time>
      </trkpt>
      <trkpt lat="45.3071" lon="5.74775">
        <ele>1707.92</ele>
        <time>2012-05-28T10:16:46Z</time>
      </trkpt>
      <trkpt lat="45.3071" lon="5.74775">
        <ele>1709.36</ele>
        <time>2012-05-28T10:17:16Z</time>
      </trkpt>
      <trkpt lat="45.3071" lon="5.74775">
        <ele>1708.4</ele>
        <time>2012-05-28T10:17:46Z</time>
      </trkpt>
      <trkpt lat="45.30711" lon="5.74777">
        <ele>1709.36</ele>
        <time>2012-05-28T10:18:16Z</time>
      </trkpt>
      <trkpt lat="45.30714" lon="5.74791">
        <ele>1709.84</ele>
        <time>2012-05-28T10:18:51Z</time>
      </trkpt>
      <trkpt lat="45.30711" lon="5.74787">
        <ele>1708.88</ele>
        <time>2012-05-28T10:19:21Z</time>
      </trkpt>
      <trkpt lat="45.30711" lon="5.74781">
        <ele>1707.44</ele>
        <time>2012-05-28T10:19:51Z</time>
      </trkpt>
      <trkpt lat="45.30711" lon="5.7478">
        <ele>1707.44</ele>
        <time>2012-05-28T10:20:21Z</time>
      </trkpt>
      <trkpt lat="45.30711" lon="5.7478">
        <ele>1706.96</ele>
        <time>2012-05-28T10:20:51Z</time>
      </trkpt>
      <trkpt lat="45.30711" lon="5.74779">
        <ele>1706.96</ele>
        <time>2012-05-28T10:21:21Z</time>
      </trkpt>
      <trkpt lat="45.30711" lon="5.74779">
        <ele>1706.96</ele>
        <time>2012-05-28T10:21:51Z</time>
      </trkpt>
      <trkpt lat="45.30712" lon="5.74778">
        <ele>1707.44</ele>
        <time>2012-05-28T10:22:21Z</time>
      </trkpt>
      <trkpt lat="45.30712" lon="5.74778">
        <ele>1706.96</ele>
        <time>2012-05-28T10:22:51Z</time>
      </trkpt>
      <trkpt lat="45.30712" lon="5.74778">
        <ele>1706.96</ele>
        <time>2012-05-28T10:23:21Z</time>
      </trkpt>
      <trkpt lat="45.30712" lon="5.74778">
        <ele>1706.96</ele>
        <time>2012-05-28T10:23:51Z</time>
      </trkpt>
      <trkpt lat="45.30712" lon="5.74778">
        <ele>1706.48</ele>
        <time>2012-05-28T10:24:21Z</time>
      </trkpt>
      <trkpt lat="45.30712" lon="5.74778">
        <ele>1706.48</ele>
        <time>2012-05-28T10:24:51Z</time>
      </trkpt>
      <trkpt lat="45.30712" lon="5.74778">
        <ele>1706.96</ele>
        <time>2012-05-28T10:25:21Z</time>
      </trkpt>
      <trkpt lat="45.30711" lon="5.74777">
        <ele>1706.96</ele>
        <time>2012-05-28T10:25:51Z</time>
      </trkpt>
      <trkpt lat="45.30711" lon="5.74777">
        <ele>1707.44</ele>
        <time>2012-05-28T10:26:21Z</time>
      </trkpt>
      <trkpt lat="45.30711" lon="5.74777">
        <ele>1706.96</ele>
        <time>2012-05-28T10:26:51Z</time>
      </trkpt>
      <trkpt lat="45.30712" lon="5.74777">
        <ele>1707.44</ele>
        <time>2012-05-28T10:27:21Z</time>
      </trkpt>
      <trkpt lat="45.30711" lon="5.74777">
        <ele>1706.48</ele>
        <time>2012-05-28T10:27:51Z</time>
      </trkpt>
      <trkpt lat="45.30711" lon="5.74777">
        <ele>1707.44</ele>
        <time>2012-05-28T10:28:21Z</time>
      </trkpt>
      <trkpt lat="45.30711" lon="5.74777">
        <ele>1706.96</ele>
        <time>2012-05-28T10:28:51Z</time>
      </trkpt>
      <trkpt lat="45.30711" lon="5.74777">
        <ele>1706.96</ele>
        <time>2012-05-28T10:29:21Z</time>
      </trkpt>
      <trkpt lat="45.30711" lon="5.74777">
        <ele>1706.48</ele>
        <time>2012-05-28T10:29:51Z</time>
      </trkpt>
      <trkpt lat="45.30711" lon="5.74776">
        <ele>1706.96</ele>
        <time>2012-05-28T10:30:21Z</time>
      </trkpt>
      <trkpt lat="45.30711" lon="5.74776">
        <ele>1706.48</ele>
        <time>2012-05-28T10:30:51Z</time>
      </trkpt>
      <trkpt lat="45.30711" lon="5.74776">
        <ele>1706.48</ele>
        <time>2012-05-28T10:31:21Z</time>
      </trkpt>
      <trkpt lat="45.30711" lon="5.74776">
        <ele>1706.48</ele>
        <time>2012-05-28T10:31:51Z</time>
      </trkpt>
      <trkpt lat="45.3071" lon="5.74776">
        <ele>1706.96</ele>
        <time>2012-05-28T10:32:21Z</time>
      </trkpt>
      <trkpt lat="45.30709" lon="5.74774">
        <ele>1707.92</ele>
        <time>2012-05-28T10:32:51Z</time>
      </trkpt>
      <trkpt lat="45.30709" lon="5.74774">
        <ele>1707.44</ele>
        <time>2012-05-28T10:33:21Z</time>
      </trkpt>
      <trkpt lat="45.3071" lon="5.74776">
        <ele>1706.96</ele>
        <time>2012-05-28T10:33:51Z</time>
      </trkpt>
      <trkpt lat="45.3071" lon="5.74776">
        <ele>1706.96</ele>
        <time>2012-05-28T10:34:21Z</time>
      </trkpt>
      <trkpt lat="45.3071" lon="5.74776">
        <ele>1707.44</ele>
        <time>2012-05-28T10:34:51Z</time>
      </trkpt>
      <trkpt lat="45.3071" lon="5.74776">
        <ele>1706.48</ele>
        <time>2012-05-28T10:35:21Z</time>
      </trkpt>
      <trkpt lat="45.3071" lon="5.74777">
        <ele>1706</ele>
        <time>2012-05-28T10:35:51Z</time>
      </trkpt>
      <trkpt lat="45.3071" lon="5.74777">
        <ele>1706</ele>
        <time>2012-05-28T10:36:21Z</time>
      </trkpt>
      <trkpt lat="45.3071" lon="5.74777">
        <ele>1706.48</ele>
        <time>2012-05-28T10:36:51Z</time>
      </trkpt>
      <trkpt lat="45.3071" lon="5.74777">
        <ele>1706</ele>
        <time>2012-05-28T10:37:21Z</time>
      </trkpt>
      <trkpt lat="45.3071" lon="5.74778">
        <ele>1706</ele>
        <time>2012-05-28T10:37:51Z</time>
      </trkpt>
      <trkpt lat="45.3071" lon="5.74778">
        <ele>1706</ele>
        <time>2012-05-28T10:38:21Z</time>
      </trkpt>
      <trkpt lat="45.3071" lon="5.74778">
        <ele>1706</ele>
        <time>2012-05-28T10:38:51Z</time>
      </trkpt>
      <trkpt lat="45.3071" lon="5.74777">
        <ele>1705.52</ele>
        <time>2012-05-28T10:39:21Z</time>
      </trkpt>
      <trkpt lat="45.3071" lon="5.74778">
        <ele>1706</ele>
        <time>2012-05-28T10:39:51Z</time>
      </trkpt>
      <trkpt lat="45.3071" lon="5.74778">
        <ele>1706</ele>
        <time>2012-05-28T10:40:21Z</time>
      </trkpt>
      <trkpt lat="45.3071" lon="5.74778">
        <ele>1705.52</ele>
        <time>2012-05-28T10:40:51Z</time>
      </trkpt>
      <trkpt lat="45.3071" lon="5.74778">
        <ele>1705.52</ele>
        <time>2012-05-28T10:41:21Z</time>
      </trkpt>
      <trkpt lat="45.3071" lon="5.74778">
        <ele>1706</ele>
        <time>2012-05-28T10:41:51Z</time>
      </trkpt>
      <trkpt lat="45.3071" lon="5.74778">
        <ele>1705.52</ele>
        <time>2012-05-28T10:42:21Z</time>
      </trkpt>
      <trkpt lat="45.3071" lon="5.74778">
        <ele>1705.52</ele>
        <time>2012-05-28T10:42:51Z</time>
      </trkpt>
      <trkpt lat="45.3071" lon="5.74778">
        <ele>1705.52</ele>
        <time>2012-05-28T10:43:21Z</time>
      </trkpt>
      <trkpt lat="45.3071" lon="5.74779">
        <ele>1704.55</ele>
        <time>2012-05-28T10:43:51Z</time>
      </trkpt>
      <trkpt lat="45.30711" lon="5.74779">
        <ele>1705.04</ele>
        <time>2012-05-28T10:44:21Z</time>
      </trkpt>
      <trkpt lat="45.30711" lon="5.74779">
        <ele>1705.04</ele>
        <time>2012-05-28T10:44:51Z</time>
      </trkpt>
      <trkpt lat="45.3071" lon="5.74779">
        <ele>1705.04</ele>
        <time>2012-05-28T10:45:21Z</time>
      </trkpt>
      <trkpt lat="45.3071" lon="5.74778">
        <ele>1705.04</ele>
        <time>2012-05-28T10:45:51Z</time>
      </trkpt>
      <trkpt lat="45.3071" lon="5.74778">
        <ele>1705.52</ele>
        <time>2012-05-28T10:46:21Z</time>
      </trkpt>
      <trkpt lat="45.3071" lon="5.74778">
        <ele>1705.52</ele>
        <time>2012-05-28T10:46:51Z</time>
      </trkpt>
      <trkpt lat="45.3071" lon="5.74778">
        <ele>1706</ele>
        <time>2012-05-28T10:47:21Z</time>
      </trkpt>
      <trkpt lat="45.3071" lon="5.74777">
        <ele>1704.55</ele>
        <time>2012-05-28T10:47:51Z</time>
      </trkpt>
      <trkpt lat="45.3071" lon="5.74777">
        <ele>1704.55</ele>
        <time>2012-05-28T10:48:21Z</time>
      </trkpt>
      <trkpt lat="45.3071" lon="5.74777">
        <ele>1704.55</ele>
        <time>2012-05-28T10:48:51Z</time>
      </trkpt>
      <trkpt lat="45.3071" lon="5.74777">
        <ele>1705.04</ele>
        <time>2012-05-28T10:49:21Z</time>
      </trkpt>
      <trkpt lat="45.3071" lon="5.74777">
        <ele>1704.07</ele>
        <time>2012-05-28T10:49:51Z</time>
      </trkpt>
      <trkpt lat="45.3071" lon="5.74777">
        <ele>1704.07</ele>
        <time>2012-05-28T10:50:21Z</time>
      </trkpt>
      <trkpt lat="45.3071" lon="5.74777">
        <ele>1705.04</ele>
        <time>2012-05-28T10:50:51Z</time>
      </trkpt>
      <trkpt lat="45.3071" lon="5.74777">
        <ele>1706</ele>
        <time>2012-05-28T10:51:21Z</time>
      </trkpt>
      <trkpt lat="45.3071" lon="5.74776">
        <ele>1704.55</ele>
        <time>2012-05-28T10:51:51Z</time>
      </trkpt>
      <trkpt lat="45.3071" lon="5.74776">
        <ele>1703.11</ele>
        <time>2012-05-28T10:52:21Z</time>
      </trkpt>
      <trkpt lat="45.3071" lon="5.74778">
        <ele>1705.52</ele>
        <time>2012-05-28T10:52:51Z</time>
      </trkpt>
      <trkpt lat="45.3071" lon="5.74778">
        <ele>1705.04</ele>
        <time>2012-05-28T10:53:21Z</time>
      </trkpt>
      <trkpt lat="45.30707" lon="5.74775">
        <ele>1706</ele>
        <time>2012-05-28T10:53:51Z</time>
      </trkpt>
      <trkpt lat="45.30709" lon="5.74778">
        <ele>1704.55</ele>
        <time>2012-05-28T10:54:22Z</time>
      </trkpt>
      <trkpt lat="45.30709" lon="5.74778">
        <ele>1704.07</ele>
        <time>2012-05-28T10:54:52Z</time>
      </trkpt>
      <trkpt lat="45.30711" lon="5.74778">
        <ele>1703.59</ele>
        <time>2012-05-28T10:55:22Z</time>
      </trkpt>
      <trkpt lat="45.30711" lon="5.74779">
        <ele>1703.11</ele>
        <time>2012-05-28T10:55:52Z</time>
      </trkpt>
      <trkpt lat="45.30709" lon="5.74776">
        <ele>1703.11</ele>
        <time>2012-05-28T10:56:22Z</time>
      </trkpt>
      <trkpt lat="45.30709" lon="5.74776">
        <ele>1702.63</ele>
        <time>2012-05-28T10:56:52Z</time>
      </trkpt>
      <trkpt lat="45.30709" lon="5.74776">
        <ele>1703.11</ele>
        <time>2012-05-28T10:57:22Z</time>
      </trkpt>
      <trkpt lat="45.30709" lon="5.74776">
        <ele>1703.11</ele>
        <time>2012-05-28T10:57:52Z</time>
      </trkpt>
      <trkpt lat="45.30709" lon="5.74776">
        <ele>1702.63</ele>
        <time>2012-05-28T10:58:22Z</time>
      </trkpt>
      <trkpt lat="45.30708" lon="5.74777">
        <ele>1703.59</ele>
        <time>2012-05-28T10:58:52Z</time>
      </trkpt>
      <trkpt lat="45.30708" lon="5.74777">
        <ele>1702.63</ele>
        <time>2012-05-28T10:59:22Z</time>
      </trkpt>
      <trkpt lat="45.30709" lon="5.74778">
        <ele>1703.59</ele>
        <time>2012-05-28T10:59:52Z</time>
      </trkpt>
      <trkpt lat="45.30709" lon="5.74778">
        <ele>1703.59</ele>
        <time>2012-05-28T11:00:22Z</time>
      </trkpt>
      <trkpt lat="45.30709" lon="5.74778">
        <ele>1703.11</ele>
        <time>2012-05-28T11:00:52Z</time>
      </trkpt>
      <trkpt lat="45.30709" lon="5.74778">
        <ele>1703.11</ele>
        <time>2012-05-28T11:01:22Z</time>
      </trkpt>
      <trkpt lat="45.30709" lon="5.74777">
        <ele>1703.59</ele>
        <time>2012-05-28T11:01:52Z</time>
      </trkpt>
      <trkpt lat="45.30705" lon="5.74781">
        <ele>1700.23</ele>
        <time>2012-05-28T11:02:22Z</time>
      </trkpt>
      <trkpt lat="45.30704" lon="5.74809">
        <ele>1697.83</ele>
        <time>2012-05-28T11:02:52Z</time>
      </trkpt>
      <trkpt lat="45.3071" lon="5.74822">
        <ele>1697.83</ele>
        <time>2012-05-28T11:03:22Z</time>
      </trkpt>
      <trkpt lat="45.3072" lon="5.74842">
        <ele>1696.38</ele>
        <time>2012-05-28T11:03:52Z</time>
      </trkpt>
      <trkpt lat="45.3073" lon="5.74871">
        <ele>1696.38</ele>
        <time>2012-05-28T11:04:22Z</time>
      </trkpt>
      <trkpt lat="45.30747" lon="5.74894">
        <ele>1699.27</ele>
        <time>2012-05-28T11:04:52Z</time>
      </trkpt>
      <trkpt lat="45.30762" lon="5.7491">
        <ele>1697.34</ele>
        <time>2012-05-28T11:05:22Z</time>
      </trkpt>
      <trkpt lat="45.30776" lon="5.74928">
        <ele>1695.42</ele>
        <time>2012-05-28T11:05:52Z</time>
      </trkpt>
      <trkpt lat="45.30792" lon="5.74953">
        <ele>1690.62</ele>
        <time>2012-05-28T11:06:22Z</time>
      </trkpt>
      <trkpt lat="45.30797" lon="5.7498">
        <ele>1685.81</ele>
        <time>2012-05-28T11:06:52Z</time>
      </trkpt>
      <trkpt lat="45.308" lon="5.75009">
        <ele>1679.56</ele>
        <time>2012-05-28T11:07:22Z</time>
      </trkpt>
      <trkpt lat="45.30813" lon="5.75034">
        <ele>1670.91</ele>
        <time>2012-05-28T11:07:52Z</time>
      </trkpt>
      <trkpt lat="45.30828" lon="5.7506">
        <ele>1665.14</ele>
        <time>2012-05-28T11:08:22Z</time>
      </trkpt>
      <trkpt lat="45.30835" lon="5.7508">
        <ele>1657.93</ele>
        <time>2012-05-28T11:08:52Z</time>
      </trkpt>
      <trkpt lat="45.30847" lon="5.75108">
        <ele>1650.24</ele>
        <time>2012-05-28T11:09:22Z</time>
      </trkpt>
      <trkpt lat="45.30859" lon="5.75145">
        <ele>1642.55</ele>
        <time>2012-05-28T11:09:52Z</time>
      </trkpt>
      <trkpt lat="45.30875" lon="5.75189">
        <ele>1642.55</ele>
        <time>2012-05-28T11:10:22Z</time>
      </trkpt>
      <trkpt lat="45.30882" lon="5.75219">
        <ele>1643.03</ele>
        <time>2012-05-28T11:10:52Z</time>
      </trkpt>
      <trkpt lat="45.30886" lon="5.7522">
        <ele>1643.03</ele>
        <time>2012-05-28T11:11:22Z</time>
      </trkpt>
      <trkpt lat="45.30888" lon="5.75222">
        <ele>1643.03</ele>
        <time>2012-05-28T11:11:52Z</time>
      </trkpt>
      <trkpt lat="45.30893" lon="5.75222">
        <ele>1643.03</ele>
        <time>2012-05-28T11:12:22Z</time>
      </trkpt>
      <trkpt lat="45.30903" lon="5.75256">
        <ele>1642.55</ele>
        <time>2012-05-28T11:12:52Z</time>
      </trkpt>
      <trkpt lat="45.30928" lon="5.75293">
        <ele>1637.74</ele>
        <time>2012-05-28T11:13:22Z</time>
      </trkpt>
      <trkpt lat="45.30959" lon="5.75324">
        <ele>1638.7</ele>
        <time>2012-05-28T11:13:52Z</time>
      </trkpt>
      <trkpt lat="45.30979" lon="5.75362">
        <ele>1641.59</ele>
        <time>2012-05-28T11:14:22Z</time>
      </trkpt>
      <trkpt lat="45.31003" lon="5.75385">
        <ele>1640.15</ele>
        <time>2012-05-28T11:14:52Z</time>
      </trkpt>
      <trkpt lat="45.31025" lon="5.75407">
        <ele>1636.3</ele>
        <time>2012-05-28T11:15:22Z</time>
      </trkpt>
      <trkpt lat="45.31052" lon="5.75425">
        <ele>1638.7</ele>
        <time>2012-05-28T11:15:52Z</time>
      </trkpt>
      <trkpt lat="45.31082" lon="5.75444">
        <ele>1643.99</ele>
        <time>2012-05-28T11:16:22Z</time>
      </trkpt>
      <trkpt lat="45.31109" lon="5.75465">
        <ele>1647.84</ele>
        <time>2012-05-28T11:16:52Z</time>
      </trkpt>
      <trkpt lat="45.31145" lon="5.75478">
        <ele>1644.47</ele>
        <time>2012-05-28T11:17:22Z</time>
      </trkpt>
      <trkpt lat="45.31188" lon="5.75477">
        <ele>1644.47</ele>
        <time>2012-05-28T11:17:52Z</time>
      </trkpt>
      <trkpt lat="45.3122" lon="5.75464">
        <ele>1643.51</ele>
        <time>2012-05-28T11:18:22Z</time>
      </trkpt>
      <trkpt lat="45.31248" lon="5.75432">
        <ele>1642.55</ele>
        <time>2012-05-28T11:18:52Z</time>
      </trkpt>
      <trkpt lat="45.31283" lon="5.75411">
        <ele>1643.03</ele>
        <time>2012-05-28T11:19:22Z</time>
      </trkpt>
      <trkpt lat="45.31318" lon="5.754">
        <ele>1643.03</ele>
        <time>2012-05-28T11:19:52Z</time>
      </trkpt>
      <trkpt lat="45.3135" lon="5.75382">
        <ele>1643.03</ele>
        <time>2012-05-28T11:20:22Z</time>
      </trkpt>
      <trkpt lat="45.31378" lon="5.75394">
        <ele>1638.7</ele>
        <time>2012-05-28T11:20:52Z</time>
      </trkpt>
      <trkpt lat="45.3141" lon="5.75401">
        <ele>1635.82</ele>
        <time>2012-05-28T11:21:22Z</time>
      </trkpt>
      <trkpt lat="45.31441" lon="5.75413">
        <ele>1633.9</ele>
        <time>2012-05-28T11:21:52Z</time>
      </trkpt>
      <trkpt lat="45.31472" lon="5.75426">
        <ele>1631.49</ele>
        <time>2012-05-28T11:22:22Z</time>
      </trkpt>
      <trkpt lat="45.31501" lon="5.75444">
        <ele>1631.49</ele>
        <time>2012-05-28T11:22:52Z</time>
      </trkpt>
      <trkpt lat="45.31524" lon="5.75463">
        <ele>1634.38</ele>
        <time>2012-05-28T11:23:22Z</time>
      </trkpt>
      <trkpt lat="45.31546" lon="5.75478">
        <ele>1635.34</ele>
        <time>2012-05-28T11:23:52Z</time>
      </trkpt>
      <trkpt lat="45.3158" lon="5.75489">
        <ele>1635.82</ele>
        <time>2012-05-28T11:24:22Z</time>
      </trkpt>
      <trkpt lat="45.31605" lon="5.75508">
        <ele>1637.74</ele>
        <time>2012-05-28T11:24:52Z</time>
      </trkpt>
      <trkpt lat="45.31627" lon="5.75533">
        <ele>1641.59</ele>
        <time>2012-05-28T11:25:22Z</time>
      </trkpt>
      <trkpt lat="45.31648" lon="5.75553">
        <ele>1644.95</ele>
        <time>2012-05-28T11:25:52Z</time>
      </trkpt>
      <trkpt lat="45.31674" lon="5.75571">
        <ele>1647.84</ele>
        <time>2012-05-28T11:26:22Z</time>
      </trkpt>
      <trkpt lat="45.31705" lon="5.75582">
        <ele>1648.32</ele>
        <time>2012-05-28T11:26:52Z</time>
      </trkpt>
      <trkpt lat="45.31727" lon="5.75607">
        <ele>1653.6</ele>
        <time>2012-05-28T11:27:22Z</time>
      </trkpt>
      <trkpt lat="45.31747" lon="5.75623">
        <ele>1658.89</ele>
        <time>2012-05-28T11:27:52Z</time>
      </trkpt>
      <trkpt lat="45.31776" lon="5.75615">
        <ele>1659.37</ele>
        <time>2012-05-28T11:28:22Z</time>
      </trkpt>
      <trkpt lat="45.3179" lon="5.75633">
        <ele>1661.78</ele>
        <time>2012-05-28T11:28:52Z</time>
      </trkpt>
      <trkpt lat="45.31796" lon="5.75668">
        <ele>1661.3</ele>
        <time>2012-05-28T11:29:22Z</time>
      </trkpt>
      <trkpt lat="45.31812" lon="5.75694">
        <ele>1663.22</ele>
        <time>2012-05-28T11:29:52Z</time>
      </trkpt>
      <trkpt lat="45.31833" lon="5.75718">
        <ele>1665.14</ele>
        <time>2012-05-28T11:30:22Z</time>
      </trkpt>
      <trkpt lat="45.31851" lon="5.75747">
        <ele>1668.02</ele>
        <time>2012-05-28T11:30:52Z</time>
      </trkpt>
      <trkpt lat="45.31872" lon="5.75756">
        <ele>1671.39</ele>
        <time>2012-05-28T11:31:22Z</time>
      </trkpt>
      <trkpt lat="45.31889" lon="5.75741">
        <ele>1672.83</ele>
        <time>2012-05-28T11:31:52Z</time>
      </trkpt>
      <trkpt lat="45.31889" lon="5.75741">
        <ele>1671.87</ele>
        <time>2012-05-28T11:32:22Z</time>
      </trkpt>
      <trkpt lat="45.31889" lon="5.75741">
        <ele>1672.35</ele>
        <time>2012-05-28T11:32:52Z</time>
      </trkpt>
      <trkpt lat="45.31889" lon="5.75742">
        <ele>1671.87</ele>
        <time>2012-05-28T11:33:22Z</time>
      </trkpt>
      <trkpt lat="45.31889" lon="5.75741">
        <ele>1674.27</ele>
        <time>2012-05-28T11:33:52Z</time>
      </trkpt>
      <trkpt lat="45.31889" lon="5.75741">
        <ele>1675.23</ele>
        <time>2012-05-28T11:34:22Z</time>
      </trkpt>
      <trkpt lat="45.31889" lon="5.75741">
        <ele>1673.79</ele>
        <time>2012-05-28T11:34:52Z</time>
      </trkpt>
      <trkpt lat="45.31889" lon="5.75741">
        <ele>1673.31</ele>
        <time>2012-05-28T11:35:22Z</time>
      </trkpt>
      <trkpt lat="45.31889" lon="5.75741">
        <ele>1672.35</ele>
        <time>2012-05-28T11:35:52Z</time>
      </trkpt>
      <trkpt lat="45.31889" lon="5.75741">
        <ele>1672.83</ele>
        <time>2012-05-28T11:36:22Z</time>
      </trkpt>
      <trkpt lat="45.31889" lon="5.75741">
        <ele>1673.31</ele>
        <time>2012-05-28T11:36:52Z</time>
      </trkpt>
      <trkpt lat="45.31889" lon="5.75741">
        <ele>1673.79</ele>
        <time>2012-05-28T11:37:22Z</time>
      </trkpt>
      <trkpt lat="45.31895" lon="5.75717">
        <ele>1671.87</ele>
        <time>2012-05-28T11:37:52Z</time>
      </trkpt>
      <trkpt lat="45.31907" lon="5.75686">
        <ele>1667.54</ele>
        <time>2012-05-28T11:38:22Z</time>
      </trkpt>
      <trkpt lat="45.31915" lon="5.75668">
        <ele>1668.99</ele>
        <time>2012-05-28T11:38:52Z</time>
      </trkpt>
      <trkpt lat="45.31927" lon="5.75649">
        <ele>1667.54</ele>
        <time>2012-05-28T11:39:22Z</time>
      </trkpt>
      <trkpt lat="45.31928" lon="5.75649">
        <ele>1667.54</ele>
        <time>2012-05-28T11:39:52Z</time>
      </trkpt>
      <trkpt lat="45.31927" lon="5.75647">
        <ele>1668.99</ele>
        <time>2012-05-28T11:40:22Z</time>
      </trkpt>
      <trkpt lat="45.31951" lon="5.75659">
        <ele>1668.51</ele>
        <time>2012-05-28T11:40:52Z</time>
      </trkpt>
      <trkpt lat="45.31967" lon="5.75694">
        <ele>1668.99</ele>
        <time>2012-05-28T11:41:22Z</time>
      </trkpt>
      <trkpt lat="45.31981" lon="5.75722">
        <ele>1668.99</ele>
        <time>2012-05-28T11:41:52Z</time>
      </trkpt>
      <trkpt lat="45.32004" lon="5.75742">
        <ele>1669.95</ele>
        <time>2012-05-28T11:42:22Z</time>
      </trkpt>
      <trkpt lat="45.32026" lon="5.75746">
        <ele>1673.31</ele>
        <time>2012-05-28T11:42:52Z</time>
      </trkpt>
      <trkpt lat="45.32044" lon="5.75744">
        <ele>1678.12</ele>
        <time>2012-05-28T11:43:22Z</time>
      </trkpt>
      <trkpt lat="45.32062" lon="5.75735">
        <ele>1682.93</ele>
        <time>2012-05-28T11:43:52Z</time>
      </trkpt>
      <trkpt lat="45.32089" lon="5.75724">
        <ele>1685.33</ele>
        <time>2012-05-28T11:44:22Z</time>
      </trkpt>
      <trkpt lat="45.32091" lon="5.75725">
        <ele>1685.33</ele>
        <time>2012-05-28T11:44:52Z</time>
      </trkpt>
      <trkpt lat="45.3209" lon="5.75724">
        <ele>1685.33</ele>
        <time>2012-05-28T11:45:22Z</time>
      </trkpt>
      <trkpt lat="45.32095" lon="5.75723">
        <ele>1687.25</ele>
        <time>2012-05-28T11:45:52Z</time>
      </trkpt>
      <trkpt lat="45.32094" lon="5.75726">
        <ele>1685.81</ele>
        <time>2012-05-28T11:46:22Z</time>
      </trkpt>
      <trkpt lat="45.32094" lon="5.75726">
        <ele>1686.29</ele>
        <time>2012-05-28T11:46:52Z</time>
      </trkpt>
      <trkpt lat="45.32094" lon="5.75726">
        <ele>1686.29</ele>
        <time>2012-05-28T11:47:22Z</time>
      </trkpt>
      <trkpt lat="45.32094" lon="5.75726">
        <ele>1686.29</ele>
        <time>2012-05-28T11:47:52Z</time>
      </trkpt>
      <trkpt lat="45.32094" lon="5.75726">
        <ele>1685.81</ele>
        <time>2012-05-28T11:48:22Z</time>
      </trkpt>
      <trkpt lat="45.32094" lon="5.75726">
        <ele>1686.29</ele>
        <time>2012-05-28T11:48:52Z</time>
      </trkpt>
      <trkpt lat="45.32111" lon="5.75724">
        <ele>1688.21</ele>
        <time>2012-05-28T11:49:22Z</time>
      </trkpt>
      <trkpt lat="45.32131" lon="5.75728">
        <ele>1693.02</ele>
        <time>2012-05-28T11:49:52Z</time>
      </trkpt>
      <trkpt lat="45.32154" lon="5.7573">
        <ele>1695.9</ele>
        <time>2012-05-28T11:50:22Z</time>
      </trkpt>
      <trkpt lat="45.32173" lon="5.75731">
        <ele>1700.23</ele>
        <time>2012-05-28T11:50:52Z</time>
      </trkpt>
      <trkpt lat="45.32193" lon="5.7572">
        <ele>1705.52</ele>
        <time>2012-05-28T11:51:22Z</time>
      </trkpt>
      <trkpt lat="45.32213" lon="5.75712">
        <ele>1708.88</ele>
        <time>2012-05-28T11:51:52Z</time>
      </trkpt>
      <trkpt lat="45.32237" lon="5.75704">
        <ele>1710.32</ele>
        <time>2012-05-28T11:52:22Z</time>
      </trkpt>
      <trkpt lat="45.32263" lon="5.75699">
        <ele>1713.69</ele>
        <time>2012-05-28T11:52:52Z</time>
      </trkpt>
      <trkpt lat="45.32291" lon="5.75701">
        <ele>1715.13</ele>
        <time>2012-05-28T11:53:22Z</time>
      </trkpt>
      <trkpt lat="45.32314" lon="5.7571">
        <ele>1718.01</ele>
        <time>2012-05-28T11:53:52Z</time>
      </trkpt>
      <trkpt lat="45.3234" lon="5.7573">
        <ele>1721.38</ele>
        <time>2012-05-28T11:54:22Z</time>
      </trkpt>
      <trkpt lat="45.32365" lon="5.7575">
        <ele>1723.78</ele>
        <time>2012-05-28T11:54:52Z</time>
      </trkpt>
      <trkpt lat="45.32393" lon="5.75774">
        <ele>1724.26</ele>
        <time>2012-05-28T11:55:22Z</time>
      </trkpt>
      <trkpt lat="45.32417" lon="5.75797">
        <ele>1725.7</ele>
        <time>2012-05-28T11:55:52Z</time>
      </trkpt>
      <trkpt lat="45.32434" lon="5.75828">
        <ele>1726.18</ele>
        <time>2012-05-28T11:56:22Z</time>
      </trkpt>
      <trkpt lat="45.32429" lon="5.75861">
        <ele>1729.07</ele>
        <time>2012-05-28T11:56:52Z</time>
      </trkpt>
      <trkpt lat="45.32428" lon="5.75861">
        <ele>1730.03</ele>
        <time>2012-05-28T11:57:22Z</time>
      </trkpt>
      <trkpt lat="45.32428" lon="5.75861">
        <ele>1729.07</ele>
        <time>2012-05-28T11:57:52Z</time>
      </trkpt>
      <trkpt lat="45.32428" lon="5.75861">
        <ele>1729.55</ele>
        <time>2012-05-28T11:58:22Z</time>
      </trkpt>
      <trkpt lat="45.32428" lon="5.75861">
        <ele>1728.59</ele>
        <time>2012-05-28T11:58:52Z</time>
      </trkpt>
      <trkpt lat="45.32407" lon="5.75878">
        <ele>1732.91</ele>
        <time>2012-05-28T11:59:22Z</time>
      </trkpt>
      <trkpt lat="45.32388" lon="5.75909">
        <ele>1736.76</ele>
        <time>2012-05-28T11:59:52Z</time>
      </trkpt>
      <trkpt lat="45.3237" lon="5.75932">
        <ele>1740.6</ele>
        <time>2012-05-28T12:00:22Z</time>
      </trkpt>
      <trkpt lat="45.32347" lon="5.75953">
        <ele>1743.97</ele>
        <time>2012-05-28T12:00:52Z</time>
      </trkpt>
      <trkpt lat="45.32347" lon="5.75971">
        <ele>1748.78</ele>
        <time>2012-05-28T12:01:22Z</time>
      </trkpt>
      <trkpt lat="45.32365" lon="5.75993">
        <ele>1751.66</ele>
        <time>2012-05-28T12:01:52Z</time>
      </trkpt>
      <trkpt lat="45.32367" lon="5.76009">
        <ele>1758.39</ele>
        <time>2012-05-28T12:02:22Z</time>
      </trkpt>
      <trkpt lat="45.32348" lon="5.76026">
        <ele>1763.68</ele>
        <time>2012-05-28T12:02:52Z</time>
      </trkpt>
      <trkpt lat="45.32344" lon="5.7604">
        <ele>1768.96</ele>
        <time>2012-05-28T12:03:22Z</time>
      </trkpt>
      <trkpt lat="45.32355" lon="5.76058">
        <ele>1773.29</ele>
        <time>2012-05-28T12:03:52Z</time>
      </trkpt>
      <trkpt lat="45.32354" lon="5.76067">
        <ele>1777.13</ele>
        <time>2012-05-28T12:04:22Z</time>
      </trkpt>
      <trkpt lat="45.32345" lon="5.76079">
        <ele>1781.46</ele>
        <time>2012-05-28T12:04:52Z</time>
      </trkpt>
      <trkpt lat="45.32356" lon="5.76098">
        <ele>1787.71</ele>
        <time>2012-05-28T12:05:22Z</time>
      </trkpt>
      <trkpt lat="45.32364" lon="5.76111">
        <ele>1792.03</ele>
        <time>2012-05-28T12:05:52Z</time>
      </trkpt>
      <trkpt lat="45.32371" lon="5.76124">
        <ele>1797.32</ele>
        <time>2012-05-28T12:06:22Z</time>
      </trkpt>
      <trkpt lat="45.32371" lon="5.76141">
        <ele>1804.05</ele>
        <time>2012-05-28T12:06:52Z</time>
      </trkpt>
      <trkpt lat="45.32374" lon="5.76159">
        <ele>1808.38</ele>
        <time>2012-05-28T12:07:22Z</time>
      </trkpt>
      <trkpt lat="45.32381" lon="5.76168">
        <ele>1809.82</ele>
        <time>2012-05-28T12:07:52Z</time>
      </trkpt>
      <trkpt lat="45.32385" lon="5.76194">
        <ele>1813.18</ele>
        <time>2012-05-28T12:08:22Z</time>
      </trkpt>
      <trkpt lat="45.32387" lon="5.76222">
        <ele>1818.95</ele>
        <time>2012-05-28T12:08:52Z</time>
      </trkpt>
      <trkpt lat="45.32395" lon="5.76245">
        <ele>1827.12</ele>
        <time>2012-05-28T12:09:22Z</time>
      </trkpt>
      <trkpt lat="45.32409" lon="5.76268">
        <ele>1826.64</ele>
        <time>2012-05-28T12:09:52Z</time>
      </trkpt>
      <trkpt lat="45.32412" lon="5.76287">
        <ele>1832.89</ele>
        <time>2012-05-28T12:10:22Z</time>
      </trkpt>
      <trkpt lat="45.32417" lon="5.76313">
        <ele>1836.74</ele>
        <time>2012-05-28T12:10:52Z</time>
      </trkpt>
      <trkpt lat="45.32427" lon="5.76332">
        <ele>1841.54</ele>
        <time>2012-05-28T12:11:22Z</time>
      </trkpt>
      <trkpt lat="45.32431" lon="5.76354">
        <ele>1843.95</ele>
        <time>2012-05-28T12:11:52Z</time>
      </trkpt>
      <trkpt lat="45.3245" lon="5.76367">
        <ele>1850.19</ele>
        <time>2012-05-28T12:12:22Z</time>
      </trkpt>
      <trkpt lat="45.32464" lon="5.76383">
        <ele>1854.52</ele>
        <time>2012-05-28T12:12:52Z</time>
      </trkpt>
      <trkpt lat="45.32477" lon="5.76394">
        <ele>1859.81</ele>
        <time>2012-05-28T12:13:22Z</time>
      </trkpt>
      <trkpt lat="45.32499" lon="5.76398">
        <ele>1866.06</ele>
        <time>2012-05-28T12:13:52Z</time>
      </trkpt>
      <trkpt lat="45.32503" lon="5.76409">
        <ele>1867.02</ele>
        <time>2012-05-28T12:14:22Z</time>
      </trkpt>
      <trkpt lat="45.32506" lon="5.76416">
        <ele>1865.09</ele>
        <time>2012-05-28T12:14:52Z</time>
      </trkpt>
      <trkpt lat="45.32517" lon="5.76415">
        <ele>1866.06</ele>
        <time>2012-05-28T12:15:22Z</time>
      </trkpt>
      <trkpt lat="45.32518" lon="5.76415">
        <ele>1866.54</ele>
        <time>2012-05-28T12:15:52Z</time>
      </trkpt>
      <trkpt lat="45.32521" lon="5.76407">
        <ele>1866.54</ele>
        <time>2012-05-28T12:16:22Z</time>
      </trkpt>
      <trkpt lat="45.32522" lon="5.76407">
        <ele>1865.58</ele>
        <time>2012-05-28T12:16:52Z</time>
      </trkpt>
      <trkpt lat="45.32522" lon="5.76407">
        <ele>1866.06</ele>
        <time>2012-05-28T12:17:22Z</time>
      </trkpt>
      <trkpt lat="45.32522" lon="5.76406">
        <ele>1865.09</ele>
        <time>2012-05-28T12:17:52Z</time>
      </trkpt>
      <trkpt lat="45.32521" lon="5.76406">
        <ele>1866.06</ele>
        <time>2012-05-28T12:18:22Z</time>
      </trkpt>
      <trkpt lat="45.32521" lon="5.76407">
        <ele>1866.06</ele>
        <time>2012-05-28T12:18:52Z</time>
      </trkpt>
      <trkpt lat="45.32519" lon="5.76421">
        <ele>1865.09</ele>
        <time>2012-05-28T12:19:22Z</time>
      </trkpt>
      <trkpt lat="45.32527" lon="5.76436">
        <ele>1863.17</ele>
        <time>2012-05-28T12:19:52Z</time>
      </trkpt>
      <trkpt lat="45.32522" lon="5.76445">
        <ele>1859.81</ele>
        <time>2012-05-28T12:20:22Z</time>
      </trkpt>
      <trkpt lat="45.32522" lon="5.76448">
        <ele>1859.33</ele>
        <time>2012-05-28T12:20:52Z</time>
      </trkpt>
      <trkpt lat="45.32523" lon="5.76438">
        <ele>1861.73</ele>
        <time>2012-05-28T12:21:22Z</time>
      </trkpt>
      <trkpt lat="45.32523" lon="5.76433">
        <ele>1863.65</ele>
        <time>2012-05-28T12:21:52Z</time>
      </trkpt>
      <trkpt lat="45.32523" lon="5.76433">
        <ele>1863.65</ele>
        <time>2012-05-28T12:22:22Z</time>
      </trkpt>
      <trkpt lat="45.32524" lon="5.76441">
        <ele>1861.25</ele>
        <time>2012-05-28T12:22:52Z</time>
      </trkpt>
      <trkpt lat="45.32534" lon="5.7645">
        <ele>1857.89</ele>
        <time>2012-05-28T12:23:22Z</time>
      </trkpt>
      <trkpt lat="45.32537" lon="5.76446">
        <ele>1856.44</ele>
        <time>2012-05-28T12:23:52Z</time>
      </trkpt>
      <trkpt lat="45.3254" lon="5.76455">
        <ele>1851.64</ele>
        <time>2012-05-28T12:24:22Z</time>
      </trkpt>
      <trkpt lat="45.32549" lon="5.76445">
        <ele>1847.79</ele>
        <time>2012-05-28T12:24:52Z</time>
      </trkpt>
      <trkpt lat="45.3255" lon="5.76443">
        <ele>1842.5</ele>
        <time>2012-05-28T12:25:22Z</time>
      </trkpt>
      <trkpt lat="45.32554" lon="5.76446">
        <ele>1839.62</ele>
        <time>2012-05-28T12:25:52Z</time>
      </trkpt>
      <trkpt lat="45.32561" lon="5.76449">
        <ele>1834.81</ele>
        <time>2012-05-28T12:26:22Z</time>
      </trkpt>
      <trkpt lat="45.32561" lon="5.76448">
        <ele>1832.89</ele>
        <time>2012-05-28T12:26:52Z</time>
      </trkpt>
      <trkpt lat="45.32561" lon="5.76444">
        <ele>1833.37</ele>
        <time>2012-05-28T12:27:22Z</time>
      </trkpt>
      <trkpt lat="45.32562" lon="5.76439">
        <ele>1828.08</ele>
        <time>2012-05-28T12:27:52Z</time>
      </trkpt>
      <trkpt lat="45.32569" lon="5.76449">
        <ele>1826.64</ele>
        <time>2012-05-28T12:28:22Z</time>
      </trkpt>
      <trkpt lat="45.3257" lon="5.76449">
        <ele>1827.6</ele>
        <time>2012-05-28T12:28:52Z</time>
      </trkpt>
      <trkpt lat="45.32568" lon="5.76442">
        <ele>1825.68</ele>
        <time>2012-05-28T12:29:22Z</time>
      </trkpt>
      <trkpt lat="45.32573" lon="5.76438">
        <ele>1821.35</ele>
        <time>2012-05-28T12:29:52Z</time>
      </trkpt>
      <trkpt lat="45.32572" lon="5.7643">
        <ele>1816.55</ele>
        <time>2012-05-28T12:30:22Z</time>
      </trkpt>
      <trkpt lat="45.32574" lon="5.76427">
        <ele>1812.22</ele>
        <time>2012-05-28T12:30:52Z</time>
      </trkpt>
      <trkpt lat="45.32578" lon="5.76424">
        <ele>1811.26</ele>
        <time>2012-05-28T12:31:22Z</time>
      </trkpt>
      <trkpt lat="45.32578" lon="5.7642">
        <ele>1807.42</ele>
        <time>2012-05-28T12:31:52Z</time>
      </trkpt>
      <trkpt lat="45.32581" lon="5.76416">
        <ele>1804.53</ele>
        <time>2012-05-28T12:32:22Z</time>
      </trkpt>
      <trkpt lat="45.32581" lon="5.76403">
        <ele>1800.21</ele>
        <time>2012-05-28T12:32:52Z</time>
      </trkpt>
      <trkpt lat="45.32583" lon="5.764">
        <ele>1796.36</ele>
        <time>2012-05-28T12:33:22Z</time>
      </trkpt>
      <trkpt lat="45.32586" lon="5.76396">
        <ele>1793.96</ele>
        <time>2012-05-28T12:33:52Z</time>
      </trkpt>
      <trkpt lat="45.32592" lon="5.76391">
        <ele>1789.15</ele>
        <time>2012-05-28T12:34:22Z</time>
      </trkpt>
      <trkpt lat="45.32603" lon="5.76389">
        <ele>1784.34</ele>
        <time>2012-05-28T12:34:52Z</time>
      </trkpt>
      <trkpt lat="45.32611" lon="5.7638">
        <ele>1780.98</ele>
        <time>2012-05-28T12:35:22Z</time>
      </trkpt>
      <trkpt lat="45.32626" lon="5.76382">
        <ele>1776.65</ele>
        <time>2012-05-28T12:35:52Z</time>
      </trkpt>
      <trkpt lat="45.3265" lon="5.76377">
        <ele>1771.85</ele>
        <time>2012-05-28T12:36:22Z</time>
      </trkpt>
      <trkpt lat="45.32668" lon="5.76361">
        <ele>1765.6</ele>
        <time>2012-05-28T12:36:52Z</time>
      </trkpt>
      <trkpt lat="45.32668" lon="5.76338">
        <ele>1757.43</ele>
        <time>2012-05-28T12:37:22Z</time>
      </trkpt>
      <trkpt lat="45.32669" lon="5.76331">
        <ele>1751.18</ele>
        <time>2012-05-28T12:37:52Z</time>
      </trkpt>
      <trkpt lat="45.32678" lon="5.76309">
        <ele>1743.01</ele>
        <time>2012-05-28T12:38:22Z</time>
      </trkpt>
      <trkpt lat="45.32687" lon="5.76292">
        <ele>1734.36</ele>
        <time>2012-05-28T12:38:52Z</time>
      </trkpt>
      <trkpt lat="45.32707" lon="5.76265">
        <ele>1731.95</ele>
        <time>2012-05-28T12:39:22Z</time>
      </trkpt>
      <trkpt lat="45.32726" lon="5.76235">
        <ele>1731.95</ele>
        <time>2012-05-28T12:39:52Z</time>
      </trkpt>
      <trkpt lat="45.32726" lon="5.76235">
        <ele>1731.95</ele>
        <time>2012-05-28T12:40:22Z</time>
      </trkpt>
      <trkpt lat="45.32734" lon="5.76226">
        <ele>1733.39</ele>
        <time>2012-05-28T12:40:52Z</time>
      </trkpt>
      <trkpt lat="45.32748" lon="5.76204">
        <ele>1733.88</ele>
        <time>2012-05-28T12:41:22Z</time>
      </trkpt>
      <trkpt lat="45.3276" lon="5.76186">
        <ele>1731.95</ele>
        <time>2012-05-28T12:41:52Z</time>
      </trkpt>
      <trkpt lat="45.32768" lon="5.76184">
        <ele>1730.03</ele>
        <time>2012-05-28T12:42:22Z</time>
      </trkpt>
      <trkpt lat="45.32781" lon="5.76177">
        <ele>1727.15</ele>
        <time>2012-05-28T12:42:52Z</time>
      </trkpt>
      <trkpt lat="45.3281" lon="5.76162">
        <ele>1726.18</ele>
        <time>2012-05-28T12:43:22Z</time>
      </trkpt>
      <trkpt lat="45.32843" lon="5.76148">
        <ele>1725.22</ele>
        <time>2012-05-28T12:43:52Z</time>
      </trkpt>
      <trkpt lat="45.32865" lon="5.7616">
        <ele>1730.51</ele>
        <time>2012-05-28T12:44:22Z</time>
      </trkpt>
      <trkpt lat="45.32887" lon="5.76165">
        <ele>1734.36</ele>
        <time>2012-05-28T12:44:52Z</time>
      </trkpt>
      <trkpt lat="45.32903" lon="5.76172">
        <ele>1740.6</ele>
        <time>2012-05-28T12:45:22Z</time>
      </trkpt>
      <trkpt lat="45.3293" lon="5.76174">
        <ele>1743.01</ele>
        <time>2012-05-28T12:45:52Z</time>
      </trkpt>
      <trkpt lat="45.32963" lon="5.76177">
        <ele>1743.01</ele>
        <time>2012-05-28T12:46:22Z</time>
      </trkpt>
      <trkpt lat="45.32963" lon="5.76177">
        <ele>1742.53</ele>
        <time>2012-05-28T12:46:52Z</time>
      </trkpt>
      <trkpt lat="45.32967" lon="5.76173">
        <ele>1742.05</ele>
        <time>2012-05-28T12:47:22Z</time>
      </trkpt>
      <trkpt lat="45.32967" lon="5.76173">
        <ele>1741.57</ele>
        <time>2012-05-28T12:47:52Z</time>
      </trkpt>
      <trkpt lat="45.32965" lon="5.76172">
        <ele>1742.05</ele>
        <time>2012-05-28T12:48:22Z</time>
      </trkpt>
      <trkpt lat="45.32966" lon="5.76172">
        <ele>1741.57</ele>
        <time>2012-05-28T12:48:52Z</time>
      </trkpt>
      <trkpt lat="45.32966" lon="5.76172">
        <ele>1741.57</ele>
        <time>2012-05-28T12:49:22Z</time>
      </trkpt>
      <trkpt lat="45.32966" lon="5.76172">
        <ele>1742.05</ele>
        <time>2012-05-28T12:49:52Z</time>
      </trkpt>
      <trkpt lat="45.32966" lon="5.76174">
        <ele>1742.53</ele>
        <time>2012-05-28T12:50:22Z</time>
      </trkpt>
      <trkpt lat="45.32967" lon="5.7615">
        <ele>1740.12</ele>
        <time>2012-05-28T12:50:52Z</time>
      </trkpt>
      <trkpt lat="45.32973" lon="5.76138">
        <ele>1739.64</ele>
        <time>2012-05-28T12:51:22Z</time>
      </trkpt>
      <trkpt lat="45.32989" lon="5.7612">
        <ele>1739.16</ele>
        <time>2012-05-28T12:51:52Z</time>
      </trkpt>
      <trkpt lat="45.33009" lon="5.76096">
        <ele>1738.2</ele>
        <time>2012-05-28T12:52:22Z</time>
      </trkpt>
      <trkpt lat="45.33019" lon="5.76069">
        <ele>1740.12</ele>
        <time>2012-05-28T12:52:52Z</time>
      </trkpt>
      <trkpt lat="45.33033" lon="5.76054">
        <ele>1737.24</ele>
        <time>2012-05-28T12:53:22Z</time>
      </trkpt>
      <trkpt lat="45.33047" lon="5.76033">
        <ele>1730.03</ele>
        <time>2012-05-28T12:53:52Z</time>
      </trkpt>
      <trkpt lat="45.33053" lon="5.7602">
        <ele>1724.74</ele>
        <time>2012-05-28T12:54:22Z</time>
      </trkpt>
      <trkpt lat="45.33061" lon="5.7601">
        <ele>1719.46</ele>
        <time>2012-05-28T12:54:52Z</time>
      </trkpt>
      <trkpt lat="45.33065" lon="5.76008">
        <ele>1717.05</ele>
        <time>2012-05-28T12:55:22Z</time>
      </trkpt>
      <trkpt lat="45.33072" lon="5.76001">
        <ele>1711.28</ele>
        <time>2012-05-28T12:55:52Z</time>
      </trkpt>
      <trkpt lat="45.33071" lon="5.75987">
        <ele>1706</ele>
        <time>2012-05-28T12:56:22Z</time>
      </trkpt>
      <trkpt lat="45.33078" lon="5.75978">
        <ele>1702.15</ele>
        <time>2012-05-28T12:56:52Z</time>
      </trkpt>
      <trkpt lat="45.33097" lon="5.75971">
        <ele>1697.83</ele>
        <time>2012-05-28T12:57:22Z</time>
      </trkpt>
      <trkpt lat="45.33121" lon="5.75969">
        <ele>1698.31</ele>
        <time>2012-05-28T12:57:52Z</time>
      </trkpt>
      <trkpt lat="45.33131" lon="5.75968">
        <ele>1701.19</ele>
        <time>2012-05-28T12:58:22Z</time>
      </trkpt>
      <trkpt lat="45.33144" lon="5.75947">
        <ele>1689.17</ele>
        <time>2012-05-28T12:58:52Z</time>
      </trkpt>
      <trkpt lat="45.33161" lon="5.75918">
        <ele>1677.16</ele>
        <time>2012-05-28T12:59:22Z</time>
      </trkpt>
      <trkpt lat="45.33159" lon="5.7589">
        <ele>1664.18</ele>
        <time>2012-05-28T12:59:52Z</time>
      </trkpt>
      <trkpt lat="45.33158" lon="5.75869">
        <ele>1653.6</ele>
        <time>2012-05-28T13:00:22Z</time>
      </trkpt>
      <trkpt lat="45.33163" lon="5.75848">
        <ele>1643.51</ele>
        <time>2012-05-28T13:00:52Z</time>
      </trkpt>
      <trkpt lat="45.3317" lon="5.75821">
        <ele>1631.01</ele>
        <time>2012-05-28T13:01:22Z</time>
      </trkpt>
      <trkpt lat="45.33179" lon="5.75791">
        <ele>1620.92</ele>
        <time>2012-05-28T13:01:52Z</time>
      </trkpt>
      <trkpt lat="45.33173" lon="5.75759">
        <ele>1611.31</ele>
        <time>2012-05-28T13:02:22Z</time>
      </trkpt>
      <trkpt lat="45.33156" lon="5.75735">
        <ele>1601.69</ele>
        <time>2012-05-28T13:02:52Z</time>
      </trkpt>
      <trkpt lat="45.33141" lon="5.75719">
        <ele>1593.52</ele>
        <time>2012-05-28T13:03:22Z</time>
      </trkpt>
      <trkpt lat="45.33147" lon="5.75693">
        <ele>1593.04</ele>
        <time>2012-05-28T13:03:52Z</time>
      </trkpt>
      <trkpt lat="45.33147" lon="5.75693">
        <ele>1592.56</ele>
        <time>2012-05-28T13:04:22Z</time>
      </trkpt>
      <trkpt lat="45.33144" lon="5.75694">
        <ele>1592.56</ele>
        <time>2012-05-28T13:04:52Z</time>
      </trkpt>
      <trkpt lat="45.33122" lon="5.75677">
        <ele>1584.87</ele>
        <time>2012-05-28T13:05:22Z</time>
      </trkpt>
      <trkpt lat="45.33095" lon="5.75643">
        <ele>1578.14</ele>
        <time>2012-05-28T13:05:52Z</time>
      </trkpt>
      <trkpt lat="45.33065" lon="5.75614">
        <ele>1571.89</ele>
        <time>2012-05-28T13:06:22Z</time>
      </trkpt>
      <trkpt lat="45.33036" lon="5.75592">
        <ele>1562.28</ele>
        <time>2012-05-28T13:06:52Z</time>
      </trkpt>
      <trkpt lat="45.33007" lon="5.75571">
        <ele>1557.95</ele>
        <time>2012-05-28T13:07:22Z</time>
      </trkpt>
      <trkpt lat="45.32976" lon="5.75559">
        <ele>1553.63</ele>
        <time>2012-05-28T13:07:52Z</time>
      </trkpt>
      <trkpt lat="45.32948" lon="5.75552">
        <ele>1546.9</ele>
        <time>2012-05-28T13:08:22Z</time>
      </trkpt>
      <trkpt lat="45.32922" lon="5.7555">
        <ele>1540.17</ele>
        <time>2012-05-28T13:08:52Z</time>
      </trkpt>
      <trkpt lat="45.32903" lon="5.75549">
        <ele>1532.48</ele>
        <time>2012-05-28T13:09:22Z</time>
      </trkpt>
      <trkpt lat="45.32879" lon="5.75542">
        <ele>1526.71</ele>
        <time>2012-05-28T13:09:52Z</time>
      </trkpt>
      <trkpt lat="45.32854" lon="5.75534">
        <ele>1519.5</ele>
        <time>2012-05-28T13:10:22Z</time>
      </trkpt>
      <trkpt lat="45.32831" lon="5.75542">
        <ele>1512.29</ele>
        <time>2012-05-28T13:10:52Z</time>
      </trkpt>
      <trkpt lat="45.32811" lon="5.75538">
        <ele>1504.6</ele>
        <time>2012-05-28T13:11:22Z</time>
      </trkpt>
      <trkpt lat="45.32794" lon="5.75546">
        <ele>1496.91</ele>
        <time>2012-05-28T13:11:52Z</time>
      </trkpt>
      <trkpt lat="45.3278" lon="5.75555">
        <ele>1491.62</ele>
        <time>2012-05-28T13:12:22Z</time>
      </trkpt>
      <trkpt lat="45.32769" lon="5.75553">
        <ele>1484.89</ele>
        <time>2012-05-28T13:12:52Z</time>
      </trkpt>
      <trkpt lat="45.32751" lon="5.75542">
        <ele>1479.61</ele>
        <time>2012-05-28T13:13:22Z</time>
      </trkpt>
      <trkpt lat="45.32719" lon="5.75525">
        <ele>1470.95</ele>
        <time>2012-05-28T13:13:52Z</time>
      </trkpt>
      <trkpt lat="45.32685" lon="5.75518">
        <ele>1462.78</ele>
        <time>2012-05-28T13:14:22Z</time>
      </trkpt>
      <trkpt lat="45.32651" lon="5.75493">
        <ele>1454.61</ele>
        <time>2012-05-28T13:14:52Z</time>
      </trkpt>
      <trkpt lat="45.32631" lon="5.75495">
        <ele>1450.29</ele>
        <time>2012-05-28T13:15:22Z</time>
      </trkpt>
      <trkpt lat="45.32616" lon="5.75456">
        <ele>1445</ele>
        <time>2012-05-28T13:15:52Z</time>
      </trkpt>
      <trkpt lat="45.32601" lon="5.75422">
        <ele>1438.75</ele>
        <time>2012-05-28T13:16:22Z</time>
      </trkpt>
      <trkpt lat="45.32593" lon="5.75414">
        <ele>1432.98</ele>
        <time>2012-05-28T13:16:52Z</time>
      </trkpt>
      <trkpt lat="45.32579" lon="5.75386">
        <ele>1426.25</ele>
        <time>2012-05-28T13:17:22Z</time>
      </trkpt>
      <trkpt lat="45.32567" lon="5.75362">
        <ele>1419.04</ele>
        <time>2012-05-28T13:17:52Z</time>
      </trkpt>
      <trkpt lat="45.32561" lon="5.75336">
        <ele>1412.31</ele>
        <time>2012-05-28T13:18:22Z</time>
      </trkpt>
      <trkpt lat="45.32547" lon="5.75302">
        <ele>1406.07</ele>
        <time>2012-05-28T13:18:52Z</time>
      </trkpt>
      <trkpt lat="45.32532" lon="5.7528">
        <ele>1401.74</ele>
        <time>2012-05-28T13:19:22Z</time>
      </trkpt>
      <trkpt lat="45.32521" lon="5.75256">
        <ele>1396.93</ele>
        <time>2012-05-28T13:19:52Z</time>
      </trkpt>
      <trkpt lat="45.32508" lon="5.75234">
        <ele>1391.17</ele>
        <time>2012-05-28T13:20:22Z</time>
      </trkpt>
      <trkpt lat="45.32513" lon="5.75206">
        <ele>1383.96</ele>
        <time>2012-05-28T13:20:52Z</time>
      </trkpt>
      <trkpt lat="45.32517" lon="5.75181">
        <ele>1379.15</ele>
        <time>2012-05-28T13:21:22Z</time>
      </trkpt>
      <trkpt lat="45.32521" lon="5.7516">
        <ele>1376.26</ele>
        <time>2012-05-28T13:21:52Z</time>
      </trkpt>
      <trkpt lat="45.32521" lon="5.75138">
        <ele>1372.42</ele>
        <time>2012-05-28T13:22:22Z</time>
      </trkpt>
      <trkpt lat="45.32517" lon="5.75094">
        <ele>1365.69</ele>
        <time>2012-05-28T13:22:52Z</time>
      </trkpt>
      <trkpt lat="45.32506" lon="5.75061">
        <ele>1358</ele>
        <time>2012-05-28T13:23:22Z</time>
      </trkpt>
      <trkpt lat="45.3251" lon="5.75034">
        <ele>1351.75</ele>
        <time>2012-05-28T13:23:52Z</time>
      </trkpt>
      <trkpt lat="45.32526" lon="5.74991">
        <ele>1347.91</ele>
        <time>2012-05-28T13:24:22Z</time>
      </trkpt>
      <trkpt lat="45.32536" lon="5.74976">
        <ele>1346.46</ele>
        <time>2012-05-28T13:24:52Z</time>
      </trkpt>
      <trkpt lat="45.32553" lon="5.74929">
        <ele>1342.62</ele>
        <time>2012-05-28T13:25:22Z</time>
      </trkpt>
      <trkpt lat="45.32558" lon="5.74881">
        <ele>1336.37</ele>
        <time>2012-05-28T13:25:52Z</time>
      </trkpt>
      <trkpt lat="45.32551" lon="5.74844">
        <ele>1332.04</ele>
        <time>2012-05-28T13:26:22Z</time>
      </trkpt>
      <trkpt lat="45.32547" lon="5.74817">
        <ele>1327.72</ele>
        <time>2012-05-28T13:26:52Z</time>
      </trkpt>
      <trkpt lat="45.32526" lon="5.74771">
        <ele>1320.51</ele>
        <time>2012-05-28T13:27:22Z</time>
      </trkpt>
      <trkpt lat="45.32496" lon="5.74747">
        <ele>1313.3</ele>
        <time>2012-05-28T13:27:52Z</time>
      </trkpt>
      <trkpt lat="45.32467" lon="5.7474">
        <ele>1305.13</ele>
        <time>2012-05-28T13:28:22Z</time>
      </trkpt>
      <trkpt lat="45.32434" lon="5.74733">
        <ele>1298.4</ele>
        <time>2012-05-28T13:28:52Z</time>
      </trkpt>
      <trkpt lat="45.32417" lon="5.74707">
        <ele>1299.36</ele>
        <time>2012-05-28T13:29:22Z</time>
      </trkpt>
      <trkpt lat="45.32388" lon="5.74681">
        <ele>1299.84</ele>
        <time>2012-05-28T13:29:52Z</time>
      </trkpt>
      <trkpt lat="45.32363" lon="5.7465">
        <ele>1299.36</ele>
        <time>2012-05-28T13:30:22Z</time>
      </trkpt>
      <trkpt lat="45.32346" lon="5.74616">
        <ele>1302.24</ele>
        <time>2012-05-28T13:30:52Z</time>
      </trkpt>
      <trkpt lat="45.32347" lon="5.74607">
        <ele>1302.24</ele>
        <time>2012-05-28T13:31:22Z</time>
      </trkpt>
      <trkpt lat="45.32341" lon="5.74561">
        <ele>1306.57</ele>
        <time>2012-05-28T13:31:52Z</time>
      </trkpt>
      <trkpt lat="45.32336" lon="5.74516">
        <ele>1305.13</ele>
        <time>2012-05-28T13:32:22Z</time>
      </trkpt>
      <trkpt lat="45.3232" lon="5.74473">
        <ele>1300.8</ele>
        <time>2012-05-28T13:32:52Z</time>
      </trkpt>
      <trkpt lat="45.32318" lon="5.74433">
        <ele>1295.03</ele>
        <time>2012-05-28T13:33:22Z</time>
      </trkpt>
      <trkpt lat="45.32298" lon="5.74385">
        <ele>1290.71</ele>
        <time>2012-05-28T13:33:52Z</time>
      </trkpt>
      <trkpt lat="45.32288" lon="5.74349">
        <ele>1290.71</ele>
        <time>2012-05-28T13:34:22Z</time>
      </trkpt>
      <trkpt lat="45.32282" lon="5.74298">
        <ele>1288.78</ele>
        <time>2012-05-28T13:34:52Z</time>
      </trkpt>
      <trkpt lat="45.32266" lon="5.74249">
        <ele>1287.34</ele>
        <time>2012-05-28T13:35:22Z</time>
      </trkpt>
      <trkpt lat="45.32252" lon="5.74198">
        <ele>1284.46</ele>
        <time>2012-05-28T13:35:52Z</time>
      </trkpt>
      <trkpt lat="45.32241" lon="5.74147">
        <ele>1280.61</ele>
        <time>2012-05-28T13:36:22Z</time>
      </trkpt>
      <trkpt lat="45.3222" lon="5.74101">
        <ele>1278.21</ele>
        <time>2012-05-28T13:36:52Z</time>
      </trkpt>
      <trkpt lat="45.32199" lon="5.74058">
        <ele>1277.25</ele>
        <time>2012-05-28T13:37:22Z</time>
      </trkpt>
      <trkpt lat="45.32195" lon="5.74028">
        <ele>1275.81</ele>
        <time>2012-05-28T13:37:52Z</time>
      </trkpt>
      <trkpt lat="45.32195" lon="5.7399">
        <ele>1274.36</ele>
        <time>2012-05-28T13:38:22Z</time>
      </trkpt>
      <trkpt lat="45.32196" lon="5.73988">
        <ele>1274.85</ele>
        <time>2012-05-28T13:38:52Z</time>
      </trkpt>
      <trkpt lat="45.32196" lon="5.73988">
        <ele>1274.85</ele>
        <time>2012-05-28T13:39:22Z</time>
      </trkpt>
      <trkpt lat="45.32196" lon="5.73988">
        <ele>1273.88</ele>
        <time>2012-05-28T13:39:52Z</time>
      </trkpt>
      <trkpt lat="45.32196" lon="5.73988">
        <ele>1274.36</ele>
        <time>2012-05-28T13:40:22Z</time>
      </trkpt>
      <trkpt lat="45.32191" lon="5.73995">
        <ele>1273.88</ele>
        <time>2012-05-28T13:40:52Z</time>
      </trkpt>
      <trkpt lat="45.32191" lon="5.73995">
        <ele>1273.4</ele>
        <time>2012-05-28T13:41:22Z</time>
      </trkpt>
      <trkpt lat="45.32191" lon="5.73996">
        <ele>1273.4</ele>
        <time>2012-05-28T13:41:52Z</time>
      </trkpt>
      <trkpt lat="45.32191" lon="5.73994">
        <ele>1273.88</ele>
        <time>2012-05-28T13:42:22Z</time>
      </trkpt>
    </trkseg>
  </trk>
</gpx>